# Wetter Temperatur Luftdruck Luftfeuchtigkeit Sichtweite Windgeschwindigkeit Windrichtung Zeit
1 Clear 23 1013 57 0 1.34 261 05:54 11.07.2020
2 Clear 23 1012 47 10000 5.1 320 05:18 11.07.2020
3 Clear 23 1010 55 0 3.65 358 04:39 11.07.2020
4 Clear 23 1010 56 0 3.52 354 04:19 11.07.2020
5 Clear 24 1012 47 10000 5.1 330 02:53 11.07.2020
6 Clear 24 1012 47 10000 5.1 340 01:57 11.07.2020
7 Clear 24 1012 44 10000 5.1 330 01:21 11.07.2020
8 Clear 24 1013 41 10000 2.6 320 00:55 11.07.2020
9 Clear 24 1013 41 10000 2.6 320 00:36 11.07.2020
10 Clear 24 1011 52 0 1.34 31 00:18 11.07.2020
11 Clear 25 1013 44 10000 4.1 330 23:44 10.07.2020
12 Clear 25 1013 44 10000 3.6 320 23:26 10.07.2020
13 Clear 25 1013 44 10000 3.6 320 22:50 10.07.2020
14 Clear 25 1013 41 10000 3.6 320 22:25 10.07.2020
15 Clear 25 1013 41 10000 4.6 330 21:59 10.07.2020
16 Clear 25 1013 41 10000 4.6 330 21:38 10.07.2020
17 Clear 26 1012 36 10000 5.1 330 21:20 10.07.2020
18 Clear 26 1012 36 10000 5.1 330 20:54 10.07.2020
19 Clear 26 1012 36 10000 5.1 330 20:54 10.07.2020
20 Clear 26 1012 36 10000 5.1 330 20:36 10.07.2020
21 Clear 26 1012 36 10000 5.1 330 20:36 10.07.2020
22 Clear 26 1012 34 10000 5.1 330 20:18 10.07.2020
23 Clear 27 1012 30 10000 6.2 340 19:42 10.07.2020
24 Clear 27 1012 30 10000 5.31 352 19:22 10.07.2020
25 Clear 27 1012 30 10000 5.31 352 18:58 10.07.2020
26 Clear 27 1012 30 10000 5.31 352 18:58 10.07.2020
27 Clear 28 1012 30 10000 5.31 352 18:37 10.07.2020
28 Clear 28 1013 43 0 4.02 336 18:18 10.07.2020
29 Clear 28 1013 43 0 4.47 347 17:43 10.07.2020
30 Clear 29 1012 27 10000 6.2 350 17:23 10.07.2020
31 Clear 29 1012 27 10000 6.2 350 16:57 10.07.2020
32 Clear 30 1012 29 10000 6.2 340 16:39 10.07.2020
33 Clear 29 1012 29 10000 6.2 340 16:18 10.07.2020
34 Clear 30 1012 27 10000 7.2 360 15:44 10.07.2020
35 Clear 30 1012 27 10000 7.2 360 15:21 10.07.2020
36 Clear 30 1012 27 10000 7.2 360 14:54 10.07.2020
37 Clear 30 1012 27 10000 7.2 360 14:36 10.07.2020
38 Clear 30 1012 31 10000 8.2 340 14:18 10.07.2020
39 Clear 30 1012 31 10000 8.2 340 13:54 10.07.2020
40 Clear 30 1012 31 10000 8.2 340 13:36 10.07.2020
41 Clear 30 1012 31 10000 7.2 360 13:18 10.07.2020
42 Clear 29 1012 31 10000 6.7 340 12:42 10.07.2020
43 Clear 29 1012 30 10000 7.2 340 12:23 10.07.2020
44 Clear 29 1012 33 10000 7.2 330 11:58 10.07.2020
45 Clear 28 1011 36 0 2.68 5 11:38 10.07.2020
46 Clear 28 1013 30 10000 6.2 350 11:18 10.07.2020
47 Clear 28 1013 35 10000 6.2 350 10:42 10.07.2020
48 Clear 29 1013 35 10000 6.2 350 10:21 10.07.2020
49 Clear 28 1013 34 10000 7.7 340 09:59 10.07.2020
50 Clear 27 1013 34 10000 7.7 340 09:37 10.07.2020
51 Clear 26 1013 42 10000 7.2 340 09:19 10.07.2020
52 Clear 26 1013 42 10000 7.2 340 08:56 10.07.2020
53 Clear 26 1013 50 10000 7.2 330 08:37 10.07.2020
54 Clear 26 1013 50 10000 7.2 330 08:19 10.07.2020
55 Clouds 25 1013 53 10000 6.7 340 07:41 10.07.2020
56 Clouds 25 1013 53 10000 6.2 330 07:22 10.07.2020
57 Clouds 24 1012 57 10000 5.7 330 06:49 10.07.2020
58 Clear 23 1012 53 10000 4.1 330 05:55 10.07.2020
59 Clear 23 1013 53 10000 3.1 340 04:39 10.07.2020
60 Clear 23 1013 50 10000 3.1 340 03:37 10.07.2020
61 Clear 23 1013 50 10000 3.1 340 02:52 10.07.2020
62 Clear 23 1014 47 10000 2.1 340 01:49 10.07.2020
63 Clear 23 1014 47 10000 3.1 340 00:48 10.07.2020
64 Clear 23 1014 47 10000 3.1 340 00:20 10.07.2020
65 Clear 24 1014 44 10000 4.1 330 23:46 09.07.2020
66 Clear 24 1014 44 10000 3.1 340 23:22 09.07.2020
67 Clear 24 1014 41 10000 3.1 340 22:58 09.07.2020
68 Clear 24 1014 41 10000 3.1 340 22:40 09.07.2020
69 Clear 24 1014 41 10000 3.1 340 22:21 09.07.2020
70 Clear 24 1014 41 10000 3.1 340 21:56 09.07.2020
71 Clear 24 1014 41 10000 4.1 340 21:38 09.07.2020
72 Clear 24 1014 41 10000 4.1 340 21:38 09.07.2020
73 Clear 24 1014 39 10000 5.1 340 21:19 09.07.2020
74 Clear 25 1014 39 10000 5.1 340 20:45 09.07.2020
75 Clear 25 1014 39 10000 5.1 340 20:26 09.07.2020
76 Clear 25 1013 39 10000 5.7 330 19:58 09.07.2020
77 Clear 26 1013 39 10000 5.7 330 19:40 09.07.2020
78 Clear 26 1013 36 10000 6.7 330 19:21 09.07.2020
79 Clear 27 1013 37 10000 6.2 330 18:43 09.07.2020
80 Clear 27 1013 37 10000 6.2 330 18:22 09.07.2020
81 Clouds 28 1011 35 10000 7.2 330 17:56 09.07.2020
82 Clouds 28 1011 35 10000 7.2 330 17:38 09.07.2020
83 Clouds 28 1013 35 10000 7.2 340 17:19 09.07.2020
84 Clouds 28 1013 35 10000 7.2 340 16:55 09.07.2020
85 Clouds 28 1013 33 10000 6.2 350 16:37 09.07.2020
86 Clouds 29 1013 33 10000 7.2 360 16:19 09.07.2020
87 Clouds 29 1014 33 10000 7.7 340 15:55 09.07.2020
88 Clouds 29 1014 33 10000 7.7 340 15:36 09.07.2020
89 Clouds 29 1014 33 10000 7.7 340 15:18 09.07.2020
90 Clouds 29 1014 33 10000 5.7 340 14:57 09.07.2020
91 Clouds 29 1014 33 10000 5.7 340 14:38 09.07.2020
92 Clouds 29 1014 30 10000 5.1 330 14:19 09.07.2020
93 Clouds 29 1014 30 10000 5.1 330 13:41 09.07.2020
94 Clouds 29 1014 30 10000 6.2 350 13:21 09.07.2020
95 Clouds 28 1014 30 10000 6.7 350 12:59 09.07.2020
96 Clouds 28 1014 30 10000 6.7 350 12:39 09.07.2020
97 Clear 28 1013 42 0 2.68 21 12:20 09.07.2020
98 Clouds 28 1015 35 10000 6.7 340 11:55 09.07.2020
99 Clouds 28 1015 35 10000 6.7 340 11:37 09.07.2020
100 Clouds 27 1015 35 10000 6.2 350 11:18 09.07.2020
101 Clouds 27 1015 35 10000 6.2 350 11:18 09.07.2020
102 Clear 27 1016 46 0 3.58 73 10:55 09.07.2020
103 Clear 27 1016 46 0 4.02 13 10:37 09.07.2020
104 Clouds 27 1015 39 10000 5.7 350 10:18 09.07.2020
105 Clear 26 1016 49 0 4.47 19 09:41 09.07.2020
106 Clouds 26 1015 42 10000 6.46 359 09:21 09.07.2020
107 Clear 25 1016 51 0 5.36 5 08:45 09.07.2020
108 Clouds 25 1015 54 10000 5.38 359 08:25 09.07.2020
109 Clouds 25 1014 64 10000 5.38 359 07:47 09.07.2020
110 Clouds 24 1014 60 10000 4.94 2 07:25 09.07.2020
111 Clouds 24 1014 60 10000 4.94 2 06:55 09.07.2020
112 Clouds 23 1014 60 10000 3.83 3 06:20 09.07.2020
113 Clouds 23 1014 57 10000 3.83 3 05:46 09.07.2020
114 Clouds 23 1013 60 10000 3.8 5 04:28 09.07.2020
115 Clouds 24 1013 57 10000 3.4 4 02:33 09.07.2020
116 Clouds 24 1014 57 10000 3.39 6 01:39 09.07.2020
117 Clouds 24 1014 57 10000 3.39 6 00:56 09.07.2020
118 Clouds 24 1014 57 10000 3.4 1 00:25 09.07.2020
119 Clouds 24 1014 57 10000 3.4 1 23:58 08.07.2020
120 Clouds 24 1014 50 10000 3.4 1 23:39 08.07.2020
121 Clouds 25 1013 50 10000 3.61 7 23:21 08.07.2020
122 Clouds 25 1013 50 10000 3.61 7 22:54 08.07.2020
123 Clouds 25 1013 50 10000 3.61 7 22:36 08.07.2020
124 Clouds 25 1013 51 10000 4.07 13 22:18 08.07.2020
125 Clouds 25 1012 51 10000 4.07 13 21:39 08.07.2020
126 Clouds 25 1012 51 10000 4.52 19 21:21 08.07.2020
127 Clouds 25 1012 51 10000 4.22 18 20:58 08.07.2020
128 Clouds 26 1012 51 10000 4.22 18 20:39 08.07.2020
129 Clouds 26 1012 48 10000 4.77 23 20:21 08.07.2020
130 Clear 27 1012 45 10000 4.77 23 19:43 08.07.2020
131 Clear 27 1013 56 0 4.47 360 19:25 08.07.2020
132 Clear 27 1013 55 0 3.58 63 18:58 08.07.2020
133 Clear 27 1013 54 0 4.92 39 18:40 08.07.2020
134 Clear 28 1011 38 10000 6.03 30 18:20 08.07.2020
135 Clouds 28 1011 38 10000 6.03 30 17:56 08.07.2020
136 Clouds 29 1011 38 10000 6.03 30 17:38 08.07.2020
137 Clear 29 1012 51 0 3.58 360 17:19 08.07.2020
138 Clear 29 1012 51 0 4.92 55 16:55 08.07.2020
139 Clear 29 1012 51 0 4.47 15 16:36 08.07.2020
140 Clear 29 1012 50 0 3.58 65 16:18 08.07.2020
141 Clear 30 1012 50 0 4.02 101 15:56 08.07.2020
142 Clear 30 1012 50 0 4.02 19 15:37 08.07.2020
143 Clear 30 1011 45 0 4.47 55 15:18 08.07.2020
144 Clouds 30 1011 35 10000 7.15 25 14:42 08.07.2020
145 Clear 30 1011 38 10000 7.62 21 14:20 08.07.2020
146 Clear 30 1011 38 10000 7.62 21 13:46 08.07.2020
147 Clear 30 1011 38 10000 7.36 14 13:27 08.07.2020
148 Clear 29 1010 49 0 2.24 36 12:58 08.07.2020
149 Clear 29 1011 40 10000 7.36 14 12:40 08.07.2020
150 Clear 29 1011 42 10000 6.8 7 12:19 08.07.2020
151 Clear 29 1011 42 10000 6.8 7 11:39 08.07.2020
152 Clear 29 1010 42 10000 5.83 1 11:21 08.07.2020
153 Clear 28 1010 42 10000 5.83 1 10:59 08.07.2020
154 Clear 28 1010 42 10000 5.83 1 10:41 08.07.2020
155 Clouds 28 1010 48 10000 5.71 1 10:22 08.07.2020
156 Clouds 28 1010 51 10000 5.71 1 09:44 08.07.2020
157 Clouds 27 1010 48 10000 5.77 4 09:24 08.07.2020
158 Clouds 26 1010 48 10000 6.93 10 08:44 08.07.2020
159 Clouds 25 1010 54 10000 7.04 13 08:25 08.07.2020
160 Clouds 26 1010 54 10000 7.04 13 08:25 08.07.2020
161 Clouds 26 1010 54 10000 7.04 13 07:50 08.07.2020
162 Clouds 26 1009 54 10000 6.16 13 07:24 08.07.2020
163 Clouds 25 1009 54 10000 6.16 13 06:58 08.07.2020
164 Clouds 25 1009 54 10000 5.29 12 06:39 08.07.2020
165 Clouds 25 1008 57 10000 5.29 12 06:20 08.07.2020
166 Clouds 25 1008 57 10000 5.29 12 05:38 08.07.2020
167 Clouds 25 1008 50 10000 5.01 7 04:38 08.07.2020
168 Clouds 26 1007 47 10000 4.49 6 03:25 08.07.2020
169 Clear 26 1008 71 0 0.45 256 01:57 08.07.2020
170 Clear 26 1008 73 0 4.78 3 01:37 08.07.2020
171 Clear 26 1008 77 0 4.98 3 00:39 08.07.2020
172 Clear 25 1008 77 0 4.56 355 00:19 08.07.2020
173 Clear 26 1008 78 0 4.56 355 23:41 07.07.2020
174 Clear 26 1008 79 0 3.19 0 23:21 07.07.2020
175 Clear 26 1008 80 0 3.19 0 22:54 07.07.2020
176 Clear 26 1007 79 0 3.19 0 22:36 07.07.2020
177 Clear 26 1007 77 0 2.51 360 22:18 07.07.2020
178 Clear 26 1007 77 0 3.23 13 21:41 07.07.2020
179 Clear 26 1007 77 0 3.23 13 21:41 07.07.2020
180 Clear 27 1007 77 0 2.77 7 21:22 07.07.2020
181 Clear 27 1007 76 0 2.75 18 20:59 07.07.2020
182 Clouds 27 1005 42 10000 2.75 18 20:41 07.07.2020
183 Clouds 27 1006 75 0 3.81 12 20:23 07.07.2020
184 Clouds 28 1004 40 10000 3.81 12 19:55 07.07.2020
185 Clouds 28 1004 40 10000 3.81 12 19:36 07.07.2020
186 Clouds 28 1004 42 10000 4.32 9 19:18 07.07.2020
187 Clouds 29 1005 73 0 0.89 225 18:55 07.07.2020
188 Clouds 29 1003 43 10000 2.64 359 18:36 07.07.2020
189 Clouds 29 1003 43 10000 2.64 359 18:18 07.07.2020
190 Rain 29 1003 51 10000 2.64 359 17:43 07.07.2020
191 Rain 29 1002 51 10000 1.84 11 17:23 07.07.2020
192 Rain 29 1004 73 0 0.89 246 16:58 07.07.2020
193 Clouds 29 1002 45 10000 1.84 11 16:40 07.07.2020
194 Clouds 29 1002 45 10000 2.27 355 16:21 07.07.2020
195 Clouds 30 1002 51 10000 2.27 355 15:55 07.07.2020
196 Clouds 30 1002 58 10000 3.55 1 15:36 07.07.2020
197 Rain 30 1002 58 10000 3.55 1 15:18 07.07.2020
198 Rain 29 1002 58 10000 3.26 1 14:42 07.07.2020
199 Rain 30 1002 38 10000 3.93 4 14:23 07.07.2020
200 Clouds 30 1002 38 10000 3.93 4 13:43 07.07.2020
201 Clouds 30 1002 38 10000 3.81 356 13:20 07.07.2020
202 Clouds 29 1002 40 10000 3.81 356 12:56 07.07.2020
203 Rain 28 1004 66 0 0.45 181 12:36 07.07.2020
204 Rain 28 1004 66 0 0.45 181 12:36 07.07.2020
205 Clouds 28 1002 45 10000 3.8 352 12:18 07.07.2020
206 Rain 28 1002 45 10000 3.8 352 11:42 07.07.2020
207 Rain 28 1001 60 0 1.34 136 11:21 07.07.2020
208 Clouds 29 1001 43 10000 3.47 342 10:58 07.07.2020
209 Clouds 28 1001 51 10000 3.47 342 10:39 07.07.2020
210 Clouds 28 1001 51 10000 2.8 335 10:20 07.07.2020
211 Clouds 29 1001 51 10000 2.8 335 09:42 07.07.2020
212 Clouds 28 1001 54 10000 2.8 323 09:21 07.07.2020
213 Clouds 28 1001 54 10000 2.44 321 08:54 07.07.2020
214 Clouds 27 1001 54 10000 2.44 321 08:36 07.07.2020
215 Rain 27 1002 61 0 1.79 24 08:18 07.07.2020
216 Clouds 27 1000 57 10000 2.79 332 07:38 07.07.2020
217 Clouds 26 1000 57 10000 3.05 340 07:19 07.07.2020
218 Clouds 26 1000 57 10000 3.05 340 06:41 07.07.2020
219 Clear 25 999 95 0 3.05 345 06:22 07.07.2020
220 Clear 25 999 64 0 0.45 170 05:43 07.07.2020
221 Clear 25 999 64 0 3.62 345 04:52 07.07.2020
222 Clear 25 998 67 0 0.45 150 03:49 07.07.2020
223 Clouds 25 999 57 10000 3.16 338 03:30 07.07.2020
224 Clouds 26 1001 69 0 3.12 344 01:50 07.07.2020
225 Clouds 26 1000 54 10000 3.27 345 00:59 07.07.2020
226 Clouds 26 1000 54 10000 3.27 345 00:40 07.07.2020
227 Clouds 26 1000 54 10000 3.04 329 00:20 07.07.2020
228 Clouds 27 1001 54 10000 3.04 329 23:44 06.07.2020
229 Clouds 27 1001 54 10000 3.04 329 23:44 06.07.2020
230 Clouds 27 1001 54 10000 3.22 330 23:25 06.07.2020
231 Clouds 27 1001 54 10000 3.22 330 22:59 06.07.2020
232 Clouds 27 1001 54 10000 3.04 319 22:39 06.07.2020
233 Clouds 27 1001 57 10000 3.04 319 22:18 06.07.2020
234 Clouds 27 1001 54 10000 3.04 319 21:56 06.07.2020
235 Clouds 27 1001 54 10000 3.04 319 21:37 06.07.2020
236 Clouds 28 1001 54 10000 3.02 327 21:18 06.07.2020
237 Clouds 28 1001 54 10000 3.02 327 20:41 06.07.2020
238 Clouds 28 1001 51 10000 2.9 325 20:22 06.07.2020
239 Clouds 29 1001 51 10000 2.9 325 19:59 06.07.2020
240 Clouds 29 1001 51 10000 2.9 325 19:41 06.07.2020
241 Clouds 29 1001 48 10000 3.65 334 19:23 06.07.2020
242 Clouds 29 1001 51 10000 3.65 334 18:59 06.07.2020
243 Clouds 29 1001 51 10000 3.65 334 18:41 06.07.2020
244 Clouds 30 1001 45 10000 4.4 338 18:22 06.07.2020
245 Clouds 30 1001 48 10000 4.4 338 17:57 06.07.2020
246 Clouds 30 1001 48 10000 4.4 338 17:38 06.07.2020
247 Clouds 30 1000 43 10000 5.07 339 17:19 06.07.2020
248 Clouds 30 1001 40 10000 5.07 339 16:43 06.07.2020
249 Clouds 30 1001 43 10000 5.38 338 16:24 06.07.2020
250 Clouds 30 1001 43 10000 5.38 338 16:24 06.07.2020
251 Clouds 30 1001 40 10000 5.38 338 15:57 06.07.2020
252 Clouds 30 1001 40 10000 5.38 338 15:38 06.07.2020
253 Clouds 30 1001 45 10000 5.46 339 15:20 06.07.2020
254 Clouds 30 1001 45 10000 5.46 339 14:55 06.07.2020
255 Clouds 30 1001 45 10000 6.2 343 14:36 06.07.2020
256 Clouds 30 1002 45 10000 6.44 344 14:18 06.07.2020
257 Clouds 30 1002 45 10000 6.44 344 13:43 06.07.2020
258 Clouds 30 1002 48 10000 6.68 352 13:24 06.07.2020
259 Clouds 30 1002 48 10000 6.68 352 12:54 06.07.2020
260 Clouds 30 1002 48 10000 6.68 352 12:36 06.07.2020
261 Clouds 29 1002 48 10000 6.45 345 12:18 06.07.2020
262 Clouds 29 1003 51 10000 6.45 345 11:41 06.07.2020
263 Clouds 29 1003 54 10000 6.04 347 11:23 06.07.2020
264 Clouds 28 1003 54 10000 6.04 347 10:59 06.07.2020
265 Clouds 28 1003 54 10000 6.04 347 10:40 06.07.2020
266 Clouds 28 1003 54 10000 5.5 346 10:21 06.07.2020
267 Clouds 28 1003 57 10000 5.5 346 09:55 06.07.2020
268 Clouds 27 1003 57 10000 5.69 348 09:37 06.07.2020
269 Clouds 27 1003 57 10000 5.38 355 09:18 06.07.2020
270 Clouds 26 1003 57 10000 4.35 343 08:40 06.07.2020
271 Clouds 26 1003 57 10000 4.35 343 08:22 06.07.2020
272 Clouds 26 1003 61 10000 4.35 343 07:50 06.07.2020
273 Clouds 25 1003 61 10000 4.54 350 07:30 06.07.2020
274 Clouds 25 1003 61 10000 4.54 350 06:56 06.07.2020
275 Clouds 25 1003 61 10000 4.54 350 06:37 06.07.2020
276 Clouds 24 1003 60 10000 4.41 346 05:55 06.07.2020
277 Clouds 24 1003 60 10000 4.52 345 05:28 06.07.2020
278 Clouds 24 1004 61 10000 4.41 345 03:58 06.07.2020
279 Clouds 25 1004 61 10000 3.53 340 02:44 06.07.2020
280 Clouds 26 1005 65 10000 3.79 338 01:59 06.07.2020
281 Clouds 26 1005 61 10000 3.53 332 00:51 06.07.2020
282 Clouds 26 1006 57 10000 3.75 333 00:25 06.07.2020
283 Clouds 26 1006 57 10000 3.75 333 23:58 05.07.2020
284 Clouds 26 1006 57 10000 3.75 333 23:39 05.07.2020
285 Clouds 27 1006 57 10000 3.61 339 23:21 05.07.2020
286 Clouds 27 1006 57 10000 3.61 339 22:57 05.07.2020
287 Clouds 27 1005 54 10000 3.61 339 22:37 05.07.2020
288 Clouds 27 1005 54 10000 3.65 339 22:18 05.07.2020
289 Clouds 27 1005 57 10000 3.65 339 21:41 05.07.2020
290 Clouds 27 1006 61 10000 4.06 325 21:19 05.07.2020
291 Clouds 27 1005 61 10000 4.06 325 20:59 05.07.2020
292 Clouds 28 1005 61 10000 4.06 325 20:41 05.07.2020
293 Clouds 28 1005 61 10000 4.1 333 20:22 05.07.2020
294 Clouds 28 1005 57 10000 4.1 333 19:57 05.07.2020
295 Clouds 28 1005 57 10000 4.1 333 19:39 05.07.2020
296 Clouds 29 1005 54 10000 5.13 2 19:19 05.07.2020
297 Clouds 29 1006 54 10000 5.13 2 18:42 05.07.2020
298 Clouds 30 1006 54 10000 6.04 21 18:23 05.07.2020
299 Clouds 31 1005 58 10000 6.04 21 17:59 05.07.2020
300 Clouds 31 1005 58 10000 6.04 21 17:41 05.07.2020
301 Clear 32 1006 44 0 3.13 22 17:19 05.07.2020
302 Clouds 32 1005 34 10000 6.6 28 16:44 05.07.2020
303 Clouds 32 1005 32 10000 6.28 20 16:25 05.07.2020
304 Clouds 33 1005 32 10000 6.28 20 15:58 05.07.2020
305 Clear 33 1007 41 0 3.58 5 15:38 05.07.2020
306 Clear 33 1007 41 0 3.13 5 15:19 05.07.2020
307 Clear 33 1007 42 0 4.02 22 14:42 05.07.2020
308 Clear 33 1007 42 0 4.02 54 14:23 05.07.2020
309 Clear 32 1007 43 0 4.47 345 13:58 05.07.2020
310 Clear 32 1006 40 0 3.13 62 13:39 05.07.2020
311 Clear 32 1007 46 0 3.58 30 13:20 05.07.2020
312 Clouds 32 1007 38 10000 6.01 4 12:42 05.07.2020
313 Clouds 32 1007 38 10000 6.27 2 12:20 05.07.2020
314 Clouds 32 1007 41 10000 6.27 2 11:55 05.07.2020
315 Clouds 31 1007 41 10000 6.27 2 11:37 05.07.2020
316 Clear 31 1007 43 10000 5.84 357 11:18 05.07.2020
317 Clear 31 1007 43 10000 5.84 357 10:42 05.07.2020
318 Clear 30 1007 45 10000 5.16 357 10:21 05.07.2020
319 Clear 30 1008 48 10000 5.16 357 09:59 05.07.2020
320 Clear 30 1008 48 10000 5.16 357 09:41 05.07.2020
321 Clear 29 1008 51 10000 5.24 5 09:20 05.07.2020
322 Clear 29 1008 51 10000 5.24 5 08:55 05.07.2020
323 Clear 29 1008 51 10000 5.24 5 08:37 05.07.2020
324 Clear 28 1008 54 10000 4.53 7 07:56 05.07.2020
325 Clear 28 1008 54 10000 3.59 4 07:30 05.07.2020
326 Clear 28 1008 54 10000 3.59 4 06:58 05.07.2020
327 Clear 27 1007 54 10000 3.13 8 06:29 05.07.2020
328 Clouds 26 1007 65 10000 3.02 7 04:24 05.07.2020
329 Clouds 27 1008 61 10000 2.74 5 02:59 05.07.2020
330 Clouds 27 1008 61 10000 2.63 5 02:37 05.07.2020
331 Clouds 27 1008 65 10000 2.14 355 01:44 05.07.2020
332 Clouds 27 1008 61 10000 1.87 351 01:26 05.07.2020
333 Clouds 27 1008 65 10000 1.87 351 00:51 05.07.2020
334 Clouds 27 1008 61 10000 1.5 351 00:30 05.07.2020
335 Clouds 27 1008 61 10000 1.5 351 23:57 04.07.2020
336 Clouds 27 1008 61 10000 0.87 334 23:33 04.07.2020
337 Clouds 28 1008 58 10000 0.87 334 22:59 04.07.2020
338 Clouds 27 1008 58 10000 0.87 334 22:41 04.07.2020
339 Clouds 28 1008 54 10000 0.77 281 22:23 04.07.2020
340 Clouds 28 1008 54 10000 0.77 281 21:58 04.07.2020
341 Clouds 28 1008 54 10000 0.77 281 21:40 04.07.2020
342 Clouds 29 1008 54 10000 0.93 241 21:22 04.07.2020
343 Clouds 29 1008 54 10000 1.26 236 20:43 04.07.2020
344 Clouds 30 1008 51 10000 1.74 236 20:22 04.07.2020
345 Clouds 30 1008 51 10000 1.74 236 19:58 04.07.2020
346 Clouds 30 1008 51 10000 1.74 236 19:39 04.07.2020
347 Clouds 30 1008 55 10000 2.72 241 19:21 04.07.2020
348 Clouds 30 1008 55 10000 2.72 241 19:21 04.07.2020
349 Clouds 31 1008 55 10000 2.72 241 18:46 04.07.2020
350 Clouds 32 1008 52 10000 1.08 219 18:23 04.07.2020
351 Clouds 32 1008 45 10000 1.08 219 17:56 04.07.2020
352 Clouds 33 1008 45 10000 1.08 219 17:38 04.07.2020
353 Clouds 33 1008 43 10000 1.12 136 17:19 04.07.2020
354 Clouds 34 1008 43 10000 1.12 136 16:56 04.07.2020
355 Clouds 34 1008 43 10000 1.12 136 16:36 04.07.2020
356 Clouds 34 1008 43 10000 1.12 136 16:36 04.07.2020
357 Clouds 34 1008 36 10000 1.4 118 16:18 04.07.2020
358 Clouds 34 1008 32 10000 1.4 118 15:41 04.07.2020
359 Clouds 34 1008 32 10000 0.99 139 15:23 04.07.2020
360 Clouds 34 1008 32 10000 0.99 139 14:57 04.07.2020
361 Clouds 34 1008 36 10000 0.99 139 14:37 04.07.2020
362 Clouds 34 1008 30 10000 1.05 143 14:18 04.07.2020
363 Clouds 34 1008 30 10000 1.05 143 13:43 04.07.2020
364 Clouds 34 1009 32 10000 0.36 61 13:20 04.07.2020
365 Clouds 34 1009 32 10000 0.36 61 12:59 04.07.2020
366 Clouds 34 1009 34 10000 0.36 61 12:40 04.07.2020
367 Clouds 33 1009 36 10000 1.38 5 12:19 04.07.2020
368 Clear 33 1011 49 0 1.34 185 11:45 04.07.2020
369 Clouds 33 1009 34 10000 1.99 355 11:24 04.07.2020
370 Clear 33 1009 36 10000 1.99 355 10:57 04.07.2020
371 Clear 33 1009 36 10000 1.99 355 10:38 04.07.2020
372 Clear 32 1009 36 10000 1.85 357 10:19 04.07.2020
373 Clear 32 1009 38 10000 1.85 357 09:54 04.07.2020
374 Clear 32 1009 38 10000 2.88 4 09:36 04.07.2020
375 Clear 31 1009 40 10000 2.45 359 09:18 04.07.2020
376 Clear 30 1011 48 0 0.89 275 08:43 04.07.2020
377 Clear 30 1009 40 10000 2.05 358 08:24 04.07.2020
378 Clear 29 1009 42 10000 2.05 358 07:42 04.07.2020
379 Clear 29 1009 45 10000 2.05 4 07:20 04.07.2020
380 Clear 27 1009 48 10000 2.05 4 06:40 04.07.2020
381 Clear 26 1009 51 10000 2.07 8 06:20 04.07.2020
382 Clear 26 1009 57 10000 1.97 14 05:31 04.07.2020
383 Clear 26 1009 65 10000 1.58 11 04:22 04.07.2020
384 Clear 26 1008 57 10000 0.94 344 02:45 04.07.2020
385 Clear 26 1008 57 10000 0.85 318 01:42 04.07.2020
386 Clear 27 1008 54 10000 0.75 295 00:59 04.07.2020
387 Clear 27 1008 54 10000 0.75 295 00:40 04.07.2020
388 Clear 27 1009 57 10000 0.72 283 00:21 04.07.2020
389 Clear 27 1009 57 10000 0.72 283 23:39 03.07.2020
390 Clear 28 1008 58 10000 0.78 285 23:18 03.07.2020
391 Clear 28 1008 58 10000 0.78 285 23:18 03.07.2020
392 Clear 28 1008 58 10000 0.78 285 23:18 03.07.2020
393 Clear 28 1008 58 10000 0.78 285 22:42 03.07.2020
394 Clear 28 1008 51 10000 0.98 314 22:24 03.07.2020
395 Clear 28 1008 51 10000 0.98 314 21:59 03.07.2020
396 Clear 28 1008 51 10000 0.98 314 21:59 03.07.2020
397 Clear 28 1008 51 10000 0.98 314 21:38 03.07.2020
398 Clear 29 1007 58 10000 0.62 291 21:19 03.07.2020
399 Clear 29 1007 58 10000 0.62 291 20:43 03.07.2020
400 Clear 30 1007 48 10000 0.69 49 20:25 03.07.2020
401 Clear 31 1006 43 10000 0.69 49 19:59 03.07.2020
402 Clear 31 1006 43 10000 0.69 49 19:39 03.07.2020
403 Clear 32 1006 40 10000 1.55 46 19:18 03.07.2020
404 Clear 33 1006 36 10000 1.55 46 18:45 03.07.2020
405 Clouds 33 1006 38 10000 2.33 25 18:24 03.07.2020
406 Clouds 34 1005 36 10000 2.33 25 17:56 03.07.2020
407 Clouds 34 1005 36 10000 2.33 25 17:38 03.07.2020
408 Clouds 34 1006 36 10000 2.49 19 17:20 03.07.2020
409 Clouds 34 1006 36 10000 2.49 19 16:40 03.07.2020
410 Clouds 34 1006 36 10000 2.01 350 16:21 03.07.2020
411 Clouds 34 1006 36 10000 2.01 350 15:45 03.07.2020
412 Clouds 34 1006 30 10000 2.25 4 15:24 03.07.2020
413 Clouds 34 1006 30 10000 2.25 4 14:57 03.07.2020
414 Clear 34 1008 46 0 2.24 211 14:39 03.07.2020
415 Clear 34 1008 46 0 1.79 157 14:19 03.07.2020
416 Clear 34 1008 47 0 1.34 189 13:47 03.07.2020
417 Clear 33 1006 39 0 1.34 49 13:28 03.07.2020
418 Clear 34 1008 44 0 2.24 15 12:45 03.07.2020
419 Clear 33 1006 41 0 1.34 5 12:24 03.07.2020
420 Clear 33 1008 46 0 2.24 72 11:58 03.07.2020
421 Clear 33 1008 46 0 3.58 360 11:40 03.07.2020
422 Clear 32 1007 36 10000 4.59 11 11:21 03.07.2020
423 Clear 32 1007 38 10000 4.59 11 10:55 03.07.2020
424 Clear 32 1007 38 10000 4.59 11 10:37 03.07.2020
425 Clear 32 1007 40 10000 4.51 3 10:18 03.07.2020
426 Clear 31 1007 40 10000 4.51 3 09:54 03.07.2020
427 Clear 31 1007 40 10000 3.79 360 09:36 03.07.2020
428 Clear 30 1007 43 10000 3.79 360 09:18 03.07.2020
429 Clear 29 1007 43 10000 3.12 351 08:39 03.07.2020
430 Clear 30 1007 40 10000 3.12 351 08:18 03.07.2020
431 Clear 29 1007 45 10000 3.12 351 07:47 03.07.2020
432 Clear 29 1007 45 10000 2.85 346 07:26 03.07.2020
433 Clear 27 1007 50 10000 2.85 346 06:47 03.07.2020
434 Clear 26 1007 50 10000 2.97 350 05:59 03.07.2020
435 Clear 26 1007 44 10000 3.08 346 04:48 03.07.2020
436 Clear 26 1007 42 10000 3.02 353 03:26 03.07.2020
437 Clear 26 1007 42 10000 3.02 353 02:45 03.07.2020
438 Clear 26 1007 39 10000 2.48 348 02:23 03.07.2020
439 Clear 27 1007 39 10000 2.24 343 01:28 03.07.2020
440 Clear 26 1007 39 10000 2.24 343 00:44 03.07.2020
441 Clear 27 1007 39 10000 1.98 344 00:26 03.07.2020
442 Clear 27 1008 39 10000 1.98 344 23:44 02.07.2020
443 Clear 27 1008 39 10000 2.07 349 23:20 02.07.2020
444 Clear 27 1008 39 10000 2.07 349 22:57 02.07.2020
445 Clear 27 1007 35 10000 2.07 349 22:39 02.07.2020
446 Clear 28 1007 33 10000 2.31 3 22:20 02.07.2020
447 Clear 28 1007 33 10000 2.31 3 21:54 02.07.2020
448 Clear 29 1007 31 10000 2.56 18 21:36 02.07.2020
449 Clear 29 1007 31 10000 2.72 10 21:18 02.07.2020
450 Clear 29 1007 31 10000 2.72 10 20:42 02.07.2020
451 Clear 30 1006 29 10000 3.28 24 20:21 02.07.2020
452 Clear 30 1006 29 10000 3.28 24 19:59 02.07.2020
453 Clear 31 1006 27 10000 3.28 24 19:38 02.07.2020
454 Clear 32 1006 24 10000 4.49 30 19:20 02.07.2020
455 Clear 32 1008 40 0 2.68 84 18:57 02.07.2020
456 Clear 33 1008 39 0 3.13 9 18:39 02.07.2020
457 Clear 33 1008 37 0 3.13 27 18:20 02.07.2020
458 Clear 33 1007 34 0 4.61 24 17:40 02.07.2020
459 Clear 34 1006 25 10000 5.73 19 17:20 02.07.2020
460 Clear 34 1006 25 10000 5.73 19 17:20 02.07.2020
461 Clear 34 1005 33 0 1.79 55 16:56 02.07.2020
462 Clear 34 1008 40 0 0.89 209 16:38 02.07.2020
463 Clear 34 1008 40 0 1.34 75 16:19 02.07.2020
464 Clear 35 1007 25 10000 6.13 16 15:55 02.07.2020
465 Clear 35 1007 25 10000 6.08 9 15:36 02.07.2020
466 Clear 35 1007 25 10000 6.08 9 15:36 02.07.2020
467 Clear 35 1007 26 10000 6.08 9 15:18 02.07.2020
468 Clear 34 1007 26 10000 6.08 9 14:42 02.07.2020
469 Clear 34 1007 25 10000 6.03 5 14:19 02.07.2020
470 Clear 34 1007 25 10000 6.03 5 13:55 02.07.2020
471 Clear 34 1007 25 10000 6.03 5 13:36 02.07.2020
472 Clear 34 1009 38 0 2.68 109 13:18 02.07.2020
473 Clear 33 1009 39 0 1.79 355 12:40 02.07.2020
474 Clear 33 1007 36 0 1.34 348 12:21 02.07.2020
475 Clear 33 1009 40 0 2.24 39 11:45 02.07.2020
476 Clear 32 1009 42 0 3.13 5 11:27 02.07.2020
477 Clear 32 1009 41 0 2.68 90 10:58 02.07.2020
478 Clear 32 1009 41 0 4.47 28 10:39 02.07.2020
479 Clear 32 1008 33 10000 4.7 1 10:21 02.07.2020
480 Clear 32 1009 33 10000 4.7 1 09:43 02.07.2020
481 Clear 29 1009 38 10000 4.42 1 09:22 02.07.2020
482 Clear 31 1009 38 10000 4.42 1 08:58 02.07.2020
483 Clear 30 1009 38 10000 4.42 1 08:39 02.07.2020
484 Clear 30 1009 38 10000 3.88 3 08:19 02.07.2020
485 Clear 29 1009 40 10000 3.88 3 07:41 02.07.2020
486 Clear 29 1009 42 10000 3.35 358 07:20 02.07.2020
487 Clear 28 1009 47 10000 3.35 358 06:41 02.07.2020
488 Clear 27 1009 47 10000 3.3 357 06:20 02.07.2020
489 Clear 26 1008 50 10000 3.3 357 05:47 02.07.2020
490 Clear 27 1008 44 10000 3.14 357 04:50 02.07.2020
491 Clear 27 1008 44 10000 3.07 360 03:33 02.07.2020
492 Clear 28 1009 47 10000 2.95 7 01:50 02.07.2020
493 Clear 28 1009 45 10000 3.23 15 00:28 02.07.2020
494 Clear 28 1009 42 10000 3.23 15 23:57 01.07.2020
495 Clear 29 1009 42 10000 3.23 15 23:39 01.07.2020
496 Clear 29 1009 42 10000 3.26 26 23:21 01.07.2020
497 Clear 29 1008 42 10000 3.26 26 22:55 01.07.2020
498 Clear 29 1008 42 10000 3.26 26 22:36 01.07.2020
499 Clear 29 1008 38 10000 3.36 32 22:18 01.07.2020
500 Clear 29 1008 38 10000 3.36 32 21:55 01.07.2020
501 Clear 30 1008 38 10000 3.36 32 21:37 01.07.2020
502 Clear 30 1008 35 10000 3.35 42 21:19 01.07.2020
503 Rain 30 1010 44 0 1.79 17 20:45 01.07.2020
504 Rain 31 1008 33 10000 3.23 53 20:26 01.07.2020
505 Rain 31 1010 43 0 2.24 114 19:57 01.07.2020
506 Clear 32 1009 43 0 1.79 92 19:39 01.07.2020
507 Clear 32 1008 32 10000 4.12 55 19:20 01.07.2020
508 Clear 33 1009 42 0 3.58 111 18:54 01.07.2020
509 Clear 33 1009 41 0 4.02 99 18:36 01.07.2020
510 Clear 33 1009 40 0 4.02 51 18:18 01.07.2020
511 Clear 34 1009 39 0 3.13 78 17:41 01.07.2020
512 Clouds 34 1008 28 10000 4.34 54 17:20 01.07.2020
513 Clouds 35 1008 28 10000 4.34 54 16:48 01.07.2020
514 Clouds 35 1008 28 10000 4.2 52 16:29 01.07.2020
515 Clear 35 1010 38 0 3.13 21 15:58 01.07.2020
516 Clear 35 1010 39 0 1.79 11 15:40 01.07.2020
517 Clear 35 1010 40 0 0.89 120 15:21 01.07.2020
518 Clear 35 1010 40 0 0.89 151 14:47 01.07.2020
519 Clear 35 1010 36 0 1.79 27 14:22 01.07.2020
520 Clear 35 1010 36 0 3.13 175 13:59 01.07.2020
521 Clear 35 1010 36 0 3.13 343 13:40 01.07.2020
522 Clear 35 1010 37 0 3.13 360 13:21 01.07.2020
523 Clear 35 1010 36 0 3.13 28 13:21 01.07.2020
524 Clear 35 1008 34 0 1.79 53 12:59 01.07.2020
525 Clear 34 1008 34 0 1.79 50 12:39 01.07.2020
526 Clear 34 1008 34 0 1.79 323 12:21 01.07.2020
527 Clear 34 1011 39 0 2.68 26 11:55 01.07.2020
528 Clear 34 1009 35 0 1.79 51 11:37 01.07.2020
529 Clear 34 1010 30 10000 3.41 16 11:18 01.07.2020
530 Clear 33 1010 30 10000 3.41 16 10:42 01.07.2020
531 Clear 33 1010 31 10000 3.63 15 10:23 01.07.2020
532 Clear 33 1010 28 10000 3.63 15 09:59 01.07.2020
533 Clear 32 1010 28 10000 4.6 20 09:37 01.07.2020
534 Clear 32 1010 29 10000 3.87 16 09:19 01.07.2020
535 Clear 32 1010 29 10000 3.87 16 08:41 01.07.2020
536 Clear 31 1009 38 0 0.89 336 08:23 01.07.2020
537 Clear 30 1010 37 10000 3.16 10 07:58 01.07.2020
538 Clear 30 1010 37 10000 3.16 10 07:39 01.07.2020
539 Clear 29 1010 39 10000 2.87 7 07:20 01.07.2020
540 Clear 28 1009 42 10000 2.87 7 06:50 01.07.2020
541 Clear 26 1009 47 10000 2.63 9 06:28 01.07.2020
542 Clear 26 1009 44 10000 2.37 3 04:56 01.07.2020
543 Clear 26 1009 50 10000 2.16 354 03:48 01.07.2020
544 Clear 26 1009 50 10000 2.02 357 03:27 01.07.2020
545 Clear 26 1009 50 10000 2.02 357 02:41 01.07.2020
546 Clear 26 1009 47 10000 1.8 354 01:47 01.07.2020
547 Clear 27 1010 39 10000 1.35 351 00:43 01.07.2020
548 Clear 27 1010 39 10000 1.07 328 00:24 01.07.2020
549 Clear 27 1009 44 10000 1.07 328 23:42 30.06.2020
550 Clear 27 1009 44 10000 0.95 286 23:22 30.06.2020
551 Clear 27 1009 51 10000 0.95 286 22:59 30.06.2020
552 Clear 27 1009 51 10000 0.95 286 22:40 30.06.2020
553 Clear 28 1009 51 10000 0.79 272 22:18 30.06.2020
554 Clear 28 1009 54 10000 0.79 272 21:41 30.06.2020
555 Clear 29 1008 48 10000 0.77 352 21:19 30.06.2020
556 Clear 29 1008 48 10000 0.77 352 20:54 30.06.2020
557 Clear 29 1008 48 10000 0.77 352 20:54 30.06.2020
558 Clear 30 1008 48 10000 0.77 352 20:36 30.06.2020
559 Clear 31 1008 45 10000 0.78 56 20:18 30.06.2020
560 Clear 32 1008 40 10000 0.78 56 19:41 30.06.2020
561 Clouds 32 1008 38 10000 2.22 38 19:19 30.06.2020
562 Clouds 33 1007 33 10000 2.22 38 18:43 30.06.2020
563 Clouds 33 1007 30 10000 3.54 20 18:21 30.06.2020
564 Clouds 34 1007 28 10000 3.54 20 17:59 30.06.2020
565 Clouds 34 1007 28 10000 3.54 20 17:37 30.06.2020
566 Clouds 35 1007 28 10000 3.75 9 17:19 30.06.2020
567 Clouds 35 1008 30 10000 3.75 9 16:43 30.06.2020
568 Clouds 35 1008 30 10000 3.15 12 16:24 30.06.2020
569 Clouds 35 1008 30 10000 3.15 12 15:59 30.06.2020
570 Clouds 34 1007 32 10000 3.15 12 15:40 30.06.2020
571 Clouds 35 1008 28 10000 2.97 16 15:21 30.06.2020
572 Clouds 34 1008 28 10000 2.97 16 14:54 30.06.2020
573 Clouds 34 1008 32 10000 2.85 5 14:36 30.06.2020
574 Clouds 34 1008 32 10000 2.85 5 14:18 30.06.2020
575 Clouds 34 1008 30 10000 2.85 5 13:40 30.06.2020
576 Clouds 34 1008 32 10000 2.65 2 13:20 30.06.2020
577 Clouds 34 1008 32 10000 2.65 2 12:58 30.06.2020
578 Clear 34 1008 38 10000 2.65 2 12:39 30.06.2020
579 Clear 34 1008 41 10000 2.61 353 12:20 30.06.2020
580 Clear 33 1008 43 10000 2.61 353 11:58 30.06.2020
581 Clear 33 1008 43 10000 2.61 353 11:38 30.06.2020
582 Clear 32 1008 38 10000 2.58 346 11:19 30.06.2020
583 Clear 32 1008 38 10000 2.58 346 10:56 30.06.2020
584 Clear 31 1011 26 0 1.34 67 16:38 28.06.2020
585 Clear 32 1011 19 10000 6.21 5 16:20 28.06.2020
586 Clear 31 1011 18 10000 6.21 5 15:56 28.06.2020
587 Clear 31 1011 18 10000 6.21 5 15:56 28.06.2020
588 Clear 32 1011 18 10000 6.21 5 15:37 28.06.2020
589 Clear 32 1011 19 10000 6.59 3 15:18 28.06.2020
590 Clear 31 1011 19 10000 6.59 3 14:44 28.06.2020
591 Clear 32 1011 22 10000 6.82 5 14:25 28.06.2020
592 Clear 31 1011 22 10000 6.81 3 13:57 28.06.2020
593 Clear 31 1012 21 10000 6.81 3 13:37 28.06.2020
594 Clear 31 1012 22 10000 6.46 1 13:18 28.06.2020
595 Clear 31 1011 27 0 2.24 34 12:56 28.06.2020
596 Clear 31 1013 33 0 3.58 329 12:37 28.06.2020
597 Clear 30 1011 28 0 0.89 24 12:18 28.06.2020
598 Clear 30 1012 25 10000 6.41 4 11:55 28.06.2020
599 Clear 30 1012 25 10000 6.41 4 11:37 28.06.2020
600 Clear 29 1012 33 0 4.02 42 11:19 28.06.2020
601 Clear 29 1012 34 0 4.02 32 10:41 28.06.2020
602 Clear 29 1012 29 10000 5.54 1 10:23 28.06.2020
603 Clear 28 1012 35 10000 5.54 1 09:59 28.06.2020
604 Clear 27 1014 34 10000 8.7 20 09:39 28.06.2020
605 Clear 27 1012 37 10000 5.06 359 09:20 28.06.2020
606 Clear 26 1012 37 10000 5.06 359 08:44 28.06.2020
607 Clear 27 1012 36 10000 4.14 4 08:24 28.06.2020
608 Clear 26 1012 39 10000 4.14 4 07:46 28.06.2020
609 Clear 26 1012 39 10000 3.53 2 07:28 28.06.2020
610 Clear 24 1012 41 10000 3.53 2 06:34 28.06.2020
611 Clear 23 1011 50 0 3.73 351 05:57 28.06.2020
612 Clear 23 1011 50 0 3.97 346 05:26 28.06.2020
613 Clear 23 1012 38 10000 3.45 347 03:23 28.06.2020
614 Clear 23 1013 43 10000 2.97 339 02:36 28.06.2020
615 Clear 23 1013 43 10000 2.93 336 01:49 28.06.2020
616 Clear 23 1013 43 10000 3.09 344 01:25 28.06.2020
617 Clear 24 1013 43 10000 3.09 344 00:44 28.06.2020
618 Clear 24 1013 44 10000 3.19 341 00:24 28.06.2020
619 Clear 24 1013 44 10000 3.19 341 23:41 27.06.2020
620 Clear 25 1013 38 10000 3.02 340 23:22 27.06.2020
621 Clear 24 1013 38 10000 3.02 340 22:58 27.06.2020
622 Clear 25 1013 38 10000 3.02 340 22:39 27.06.2020
623 Clear 24 1013 36 10000 3.09 341 22:19 27.06.2020
624 Clear 25 1012 40 0 0.45 50 21:43 27.06.2020
625 Clear 25 1013 34 10000 3.1 343 21:20 27.06.2020
626 Clear 25 1013 34 10000 3.1 343 20:57 27.06.2020
627 Clear 26 1013 34 10000 3.1 343 20:37 27.06.2020
628 Clear 26 1012 30 10000 3.71 350 20:18 27.06.2020
629 Clear 27 1012 32 10000 3.71 350 19:54 27.06.2020
630 Clear 27 1012 32 10000 3.71 350 19:36 27.06.2020
631 Clear 28 1012 28 10000 5.11 3 19:18 27.06.2020
632 Clear 28 1012 30 10000 5.11 3 18:43 27.06.2020
633 Clear 28 1012 28 10000 6.24 9 18:22 27.06.2020
634 Clear 29 1012 28 10000 6.24 9 17:55 27.06.2020
635 Clear 29 1012 28 10000 6.24 9 17:37 27.06.2020
636 Clear 29 1012 27 10000 7.3 10 17:18 27.06.2020
637 Clear 29 1012 27 10000 7.3 10 16:42 27.06.2020
638 Clear 30 1012 27 10000 7.7 11 16:24 27.06.2020
639 Clear 30 1013 27 10000 7.7 11 15:54 27.06.2020
640 Clear 30 1013 27 10000 7.7 11 15:36 27.06.2020
641 Clear 30 1013 27 10000 7.98 12 15:18 27.06.2020
642 Clear 30 1013 27 10000 7.98 12 14:41 27.06.2020
643 Clear 30 1013 29 10000 7.93 11 14:22 27.06.2020
644 Clear 29 1013 35 0 4.02 29 13:57 27.06.2020
645 Clear 29 1013 36 0 4.47 40 13:37 27.06.2020
646 Clear 29 1013 37 0 4.02 44 13:19 27.06.2020
647 Clear 29 1013 30 10000 8.07 11 12:56 27.06.2020
648 Rain 29 1013 30 10000 8.07 11 12:37 27.06.2020
649 Rain 28 1013 39 0 4.02 8 12:19 27.06.2020
650 Rain 29 1013 30 10000 8.08 10 11:41 27.06.2020
651 Rain 28 1013 32 10000 7.91 7 11:23 27.06.2020
652 Rain 28 1013 32 10000 7.91 7 10:57 27.06.2020
653 Clouds 28 1014 35 10000 7.91 7 10:38 27.06.2020
654 Clouds 28 1014 35 10000 7.81 4 10:18 27.06.2020
655 Clouds 27 1014 39 10000 7.81 4 09:41 27.06.2020
656 Clouds 26 1014 44 10000 7.48 3 09:21 27.06.2020
657 Clouds 26 1014 44 10000 7.48 3 08:56 27.06.2020
658 Clouds 25 1014 44 10000 7.48 3 08:37 27.06.2020
659 Clouds 26 1014 47 10000 6.68 0 08:19 27.06.2020
660 Clouds 25 1014 47 10000 6.68 0 07:38 27.06.2020
661 Clear 25 1014 47 10000 5.52 358 07:19 27.06.2020
662 Clouds 24 1014 53 10000 5.52 358 06:37 27.06.2020
663 Clear 23 1015 62 0 0.89 10 05:46 27.06.2020
664 Clear 23 1015 65 0 0.89 5 04:21 27.06.2020
665 Clear 23 1012 64 0 1.79 53 03:51 27.06.2020
666 Clouds 24 1013 57 10000 3.8 353 02:48 27.06.2020
667 Clouds 24 1014 61 10000 3.69 350 02:27 27.06.2020
668 Clouds 24 1014 61 10000 3.43 352 01:40 27.06.2020
669 Clouds 24 1014 57 10000 3.22 348 00:52 27.06.2020
670 Clouds 24 1014 57 10000 3.31 343 00:18 27.06.2020
671 Clear 24 1015 61 10000 3.31 343 23:41 26.06.2020
672 Clear 24 1015 61 10000 3.55 341 23:21 26.06.2020
673 Clouds 24 1014 54 10000 3.55 341 22:56 26.06.2020
674 Clouds 25 1014 54 10000 3.55 341 22:37 26.06.2020
675 Clouds 25 1014 54 10000 3.66 342 22:18 26.06.2020
676 Clouds 25 1014 54 10000 3.66 342 21:56 26.06.2020
677 Clouds 25 1014 54 10000 3.66 342 21:36 26.06.2020
678 Clouds 25 1014 51 10000 3.63 349 21:18 26.06.2020
679 Clouds 25 1014 51 10000 3.63 349 20:42 26.06.2020
680 Clouds 26 1014 51 10000 4.48 356 20:19 26.06.2020
681 Clouds 26 1014 47 10000 4.48 356 19:42 26.06.2020
682 Clouds 27 1014 45 10000 5.99 5 19:23 26.06.2020
683 Clouds 27 1014 45 10000 5.99 5 18:54 26.06.2020
684 Clouds 27 1014 45 10000 5.99 5 18:36 26.06.2020
685 Clouds 28 1014 45 10000 6.93 11 18:18 26.06.2020
686 Clouds 28 1014 42 10000 6.93 11 17:43 26.06.2020
687 Clouds 28 1014 40 10000 7.11 12 17:23 26.06.2020
688 Clouds 28 1014 40 10000 7.11 12 16:47 26.06.2020
689 Clouds 29 1014 40 10000 7.66 12 16:25 26.06.2020
690 Clouds 29 1015 40 10000 7.66 12 15:54 26.06.2020
691 Clouds 29 1015 40 10000 7.66 12 15:36 26.06.2020
692 Clouds 29 1015 40 10000 7.92 7 15:18 26.06.2020
693 Clouds 29 1015 40 10000 7.92 7 14:41 26.06.2020
694 Clouds 29 1015 40 10000 7.43 5 14:22 26.06.2020
695 Clouds 29 1015 40 10000 7.58 6 13:59 26.06.2020
696 Clouds 29 1015 40 10000 7.58 6 13:41 26.06.2020
697 Clouds 29 1015 40 10000 7.64 6 13:18 26.06.2020
698 Clouds 29 1015 40 10000 7.64 6 12:41 26.06.2020
699 Clouds 29 1015 42 10000 7.58 12 12:23 26.06.2020
700 Clouds 28 1015 42 10000 7.58 12 11:59 26.06.2020
701 Clouds 28 1015 42 10000 7.58 12 11:39 26.06.2020
702 Clouds 28 1015 48 10000 7.01 15 11:21 26.06.2020
703 Clouds 28 1015 48 10000 7.01 15 10:58 26.06.2020
704 Clouds 28 1015 48 10000 7.01 15 10:39 26.06.2020
705 Clouds 28 1015 48 10000 6.16 12 10:19 26.06.2020
706 Clouds 27 1015 51 10000 6.16 12 09:44 26.06.2020
707 Clouds 27 1015 54 10000 5.97 5 09:26 26.06.2020
708 Clouds 26 1015 54 10000 5.97 5 08:57 26.06.2020
709 Clouds 26 1015 54 10000 5.97 5 08:37 26.06.2020
710 Clouds 26 1015 54 10000 5.68 4 08:19 26.06.2020
711 Clouds 26 1015 54 10000 5.68 4 07:44 26.06.2020
712 Clouds 25 1015 54 10000 4.49 358 07:21 26.06.2020
713 Clouds 25 1015 57 10000 4.49 358 06:44 26.06.2020
714 Clouds 24 1015 57 10000 3.55 351 06:26 26.06.2020
715 Clouds 23 1015 53 10000 3.44 353 05:48 26.06.2020
716 Clear 24 1016 61 0 0.45 96 04:42 26.06.2020
717 Clear 24 1016 59 0 0.45 342 02:22 26.06.2020
718 Clear 24 1016 50 10000 2.5 333 01:22 26.06.2020
719 Clear 24 1016 50 10000 2.5 333 00:42 26.06.2020
720 Clear 24 1016 50 10000 2.54 337 00:20 26.06.2020
721 Clear 24 1016 50 10000 2.54 337 23:45 25.06.2020
722 Clear 25 1016 47 10000 2.66 357 23:20 25.06.2020
723 Clear 25 1016 47 10000 2.66 357 23:20 25.06.2020
724 Clear 25 1016 47 10000 2.66 357 22:57 25.06.2020
725 Clear 25 1016 47 10000 2.66 357 22:38 25.06.2020
726 Clear 25 1015 44 10000 2.99 2 22:19 25.06.2020
727 Clouds 25 1015 44 10000 2.99 2 21:56 25.06.2020
728 Clouds 25 1015 44 10000 2.85 8 21:38 25.06.2020
729 Clouds 26 1015 44 10000 3.21 5 21:19 25.06.2020
730 Clouds 26 1015 44 10000 3.21 5 20:45 25.06.2020
731 Clouds 27 1015 45 10000 3.19 1 20:24 25.06.2020
732 Clouds 27 1015 42 10000 3.19 1 19:58 25.06.2020
733 Clouds 28 1015 42 10000 3.19 1 19:40 25.06.2020
734 Clouds 28 1015 37 10000 3.35 7 19:19 25.06.2020
735 Clouds 28 1015 37 10000 3.35 7 19:19 25.06.2020
736 Clouds 28 1015 37 10000 3.35 7 19:19 25.06.2020
737 Clouds 28 1015 37 10000 3.35 7 18:58 25.06.2020
738 Clouds 29 1015 37 10000 3.35 7 18:38 25.06.2020
739 Clouds 29 1016 52 0 0.89 209 18:19 25.06.2020
740 Clouds 29 1016 48 0 2.24 107 17:44 25.06.2020
741 Clouds 29 1016 48 0 2.24 16 17:20 25.06.2020
742 Clouds 29 1016 49 0 1.79 355 17:20 25.06.2020
743 Clouds 29 1016 49 0 1.79 36 16:58 25.06.2020
744 Clouds 29 1016 50 0 2.68 71 16:37 25.06.2020
745 Clouds 29 1015 40 10000 3.95 26 16:19 25.06.2020
746 Clouds 29 1015 42 10000 3.95 26 15:41 25.06.2020
747 Clouds 29 1017 46 0 1.79 302 15:22 25.06.2020
748 Clouds 29 1015 44 0 1.34 40 14:45 25.06.2020
749 Clouds 29 1015 40 10000 4.87 11 14:25 25.06.2020
750 Clouds 29 1015 40 10000 4.87 11 13:59 25.06.2020
751 Clear 30 1017 46 0 3.13 71 13:41 25.06.2020
752 Clear 29 1017 47 0 2.68 24 13:19 25.06.2020
753 Clear 29 1017 47 0 2.68 24 13:19 25.06.2020
754 Clouds 29 1016 35 10000 4.86 7 12:55 25.06.2020
755 Clouds 29 1016 35 10000 4.86 7 12:37 25.06.2020
756 Clear 29 1017 49 0 2.68 80 12:18 25.06.2020
757 Clear 28 1018 51 0 2.68 42 11:42 25.06.2020
758 Clear 28 1018 52 0 3.13 23 11:21 25.06.2020
759 Clear 27 1018 53 0 2.68 65 10:44 25.06.2020
760 Clouds 28 1016 45 10000 4.19 354 10:25 25.06.2020
761 Clouds 27 1017 51 10000 4.19 354 09:55 25.06.2020
762 Clouds 27 1017 51 10000 4.19 354 09:36 25.06.2020
763 Clouds 26 1017 51 10000 3.63 354 09:18 25.06.2020
764 Clouds 26 1017 54 10000 3.63 354 08:42 25.06.2020
765 Clouds 25 1017 57 10000 2.98 354 08:18 25.06.2020
766 Clouds 25 1017 57 10000 2.98 354 08:18 25.06.2020
767 Clouds 24 1017 60 10000 2.98 354 07:43 25.06.2020
768 Clouds 24 1017 69 10000 2.77 355 07:24 25.06.2020
769 Clouds 22 1016 73 10000 2.77 355 06:45 25.06.2020
770 Clouds 22 1016 73 10000 2.65 4 06:25 25.06.2020
771 Clouds 21 1016 77 10000 2.65 4 05:38 25.06.2020
772 Clouds 21 1017 77 10000 2.26 20 03:49 25.06.2020
773 Clouds 21 1017 83 10000 1.66 12 02:58 25.06.2020
774 Clouds 22 1017 83 10000 1.58 17 02:40 25.06.2020
775 Clouds 22 1017 83 10000 1.05 9 01:43 25.06.2020
776 Clouds 22 1017 78 10000 0.62 352 00:52 25.06.2020
777 Clouds 22 1017 78 10000 0.28 283 00:26 25.06.2020
778 Clouds 23 1017 78 10000 0.28 283 23:59 24.06.2020
779 Clouds 23 1017 78 10000 0.28 283 23:39 24.06.2020
780 Clouds 23 1017 78 10000 0.64 198 23:21 24.06.2020
781 Clouds 23 1017 73 10000 0.64 198 22:54 24.06.2020
782 Clouds 23 1017 73 10000 1.22 197 22:36 24.06.2020
783 Clouds 23 1017 73 10000 1.22 197 22:18 24.06.2020
784 Clouds 23 1017 73 10000 1.22 197 21:54 24.06.2020
785 Clouds 23 1017 73 10000 1.22 197 21:36 24.06.2020
786 Clouds 24 1016 65 10000 1.5 204 21:18 24.06.2020
787 Rain 24 1016 65 10000 1.5 204 20:41 24.06.2020
788 Rain 24 1016 69 10000 2.16 213 20:22 24.06.2020
789 Clouds 24 1016 69 10000 2.16 213 19:59 24.06.2020
790 Clouds 25 1016 69 10000 2.16 213 19:39 24.06.2020
791 Clouds 25 1015 65 10000 2.81 208 19:21 24.06.2020
792 Clouds 25 1015 57 10000 2.81 208 18:59 24.06.2020
793 Clouds 26 1015 57 10000 2.81 208 18:40 24.06.2020
794 Clouds 26 1015 65 10000 2.8 190 18:22 24.06.2020
795 Clouds 26 1015 61 10000 2.8 190 17:56 24.06.2020
796 Clouds 26 1015 61 10000 2.8 190 17:38 24.06.2020
797 Clouds 26 1015 65 10000 1.66 174 17:19 24.06.2020
798 Clouds 26 1015 65 10000 1.66 174 16:56 24.06.2020
799 Clouds 26 1015 57 10000 1.66 174 16:37 24.06.2020
800 Clouds 25 1015 57 10000 1.66 174 16:37 24.06.2020
801 Clouds 25 1015 57 10000 0.74 154 16:19 24.06.2020
802 Clouds 26 1015 57 10000 0.74 154 15:56 24.06.2020
803 Clouds 25 1015 57 10000 0.74 154 15:37 24.06.2020
804 Rain 25 1017 69 0 1.34 208 15:19 24.06.2020
805 Clouds 26 1015 54 10000 0.53 92 14:42 24.06.2020
806 Rain 26 1017 66 0 1.34 158 14:24 24.06.2020
807 Clouds 26 1015 51 10000 1.12 154 13:43 24.06.2020
808 Clouds 26 1015 54 10000 2.51 180 13:22 24.06.2020
809 Rain 25 1016 65 0 0.89 222 12:57 24.06.2020
810 Rain 25 1016 65 0 0.89 188 12:38 24.06.2020
811 Rain 26 1016 66 0 0.45 247 12:20 24.06.2020
812 Clouds 26 1014 48 10000 1.82 175 11:55 24.06.2020
813 Clouds 26 1014 48 10000 1.82 175 11:37 24.06.2020
814 Clouds 26 1014 48 10000 0.79 158 11:18 24.06.2020
815 Rain 26 1016 65 0 0.45 149 10:41 24.06.2020
816 Clear 25 1016 64 0 0.89 221 10:19 24.06.2020
817 Clouds 26 1014 51 10000 0.64 86 09:43 24.06.2020
818 Clouds 26 1014 54 10000 1.52 40 09:22 24.06.2020
819 Clouds 25 1014 54 10000 1.52 40 08:43 24.06.2020
820 Clouds 25 1013 54 10000 1.66 37 08:21 24.06.2020
821 Clouds 25 1013 57 10000 1.66 37 07:51 24.06.2020
822 Clouds 24 1013 64 10000 1.66 37 07:31 24.06.2020
823 Clouds 23 1013 69 10000 1.86 37 06:51 24.06.2020
824 Clouds 22 1013 77 10000 1.92 33 06:26 24.06.2020
825 Clouds 21 1012 68 10000 1.92 33 05:57 24.06.2020
826 Clouds 21 1012 73 10000 1.84 21 04:46 24.06.2020
827 Clouds 21 1012 73 10000 1.61 2 04:28 24.06.2020
828 Clouds 22 1011 73 10000 1.61 2 03:35 24.06.2020
829 Clouds 22 1012 73 10000 1.2 335 02:51 24.06.2020
830 Clouds 22 1012 73 10000 1.12 309 01:45 24.06.2020
831 Clouds 23 1012 68 10000 1.09 264 00:47 24.06.2020
832 Clouds 23 1012 68 10000 1.38 234 00:27 24.06.2020
833 Clouds 23 1011 64 10000 1.38 234 23:46 23.06.2020
834 Clouds 23 1011 64 10000 1.29 210 23:20 23.06.2020
835 Clouds 23 1011 69 10000 1.29 210 22:57 23.06.2020
836 Clouds 23 1011 69 10000 1.09 186 22:36 23.06.2020
837 Clouds 23 1011 69 10000 1.09 186 22:18 23.06.2020
838 Clouds 23 1011 64 10000 1.09 186 21:41 23.06.2020
839 Clouds 24 1011 64 10000 1.66 176 21:20 23.06.2020
840 Clouds 24 1010 60 10000 1.66 183 20:56 23.06.2020
841 Clouds 24 1010 60 10000 2.71 182 20:37 23.06.2020
842 Clouds 24 1010 60 10000 2.71 182 20:19 23.06.2020
843 Clouds 24 1010 64 10000 2.71 182 19:49 23.06.2020
844 Clouds 24 1010 61 10000 3.69 197 19:28 23.06.2020
845 Clouds 25 1010 57 10000 3.69 197 18:55 23.06.2020
846 Clouds 25 1010 57 10000 3.69 197 18:37 23.06.2020
847 Clouds 25 1010 57 10000 4.57 204 18:18 23.06.2020
848 Clouds 25 1009 57 10000 4.57 204 17:40 23.06.2020
849 Clouds 25 1009 57 10000 5.06 206 17:22 23.06.2020
850 Clouds 25 1009 57 10000 5.06 206 16:57 23.06.2020
851 Clouds 26 1009 54 10000 5.06 206 16:38 23.06.2020
852 Clouds 26 1009 54 10000 4.9 196 16:20 23.06.2020
853 Clouds 27 1009 51 10000 4.9 196 15:55 23.06.2020
854 Clouds 26 1009 51 10000 4.9 196 15:37 23.06.2020
855 Clouds 26 1009 51 10000 4.48 195 15:18 23.06.2020
856 Clouds 27 1009 51 10000 4.48 195 14:42 23.06.2020
857 Clouds 27 1009 39 10000 3.59 204 14:19 23.06.2020
858 Clouds 27 1009 42 10000 3.46 186 13:56 23.06.2020
859 Clouds 27 1009 45 10000 3.46 186 13:38 23.06.2020
860 Rain 26 1008 58 0 3.13 146 13:20 23.06.2020
861 Clouds 26 1009 45 10000 2.81 205 12:42 23.06.2020
862 Clouds 26 1009 51 10000 2.85 211 12:22 23.06.2020
863 Clouds 26 1009 57 10000 2.85 211 11:58 23.06.2020
864 Clouds 26 1009 57 10000 2.85 211 11:39 23.06.2020
865 Clouds 26 1009 57 10000 1.92 234 11:19 23.06.2020
866 Clouds 26 1009 54 10000 1.92 234 10:55 23.06.2020
867 Clouds 25 1009 57 10000 1.37 253 10:37 23.06.2020
868 Clouds 25 1009 57 10000 1.37 253 10:19 23.06.2020
869 Clouds 24 1009 60 10000 1.37 253 09:41 23.06.2020
870 Clouds 23 1009 64 10000 0.3 258 09:20 23.06.2020
871 Clouds 23 1009 69 10000 0.3 258 08:57 23.06.2020
872 Clouds 23 1009 69 10000 0.3 258 08:38 23.06.2020
873 Clouds 22 1009 64 10000 0.77 339 08:19 23.06.2020
874 Clouds 22 1009 73 10000 0.77 339 07:40 23.06.2020
875 Clouds 21 1009 77 10000 1.39 357 07:21 23.06.2020
876 Rain 21 1010 75 0 0.45 306 06:48 23.06.2020
877 Clouds 20 1008 82 10000 1.49 355 06:30 23.06.2020
878 Clouds 20 1008 82 10000 1.49 355 05:39 23.06.2020
879 Clouds 20 1008 88 10000 1.4 10 03:39 23.06.2020
880 Clouds 20 1008 88 10000 1.49 343 02:56 23.06.2020
881 Clouds 20 1008 88 10000 0.88 345 02:37 23.06.2020
882 Clouds 20 1008 82 10000 1.01 336 02:19 23.06.2020
883 Clouds 20 1008 82 10000 1.01 336 01:37 23.06.2020
884 Clouds 20 1008 88 10000 1.02 321 01:18 23.06.2020
885 Rain 20 1008 88 10000 0.84 290 00:24 23.06.2020
886 Rain 20 1008 88 10000 0.84 290 23:57 22.06.2020
887 Clouds 20 1008 88 10000 0.84 290 23:38 22.06.2020
888 Clouds 20 1008 93 10000 1.27 221 23:19 22.06.2020
889 Clouds 20 1008 93 10000 1.27 221 23:19 22.06.2020
890 Rain 20 1008 93 10000 1.27 221 22:57 22.06.2020
891 Clouds 20 1008 93 10000 1.67 175 22:38 22.06.2020
892 Drizzle 20 1008 93 10000 1.67 175 22:19 22.06.2020
893 Drizzle 20 1008 93 10000 1.67 175 22:19 22.06.2020
894 Rain 20 1008 93 9000 1.67 175 21:57 22.06.2020
895 Rain 20 1008 93 9000 1.67 175 21:38 22.06.2020
896 Rain 19 1008 88 9000 2.06 188 21:20 22.06.2020
897 Rain 19 1008 93 9000 2.06 188 20:42 22.06.2020
898 Rain 19 1008 93 9000 2.06 188 20:42 22.06.2020
899 Rain 19 1007 100 10000 2.58 177 20:24 22.06.2020
900 Rain 19 1007 93 10000 2.58 177 19:57 22.06.2020
901 Rain 21 1008 93 8000 3.34 182 19:37 22.06.2020
902 Rain 21 1008 93 8000 3.34 182 19:18 22.06.2020
903 Rain 22 1008 93 8000 3.67 192 18:41 22.06.2020
904 Thunderstorm 22 1008 93 8000 3.67 192 18:23 22.06.2020
905 Rain 23 1008 68 10000 3.67 192 17:57 22.06.2020
906 Thunderstorm 23 1007 53 10000 3.67 192 17:38 22.06.2020
907 Rain 24 1007 53 10000 4.07 189 17:20 22.06.2020
908 Clouds 24 1007 39 10000 4.07 189 16:57 22.06.2020
909 Clouds 25 1007 41 10000 4.48 188 16:38 22.06.2020
910 Clouds 25 1007 41 10000 4.48 188 16:18 22.06.2020
911 Rain 24 1008 60 0 2.24 90 15:44 22.06.2020
912 Rain 24 1008 61 0 3.13 103 15:26 22.06.2020
913 Rain 24 1008 61 0 3.58 351 14:58 22.06.2020
914 Clouds 25 1006 45 10000 3.75 191 14:38 22.06.2020
915 Clouds 25 1006 45 10000 2.43 191 14:19 22.06.2020
916 Rain 25 1005 54 0 3.58 190 13:54 22.06.2020
917 Rain 26 1005 54 0 4.02 222 13:36 22.06.2020
918 Rain 26 1005 54 0 4.02 171 13:18 22.06.2020
919 Rain 26 1005 53 0 2.24 192 12:41 22.06.2020
920 Rain 26 1005 56 0 2.24 177 12:22 22.06.2020
921 Clouds 26 1006 48 10000 1.67 202 11:38 22.06.2020
922 Clouds 26 1006 48 10000 1.27 211 11:19 22.06.2020
923 Clouds 25 1006 51 10000 1.27 211 10:57 22.06.2020
924 Clouds 26 1006 51 10000 0.48 224 10:39 22.06.2020
925 Clouds 26 1006 51 10000 0.48 224 10:19 22.06.2020
926 Clouds 26 1006 42 10000 0.48 224 09:58 22.06.2020
927 Clouds 26 1006 44 10000 0.48 224 09:40 22.06.2020
928 Clouds 25 1006 50 10000 0.52 355 09:19 22.06.2020
929 Clouds 25 1006 50 10000 0.52 355 08:57 22.06.2020
930 Clouds 24 1006 53 10000 0.52 355 08:38 22.06.2020
931 Clouds 24 1006 53 10000 1.37 14 08:19 22.06.2020
932 Clouds 24 1006 53 10000 1.37 14 07:49 22.06.2020
933 Clouds 24 1006 57 10000 1.37 14 07:30 22.06.2020
934 Clouds 22 1006 60 10000 1.91 18 06:43 22.06.2020
935 Clouds 22 1006 64 10000 1.98 8 06:24 22.06.2020
936 Clouds 21 1006 64 10000 1.98 8 05:43 22.06.2020
937 Clouds 22 1005 64 10000 1.86 348 03:48 22.06.2020
938 Clouds 22 1005 68 10000 1.57 333 02:28 22.06.2020
939 Clouds 22 1006 60 10000 1.18 305 01:18 22.06.2020
940 Clouds 23 1006 57 10000 1.18 305 00:39 22.06.2020
941 Clouds 23 1005 53 10000 0.72 294 23:58 21.06.2020
942 Clouds 23 1005 53 10000 0.72 294 23:39 21.06.2020
943 Clouds 23 1005 53 10000 0.46 262 23:20 21.06.2020
944 Clouds 23 1005 53 10000 0.46 262 22:57 21.06.2020
945 Clouds 23 1005 47 10000 0.46 262 22:37 21.06.2020
946 Clouds 24 1004 44 10000 0.68 237 22:19 21.06.2020
947 Clouds 24 1004 44 10000 0.68 237 21:56 21.06.2020
948 Clouds 24 1004 47 10000 0.68 237 21:38 21.06.2020
949 Clouds 25 1004 47 10000 1.62 219 21:20 21.06.2020
950 Clouds 24 1004 47 10000 1.62 219 20:57 21.06.2020
951 Clouds 24 1004 50 10000 1.62 219 20:37 21.06.2020
952 Clouds 25 1004 50 10000 1.74 185 20:18 21.06.2020
953 Clouds 25 1003 57 10000 1.74 185 19:55 21.06.2020
954 Clouds 25 1003 51 10000 1.74 185 19:37 21.06.2020
955 Clouds 26 1003 51 10000 2.86 179 19:18 21.06.2020
956 Clouds 26 1003 45 10000 2.86 179 18:40 21.06.2020
957 Clouds 27 1003 45 10000 3.13 181 18:22 21.06.2020
958 Clouds 27 1003 42 10000 3.13 181 17:59 21.06.2020
959 Clouds 28 1003 39 10000 3.13 181 17:39 21.06.2020
960 Clouds 28 1005 51 0 1.34 271 17:20 21.06.2020
961 Clouds 27 1005 50 0 1.34 157 16:43 21.06.2020
962 Clouds 28 1005 47 0 1.79 210 16:23 21.06.2020
963 Clouds 28 1005 49 0 1.34 224 15:59 21.06.2020
964 Clouds 29 1004 42 0 2.24 250 15:37 21.06.2020
965 Clouds 29 1003 33 10000 2.6 145 15:19 21.06.2020
966 Clouds 30 1003 31 10000 3.35 129 14:39 21.06.2020
967 Clouds 30 1003 33 10000 2.72 151 14:20 21.06.2020
968 Clouds 30 1003 33 10000 2.72 151 13:59 21.06.2020
969 Clouds 30 1003 35 10000 2.72 151 13:40 21.06.2020
970 Clouds 30 1003 35 10000 3.46 194 13:22 21.06.2020
971 Clouds 30 1003 33 10000 3.46 194 12:54 21.06.2020
972 Clouds 30 1004 31 10000 3.46 194 12:36 21.06.2020
973 Clouds 30 1004 31 10000 3.73 212 12:18 21.06.2020
974 Clouds 30 1004 27 10000 3.73 212 11:41 21.06.2020
975 Clear 29 1006 47 0 0.89 207 11:23 21.06.2020
976 Clear 29 1004 27 10000 2.16 218 10:58 21.06.2020
977 Clear 29 1006 51 0 0.89 229 10:39 21.06.2020
978 Clear 29 1004 27 10000 0.39 229 10:20 21.06.2020
979 Clouds 28 1004 30 10000 0.39 229 09:44 21.06.2020
980 Clouds 27 1004 35 10000 0.91 20 09:22 21.06.2020
981 Clouds 28 1004 35 10000 0.91 20 08:57 21.06.2020
982 Clouds 27 1004 44 10000 0.91 20 08:39 21.06.2020
983 Clouds 26 1004 41 10000 1.18 20 08:19 21.06.2020
984 Clouds 26 1004 41 10000 1.18 20 07:42 21.06.2020
985 Clouds 25 1004 41 10000 1.45 7 07:23 21.06.2020
986 Clear 24 1006 54 0 1.45 7 06:51 21.06.2020
987 Clouds 23 1004 52 10000 1.34 346 06:28 21.06.2020
988 Clouds 23 1004 52 10000 1.34 346 05:57 21.06.2020
989 Clouds 23 1004 52 10000 1.13 333 04:36 21.06.2020
990 Clouds 23 1005 49 10000 1.02 307 03:19 21.06.2020
991 Clouds 23 1005 49 10000 0.79 293 02:36 21.06.2020
992 Clouds 23 1005 53 10000 0.38 357 01:40 21.06.2020
993 Clouds 23 1005 53 10000 0.89 64 01:19 21.06.2020
994 Clouds 24 1005 49 10000 0.89 64 00:46 21.06.2020
995 Clouds 24 1006 49 10000 1.57 50 00:25 21.06.2020
996 Clouds 24 1006 50 10000 1.57 50 23:46 20.06.2020
997 Clouds 25 1006 50 10000 1.51 66 23:23 20.06.2020
998 Clouds 25 1006 50 10000 1.51 66 22:59 20.06.2020
999 Clouds 25 1006 50 10000 1.51 66 22:59 20.06.2020
1000 Clouds 25 1006 47 10000 1.51 66 22:40 20.06.2020
1001 Clouds 26 1006 47 10000 1.61 71 22:20 20.06.2020
1002 Clouds 26 1006 50 10000 1.61 71 21:58 20.06.2020
1003 Clouds 26 1006 47 10000 1.61 71 21:40 20.06.2020
1004 Clouds 26 1006 47 10000 1.73 110 21:21 20.06.2020
1005 Clouds 26 1005 50 10000 2.27 84 20:58 20.06.2020
1006 Clouds 26 1006 54 10000 2.27 84 20:40 20.06.2020
1007 Clouds 26 1006 54 10000 2.26 118 20:20 20.06.2020
1008 Clouds 27 1006 51 10000 2.26 118 19:58 20.06.2020
1009 Clouds 27 1006 51 10000 2.26 118 19:39 20.06.2020
1010 Clouds 27 1006 51 10000 2.64 135 19:20 20.06.2020
1011 Rain 28 1006 39 10000 2.64 135 18:43 20.06.2020
1012 Rain 29 1006 39 10000 3.04 164 18:21 20.06.2020
1013 Clouds 29 1006 35 10000 3.04 164 17:57 20.06.2020
1014 Clouds 29 1006 33 10000 3.04 164 17:39 20.06.2020
1015 Clouds 29 1006 33 10000 3.04 164 17:39 20.06.2020
1016 Clouds 30 1006 33 10000 3.64 182 17:20 20.06.2020
1017 Clouds 30 1006 33 10000 3.64 182 17:20 20.06.2020
1018 Clouds 30 1007 31 10000 3.64 182 16:42 20.06.2020
1019 Clouds 31 1007 31 10000 4.74 191 16:19 20.06.2020
1020 Clouds 31 1007 27 10000 4.74 191 15:58 20.06.2020
1021 Clouds 31 1008 33 10000 4.74 191 15:40 20.06.2020
1022 Clouds 31 1008 27 10000 5.66 189 15:18 20.06.2020
1023 Clouds 31 1008 27 10000 5.66 189 14:43 20.06.2020
1024 Clouds 31 1008 27 10000 2.91 197 14:21 20.06.2020
1025 Clouds 31 1008 25 10000 3.89 191 13:46 20.06.2020
1026 Clouds 31 1008 25 10000 3.73 224 13:27 20.06.2020
1027 -273 0 0 0 0 0 12:59 20.06.2020
1028 Clouds 31 1009 29 10000 3.73 224 12:40 20.06.2020
1029 Clouds 31 1009 29 10000 5.09 196 12:20 20.06.2020
1030 Clouds 30 1009 27 10000 5.09 196 11:57 20.06.2020
1031 Clouds 31 1009 31 10000 5.09 196 11:37 20.06.2020
1032 Clouds 31 1010 33 10000 2.42 215 11:19 20.06.2020
1033 Clouds 29 1010 33 10000 2.42 215 10:47 20.06.2020
1034 Clouds 29 1010 35 10000 1.6 260 10:22 20.06.2020
1035 Clouds 29 1010 37 10000 1.6 260 09:56 20.06.2020
1036 Clouds 29 1010 44 10000 1.45 311 09:38 20.06.2020
1037 Clouds 28 1010 42 10000 1.51 300 09:20 20.06.2020
1038 Clouds 28 1010 42 10000 1.51 300 08:46 20.06.2020
1039 Clouds 27 1011 47 10000 0.54 351 08:27 20.06.2020
1040 Clouds 26 1011 44 10000 0.54 351 07:52 20.06.2020
1041 Clouds 25 1010 50 10000 2.49 23 07:28 20.06.2020
1042 Clouds 25 1010 53 10000 2.49 23 06:58 20.06.2020
1043 Clouds 23 1010 56 10000 1.99 321 06:23 20.06.2020
1044 Clouds 23 1010 60 10000 1.99 321 05:53 20.06.2020
1045 Clouds 23 1010 60 10000 1.89 301 05:25 20.06.2020
1046 Clouds 23 1011 56 10000 1.34 337 02:53 20.06.2020
1047 Clouds 24 1010 53 10000 2.29 291 01:49 20.06.2020
1048 Clouds 24 1010 47 10000 2.95 288 01:22 20.06.2020
1049 Clouds 24 1010 53 10000 2.94 261 00:22 20.06.2020
1050 Clouds 25 1011 47 10000 2.94 261 23:58 19.06.2020
1051 Clouds 25 1010 50 10000 2.94 261 23:39 19.06.2020
1052 Clouds 25 1010 50 10000 1.58 237 23:18 19.06.2020
1053 Clouds 25 1010 47 10000 1.58 237 22:42 19.06.2020
1054 Clouds 26 1010 47 10000 0.76 168 22:23 19.06.2020
1055 Clear 26 1012 54 0 1.34 208 21:59 19.06.2020
1056 Clear 26 1010 50 0 2.68 152 21:39 19.06.2020
1057 Clear 26 1012 53 0 0.89 232 21:18 19.06.2020
1058 Clouds 26 1010 39 10000 1.09 155 20:59 19.06.2020
1059 Clear 27 1012 50 0 0.89 184 20:40 19.06.2020
1060 Clouds 27 1012 52 0 0.89 132 20:21 19.06.2020
1061 Clouds 27 1012 51 0 1.34 190 20:21 19.06.2020
1062 Clouds 27 1012 52 0 0.89 132 20:21 19.06.2020
1063 Clouds 27 1012 51 0 1.34 190 20:21 19.06.2020
1064 Clouds 27 1012 51 0 0.89 271 19:59 19.06.2020
1065 Clouds 28 1011 51 0 1.34 177 19:41 19.06.2020
1066 Clouds 28 1009 25 10000 1.75 181 19:23 19.06.2020
1067 Clouds 28 1011 46 0 1.34 279 18:57 19.06.2020
1068 Clouds 29 1009 22 10000 1.75 181 18:38 19.06.2020
1069 Clouds 29 1011 43 0 2.68 261 18:20 19.06.2020
1070 Clouds 31 1009 20 10000 0.81 337 17:42 19.06.2020
1071 Clouds 32 1009 20 10000 2.8 331 17:23 19.06.2020
1072 Clouds 32 1009 20 10000 2.8 331 16:57 19.06.2020
1073 Clouds 32 1009 20 10000 2.8 331 16:38 19.06.2020
1074 Clouds 32 1009 20 10000 4.65 310 16:20 19.06.2020
1075 Clouds 32 1010 20 10000 4.65 310 15:44 19.06.2020
1076 Clouds 32 1010 20 10000 3.65 296 15:25 19.06.2020
1077 Clouds 32 1010 21 10000 3.65 296 14:57 19.06.2020
1078 Clouds 32 1010 17 10000 3.84 295 14:39 19.06.2020
1079 Clear 31 1012 38 0 3.13 251 14:20 19.06.2020
1080 Clear 31 1012 37 0 3.58 275 13:57 19.06.2020
1081 Clear 31 1011 24 0 1.79 267 13:39 19.06.2020
1082 Clouds 31 1010 21 10000 4.94 302 13:19 19.06.2020
1083 Clouds 31 1011 25 10000 3.1 330 12:43 19.06.2020
1084 Clear 30 1010 33 0 0.89 329 12:20 19.06.2020
1085 Clouds 30 1011 27 10000 5.57 315 11:40 19.06.2020
1086 Clouds 29 1011 27 10000 5.2 315 11:19 19.06.2020
1087 Clouds 29 1011 28 10000 5.2 315 10:59 19.06.2020
1088 Clouds 29 1011 28 10000 5.22 321 10:41 19.06.2020
1089 Clouds 29 1011 28 10000 5.2 315 10:41 19.06.2020
1090 Clouds 29 1011 28 10000 5.2 315 10:41 19.06.2020
1091 Clouds 29 1011 28 10000 5.2 315 10:41 19.06.2020
1092 Clouds 28 1011 30 10000 5.22 321 10:20 19.06.2020
1093 Clouds 28 1011 30 10000 5.22 321 09:44 19.06.2020
1094 Clear 27 1010 38 0 1.34 336 09:25 19.06.2020
1095 Clear 27 1010 46 0 0.89 284 08:58 19.06.2020
1096 Clear 27 1011 37 10000 5.01 331 08:38 19.06.2020
1097 Clear 26 1011 37 10000 4 336 08:20 19.06.2020
1098 Clear 26 1011 47 10000 4 336 07:41 19.06.2020
1099 Clear 25 1011 47 10000 2.9 312 07:21 19.06.2020
1100 Clouds 24 1011 53 10000 2.9 312 06:45 19.06.2020
1101 Clouds 23 1010 53 10000 3.05 302 06:21 19.06.2020
1102 Clouds 23 1010 56 10000 2.86 306 05:28 19.06.2020
1103 Clouds 23 1010 50 10000 2.67 303 03:37 19.06.2020
1104 Clouds 23 1010 60 10000 2.31 306 02:20 19.06.2020
1105 Clouds 24 1010 53 10000 2.74 309 00:44 19.06.2020
1106 Clouds 24 1010 53 10000 2.74 309 00:44 19.06.2020
1107 Clouds 24 1010 53 10000 3.52 298 00:22 19.06.2020
1108 Clouds 24 1010 53 10000 3.52 298 23:57 18.06.2020
1109 Clouds 24 1010 50 10000 3.52 298 23:39 18.06.2020
1110 Clear 24 1009 58 0 2.24 144 23:20 18.06.2020
1111 Clouds 24 1009 47 10000 4.19 288 22:41 18.06.2020
1112 Clouds 24 1009 47 10000 3.94 287 22:20 18.06.2020
1113 Clouds 24 1009 47 10000 3.94 287 21:56 18.06.2020
1114 Clouds 25 1009 42 10000 3.61 285 21:37 18.06.2020
1115 Clear 25 1009 42 10000 3.19 302 21:19 18.06.2020
1116 Clouds 26 1008 39 10000 3.19 302 20:41 18.06.2020
1117 Clouds 27 1008 39 10000 2.79 322 20:21 18.06.2020
1118 Clouds 27 1008 35 10000 2.79 322 19:57 18.06.2020
1119 Clouds 28 1008 33 10000 2.79 322 19:39 18.06.2020
1120 Clouds 28 1008 33 10000 1.71 313 19:19 18.06.2020
1121 Clouds 28 1007 29 10000 1.71 313 19:19 18.06.2020
1122 Clouds 29 1007 25 10000 1.71 313 18:41 18.06.2020
1123 Clouds 30 1007 25 10000 2.17 301 18:22 18.06.2020
1124 Clouds 31 1007 25 10000 2.17 301 17:55 18.06.2020
1125 Clouds 30 1008 27 10000 2.17 301 17:37 18.06.2020
1126 Clouds 31 1008 27 10000 3.27 269 17:19 18.06.2020
1127 Clouds 31 1008 24 10000 3.27 269 16:43 18.06.2020
1128 Clouds 31 1008 24 10000 5.11 248 16:25 18.06.2020
1129 Clouds 31 1008 25 10000 5.11 248 15:58 18.06.2020
1130 Clouds 31 1008 27 10000 5.11 248 15:39 18.06.2020
1131 Clouds 31 1008 27 10000 5.61 251 15:20 18.06.2020
1132 Clouds 31 1008 27 10000 5.61 251 14:57 18.06.2020
1133 Clouds 31 1008 27 10000 5.61 251 14:38 18.06.2020
1134 Clouds 30 1008 27 10000 5.25 245 14:20 18.06.2020
1135 Clouds 30 1008 27 10000 5.25 245 13:48 18.06.2020
1136 Clouds 30 1008 27 10000 5.52 248 13:29 18.06.2020
1137 Clouds 30 1009 27 10000 5.52 248 12:58 18.06.2020
1138 Clouds 30 1009 29 10000 5.52 248 12:40 18.06.2020
1139 Clouds 30 1009 29 10000 5.52 248 12:40 18.06.2020
1140 Clear 29 1008 39 0 3.58 273 12:20 18.06.2020
1141 Clouds 29 1009 28 10000 5.71 258 11:57 18.06.2020
1142 Clouds 29 1009 30 10000 5.71 258 11:38 18.06.2020
1143 Clouds 28 1009 30 10000 4.29 261 11:19 18.06.2020
1144 Clouds 28 1009 30 10000 4.29 261 10:40 18.06.2020
1145 Clouds 27 1009 30 10000 3.25 268 10:19 18.06.2020
1146 Clouds 27 1009 32 10000 3.25 268 09:47 18.06.2020
1147 Clear 26 1009 42 10000 2.83 275 09:27 18.06.2020
1148 Clear 25 1009 47 10000 3.09 270 08:58 18.06.2020
1149 Clear 25 1009 50 10000 2.62 285 08:38 18.06.2020
1150 Clear 25 1009 50 10000 2.62 285 08:20 18.06.2020
1151 Clear 24 1009 53 10000 2.62 285 07:45 18.06.2020
1152 Clear 24 1009 53 10000 2.82 298 07:26 18.06.2020
1153 Clear 23 1009 64 10000 2.82 298 06:54 18.06.2020
1154 Clear 21 1008 64 10000 2.84 299 05:40 18.06.2020
1155 Clouds 22 1008 60 10000 3.38 297 04:21 18.06.2020
1156 Clouds 22 1008 60 10000 3.33 293 02:37 18.06.2020
1157 Clouds 23 1009 60 10000 5 291 01:28 18.06.2020
1158 Clouds 23 1009 60 10000 5 291 00:54 18.06.2020
1159 Clouds 23 1009 60 10000 5.34 286 00:32 18.06.2020
1160 Clouds 23 1009 60 10000 5.34 286 23:57 17.06.2020
1161 Clouds 23 1009 60 10000 5.34 286 23:38 17.06.2020
1162 Clouds 24 1009 60 10000 5.28 285 23:20 17.06.2020
1163 Clouds 24 1008 53 10000 5.28 285 22:57 17.06.2020
1164 Clouds 24 1008 50 10000 5.28 285 22:38 17.06.2020
1165 Clouds 24 1008 50 10000 5.28 285 22:37 17.06.2020
1166 Clouds 24 1008 50 10000 5.15 284 22:19 17.06.2020
1167 Clouds 24 1007 50 10000 5.15 284 21:42 17.06.2020
1168 Clouds 25 1007 50 10000 4.96 281 21:23 17.06.2020
1169 Clouds 25 1006 41 10000 5.34 272 20:59 17.06.2020
1170 -273 0 0 0 0 0 20:59 17.06.2020
1171 Clouds 25 1006 41 10000 5.34 272 20:38 17.06.2020
1172 Clouds 25 1006 39 10000 5.37 266 20:19 17.06.2020
1173 Clouds 26 1006 37 10000 5.37 266 19:46 17.06.2020
1174 Clouds 26 1006 37 10000 5.37 266 19:46 17.06.2020
1175 Clouds 27 1006 37 10000 6.36 261 19:23 17.06.2020
1176 Clouds 27 1006 37 10000 6.36 261 18:59 17.06.2020
1177 Clouds 27 1006 35 10000 6.36 261 18:40 17.06.2020
1178 Clouds 28 1006 35 10000 6.51 250 18:22 17.06.2020
1179 Clouds 28 1006 35 10000 6.51 250 17:44 17.06.2020
1180 Clouds 29 1006 35 10000 6.67 240 17:22 17.06.2020
1181 Clouds 29 1006 35 10000 6.67 240 17:22 17.06.2020
1182 Clouds 29 1006 32 10000 6.67 240 16:57 17.06.2020
1183 Clouds 29 1006 32 10000 6.67 240 16:38 17.06.2020
1184 Clouds 29 1006 32 10000 7.34 236 16:20 17.06.2020
1185 Clouds 29 1006 29 10000 7.34 236 15:56 17.06.2020
1186 Clouds 29 1006 29 10000 7.87 238 15:38 17.06.2020
1187 Clouds 29 1006 29 10000 7.87 238 15:19 17.06.2020
1188 Clouds 29 1006 30 10000 7.87 238 14:57 17.06.2020
1189 Clouds 30 1006 29 10000 8.07 247 14:38 17.06.2020
1190 Clouds 29 1006 29 10000 5.96 260 14:19 17.06.2020
1191 Clouds 29 1006 29 10000 5.96 260 14:19 17.06.2020
1192 Clouds 29 1006 29 10000 5.96 260 13:55 17.06.2020
1193 Clouds 29 1006 29 10000 5.96 260 13:36 17.06.2020
1194 Clouds 29 1007 30 10000 5.59 254 13:18 17.06.2020
1195 Clouds 29 1006 30 10000 5.59 254 12:41 17.06.2020
1196 Clouds 28 1006 30 10000 4.87 265 12:21 17.06.2020
1197 Clouds 28 1006 32 10000 4.87 265 11:45 17.06.2020
1198 Clouds 28 1006 32 10000 3.97 279 11:26 17.06.2020
1199 Clear 28 1006 35 10000 3.97 279 10:59 17.06.2020
1200 Clear 28 1006 35 10000 3.97 279 10:38 17.06.2020
1201 Clear 27 1006 37 10000 3.9 282 10:19 17.06.2020
1202 Clear 27 1006 37 10000 3.9 282 09:56 17.06.2020
1203 Clear 27 1006 37 10000 3.9 282 09:37 17.06.2020
1204 Clear 25 1006 51 0 1.34 171 09:19 17.06.2020
1205 Clear 25 1006 44 10000 3.07 294 08:45 17.06.2020
1206 Clear 24 1006 44 10000 2.94 302 08:20 17.06.2020
1207 Clear 24 1006 50 10000 2.94 302 07:55 17.06.2020
1208 Clear 24 1006 53 10000 2.94 302 07:37 17.06.2020
1209 Clear 24 1006 53 10000 3.03 307 07:19 17.06.2020
1210 Clear 23 1006 64 10000 3.03 307 06:41 17.06.2020
1211 Clear 22 1006 56 10000 2.95 309 06:23 17.06.2020
1212 Clear 21 1006 56 10000 2.95 309 05:59 17.06.2020
1213 Clear 22 1006 60 10000 2.66 306 04:39 17.06.2020
1214 Clear 22 1006 56 10000 3.37 302 02:44 17.06.2020
1215 Clear 23 1006 50 10000 2.88 276 01:28 17.06.2020
1216 Clouds 23 1007 53 10000 2.88 276 00:37 17.06.2020
1217 Clouds 23 1007 50 10000 2.81 273 00:19 17.06.2020
1218 Clouds 23 1007 50 10000 2.81 273 23:55 16.06.2020
1219 Clouds 23 1007 53 10000 2.81 273 23:37 16.06.2020
1220 Clouds 23 1007 53 10000 2.86 273 23:18 16.06.2020
1221 Clear 24 1007 57 10000 2.86 273 22:39 16.06.2020
1222 Clear 24 1006 50 10000 3.23 265 22:19 16.06.2020
1223 Clear 24 1006 50 10000 3.23 265 21:58 16.06.2020
1224 Clear 24 1006 53 10000 3.23 265 21:40 16.06.2020
1225 Clear 24 1006 53 10000 2.9 250 21:22 16.06.2020
1226 Clear 24 1006 57 10000 2.61 250 20:57 16.06.2020
1227 Clouds 25 1006 57 10000 2.61 250 20:39 16.06.2020
1228 Clouds 25 1005 50 10000 2.7 235 20:18 16.06.2020
1229 Clouds 25 1005 50 10000 2.7 235 19:56 16.06.2020
1230 Clouds 26 1005 47 10000 2.7 235 19:37 16.06.2020
1231 Clouds 26 1005 47 10000 2.77 206 19:18 16.06.2020
1232 Clouds 27 1005 42 10000 2.77 206 18:41 16.06.2020
1233 Clouds 27 1005 42 10000 3.81 206 18:21 16.06.2020
1234 Clouds 27 1004 37 10000 3.81 206 17:58 16.06.2020
1235 Clouds 28 1004 35 10000 4.93 206 17:38 16.06.2020
1236 Clear 27 1007 45 0 1.79 197 17:20 16.06.2020
1237 Clear 27 1007 45 0 2.24 140 16:58 16.06.2020
1238 Clear 28 1007 44 0 2.24 148 16:39 16.06.2020
1239 Clear 28 1007 46 0 1.79 175 16:19 16.06.2020
1240 Clear 28 1007 46 0 1.79 175 16:19 16.06.2020
1241 Clear 28 1007 48 0 1.79 189 15:56 16.06.2020
1242 Clear 29 1007 48 0 1.34 211 15:56 16.06.2020
1243 Clear 28 1007 48 0 1.79 189 15:56 16.06.2020
1244 Clouds 29 1005 27 10000 5.87 210 15:38 16.06.2020
1245 Clouds 29 1005 27 10000 6.13 219 15:20 16.06.2020
1246 Clouds 30 1005 25 10000 6.13 219 14:55 16.06.2020
1247 Clouds 30 1005 25 10000 6.94 215 14:36 16.06.2020
1248 Clouds 29 1006 27 10000 6.74 231 14:18 16.06.2020
1249 Clouds 30 1006 27 10000 6.74 231 13:44 16.06.2020
1250 Clouds 29 1006 27 10000 5.78 239 13:24 16.06.2020
1251 Clouds 29 1006 27 10000 5.78 239 13:24 16.06.2020
1252 Clouds 29 1006 27 10000 5.78 239 12:42 16.06.2020
1253 Clouds 29 1006 27 10000 4.53 242 12:22 16.06.2020
1254 Clouds 28 1006 27 10000 4.53 242 11:57 16.06.2020
1255 Clouds 28 1006 30 10000 4.53 242 11:39 16.06.2020
1256 Clouds 28 1006 30 10000 3.31 241 11:21 16.06.2020
1257 Clear 28 1006 30 10000 3.31 241 10:58 16.06.2020
1258 Clear 28 1006 32 10000 3.31 241 10:38 16.06.2020
1259 Clear 27 1006 32 10000 2.68 262 10:20 16.06.2020
1260 Clear 26 1007 36 10000 2.68 262 09:45 16.06.2020
1261 Clear 25 1007 41 10000 2.23 281 09:23 16.06.2020
1262 Clear 25 1007 41 10000 2.23 281 08:53 16.06.2020
1263 Clear 24 1007 44 10000 2.04 292 08:33 16.06.2020
1264 Clear 24 1007 44 10000 2.04 292 07:52 16.06.2020
1265 Clear 24 1007 53 10000 2.03 301 07:30 16.06.2020
1266 Clear 23 1007 56 10000 2.03 301 06:57 16.06.2020
1267 Clear 22 1007 56 10000 2.22 304 06:34 16.06.2020
1268 Clear 21 1007 56 10000 2.22 304 05:52 16.06.2020
1269 Clear 21 1006 53 10000 2.23 301 04:58 16.06.2020
1270 Clear 21 1006 53 10000 2.35 303 04:25 16.06.2020
1271 Clear 23 1006 53 10000 2.55 298 02:46 16.06.2020
1272 Clear 23 1007 60 10000 2.44 306 01:34 16.06.2020
1273 Clear 24 1007 60 10000 2.71 300 00:58 16.06.2020
1274 Clear 24 1007 53 10000 2.83 284 00:27 16.06.2020
1275 Clear 24 1007 47 10000 2.83 284 23:57 15.06.2020
1276 Clear 24 1007 47 10000 2.83 284 23:38 15.06.2020
1277 Clear 25 1007 44 10000 2.35 277 23:20 15.06.2020
1278 Clear 25 1007 41 10000 2.35 277 22:42 15.06.2020
1279 Clear 25 1007 41 10000 1.8 260 22:22 15.06.2020
1280 Clear 25 1007 41 10000 1.8 260 21:58 15.06.2020
1281 Clear 25 1007 39 10000 1.8 260 21:38 15.06.2020
1282 Clear 26 1007 39 10000 2.36 244 21:20 15.06.2020
1283 Clear 26 1007 39 10000 2.36 244 21:20 15.06.2020
1284 Clear 26 1009 56 0 2.36 244 20:59 15.06.2020
1285 Clear 26 1009 55 0 2.36 244 20:39 15.06.2020
1286 Clouds 26 1009 54 0 0.45 194 20:20 15.06.2020
1287 Clouds 27 1009 52 0 0.45 215 19:59 15.06.2020
1288 Clouds 27 1009 52 0 0.45 215 19:59 15.06.2020
1289 Clouds 27 1009 49 0 0.89 223 19:40 15.06.2020
1290 Clouds 27 1009 46 0 0.45 202 19:21 15.06.2020
1291 Clouds 27 1009 46 0 0.89 200 18:57 15.06.2020
1292 Clouds 28 1009 49 0 0.89 202 18:39 15.06.2020
1293 Clouds 28 1009 46 0 1.34 177 18:19 15.06.2020
1294 Clouds 28 1009 46 0 1.34 195 17:57 15.06.2020
1295 Clouds 28 1009 46 0 1.34 169 17:39 15.06.2020
1296 Clouds 29 1009 46 0 1.79 221 17:19 15.06.2020
1297 Clouds 29 1009 47 0 1.34 184 16:42 15.06.2020
1298 Clouds 29 1009 50 0 1.34 204 16:19 15.06.2020
1299 Clouds 29 1009 52 0 2.24 253 15:58 15.06.2020
1300 Clouds 30 1009 56 0 1.79 202 15:40 15.06.2020
1301 Clouds 30 1009 50 0 1.79 219 15:20 15.06.2020
1302 Clouds 30 1009 47 0 1.34 169 14:55 15.06.2020
1303 Clouds 31 1007 29 10000 5.53 219 14:37 15.06.2020
1304 Clouds 31 1008 29 10000 7.86 247 14:18 15.06.2020
1305 Clouds 31 1008 27 10000 7.86 247 13:42 15.06.2020
1306 Clouds 30 1008 27 10000 8.25 265 13:24 15.06.2020
1307 Clouds 30 1008 27 10000 8.25 265 13:24 15.06.2020
1308 Clouds 30 1007 33 0 3.58 235 12:59 15.06.2020
1309 Clouds 30 1007 33 0 2.68 263 12:40 15.06.2020
1310 Clouds 30 1007 32 0 2.24 184 12:21 15.06.2020
1311 Clouds 30 1008 22 10000 6.27 259 11:46 15.06.2020
1312 Clouds 29 1008 36 0 4.02 198 11:26 15.06.2020
1313 Clouds 29 1007 37 0 3.13 214 10:57 15.06.2020
1314 Clouds 29 1008 25 10000 3.95 256 10:38 15.06.2020
1315 Clouds 29 1008 25 10000 2.7 266 10:19 15.06.2020
1316 Clouds 29 1008 25 10000 2.7 266 10:19 15.06.2020
1317 Clouds 28 1008 27 10000 2.7 266 09:42 15.06.2020
1318 Clouds 28 1008 30 10000 2.72 267 09:22 15.06.2020
1319 Clouds 27 1008 34 10000 2.72 267 08:45 15.06.2020
1320 Clouds 26 1007 39 0 0.89 165 08:26 15.06.2020
1321 Clouds 26 1008 41 10000 2.72 275 07:52 15.06.2020
1322 Clouds 26 1008 41 10000 1.76 288 07:34 15.06.2020
1323 Clouds 25 1008 47 10000 1.76 288 06:57 15.06.2020
1324 Clouds 25 1008 47 10000 1.76 288 06:57 15.06.2020
1325 Clear 23 1008 46 10000 1.94 305 06:27 15.06.2020
1326 Clear 22 1007 46 10000 1.94 305 05:50 15.06.2020
1327 Clear 22 1007 46 10000 2.3 307 05:28 15.06.2020
1328 Clear 23 1007 49 10000 2.49 311 04:22 15.06.2020
1329 Clear 23 1007 47 10000 2.49 311 03:48 15.06.2020
1330 Clear 23 1007 44 10000 3.37 299 02:56 15.06.2020
1331 Clear 23 1007 47 10000 4.3 283 02:26 15.06.2020
1332 Clear 24 1007 50 10000 4.3 283 01:44 15.06.2020
1333 Clear 24 1007 50 10000 5.75 275 01:24 15.06.2020
1334 Clear 25 1007 41 10000 5.75 275 00:44 15.06.2020
1335 Clear 25 1007 44 10000 5.26 271 00:23 15.06.2020
1336 Clear 25 1007 44 10000 5.26 271 23:57 14.06.2020
1337 Clear 25 1007 50 10000 5.26 271 23:39 14.06.2020
1338 Clear 25 1007 50 10000 6.06 276 23:20 14.06.2020
1339 Clear 25 1007 44 10000 6.06 276 22:56 14.06.2020
1340 Clear 26 1006 44 10000 6.06 276 22:37 14.06.2020
1341 Clear 26 1006 44 10000 4.12 273 22:18 14.06.2020
1342 Clear 26 1006 44 10000 4.12 273 21:55 14.06.2020
1343 Clear 26 1008 53 0 0.45 228 21:37 14.06.2020
1344 Clear 26 1008 53 0 0.89 155 21:18 14.06.2020
1345 Clear 26 1008 53 0 0.89 295 21:18 14.06.2020
1346 Clear 26 1008 53 0 0.89 208 20:55 14.06.2020
1347 Clear 26 1008 53 0 0.89 204 20:36 14.06.2020
1348 Clear 26 1008 51 0 0.89 186 20:18 14.06.2020
1349 Clear 27 1007 49 0 0.89 208 19:55 14.06.2020
1350 Clouds 27 1005 42 10000 4.14 242 19:37 14.06.2020
1351 Clear 28 1007 48 0 1.34 177 19:18 14.06.2020
1352 Clear 28 1007 47 0 1.34 212 18:55 14.06.2020
1353 Clear 28 1007 46 0 1.34 165 18:37 14.06.2020
1354 Clear 29 1007 45 0 1.79 226 18:18 14.06.2020
1355 Clear 29 1007 49 0 1.79 183 17:40 14.06.2020
1356 Clear 29 1007 49 0 2.24 176 17:20 14.06.2020
1357 Clear 29 1007 47 0 1.34 170 16:59 14.06.2020
1358 Clear 29 1007 47 0 1.79 155 16:40 14.06.2020
1359 Clear 30 1007 48 0 1.34 190 16:20 14.06.2020
1360 Clear 30 1007 47 0 1.79 254 15:57 14.06.2020
1361 Clear 30 1008 47 0 2.24 204 15:37 14.06.2020
1362 Clear 30 1008 47 0 1.34 350 15:18 14.06.2020
1363 Clear 30 1008 47 0 1.79 196 14:41 14.06.2020
1364 Clear 30 1008 47 0 1.79 180 14:23 14.06.2020
1365 Clouds 31 1006 23 10000 4.91 251 13:59 14.06.2020
1366 Clouds 32 1006 22 10000 4.91 251 13:41 14.06.2020
1367 Clouds 31 1006 22 10000 5.37 261 13:22 14.06.2020
1368 Clouds 30 1006 22 10000 5.37 261 12:57 14.06.2020
1369 Clouds 30 1006 24 10000 5.37 261 12:39 14.06.2020
1370 Clouds 30 1006 25 10000 4.9 261 12:21 14.06.2020
1371 Clouds 30 1006 25 10000 4.9 261 11:58 14.06.2020
1372 Clouds 30 1006 25 10000 4.9 261 11:38 14.06.2020
1373 Clear 29 1006 37 0 3.13 203 11:20 14.06.2020
1374 Clouds 28 1006 30 10000 4.29 259 10:42 14.06.2020
1375 Clouds 28 1006 30 10000 3.64 263 10:21 14.06.2020
1376 Clouds 28 1006 35 10000 3.64 263 09:58 14.06.2020
1377 Clouds 27 1007 44 10000 3.64 263 09:40 14.06.2020
1378 Clouds 26 1007 44 10000 2.69 267 09:21 14.06.2020
1379 Clouds 25 1007 47 10000 2.69 267 08:42 14.06.2020
1380 Clouds 24 1007 47 10000 2.51 282 08:22 14.06.2020
1381 Clouds 24 1007 50 10000 2.51 282 07:52 14.06.2020
1382 Clouds 24 1006 60 10000 2.51 282 07:34 14.06.2020
1383 Clouds 22 1006 60 10000 2.2 298 06:51 14.06.2020
1384 Clouds 20 1006 68 10000 2.6 296 05:51 14.06.2020
1385 Clouds 20 1006 68 10000 2.17 303 05:22 14.06.2020
1386 Clouds 21 1006 64 10000 2.17 303 04:37 14.06.2020
1387 Clouds 22 1006 64 10000 1.74 324 03:45 14.06.2020
1388 Clouds 22 1006 64 10000 2.17 312 02:35 14.06.2020
1389 Clouds 22 1006 64 10000 2.37 308 01:55 14.06.2020
1390 Clouds 22 1006 60 10000 2.87 291 01:26 14.06.2020
1391 Clouds 22 1006 60 10000 2.87 291 00:47 14.06.2020
1392 Clouds 22 1006 60 10000 2.62 283 00:20 14.06.2020
1393 Clouds 22 1007 60 10000 2.62 283 00:20 14.06.2020
1394 Clouds 22 1007 60 10000 2.62 283 23:46 13.06.2020
1395 Clouds 23 1007 56 10000 2.41 276 23:26 13.06.2020
1396 Clouds 22 1007 56 10000 2.41 276 22:58 13.06.2020
1397 Clouds 23 1007 60 10000 2.41 276 22:38 13.06.2020
1398 Clouds 23 1007 60 10000 0.91 264 22:19 13.06.2020
1399 Clouds 23 1007 57 10000 0.91 264 21:57 13.06.2020
1400 Clouds 23 1006 57 10000 0.91 264 21:39 13.06.2020
1401 Clouds 24 1006 53 10000 1.25 167 21:21 13.06.2020
1402 Clouds 23 1006 57 10000 1.25 167 20:44 13.06.2020
1403 Clouds 24 1006 57 10000 1.6 151 20:20 13.06.2020
1404 Clouds 24 1006 50 10000 1.6 151 19:59 13.06.2020
1405 Clouds 24 1006 47 10000 1.6 151 19:38 13.06.2020
1406 Clouds 25 1006 47 10000 2.25 152 19:19 13.06.2020
1407 Clouds 26 1006 42 10000 2.25 152 18:58 13.06.2020
1408 Clouds 26 1006 42 10000 2.25 152 18:38 13.06.2020
1409 Clouds 26 1006 42 10000 3.75 174 18:19 13.06.2020
1410 Clouds 26 1006 39 10000 3.75 174 17:56 13.06.2020
1411 Clouds 26 1006 44 10000 3.75 174 17:37 13.06.2020
1412 Clouds 26 1006 44 10000 3.8 174 17:19 13.06.2020
1413 Clouds 26 1008 55 0 0.89 226 16:54 13.06.2020
1414 Clouds 26 1008 58 0 1.34 239 16:36 13.06.2020
1415 Clouds 27 1008 53 0 1.34 273 16:18 13.06.2020
1416 Clouds 27 1008 48 0 0.89 211 15:41 13.06.2020
1417 Clouds 27 1006 39 0 2.24 170 15:21 13.06.2020
1418 Clouds 27 1006 34 10000 2.78 188 14:44 13.06.2020
1419 Clouds 27 1006 34 10000 1.67 195 14:24 13.06.2020
1420 Clouds 26 1006 32 10000 1.67 195 13:57 13.06.2020
1421 Clouds 26 1008 50 0 0.89 180 13:38 13.06.2020
1422 Clouds 27 1007 30 10000 1.6 253 13:19 13.06.2020
1423 Clouds 27 1007 28 10000 1.6 253 12:43 13.06.2020
1424 Clouds 28 1007 28 10000 2.95 269 12:25 13.06.2020
1425 Clouds 27 1007 32 10000 2.95 269 11:57 13.06.2020
1426 Clouds 27 1007 32 10000 2.93 270 11:38 13.06.2020
1427 Clouds 27 1007 30 10000 2.93 270 11:19 13.06.2020
1428 Clouds 27 1007 30 10000 2.93 270 10:55 13.06.2020
1429 Clouds 27 1007 32 10000 2.93 270 10:37 13.06.2020
1430 Clouds 27 1007 34 10000 2.73 279 10:18 13.06.2020
1431 Clouds 26 1007 41 10000 2.73 279 09:42 13.06.2020
1432 Clouds 25 1007 41 10000 2.26 291 09:20 13.06.2020
1433 Clouds 24 1007 47 10000 2.26 291 08:46 13.06.2020
1434 Clouds 24 1007 47 10000 2.06 305 08:28 13.06.2020
1435 Clouds 23 1007 56 10000 2.06 305 07:50 13.06.2020
1436 Clouds 22 1007 56 10000 2.21 312 07:27 13.06.2020
1437 Clouds 21 1007 64 10000 2.21 312 06:47 13.06.2020
1438 Clouds 20 1007 64 10000 2.44 325 06:27 13.06.2020
1439 Clouds 20 1007 68 10000 2.44 325 05:36 13.06.2020
1440 Clouds 20 1007 68 10000 2.44 318 04:59 13.06.2020
1441 Clouds 21 1007 60 10000 2.58 312 03:47 13.06.2020
1442 Clouds 21 1007 60 10000 2.54 306 02:53 13.06.2020
1443 Clouds 21 1008 60 10000 2.52 305 02:29 13.06.2020
1444 Clouds 21 1008 56 10000 2.52 305 01:37 13.06.2020
1445 Clouds 21 1008 56 10000 2.3 295 01:18 13.06.2020
1446 Clouds 22 1008 56 10000 2.3 295 00:39 13.06.2020
1447 Clouds 22 1008 56 10000 2.49 305 00:21 13.06.2020
1448 Clouds 22 1008 53 10000 2.49 305 23:41 12.06.2020
1449 Clouds 23 1008 53 10000 2.78 304 23:19 12.06.2020
1450 Clouds 23 1008 47 10000 2.78 304 22:56 12.06.2020
1451 Clear 22 1007 54 0 2.78 304 22:38 12.06.2020
1452 Clear 22 1007 55 0 1.34 141 22:18 12.06.2020
1453 Clouds 23 1007 47 10000 1.31 319 21:44 12.06.2020
1454 Clouds 23 1007 47 10000 0.62 266 21:24 12.06.2020
1455 Clouds 23 1007 44 10000 0.57 194 20:58 12.06.2020
1456 Clear 23 1009 57 0 0.89 193 20:39 12.06.2020
1457 Clouds 24 1008 55 0 0.45 178 20:21 12.06.2020
1458 Clouds 24 1008 54 0 0.89 226 19:54 12.06.2020
1459 Clouds 24 1008 51 0 0.89 173 19:36 12.06.2020
1460 Clouds 25 1008 48 0 1.34 253 19:18 12.06.2020
1461 Clouds 25 1008 48 0 0.89 205 18:37 12.06.2020
1462 Clouds 26 1008 46 0 2.24 202 18:18 12.06.2020
1463 Clouds 26 1008 47 0 0.89 219 17:46 12.06.2020
1464 Clouds 26 1005 42 0 3.58 148 17:27 12.06.2020
1465 Clouds 27 1005 34 0 2.68 298 16:58 12.06.2020
1466 Clouds 27 1005 32 0 3.13 217 16:40 12.06.2020
1467 Clouds 27 1005 32 0 3.13 244 16:19 12.06.2020
1468 Clouds 28 1006 25 10000 3.59 228 15:45 12.06.2020
1469 Clear 27 1005 32 0 3.13 207 15:20 12.06.2020
1470 Clear 27 1006 32 0 4.02 201 14:44 12.06.2020
1471 Clear 27 1006 33 0 3.13 257 14:23 12.06.2020
1472 Clouds 27 1007 23 10000 5.16 243 13:59 12.06.2020
1473 Clouds 27 1007 26 10000 5.16 243 13:40 12.06.2020
1474 Clouds 27 1007 26 10000 5.49 250 13:19 12.06.2020
1475 Clouds 27 1007 26 10000 5.49 250 12:40 12.06.2020
1476 Clouds 27 1008 26 10000 5.17 259 12:19 12.06.2020
1477 Clouds 27 1008 26 10000 5.17 259 11:56 12.06.2020
1478 Clouds 26 1008 26 10000 5.17 259 11:37 12.06.2020
1479 Clear 26 1007 38 0 3.13 219 11:19 12.06.2020
1480 Clear 25 1008 28 10000 3.43 275 10:43 12.06.2020
1481 Clear 25 1008 28 10000 3.43 275 10:23 12.06.2020
1482 Clear 25 1008 29 10000 3.43 275 09:44 12.06.2020
1483 Clear 24 1008 29 10000 3.06 282 09:21 12.06.2020
1484 Clear 24 1008 44 10000 3.06 282 08:44 12.06.2020
1485 Clouds 23 1008 44 10000 2.9 294 08:24 12.06.2020
1486 Clouds 22 1008 56 10000 2.9 294 07:44 12.06.2020
1487 Clouds 22 1008 56 10000 3.2 304 07:25 12.06.2020
1488 Clouds 21 1008 60 10000 3.2 304 06:55 12.06.2020
1489 Clouds 20 1008 60 10000 3.42 303 06:30 12.06.2020
1490 Clouds 20 1008 56 10000 3.42 303 05:53 12.06.2020
1491 Clouds 20 1008 60 10000 3.43 303 05:29 12.06.2020
1492 Clouds 20 1008 52 10000 3.43 303 04:55 12.06.2020
1493 Clouds 20 1007 60 10000 4.14 291 03:20 12.06.2020
1494 Clouds 21 1008 49 10000 4.22 286 01:53 12.06.2020
1495 Clouds 21 1008 46 10000 4.44 291 01:27 12.06.2020
1496 Clouds 22 1008 40 10000 4.44 291 00:45 12.06.2020
1497 Clouds 22 1008 40 10000 5.15 288 00:25 12.06.2020
1498 Clouds 22 1008 43 10000 5.15 288 23:59 11.06.2020
1499 Clouds 21 1008 43 10000 5.15 288 23:41 11.06.2020
1500 Clouds 22 1008 43 10000 5.27 291 23:21 11.06.2020
1501 Clouds 22 1008 35 10000 5.27 291 22:59 11.06.2020
1502 Clear 22 1007 43 0 5.27 291 22:39 11.06.2020
1503 Clouds 23 1008 33 10000 6.51 293 22:20 11.06.2020
1504 Clouds 23 1008 33 10000 6.51 293 21:56 11.06.2020
1505 Clouds 23 1007 36 10000 6.02 287 21:38 11.06.2020
1506 Clouds 23 1007 33 10000 6.02 287 21:20 11.06.2020
1507 Clouds 24 1007 33 10000 6.02 287 20:45 11.06.2020
1508 Clouds 24 1007 33 10000 6.92 278 20:22 11.06.2020
1509 Clear 25 1009 42 0 1.79 312 19:55 11.06.2020
1510 Clear 25 1008 40 0 2.24 290 19:37 11.06.2020
1511 Clouds 25 1007 28 10000 6.92 278 19:37 11.06.2020
1512 Clouds 26 1007 28 10000 7.91 278 19:18 11.06.2020
1513 Clouds 26 1006 26 10000 7.91 278 18:42 11.06.2020
1514 Clouds 27 1006 26 10000 9.22 280 18:24 11.06.2020
1515 Clouds 27 1006 25 10000 9.22 280 17:57 11.06.2020
1516 Clouds 28 1006 25 10000 9.56 275 17:38 11.06.2020
1517 Clouds 28 1007 25 10000 9.56 275 17:19 11.06.2020
1518 Clouds 28 1007 26 10000 9.56 275 16:57 11.06.2020
1519 Clouds 28 1007 26 10000 9.56 275 16:38 11.06.2020
1520 Clear 28 1008 37 0 4.92 31 16:20 11.06.2020
1521 Clouds 28 1007 26 10000 8.31 273 15:43 11.06.2020
1522 Clouds 28 1007 25 10000 7.3 261 15:25 11.06.2020
1523 Clear 27 1007 35 0 4.92 232 14:58 11.06.2020
1524 Clouds 28 1007 28 10000 7.3 261 14:39 11.06.2020
1525 Clouds 28 1007 28 10000 7.3 261 14:39 11.06.2020
1526 Clouds 28 1007 23 10000 7.67 265 14:20 11.06.2020
1527 Clouds 28 1007 23 10000 7.67 265 13:55 11.06.2020
1528 Clouds 28 1007 23 10000 7.67 265 13:37 11.06.2020
1529 Clouds 28 1008 25 10000 7.86 272 13:18 11.06.2020
1530 Clouds 27 1008 28 10000 7.86 272 12:54 11.06.2020
1531 Clouds 27 1008 26 10000 8.22 280 12:36 11.06.2020
1532 Clouds 27 1008 26 10000 8.22 280 12:18 11.06.2020
1533 Clouds 27 1008 26 10000 8.22 280 11:56 11.06.2020
1534 Clouds 27 1008 26 10000 8.22 280 11:37 11.06.2020
1535 Clouds 26 1008 26 10000 5.64 270 11:18 11.06.2020
1536 Clouds 26 1008 26 10000 5.64 270 10:42 11.06.2020
1537 Clouds 26 1008 30 10000 5.15 273 10:20 11.06.2020
1538 Clouds 26 1008 36 10000 5.15 273 09:56 11.06.2020
1539 Clouds 26 1008 36 10000 5.15 273 09:38 11.06.2020
1540 Clear 24 1007 49 0 2.24 195 09:20 11.06.2020
1541 Clear 24 1008 41 10000 5.24 279 08:39 11.06.2020
1542 Clear 24 1007 56 0 0.89 157 08:19 11.06.2020
1543 Clouds 24 1008 44 10000 5.15 277 07:42 11.06.2020
1544 Clouds 23 1008 50 10000 4.09 283 07:24 11.06.2020
1545 Clear 22 1010 62 0 0.89 11 06:37 11.06.2020
1546 Clouds 21 1008 68 10000 3.7 291 05:58 11.06.2020
1547 Clear 21 1008 64 10000 3.55 288 04:49 11.06.2020
1548 Clear 22 1008 56 10000 4.15 290 03:25 11.06.2020
1549 Clear 22 1010 60 0 0.45 62 02:49 11.06.2020
1550 Clear 22 1007 53 10000 5.06 283 01:57 11.06.2020
1551 Clear 22 1007 53 10000 5.06 283 01:35 11.06.2020
1552 Clear 23 1007 50 10000 4.49 279 00:59 11.06.2020
1553 Clear 23 1008 47 10000 4.49 279 00:39 11.06.2020
1554 Clear 23 1008 47 10000 4.4 279 00:20 11.06.2020
1555 Clear 23 1008 47 10000 4.4 279 23:43 10.06.2020
1556 Clear 23 1009 57 0 4.43 279 23:23 10.06.2020
1557 Clear 24 1007 44 10000 4.43 279 22:55 10.06.2020
1558 Clear 24 1007 44 10000 4.43 279 22:37 10.06.2020
1559 Clear 24 1007 47 10000 4.38 278 22:18 10.06.2020
1560 Clear 24 1007 50 10000 4.38 278 21:55 10.06.2020
1561 Clear 24 1007 50 10000 4.38 278 21:37 10.06.2020
1562 Clouds 24 1007 47 10000 3.82 268 21:18 10.06.2020
1563 Clouds 25 1007 50 10000 3.82 268 20:55 10.06.2020
1564 Clouds 25 1007 50 10000 3.82 268 20:37 10.06.2020
1565 Clear 25 1009 56 0 0.45 234 20:18 10.06.2020
1566 Clear 26 1008 53 0 0.89 244 19:38 10.06.2020
1567 Clear 26 1008 55 0 0.89 222 19:18 10.06.2020
1568 Clouds 27 1007 44 10000 3.07 220 18:56 10.06.2020
1569 Clouds 27 1007 44 10000 3.07 220 18:37 10.06.2020
1570 Clouds 27 1007 42 10000 3.41 215 18:19 10.06.2020
1571 Clouds 28 1007 42 10000 3.41 215 17:54 10.06.2020
1572 Clouds 27 1007 42 10000 3.41 215 17:36 10.06.2020
1573 Clouds 27 1007 42 10000 3.93 208 17:18 10.06.2020
1574 Clouds 27 1007 42 10000 3.93 208 16:41 10.06.2020
1575 Clouds 28 1007 35 10000 4.38 210 16:22 10.06.2020
1576 Clouds 28 1007 35 10000 4.38 210 16:22 10.06.2020
1577 Clear 28 1009 60 0 2.24 204 15:59 10.06.2020
1578 Clear 28 1009 50 0 1.34 209 15:39 10.06.2020
1579 Clear 28 1009 51 0 2.24 248 15:20 10.06.2020
1580 Clouds 29 1007 30 10000 4.55 214 14:55 10.06.2020
1581 Clouds 29 1007 30 10000 4.55 214 14:37 10.06.2020
1582 Clear 29 1009 46 0 1.79 190 14:19 10.06.2020
1583 Clear 29 1007 41 0 3.58 155 13:39 10.06.2020
1584 Clear 29 1009 48 0 0.89 114 13:21 10.06.2020
1585 Clouds 29 1008 24 10000 6.44 247 12:43 10.06.2020
1586 Clear 28 1008 46 0 3.13 191 12:20 10.06.2020
1587 Clouds 28 1008 29 10000 6.47 262 11:56 10.06.2020
1588 Clouds 28 1008 29 10000 6.47 262 11:38 10.06.2020
1589 Clear 27 1008 46 0 3.13 215 11:19 10.06.2020
1590 Clear 27 1008 46 0 3.13 215 11:19 10.06.2020
1591 Clear 27 1010 49 0 1.79 228 10:55 10.06.2020
1592 Clouds 27 1008 35 10000 4.4 254 10:36 10.06.2020
1593 Clouds 27 1008 39 10000 2.97 251 10:18 10.06.2020
1594 Clouds 26 1008 44 10000 2.62 243 09:40 10.06.2020
1595 Clouds 25 1009 44 10000 1.64 258 09:22 10.06.2020
1596 Clear 24 1009 47 10000 1.64 258 08:44 10.06.2020
1597 Clear 24 1008 50 10000 1.15 282 08:23 10.06.2020
1598 Clear 23 1008 57 10000 1.15 282 07:54 10.06.2020
1599 Clear 23 1008 57 10000 1.15 282 07:36 10.06.2020
1600 Clear 23 1008 53 10000 1.19 327 07:18 10.06.2020
1601 Clear 23 1008 56 10000 1.19 327 06:44 10.06.2020
1602 Clear 21 1008 64 10000 1.54 326 06:19 10.06.2020
1603 Clear 21 1008 64 10000 1.54 326 05:55 10.06.2020
1604 Clear 21 1008 64 10000 1.5 322 05:23 10.06.2020
1605 Clear 21 1007 60 10000 1.52 318 04:30 10.06.2020
1606 Clear 21 1007 68 10000 1.4 308 02:49 10.06.2020
1607 Clear 21 1008 68 10000 1.65 286 01:54 10.06.2020
1608 Clear 22 1008 68 10000 1.46 274 01:31 10.06.2020
1609 Clear 22 1008 64 10000 1.46 274 00:39 10.06.2020
1610 Clear 22 1008 64 10000 1.42 262 00:21 10.06.2020
1611 Clear 22 1008 60 10000 1.42 262 23:55 09.06.2020
1612 Clear 22 1008 68 10000 1.56 260 23:36 09.06.2020
1613 Clear 22 1008 68 10000 1.56 260 23:18 09.06.2020
1614 Clear 23 1008 33 10000 1.56 260 22:54 09.06.2020
1615 Clear 23 1008 33 10000 1.56 260 22:36 09.06.2020
1616 Clear 23 1008 64 10000 0.94 226 22:18 09.06.2020
1617 Clear 23 1008 64 10000 0.94 226 21:54 09.06.2020
1618 Clear 23 1008 64 10000 0.56 239 21:36 09.06.2020
1619 Clear 23 1007 69 10000 1.21 205 21:18 09.06.2020
1620 Clouds 24 1007 64 10000 1.21 205 20:55 09.06.2020
1621 Clouds 24 1007 60 10000 1.77 189 20:37 09.06.2020
1622 Clouds 24 1007 60 10000 1.77 189 20:18 09.06.2020
1623 Clouds 25 1007 57 10000 1.77 189 19:54 09.06.2020
1624 Clouds 25 1007 54 10000 2.58 187 19:36 09.06.2020
1625 Clouds 25 1007 54 10000 2.58 187 19:18 09.06.2020
1626 Clouds 25 1007 54 10000 2.58 187 19:18 09.06.2020
1627 Clouds 26 1006 50 10000 2.58 187 18:43 09.06.2020
1628 Clouds 26 1006 50 10000 3.49 199 18:25 09.06.2020
1629 Clouds 27 1006 44 10000 3.49 199 17:57 09.06.2020
1630 Clouds 27 1006 44 10000 3.49 199 17:38 09.06.2020
1631 Clouds 27 1006 44 10000 3.49 199 17:38 09.06.2020
1632 Clouds 27 1006 47 10000 3.72 193 17:20 09.06.2020
1633 Clouds 27 1006 51 10000 3.72 193 16:55 09.06.2020
1634 Clouds 27 1006 51 10000 3.72 193 16:36 09.06.2020
1635 Clouds 28 1006 51 10000 4.12 192 16:18 09.06.2020
1636 Clouds 28 1006 51 10000 4.12 192 15:39 09.06.2020
1637 Clouds 28 1006 51 10000 4.92 190 15:21 09.06.2020
1638 Clouds 28 1006 51 10000 4.92 190 14:57 09.06.2020
1639 Clouds 28 1006 51 10000 4.5 184 14:37 09.06.2020
1640 Clouds 28 1006 42 10000 4.55 185 14:18 09.06.2020
1641 Clouds 27 1006 42 10000 4.55 185 13:43 09.06.2020
1642 Clouds 26 1006 45 10000 3.97 176 13:21 09.06.2020
1643 Clouds 27 1006 42 10000 3.97 176 12:59 09.06.2020
1644 Clouds 27 1006 42 10000 3.97 176 12:41 09.06.2020
1645 Clouds 27 1007 45 10000 3.54 183 12:19 09.06.2020
1646 Clouds 26 1007 45 10000 3.54 183 11:56 09.06.2020
1647 Clouds 26 1007 45 10000 3.54 183 11:56 09.06.2020
1648 Clouds 26 1007 45 10000 3.54 183 11:37 09.06.2020
1649 Clouds 26 1007 47 10000 3.48 202 11:19 09.06.2020
1650 Clouds 25 1007 54 10000 3.48 202 10:45 09.06.2020
1651 Clouds 24 1007 57 10000 2.17 171 10:25 09.06.2020
1652 Clouds 25 1007 57 10000 2.17 171 09:57 09.06.2020
1653 Clouds 25 1007 57 10000 2.17 171 09:38 09.06.2020
1654 Clouds 24 1006 57 10000 1.89 169 09:18 09.06.2020
1655 Clouds 24 1006 60 10000 1.89 169 08:39 09.06.2020
1656 Clouds 24 1006 60 10000 1.89 169 08:39 09.06.2020
1657 Clouds 24 1006 60 10000 1.89 169 08:39 09.06.2020
1658 Clouds 23 1008 75 0 0.45 248 08:20 09.06.2020
1659 Clouds 23 1007 60 10000 1.7 134 07:42 09.06.2020
1660 Clouds 23 1007 60 10000 1.14 134 07:22 09.06.2020
1661 Clouds 23 1008 75 0 1.14 134 06:55 09.06.2020
1662 Clouds 22 1007 68 10000 1.14 134 06:36 09.06.2020
1663 Clouds 21 1007 68 10000 0.58 128 05:37 09.06.2020
1664 Clouds 21 1007 68 10000 0.93 236 03:53 09.06.2020
1665 Clouds 22 1007 68 10000 0.81 135 02:20 09.06.2020
1666 Clouds 22 1008 68 10000 0.81 135 01:36 09.06.2020
1667 Clouds 22 1008 68 10000 0.98 201 01:18 09.06.2020
1668 Clouds 23 1008 64 10000 0.98 201 00:40 09.06.2020
1669 Clouds 23 1008 64 10000 1.02 201 00:19 09.06.2020
1670 Clear 23 1008 64 10000 1.02 201 23:41 08.06.2020
1671 Clear 23 1008 64 10000 0.86 212 23:21 08.06.2020
1672 Clear 23 1008 64 10000 0.86 212 22:58 08.06.2020
1673 Clear 23 1008 64 10000 0.86 212 22:38 08.06.2020
1674 Clear 23 1008 64 10000 0.86 212 22:38 08.06.2020
1675 Clear 23 1008 60 10000 0.81 198 22:20 08.06.2020
1676 Clear 23 1008 69 10000 0.81 198 21:55 08.06.2020
1677 Clear 23 1008 69 10000 0.81 198 21:37 08.06.2020
1678 Clouds 24 1008 69 10000 1.73 195 21:18 08.06.2020
1679 Clouds 24 1008 69 10000 1.73 195 20:55 08.06.2020
1680 Clouds 24 1008 69 10000 1.73 195 20:36 08.06.2020
1681 Clouds 24 1008 64 10000 2.22 182 20:18 08.06.2020
1682 Clouds 24 1008 64 10000 2.22 182 20:18 08.06.2020
1683 Clouds 24 1008 64 10000 2.22 182 19:43 08.06.2020
1684 Clear 25 1008 61 10000 2.7 193 19:21 08.06.2020
1685 Clear 26 1008 57 10000 2.7 193 18:43 08.06.2020
1686 Clear 26 1007 54 10000 2.9 189 18:21 08.06.2020
1687 Clear 26 1007 50 10000 2.9 189 17:58 08.06.2020
1688 Clear 26 1007 50 10000 2.9 189 17:58 08.06.2020
1689 Clear 26 1007 50 10000 2.9 189 17:40 08.06.2020
1690 Clear 27 1008 47 10000 3.42 201 17:21 08.06.2020
1691 Clouds 27 1008 45 10000 3.42 201 16:58 08.06.2020
1692 Clouds 27 1008 45 10000 3.42 201 16:39 08.06.2020
1693 Clouds 27 1008 45 10000 3.42 201 16:39 08.06.2020
1694 Clouds 28 1008 42 10000 4.06 207 16:21 08.06.2020
1695 Clouds 28 1008 42 10000 4.06 207 15:43 08.06.2020
1696 Clouds 28 1008 39 10000 4.54 209 15:22 08.06.2020
1697 Clouds 28 1008 37 10000 4.54 209 14:58 08.06.2020
1698 Clouds 28 1008 37 10000 4.54 209 14:58 08.06.2020
1699 Clouds 28 1008 37 10000 4.54 209 14:39 08.06.2020
1700 Clouds 28 1008 35 10000 4.17 206 14:19 08.06.2020
1701 Clouds 28 1008 35 10000 4.17 206 13:43 08.06.2020
1702 Clouds 28 1008 35 10000 3.85 219 13:23 08.06.2020
1703 Clouds 28 1008 39 10000 3.85 219 12:43 08.06.2020
1704 Clouds 27 1008 39 10000 3.4 224 12:20 08.06.2020
1705 Clouds 27 1008 45 10000 3.4 224 11:59 08.06.2020
1706 Clouds 27 1008 45 10000 3.4 224 11:40 08.06.2020
1707 Clouds 27 1008 45 10000 2.52 221 11:22 08.06.2020
1708 Clouds 27 1008 45 10000 2.52 221 11:22 08.06.2020
1709 Clouds 26 1008 45 10000 2.52 221 10:58 08.06.2020
1710 Clouds 27 1008 45 10000 2.52 221 10:38 08.06.2020
1711 Clouds 26 1008 47 10000 2.34 236 10:20 08.06.2020
1712 Clouds 26 1008 47 10000 2.34 236 10:20 08.06.2020
1713 Clouds 25 1008 47 10000 2.34 236 09:57 08.06.2020
1714 Clouds 25 1008 47 10000 2.34 236 09:57 08.06.2020
1715 Clouds 25 1008 47 10000 2.34 236 09:57 08.06.2020
1716 Clouds 25 1008 47 10000 1.96 227 09:39 08.06.2020
1717 Clear 25 1008 50 10000 1.59 244 09:20 08.06.2020
1718 Clear 24 1008 53 10000 1.59 244 08:44 08.06.2020
1719 Clouds 24 1008 57 10000 0.86 272 08:21 08.06.2020
1720 Clouds 23 1008 64 10000 0.86 272 07:46 08.06.2020
1721 Clouds 22 1008 60 10000 1.59 284 07:21 08.06.2020
1722 Clouds 21 1010 68 0 0.45 173 06:49 08.06.2020
1723 Clouds 21 1008 77 10000 1.58 285 06:28 08.06.2020
1724 Clouds 20 1008 77 10000 1.58 285 05:46 08.06.2020
1725 Clouds 20 1008 77 10000 1.43 298 04:27 08.06.2020
1726 Clouds 20 1008 77 10000 1.45 282 02:32 08.06.2020
1727 Clouds 21 1010 66 0 0.89 286 01:45 08.06.2020
1728 Clear 21 1009 72 10000 0.83 254 01:26 08.06.2020
1729 Clear 21 1009 68 10000 0.83 254 00:30 08.06.2020
1730 Clouds 22 1009 68 10000 0.94 217 23:41 07.06.2020
1731 Clouds 22 1009 73 10000 1.32 196 23:20 07.06.2020
1732 Clouds 22 1009 73 10000 1.32 196 22:59 07.06.2020
1733 Clouds 22 1009 68 10000 1.32 196 22:39 07.06.2020
1734 Clouds 22 1009 68 10000 1.71 187 22:19 07.06.2020
1735 Clouds 22 1009 68 10000 1.71 187 21:59 07.06.2020
1736 Clear 22 1009 68 10000 1.87 174 21:38 07.06.2020
1737 Clear 22 1009 64 10000 1.87 174 21:20 07.06.2020
1738 Clouds 22 1009 64 10000 1.87 168 20:56 07.06.2020
1739 Clouds 23 1009 64 10000 1.87 168 20:37 07.06.2020
1740 Clouds 23 1009 60 10000 2.66 177 20:18 07.06.2020
1741 Clouds 23 1008 57 10000 2.66 177 19:55 07.06.2020
1742 Clouds 24 1008 50 10000 3.91 188 19:37 07.06.2020
1743 Clouds 24 1008 50 10000 3.91 188 19:18 07.06.2020
1744 Clouds 24 1008 50 10000 3.91 188 18:42 07.06.2020
1745 Clouds 24 1008 50 10000 4.5 196 18:23 07.06.2020
1746 Clouds 24 1008 50 10000 4.5 196 18:00 07.06.2020
1747 Clouds 24 1008 50 10000 4.5 196 17:40 07.06.2020
1748 Clouds 25 1008 47 10000 4.73 203 17:22 07.06.2020
1749 Clouds 25 1008 47 10000 4.73 203 16:45 07.06.2020
1750 Clouds 25 1008 47 10000 4.69 199 16:23 07.06.2020
1751 Clouds 25 1008 47 10000 4.69 199 15:57 07.06.2020
1752 Clouds 25 1008 50 10000 4.69 199 15:36 07.06.2020
1753 Clouds 26 1008 47 10000 4.49 202 15:18 07.06.2020
1754 Clear 26 1010 56 0 1.34 187 14:38 07.06.2020
1755 Clouds 26 1008 42 10000 3.88 211 14:19 07.06.2020
1756 Clouds 26 1008 44 10000 3.88 211 13:47 07.06.2020
1757 Clouds 26 1008 44 10000 3.88 211 13:46 07.06.2020
1758 Clouds 26 1008 44 10000 3.88 211 13:46 07.06.2020
1759 Clouds 26 1008 44 10000 3.88 211 13:46 07.06.2020
1760 Clouds 26 1008 44 10000 3.99 216 13:20 07.06.2020
1761 Clouds 25 1008 44 10000 3.99 216 12:45 07.06.2020
1762 Clouds 25 1009 44 10000 2.88 214 12:27 07.06.2020
1763 Clouds 25 1009 44 10000 2.88 214 11:56 07.06.2020
1764 Clouds 25 1009 44 10000 2.88 214 11:38 07.06.2020
1765 Clouds 25 1008 44 10000 2.18 227 11:20 07.06.2020
1766 Clouds 24 1008 44 10000 2.18 227 10:59 07.06.2020
1767 Clouds 24 1008 44 10000 2.18 227 10:40 07.06.2020
1768 Clouds 24 1008 47 10000 1.75 252 10:19 07.06.2020
1769 Clouds 24 1008 47 10000 1.75 252 10:19 07.06.2020
1770 Clouds 24 1008 50 10000 1.75 252 09:56 07.06.2020
1771 Clouds 24 1008 50 10000 1.75 252 09:38 07.06.2020
1772 Clouds 23 1008 50 10000 2.06 258 09:19 07.06.2020
1773 Clouds 23 1008 47 10000 2.06 258 08:47 07.06.2020
1774 Clouds 23 1008 53 10000 0.76 301 08:23 07.06.2020
1775 Clouds 22 1008 56 10000 0.76 301 07:49 07.06.2020
1776 Clouds 21 1008 60 10000 1.36 341 07:28 07.06.2020
1777 Clouds 20 1008 64 10000 1.36 341 06:43 07.06.2020
1778 Clouds 19 1007 68 10000 1.68 350 05:40 07.06.2020
1779 Clouds 19 1006 64 10000 1.62 334 04:20 07.06.2020
1780 Clouds 19 1006 64 10000 1.62 334 04:20 07.06.2020
1781 Clouds 20 1007 64 10000 1.96 308 02:32 07.06.2020
1782 Clouds 20 1007 60 10000 1.72 310 01:50 07.06.2020
1783 Clouds 20 1007 60 10000 1.92 296 01:25 07.06.2020
1784 Clouds 21 1007 53 10000 1.92 296 00:45 07.06.2020
1785 Clouds 21 1007 56 10000 2.3 277 00:19 07.06.2020
1786 Clouds 21 1007 56 10000 2.3 277 23:57 06.06.2020
1787 Clouds 22 1007 56 10000 2.21 275 23:36 06.06.2020
1788 Clouds 22 1006 60 10000 2.21 275 23:18 06.06.2020
1789 Clouds 22 1006 56 10000 2.21 275 22:56 06.06.2020
1790 Clouds 22 1006 56 10000 1.32 265 22:37 06.06.2020
1791 Clouds 22 1006 56 10000 1.32 265 22:18 06.06.2020
1792 Clouds 22 1006 53 10000 1.32 265 21:44 06.06.2020
1793 Clouds 22 1006 64 10000 0.79 250 21:22 06.06.2020
1794 Clouds 22 1006 73 10000 0.64 258 20:56 06.06.2020
1795 Clouds 22 1006 73 10000 0.64 258 20:37 06.06.2020
1796 Clouds 22 1006 69 10000 0.9 215 20:18 06.06.2020
1797 Clouds 22 1005 69 10000 0.9 215 19:56 06.06.2020
1798 Clouds 22 1005 69 10000 0.9 215 19:37 06.06.2020
1799 Clouds 23 1005 73 10000 2.14 198 19:19 06.06.2020
1800 Clouds 24 1005 69 10000 2.14 198 18:43 06.06.2020
1801 Clouds 24 1005 69 10000 2.49 183 18:24 06.06.2020
1802 Clouds 24 1005 69 10000 2.49 183 17:58 06.06.2020
1803 Clouds 24 1005 69 10000 2.49 183 17:39 06.06.2020
1804 Clouds 24 1005 65 10000 2.69 180 17:19 06.06.2020
1805 Clouds 24 1005 61 10000 2.69 180 16:44 06.06.2020
1806 Clouds 25 1005 61 10000 3.23 181 16:22 06.06.2020
1807 Clouds 25 1005 61 10000 3.23 181 15:56 06.06.2020
1808 Clouds 25 1005 61 10000 3.23 181 15:37 06.06.2020
1809 Clouds 25 1005 54 10000 4.12 168 15:19 06.06.2020
1810 Clouds 25 1006 57 10000 4.12 168 14:43 06.06.2020
1811 Clouds 25 1006 54 10000 4.77 176 14:25 06.06.2020
1812 Clouds 25 1006 61 10000 4.77 176 13:59 06.06.2020
1813 Clouds 25 1006 61 10000 4.77 176 13:40 06.06.2020
1814 Clouds 25 1007 61 10000 5.52 175 13:18 06.06.2020
1815 Clouds 25 1007 54 10000 5.52 175 12:43 06.06.2020
1816 Clouds 25 1007 54 10000 5.41 185 12:23 06.06.2020
1817 Clouds 25 1007 61 10000 5.41 185 11:58 06.06.2020
1818 Clouds 25 1007 61 10000 5.41 185 11:58 06.06.2020
1819 Clouds 25 1007 61 10000 5.41 185 11:39 06.06.2020
1820 Clouds 24 1007 57 10000 5.34 184 11:20 06.06.2020
1821 Clouds 25 1007 54 10000 5.34 184 10:58 06.06.2020
1822 Clouds 25 1007 54 10000 5.34 184 10:58 06.06.2020
1823 Clouds 25 1007 54 10000 5.34 184 10:39 06.06.2020
1824 Clouds 24 1007 60 10000 5.14 179 10:21 06.06.2020
1825 Clouds 24 1007 64 10000 5.14 179 09:46 06.06.2020
1826 Clouds 24 1007 64 10000 5.14 179 09:46 06.06.2020
1827 Clouds 23 1007 64 10000 5.48 180 09:28 06.06.2020
1828 Clouds 23 1007 64 10000 4.56 157 08:58 06.06.2020
1829 Clouds 23 1007 64 10000 4.56 157 08:40 06.06.2020
1830 Clear 23 1007 64 10000 4.12 130 08:20 06.06.2020
1831 Clear 22 1007 64 10000 4.12 130 07:46 06.06.2020
1832 Clear 21 1007 64 10000 4.3 116 07:22 06.06.2020
1833 Clear 20 1006 72 10000 4.3 116 06:48 06.06.2020
1834 Clear 19 1006 77 10000 3.78 107 06:30 06.06.2020
1835 Clouds 19 1006 72 10000 3.78 107 05:55 06.06.2020
1836 Clouds 19 1004 72 10000 2.36 106 05:28 06.06.2020
1837 Clear 19 1008 73 0 2.36 106 04:44 06.06.2020
1838 Clouds 20 1007 68 10000 3.15 99 02:52 06.06.2020
1839 Clouds 20 1007 68 10000 3.35 95 01:57 06.06.2020
1840 Clouds 20 1008 77 10000 3.4 101 01:19 06.06.2020
1841 Clouds 21 1008 77 10000 3.4 101 00:46 06.06.2020
1842 Clouds 21 1009 73 10000 2.99 118 00:27 06.06.2020
1843 Clouds 21 1009 77 10000 2.99 118 23:56 05.06.2020
1844 Clouds 21 1009 77 10000 2.99 118 23:38 05.06.2020
1845 Clouds 21 1009 73 10000 3.41 94 23:18 05.06.2020
1846 Clouds 21 1010 77 10000 3.41 94 22:55 05.06.2020
1847 Clouds 21 1010 77 10000 3.41 94 22:37 05.06.2020
1848 Clouds 22 1011 68 10000 2.67 114 22:18 05.06.2020
1849 Clouds 22 1010 64 10000 2.67 114 21:42 05.06.2020
1850 Clouds 22 1009 64 10000 3.26 129 21:22 05.06.2020
1851 Clouds 22 1010 64 10000 3.26 129 20:58 05.06.2020
1852 Clouds 22 1010 64 10000 3.26 129 20:39 05.06.2020
1853 Clouds 22 1009 60 10000 3.44 134 20:20 05.06.2020
1854 Clouds 23 1010 68 10000 3.44 134 19:42 05.06.2020
1855 Clouds 23 1009 60 10000 4.55 145 19:23 05.06.2020
1856 Clouds 23 1009 60 10000 4.55 145 19:23 05.06.2020
1857 Clouds 23 1009 41 10000 4.55 145 18:57 05.06.2020
1858 Clouds 24 1009 41 10000 4.55 145 18:38 05.06.2020
1859 Clouds 24 1010 50 10000 5.24 148 18:19 05.06.2020
1860 Clouds 25 1010 47 10000 5.24 148 17:57 05.06.2020
1861 Clouds 25 1010 47 10000 5.24 148 17:39 05.06.2020
1862 Clouds 25 1011 47 10000 6.34 163 17:19 05.06.2020
1863 Clouds 25 1011 44 10000 6.34 163 16:39 05.06.2020
1864 Clouds 25 1011 38 10000 6.95 167 16:20 05.06.2020
1865 Clouds 25 1011 36 10000 6.95 167 15:56 05.06.2020
1866 Clouds 25 1011 36 10000 6.95 167 15:37 05.06.2020
1867 Clouds 25 1011 44 10000 7.67 173 15:19 05.06.2020
1868 Clouds 25 1012 50 10000 7.67 173 14:41 05.06.2020
1869 Clouds 25 1012 50 10000 7.67 173 14:41 05.06.2020
1870 Clouds 25 1012 57 10000 7.55 175 14:22 05.06.2020
1871 Clouds 25 1012 57 10000 7.55 175 13:59 05.06.2020
1872 Clouds 25 1012 57 10000 7.55 175 13:41 05.06.2020
1873 Clouds 25 1012 60 10000 7.03 176 13:22 05.06.2020
1874 Clouds 25 1012 60 10000 7.03 176 12:43 05.06.2020
1875 Clouds 24 1013 60 10000 6.3 178 12:20 05.06.2020
1876 Clouds 24 1013 60 10000 6.3 178 11:57 05.06.2020
1877 Clouds 24 1013 60 10000 6.3 178 11:39 05.06.2020
1878 Clouds 23 1013 60 10000 5.33 179 11:20 05.06.2020
1879 Clouds 23 1013 60 10000 5.33 179 10:54 05.06.2020
1880 Clouds 23 1013 60 10000 4.53 187 10:36 05.06.2020
1881 Clouds 22 1012 64 10000 4.53 187 10:18 05.06.2020
1882 Clouds 22 1013 60 10000 4.53 187 09:55 05.06.2020
1883 Clouds 22 1013 60 10000 4.71 188 09:36 05.06.2020
1884 Clouds 21 1013 64 10000 3.64 194 09:18 05.06.2020
1885 Clouds 21 1013 64 10000 3.64 194 08:41 05.06.2020
1886 Clear 21 1013 64 10000 1.95 186 08:20 05.06.2020
1887 Clear 21 1013 64 10000 1.95 186 07:58 05.06.2020
1888 Clear 20 1013 64 10000 1.95 186 07:39 05.06.2020
1889 Clear 20 1013 77 10000 0.94 175 07:19 05.06.2020
1890 Clear 17 1012 82 10000 0.53 204 05:50 05.06.2020
1891 Clear 17 1012 82 10000 0.56 207 05:19 05.06.2020
1892 Clear 17 1012 82 10000 0.44 199 03:53 05.06.2020
1893 Clear 18 1013 82 10000 0.61 224 02:53 05.06.2020
1894 Clouds 18 1013 77 10000 0.58 211 02:21 05.06.2020
1895 Clouds 18 1013 82 10000 0.45 178 01:52 05.06.2020
1896 Clouds 18 1013 82 10000 0.54 155 01:20 05.06.2020
1897 Clouds 19 1013 82 10000 0.54 155 00:41 05.06.2020
1898 Clouds 19 1013 82 10000 0.65 143 00:20 05.06.2020
1899 Clouds 19 1014 82 10000 0.65 143 23:46 04.06.2020
1900 Clouds 20 1013 77 10000 0.89 149 23:26 04.06.2020
1901 Clouds 20 1013 77 10000 0.89 149 22:55 04.06.2020
1902 Clear 20 1013 72 10000 1.27 162 22:36 04.06.2020
1903 Clear 20 1013 72 10000 1.27 162 22:18 04.06.2020
1904 Clear 20 1013 72 10000 1.27 162 21:55 04.06.2020
1905 Clear 21 1013 72 10000 1.27 162 21:36 04.06.2020
1906 Clear 21 1013 72 10000 1.9 160 21:18 04.06.2020
1907 Clear 21 1012 68 10000 2.48 164 20:40 04.06.2020
1908 Clear 21 1012 68 10000 2.48 164 20:21 04.06.2020
1909 Clear 22 1012 64 10000 2.48 164 19:59 04.06.2020
1910 Clear 22 1012 64 10000 2.48 164 19:39 04.06.2020
1911 Clear 22 1012 56 10000 3.33 178 19:21 04.06.2020
1912 Clear 23 1012 56 10000 3.33 178 18:56 04.06.2020
1913 Clear 23 1012 56 10000 3.33 178 18:37 04.06.2020
1914 Clouds 23 1012 47 10000 4 188 18:19 04.06.2020
1915 Clear 24 1012 50 10000 4 188 17:42 04.06.2020
1916 Clear 24 1012 41 10000 4.35 184 17:21 04.06.2020
1917 Clouds 24 1012 38 10000 4.35 184 16:55 04.06.2020
1918 Clouds 25 1012 38 10000 4.35 184 16:37 04.06.2020
1919 Clouds 25 1012 41 10000 4.53 185 16:18 04.06.2020
1920 Clouds 25 1012 44 10000 4.53 185 15:41 04.06.2020
1921 Clouds 25 1012 50 10000 4.43 191 15:22 04.06.2020
1922 Clouds 24 1012 50 10000 4.43 191 14:39 04.06.2020
1923 Clouds 25 1012 53 10000 4.59 198 14:20 04.06.2020
1924 Clouds 24 1012 50 10000 4.59 198 13:56 04.06.2020
1925 Clouds 25 1012 50 10000 4.59 198 13:38 04.06.2020
1926 Clouds 25 1012 53 10000 4.57 199 13:20 04.06.2020
1927 Clouds 24 1011 50 10000 4.57 199 12:55 04.06.2020
1928 Clouds 24 1011 50 10000 4.57 199 12:37 04.06.2020
1929 Clouds 24 1011 50 10000 4.16 210 12:18 04.06.2020
1930 Clouds 24 1011 41 10000 4.16 210 11:41 04.06.2020
1931 Clouds 24 1011 36 10000 3.88 226 11:20 04.06.2020
1932 Clear 23 1011 44 10000 3.88 226 10:59 04.06.2020
1933 Clear 23 1011 44 10000 3.88 226 10:39 04.06.2020
1934 Clear 23 1011 47 10000 3.26 237 10:20 04.06.2020
1935 -273 0 0 0 0 0 09:46 04.06.2020
1936 Clear 21 1011 53 10000 2.35 239 09:28 04.06.2020
1937 Clear 21 1011 60 10000 2.35 239 08:57 04.06.2020
1938 Clear 21 1011 60 10000 2.35 239 08:38 04.06.2020
1939 Clear 20 1010 72 10000 1.64 257 08:20 04.06.2020
1940 Clear 19 1010 82 10000 1.24 295 07:31 04.06.2020
1941 Clear 18 1009 88 10000 1.24 295 06:57 04.06.2020
1942 Clear 18 1009 88 10000 1.24 295 06:39 04.06.2020
1943 Clear 17 1009 93 10000 1.18 311 06:18 04.06.2020
1944 Clear 17 1011 85 0 1.18 311 05:32 04.06.2020
1945 Clouds 17 1009 93 10000 1.32 316 03:37 04.06.2020
1946 Clouds 17 1009 93 10000 1.69 280 02:21 04.06.2020
1947 Clouds 17 1010 87 10000 1.53 250 01:22 04.06.2020
1948 Clouds 18 1010 93 10000 1.53 250 01:00 04.06.2020
1949 Clouds 18 1010 88 10000 1.06 218 00:18 04.06.2020
1950 Clouds 18 1010 88 10000 1.06 218 23:38 03.06.2020
1951 Clouds 18 1010 88 10000 0.88 192 23:19 03.06.2020
1952 Rain 18 1010 88 10000 0.88 192 22:54 03.06.2020
1953 Rain 18 1010 88 10000 0.88 192 22:36 03.06.2020
1954 Rain 18 1010 88 10000 1.1 194 22:18 03.06.2020
1955 Clouds 19 1009 82 10000 1.1 194 21:55 03.06.2020
1956 Clouds 19 1009 82 10000 1.1 194 21:36 03.06.2020
1957 Rain 19 1009 77 10000 1.71 195 21:18 03.06.2020
1958 Rain 19 1009 77 10000 1.71 195 20:41 03.06.2020
1959 Clouds 19 1008 77 10000 2.48 198 20:21 03.06.2020
1960 Clouds 20 1008 68 10000 2.48 198 19:57 03.06.2020
1961 Clouds 20 1008 68 10000 2.48 198 19:38 03.06.2020
1962 Rain 20 1008 68 10000 3.29 192 19:20 03.06.2020
1963 Rain 21 1008 64 10000 3.29 192 18:57 03.06.2020
1964 Rain 21 1008 64 10000 3.29 192 18:39 03.06.2020
1965 Rain 21 1008 60 10000 3.15 183 18:19 03.06.2020
1966 Rain 21 1008 56 10000 3.15 183 17:44 03.06.2020
1967 Rain 21 1008 60 10000 3.15 181 17:23 03.06.2020
1968 Rain 21 1008 60 10000 3.15 181 16:58 03.06.2020
1969 Rain 21 1008 64 9000 3.15 181 16:39 03.06.2020
1970 Thunderstorm 21 1008 56 9000 3.41 171 16:19 03.06.2020
1971 Thunderstorm 21 1008 64 10000 3.41 171 15:54 03.06.2020
1972 Thunderstorm 21 1008 64 10000 3.41 171 15:36 03.06.2020
1973 Thunderstorm 21 1008 64 10000 3.41 171 15:36 03.06.2020
1974 Clouds 22 1008 60 10000 3.46 171 15:18 03.06.2020
1975 Clouds 21 1008 73 10000 3.46 171 14:42 03.06.2020
1976 Thunderstorm 21 1008 77 9000 3.26 172 14:22 03.06.2020
1977 Thunderstorm 21 1008 68 8000 3.26 172 13:40 03.06.2020
1978 Thunderstorm 22 1008 64 8000 3.76 177 13:21 03.06.2020
1979 Clouds 23 1007 52 0 3.58 135 12:56 03.06.2020
1980 Clouds 22 1007 54 0 4.02 148 12:38 03.06.2020
1981 Clouds 22 1008 44 10000 3.05 182 12:18 03.06.2020
1982 Clouds 22 1008 50 10000 3.05 182 11:43 03.06.2020
1983 Clouds 23 1008 50 10000 1.63 174 11:24 03.06.2020
1984 Clouds 22 1008 53 10000 1.63 174 10:43 03.06.2020
1985 Clouds 22 1008 53 10000 0.33 112 10:24 03.06.2020
1986 Clouds 21 1008 56 10000 0.33 112 09:55 03.06.2020
1987 Clouds 21 1008 56 10000 1.02 24 09:36 03.06.2020
1988 Clouds 21 1008 49 10000 1.16 19 09:18 03.06.2020
1989 Clouds 21 1008 56 10000 1.16 19 08:45 03.06.2020
1990 Clouds 20 1008 60 10000 1.82 5 08:21 03.06.2020
1991 Clouds 19 1007 64 10000 1.82 5 07:45 03.06.2020
1992 Clouds 19 1007 72 10000 2.13 352 07:24 03.06.2020
1993 Clouds 18 1007 77 10000 2.13 352 06:55 03.06.2020
1994 Clouds 17 1007 77 10000 2.13 352 06:34 03.06.2020
1995 Clouds 17 1007 82 10000 2 337 05:49 03.06.2020
1996 Clouds 17 1007 82 10000 1.66 322 05:23 03.06.2020
1997 Clouds 17 1007 87 10000 1.51 317 03:52 03.06.2020
1998 Clouds 18 1007 82 10000 1.3 311 03:24 03.06.2020
1999 Clouds 18 1007 82 10000 1.42 304 02:25 03.06.2020
2000 Clouds 18 1008 82 10000 1.29 288 01:26 03.06.2020
2001 Clouds 18 1008 82 10000 1.29 288 00:37 03.06.2020
2002 Clouds 18 1008 82 10000 0.85 233 00:18 03.06.2020
2003 Clouds 18 1008 82 10000 0.85 233 23:39 02.06.2020
2004 Clouds 18 1008 77 10000 1.28 193 23:21 02.06.2020
2005 Clouds 18 1008 77 10000 1.28 193 22:40 02.06.2020
2006 Clouds 18 1008 77 10000 1.83 182 22:19 02.06.2020
2007 Clouds 19 1008 77 10000 1.83 182 21:57 02.06.2020
2008 Clouds 19 1008 77 10000 1.83 182 21:39 02.06.2020
2009 Clouds 19 1008 72 10000 2.14 183 21:21 02.06.2020
2010 Clouds 19 1008 72 10000 2.14 183 20:59 02.06.2020
2011 Clouds 19 1008 72 10000 2.14 183 20:40 02.06.2020
2012 Clouds 19 1007 68 10000 3.08 190 20:22 02.06.2020
2013 Clouds 20 1008 68 10000 3.08 190 19:45 02.06.2020
2014 Clouds 20 1007 64 10000 4 197 19:26 02.06.2020
2015 Clouds 21 1007 56 10000 4 197 18:59 02.06.2020
2016 Clouds 20 1007 56 10000 4 197 18:40 02.06.2020
2017 Clouds 21 1007 53 10000 4.52 204 18:21 02.06.2020
2018 Clouds 21 1007 53 10000 4.52 204 17:59 02.06.2020
2019 Clouds 21 1007 53 10000 4.52 204 17:40 02.06.2020
2020 Clouds 21 1007 53 10000 5.25 202 17:21 02.06.2020
2021 Clouds 21 1007 53 10000 5.25 202 16:56 02.06.2020
2022 Clouds 21 1007 53 10000 5.25 202 16:37 02.06.2020
2023 Rain 21 1007 53 10000 4.72 200 16:19 02.06.2020
2024 Rain 21 1007 49 10000 4.72 200 15:40 02.06.2020
2025 Rain 21 1007 53 10000 2.84 200 15:22 02.06.2020
2026 Rain 21 1007 53 10000 2.84 200 14:48 02.06.2020
2027 Rain 21 1008 49 10000 2.81 208 14:28 02.06.2020
2028 Rain 21 1008 49 10000 2.81 208 13:57 02.06.2020
2029 Clouds 22 1008 41 10000 2.81 208 13:37 02.06.2020
2030 Clouds 22 1008 41 10000 3.07 232 13:19 02.06.2020
2031 Clouds 21 1008 46 10000 3.07 232 12:57 02.06.2020
2032 Clouds 22 1008 46 10000 3.07 232 12:39 02.06.2020
2033 Clouds 22 1008 46 10000 2.16 244 12:20 02.06.2020
2034 Rain 21 1008 55 0 3.13 201 11:54 02.06.2020
2035 Clouds 22 1008 44 10000 2.16 244 11:36 02.06.2020
2036 Clear 22 1010 54 0 1.34 253 11:18 02.06.2020
2037 Clouds 22 1008 43 10000 1.25 280 10:44 02.06.2020
2038 Clouds 21 1009 46 10000 1.69 344 10:25 02.06.2020
2039 Clouds 21 1009 49 10000 1.69 344 09:44 02.06.2020
2040 Clouds 20 1009 52 10000 2.27 351 09:22 02.06.2020
2041 Clouds 20 1009 56 10000 2.15 1 08:57 02.06.2020
2042 Clear 19 1010 62 0 2.15 1 08:36 02.06.2020
2043 Clouds 19 1009 56 10000 2.48 353 08:18 02.06.2020
2044 Clouds 18 1009 59 10000 2.48 353 07:39 02.06.2020
2045 Clouds 17 1009 63 10000 2.5 348 07:20 02.06.2020
2046 Clouds 16 1009 72 10000 2.5 348 06:43 02.06.2020
2047 Clouds 15 1009 72 10000 2.2 342 05:46 02.06.2020
2048 Clouds 15 1009 87 10000 1.9 346 04:54 02.06.2020
2049 Rain 15 1009 82 10000 1.86 330 03:20 02.06.2020
2050 Clouds 16 1009 87 10000 1.78 334 02:20 02.06.2020
2051 Clouds 16 1009 87 10000 1.52 336 00:57 02.06.2020
2052 Clouds 16 1009 87 10000 1.28 344 00:23 02.06.2020
2053 Clouds 17 1009 87 10000 1.28 344 23:39 01.06.2020
2054 Clouds 17 1009 87 10000 1.16 9 23:21 01.06.2020
2055 Clouds 17 1009 87 10000 1.16 9 22:59 01.06.2020
2056 Clouds 17 1010 87 10000 1.16 9 22:40 01.06.2020
2057 Clouds 17 1010 87 10000 0.92 50 22:20 01.06.2020
2058 Clouds 17 1010 87 10000 0.92 50 22:20 01.06.2020
2059 Clouds 17 1010 87 10000 0.92 50 21:57 01.06.2020
2060 Clouds 18 1010 87 10000 0.56 105 21:37 01.06.2020
2061 Drizzle 18 1010 82 10000 0.38 122 21:18 01.06.2020
2062 Clouds 18 1009 82 10000 0.7 122 20:55 01.06.2020
2063 Clouds 18 1009 82 10000 0.7 122 20:36 01.06.2020
2064 Clouds 18 1009 82 10000 0.36 199 20:18 01.06.2020
2065 Clouds 18 1009 82 10000 0.36 199 19:43 01.06.2020
2066 Clouds 19 1009 77 10000 1.51 206 19:21 01.06.2020
2067 Clouds 18 1009 82 10000 1.51 206 18:59 01.06.2020
2068 Clouds 19 1009 82 10000 1.51 206 18:39 01.06.2020
2069 Clouds 19 1009 82 10000 2.27 186 18:19 01.06.2020
2070 Rain 19 1011 68 0 1.34 15 17:55 01.06.2020
2071 Rain 19 1010 71 0 1.34 347 17:36 01.06.2020
2072 Rain 19 1009 87 10000 2.05 152 17:18 01.06.2020
2073 Rain 19 1011 75 0 2.24 335 16:39 01.06.2020
2074 Rain 19 1011 75 0 2.24 325 16:20 01.06.2020
2075 Rain 20 1011 76 0 3.13 9 15:55 01.06.2020
2076 Rain 20 1010 68 0 2.24 343 15:37 01.06.2020
2077 Rain 22 1010 59 0 2.24 5 15:18 01.06.2020
2078 Thunderstorm 22 1009 72 8000 2.27 100 14:56 01.06.2020
2079 Thunderstorm 22 1009 72 8000 2.27 100 14:38 01.06.2020
2080 Thunderstorm 22 1008 60 8000 1.18 168 14:19 01.06.2020
2081 Rain 21 1008 68 10000 1.18 168 13:43 01.06.2020
2082 Rain 22 1008 68 10000 1.06 239 13:21 01.06.2020
2083 Rain 22 1008 46 10000 1.06 239 12:58 01.06.2020
2084 Clouds 22 1009 44 10000 1.06 239 12:40 01.06.2020
2085 Clouds 22 1009 44 10000 1.06 239 12:40 01.06.2020
2086 Rain 22 1008 54 0 2.68 173 12:21 01.06.2020
2087 Clouds 22 1009 41 10000 1.39 273 11:58 01.06.2020
2088 Clouds 23 1009 41 10000 1.39 273 11:37 01.06.2020
2089 Clouds 22 1009 41 10000 1.27 290 11:18 01.06.2020
2090 Clouds 23 1009 36 10000 1.27 290 10:55 01.06.2020
2091 Clear 22 1010 54 0 1.34 243 10:36 01.06.2020
2092 Clouds 22 1009 38 10000 1.41 299 10:18 01.06.2020
2093 Clouds 22 1009 40 10000 1.41 299 09:44 01.06.2020
2094 Clear 20 1011 57 0 0.89 355 09:25 01.06.2020
2095 Clouds 20 1009 52 10000 1.43 332 08:55 01.06.2020
2096 Clouds 20 1009 60 10000 1.43 332 08:33 01.06.2020
2097 Clouds 19 1009 56 10000 1.62 328 07:58 01.06.2020
2098 Clouds 19 1009 68 10000 1.62 328 07:39 01.06.2020
2099 Clouds 18 1009 68 10000 1.93 314 07:21 01.06.2020
2100 Clouds 17 1010 72 10000 1.93 314 06:49 01.06.2020
2101 Clouds 16 1010 72 10000 1.8 314 05:56 01.06.2020
2102 Clouds 16 1010 72 10000 1.86 306 04:56 01.06.2020
2103 Clouds 16 1010 72 10000 1.97 299 03:56 01.06.2020
2104 Clouds 17 1010 63 10000 1.97 299 03:37 01.06.2020
2105 Clouds 17 1010 67 10000 1.87 294 02:42 01.06.2020
2106 Clouds 17 1011 68 10000 1.86 299 01:38 01.06.2020
2107 Clouds 17 1011 68 10000 2 298 01:18 01.06.2020
2108 Clouds 18 1011 63 10000 2 298 00:40 01.06.2020
2109 Clouds 18 1011 63 10000 1.97 294 00:21 01.06.2020
2110 Clouds 18 1011 63 10000 1.97 294 00:21 01.06.2020
2111 Clouds 18 1011 59 10000 1.97 294 23:59 31.05.2020
2112 Clouds 18 1011 63 10000 1.97 294 23:40 31.05.2020
2113 Clouds 18 1011 63 10000 2 289 23:22 31.05.2020
2114 Clouds 18 1011 55 10000 2 289 22:58 31.05.2020
2115 Clouds 18 1011 55 10000 2 289 22:58 31.05.2020
2116 Clouds 18 1011 55 10000 2 289 22:40 31.05.2020
2117 Clouds 18 1011 55 10000 1.61 284 22:21 31.05.2020
2118 Clouds 19 1011 59 10000 1.61 284 21:56 31.05.2020
2119 Clouds 19 1011 59 10000 1.61 284 21:38 31.05.2020
2120 Clouds 19 1011 59 10000 1.74 269 21:19 31.05.2020
2121 Clouds 19 1011 56 10000 1.74 269 20:42 31.05.2020
2122 Clouds 19 1011 56 10000 1.8 238 20:23 31.05.2020
2123 Clouds 20 1011 49 10000 1.8 238 19:56 31.05.2020
2124 Clear 20 1012 59 0 0.45 214 19:37 31.05.2020
2125 Clouds 20 1011 43 10000 3.17 209 19:19 31.05.2020
2126 Clouds 20 1010 46 10000 3.17 209 18:44 31.05.2020
2127 Clouds 21 1010 46 10000 4.11 206 18:25 31.05.2020
2128 Clouds 21 1011 46 10000 4.11 206 17:58 31.05.2020
2129 Clouds 21 1011 56 10000 4.11 206 17:39 31.05.2020
2130 Clouds 21 1011 56 10000 4.61 207 17:20 31.05.2020
2131 Clouds 22 1011 53 10000 4.61 207 16:41 31.05.2020
2132 Clouds 22 1011 53 10000 4.56 214 16:21 31.05.2020
2133 Clouds 22 1012 60 10000 4.56 214 15:41 31.05.2020
2134 Clouds 21 1012 64 10000 3.92 214 15:23 31.05.2020
2135 Clouds 21 1012 64 10000 3.92 214 14:59 31.05.2020
2136 Clouds 21 1012 64 10000 3.92 214 14:40 31.05.2020
2137 Clouds 21 1012 64 10000 4.49 218 14:19 31.05.2020
2138 Clouds 22 1012 53 10000 4.49 218 13:55 31.05.2020
2139 Clouds 22 1012 49 10000 4.49 218 13:36 31.05.2020
2140 Clouds 22 1012 49 10000 3.71 219 13:18 31.05.2020
2141 Clouds 22 1012 31 10000 3.71 219 12:42 31.05.2020
2142 Clouds 22 1014 57 0 2.24 198 12:23 31.05.2020
2143 Clouds 23 1012 43 10000 4.25 228 11:54 31.05.2020
2144 Clouds 22 1013 31 10000 3.83 226 11:36 31.05.2020
2145 Clouds 22 1013 31 10000 3.83 226 11:18 31.05.2020
2146 Clouds 22 1013 46 10000 3.83 226 10:42 31.05.2020
2147 Clouds 22 1013 46 10000 3.64 231 10:23 31.05.2020
2148 Clouds 21 1013 53 10000 3.64 231 09:58 31.05.2020
2149 Clouds 21 1013 56 10000 3.64 231 09:40 31.05.2020
2150 Clouds 21 1013 56 10000 3.06 242 09:20 31.05.2020
2151 Clouds 20 1013 64 10000 3.06 242 08:42 31.05.2020
2152 Clouds 20 1013 64 10000 2.19 253 08:24 31.05.2020
2153 Clouds 19 1013 68 10000 2.19 253 07:49 31.05.2020
2154 Clouds 18 1013 72 10000 1.54 271 07:22 31.05.2020
2155 Clouds 17 1014 73 0 1.54 271 06:57 31.05.2020
2156 Clouds 17 1013 77 10000 1.54 271 06:35 31.05.2020
2157 Clouds 16 1013 77 10000 1.19 287 05:49 31.05.2020
2158 Clouds 16 1013 77 10000 0.97 276 05:31 31.05.2020
2159 Clouds 16 1013 77 10000 1.04 271 04:18 31.05.2020
2160 Clouds 16 1013 77 10000 1.04 271 03:39 31.05.2020
2161 Clouds 17 1014 77 10000 0.74 283 02:47 31.05.2020
2162 Clouds 17 1014 77 10000 0.49 270 01:46 31.05.2020
2163 Clouds 18 1014 77 10000 0.05 138 00:42 31.05.2020
2164 Clouds 18 1014 77 10000 0.34 109 00:24 31.05.2020
2165 Clouds 18 1015 68 10000 0.34 109 23:42 30.05.2020
2166 Clouds 19 1015 68 10000 0.5 142 23:24 30.05.2020
2167 Clouds 19 1014 68 10000 0.5 142 22:56 30.05.2020
2168 Clouds 19 1015 68 10000 0.5 142 22:38 30.05.2020
2169 Clouds 19 1015 68 10000 1.02 143 22:20 30.05.2020
2170 Clouds 19 1014 64 10000 1.02 143 21:43 30.05.2020
2171 Clouds 19 1014 64 10000 1.73 161 21:22 30.05.2020
2172 Clouds 19 1014 64 10000 0.91 160 20:58 30.05.2020
2173 Clouds 19 1014 64 10000 0.91 160 20:39 30.05.2020
2174 Clouds 19 1014 64 10000 2.14 174 20:21 30.05.2020
2175 Clouds 19 1014 64 10000 2.14 174 19:55 30.05.2020
2176 Clouds 19 1014 64 10000 2.14 174 19:37 30.05.2020
2177 Clouds 20 1014 64 10000 3.7 188 19:18 30.05.2020
2178 Clouds 21 1013 56 10000 3.7 188 18:43 30.05.2020
2179 Clouds 21 1013 49 10000 5.28 195 18:19 30.05.2020
2180 Clouds 21 1013 46 10000 5.28 195 17:43 30.05.2020
2181 Clouds 21 1013 46 10000 5.01 197 17:24 30.05.2020
2182 Clouds 22 1014 49 10000 5.01 197 16:58 30.05.2020
2183 Clouds 22 1014 46 10000 5.01 197 16:39 30.05.2020
2184 Clouds 22 1014 49 10000 4.74 198 16:21 30.05.2020
2185 Clouds 22 1014 46 10000 4.74 198 15:42 30.05.2020
2186 Clouds 22 1014 46 10000 4.89 203 15:24 30.05.2020
2187 Clouds 22 1014 44 10000 4.89 203 14:45 30.05.2020
2188 Clouds 23 1014 44 10000 4.51 203 14:26 30.05.2020
2189 Clouds 22 1014 46 10000 4.51 203 13:44 30.05.2020
2190 Clouds 22 1014 44 10000 4.25 206 13:25 30.05.2020
2191 Clouds 22 1015 49 10000 4.25 206 12:42 30.05.2020
2192 Clouds 22 1015 46 10000 3.5 206 12:22 30.05.2020
2193 Clouds 22 1015 46 10000 3.5 206 11:58 30.05.2020
2194 Clouds 22 1015 43 10000 3.5 206 11:40 30.05.2020
2195 Clouds 22 1015 43 10000 2.28 206 11:22 30.05.2020
2196 Clouds 22 1015 43 10000 2.28 206 10:54 30.05.2020
2197 Clouds 21 1015 52 10000 1.26 218 10:36 30.05.2020
2198 Clouds 20 1015 56 10000 1.26 218 10:18 30.05.2020
2199 Clouds 20 1015 60 10000 1.27 221 09:41 30.05.2020
2200 Clouds 20 1015 60 10000 0.36 285 09:23 30.05.2020
2201 Clear 19 1015 63 10000 0.36 285 08:40 30.05.2020
2202 Clear 19 1015 63 10000 1.2 335 08:21 30.05.2020
2203 Clear 17 1015 72 10000 1.2 335 07:38 30.05.2020
2204 Clear 17 1015 72 10000 1.9 323 07:18 30.05.2020
2205 Rain 15 1015 82 10000 1.91 319 06:28 30.05.2020
2206 Rain 14 1015 87 10000 1.91 319 05:49 30.05.2020
2207 Clear 15 1016 81 0 1.82 310 04:37 30.05.2020
2208 Clouds 15 1015 82 10000 1.75 284 02:34 30.05.2020
2209 Clouds 15 1015 76 10000 1.54 278 01:57 30.05.2020
2210 Clouds 16 1015 82 10000 1.3 273 00:44 30.05.2020
2211 Clouds 16 1015 82 10000 1.58 264 00:24 30.05.2020
2212 Clouds 16 1015 77 10000 1.58 264 23:59 29.05.2020
2213 Clouds 16 1016 77 10000 1.58 264 23:38 29.05.2020
2214 Clouds 16 1016 77 10000 1.35 227 23:19 29.05.2020
2215 Clouds 16 1016 77 10000 1.35 227 22:54 29.05.2020
2216 Clouds 16 1016 77 10000 1.35 227 22:36 29.05.2020
2217 Clouds 17 1016 77 10000 1.29 215 22:18 29.05.2020
2218 Clouds 17 1016 72 10000 1.29 215 21:39 29.05.2020
2219 Clouds 17 1016 72 10000 1.53 237 21:21 29.05.2020
2220 Clouds 18 1015 68 10000 1.53 237 20:57 29.05.2020
2221 Clouds 18 1015 68 10000 1.53 237 20:37 29.05.2020
2222 Clouds 18 1015 68 10000 2.51 233 20:19 29.05.2020
2223 Clouds 18 1016 68 10000 2.51 233 19:42 29.05.2020
2224 Clouds 18 1016 68 10000 3.11 223 19:24 29.05.2020
2225 Clouds 18 1015 63 10000 3.11 223 18:48 29.05.2020
2226 Clouds 19 1015 56 10000 3.99 215 18:23 29.05.2020
2227 Clouds 19 1015 56 10000 3.99 215 17:59 29.05.2020
2228 Clouds 19 1015 60 10000 3.99 215 17:39 29.05.2020
2229 Clouds 19 1015 64 10000 6.56 216 17:20 29.05.2020
2230 Thunderstorm 20 1015 72 10000 6.56 216 16:47 29.05.2020
2231 Thunderstorm 20 1015 72 10000 6.36 204 16:29 29.05.2020
2232 Clouds 20 1015 64 10000 6.36 204 15:59 29.05.2020
2233 Clouds 21 1014 53 10000 6.36 204 15:41 29.05.2020
2234 Clouds 20 1014 53 10000 5.32 197 15:21 29.05.2020
2235 Clouds 21 1014 64 10000 5.32 197 14:57 29.05.2020
2236 Clouds 21 1015 60 10000 5.32 197 14:38 29.05.2020
2237 Clouds 21 1015 49 10000 4.16 195 14:19 29.05.2020
2238 Clouds 21 1015 49 10000 4.16 195 13:43 29.05.2020
2239 Clouds 21 1015 49 10000 3.84 215 13:22 29.05.2020
2240 Clouds 21 1015 46 10000 3.84 215 12:55 29.05.2020
2241 Clouds 22 1015 49 10000 3.84 215 12:37 29.05.2020
2242 Clouds 21 1015 49 10000 2.8 230 12:18 29.05.2020
2243 Clouds 21 1015 46 10000 2.8 230 11:42 29.05.2020
2244 Clouds 21 1015 46 10000 2.8 230 11:42 29.05.2020
2245 Clouds 21 1015 46 10000 2.8 230 11:42 29.05.2020
2246 Clouds 21 1015 46 10000 1.31 250 11:24 29.05.2020
2247 Clouds 21 1015 49 10000 1.31 250 10:46 29.05.2020
2248 Clouds 21 1015 49 10000 1.07 311 10:24 29.05.2020
2249 Clouds 20 1016 49 10000 1.07 311 09:58 29.05.2020
2250 Clouds 20 1016 52 10000 1.07 311 09:40 29.05.2020
2251 Clouds 19 1016 52 10000 1.56 333 09:19 29.05.2020
2252 Clouds 19 1016 49 10000 1.56 333 08:47 29.05.2020
2253 Clouds 19 1016 52 10000 1.79 338 08:24 29.05.2020
2254 Clouds 18 1016 59 10000 1.79 338 07:48 29.05.2020
2255 Clouds 17 1016 72 10000 1.76 335 07:30 29.05.2020
2256 Clouds 16 1016 72 10000 1.76 335 06:58 29.05.2020
2257 Clouds 15 1015 76 10000 1.76 335 06:39 29.05.2020
2258 Clouds 15 1015 76 10000 1.69 321 06:21 29.05.2020
2259 Clouds 14 1015 82 10000 1.69 321 05:40 29.05.2020
2260 Clouds 15 1015 72 10000 1.45 298 01:53 29.05.2020
2261 Clouds 15 1015 67 10000 1.02 311 01:27 29.05.2020
2262 Clouds 15 1015 67 10000 1.02 311 00:53 29.05.2020
2263 Clouds 15 1015 67 10000 0.87 287 00:32 29.05.2020
2264 Clouds 15 1016 67 10000 0.87 287 23:57 28.05.2020
2265 Clouds 15 1016 63 10000 0.87 287 23:38 28.05.2020
2266 Clouds 16 1016 63 10000 0.58 245 23:18 28.05.2020
2267 Clouds 15 1016 72 10000 0.58 245 22:42 28.05.2020
2268 Clouds 15 1016 72 10000 0.84 198 22:23 28.05.2020
2269 Clouds 16 1016 72 10000 0.84 198 21:56 28.05.2020
2270 Clouds 16 1016 67 10000 0.84 198 21:37 28.05.2020
2271 Clouds 16 1016 67 10000 1.29 186 21:19 28.05.2020
2272 Clouds 16 1016 67 10000 1.06 187 20:56 28.05.2020
2273 Clouds 17 1016 63 10000 1.06 187 20:37 28.05.2020
2274 Clouds 17 1016 63 10000 1.91 189 20:18 28.05.2020
2275 Clouds 17 1016 63 10000 1.91 189 20:18 28.05.2020
2276 Clouds 17 1016 68 10000 1.91 189 19:43 28.05.2020
2277 Clouds 18 1016 68 10000 3.57 196 19:20 28.05.2020
2278 Clouds 18 1016 68 10000 3.57 196 18:57 28.05.2020
2279 Clouds 18 1016 63 10000 3.57 196 18:39 28.05.2020
2280 Rain 18 1016 63 10000 4.15 201 18:21 28.05.2020
2281 Rain 18 1016 63 10000 4.15 201 17:41 28.05.2020
2282 Rain 19 1016 63 10000 4.51 202 17:22 28.05.2020
2283 Rain 18 1016 72 10000 4.51 202 16:56 28.05.2020
2284 Rain 17 1016 77 10000 4.51 202 16:36 28.05.2020
2285 Rain 18 1016 77 10000 4.87 191 16:18 28.05.2020
2286 Clouds 18 1016 59 10000 4.87 191 15:41 28.05.2020
2287 Rain 18 1016 59 10000 3.35 189 15:23 28.05.2020
2288 Rain 18 1018 67 0 0.89 121 14:43 28.05.2020
2289 Rain 18 1018 56 0 0.89 174 14:24 28.05.2020
2290 Clouds 20 1016 46 10000 2.13 194 13:49 28.05.2020
2291 Clouds 20 1016 46 10000 2.37 226 13:30 28.05.2020
2292 Clouds 20 1017 49 10000 2.37 226 12:59 28.05.2020
2293 Clouds 20 1017 43 10000 2.37 226 12:38 28.05.2020
2294 Rain 20 1016 51 0 2.24 159 12:18 28.05.2020
2295 Clouds 20 1017 43 10000 2.26 242 11:42 28.05.2020
2296 Clouds 20 1017 43 10000 1.46 244 11:24 28.05.2020
2297 Clouds 20 1017 43 10000 1.46 244 10:56 28.05.2020
2298 Clouds 20 1017 43 10000 1.46 244 10:38 28.05.2020
2299 Clouds 19 1017 43 10000 0.85 310 10:18 28.05.2020
2300 Clouds 19 1018 43 10000 0.85 310 09:39 28.05.2020
2301 Clouds 18 1019 58 0 0.45 28 09:19 28.05.2020
2302 Clouds 17 1018 48 10000 2.66 359 08:48 28.05.2020
2303 Clouds 17 1018 55 10000 2.68 358 08:26 28.05.2020
2304 Clouds 16 1018 59 10000 2.68 358 07:45 28.05.2020
2305 Clouds 16 1018 59 10000 2.54 351 07:26 28.05.2020
2306 Clouds 15 1018 59 10000 2.54 351 06:56 28.05.2020
2307 Clouds 15 1018 67 10000 2.54 351 06:37 28.05.2020
2308 Rain 14 1018 67 10000 2.31 343 05:56 28.05.2020
2309 Rain 14 1018 62 10000 2.31 343 05:35 28.05.2020
2310 Clouds 14 1018 62 10000 2.09 343 04:28 28.05.2020
2311 Clouds 14 1018 62 10000 2.09 343 03:45 28.05.2020
2312 Clouds 14 1018 71 10000 2.48 353 02:45 28.05.2020
2313 Clouds 14 1019 76 10000 2.22 343 01:51 28.05.2020
2314 Clouds 14 1019 71 10000 2.1 333 00:54 28.05.2020
2315 Clouds 14 1019 76 10000 2.1 340 00:26 28.05.2020
2316 Rain 14 1019 76 10000 2.1 340 23:58 27.05.2020
2317 Rain 14 1020 76 10000 2.1 340 23:39 27.05.2020
2318 Rain 14 1020 76 10000 2.23 343 23:20 27.05.2020
2319 Rain 14 1020 76 10000 2.23 343 22:56 27.05.2020
2320 Rain 14 1020 67 10000 2.23 343 22:38 27.05.2020
2321 Clouds 15 1020 67 10000 2.48 347 22:19 27.05.2020
2322 Clouds 15 1019 63 10000 2.48 347 21:41 27.05.2020
2323 Clouds 16 1019 63 10000 2.59 353 21:23 27.05.2020
2324 Clouds 16 1019 63 10000 2.59 353 20:59 27.05.2020
2325 Clouds 16 1019 63 10000 2.59 353 20:41 27.05.2020
2326 Clouds 16 1019 63 10000 2.76 348 20:21 27.05.2020
2327 Clouds 16 1018 59 10000 2.76 348 19:57 27.05.2020
2328 Clouds 17 1018 55 10000 2.76 348 19:39 27.05.2020
2329 Clouds 17 1017 58 0 1.34 297 19:18 27.05.2020
2330 Clouds 17 1018 55 10000 3.47 354 18:40 27.05.2020
2331 Clouds 17 1018 55 10000 4.02 356 18:19 27.05.2020
2332 Clouds 18 1018 55 10000 4.02 356 17:46 27.05.2020
2333 Clouds 18 1018 55 10000 4.02 356 17:46 27.05.2020
2334 Clouds 18 1018 55 10000 4.54 355 17:28 27.05.2020
2335 Clouds 18 1018 55 10000 4.54 355 16:57 27.05.2020
2336 Clouds 18 1018 55 10000 4.54 355 16:39 27.05.2020
2337 Clouds 18 1018 55 10000 4.29 351 16:20 27.05.2020
2338 Clouds 18 1018 55 10000 4.29 351 15:59 27.05.2020
2339 Clouds 18 1018 55 10000 4.29 351 15:39 27.05.2020
2340 Clouds 18 1018 55 10000 4.25 344 15:21 27.05.2020
2341 Drizzle 17 1018 59 10000 4.25 344 14:42 27.05.2020
2342 Drizzle 17 1018 59 10000 4.69 341 14:21 27.05.2020
2343 Clouds 17 1018 63 10000 5.48 338 13:55 27.05.2020
2344 Clouds 17 1018 67 10000 4.84 351 13:36 27.05.2020
2345 Rain 17 1017 52 0 5.36 24 13:18 27.05.2020
2346 Clouds 17 1018 59 10000 4.84 351 12:40 27.05.2020
2347 Clouds 16 1018 59 10000 4.64 349 12:22 27.05.2020
2348 Drizzle 16 1017 63 10000 3.39 333 11:40 27.05.2020
2349 Drizzle 16 1017 63 10000 4.64 349 11:40 27.05.2020
2350 Drizzle 16 1017 63 10000 3.39 333 11:22 27.05.2020
2351 Drizzle 16 1017 72 10000 3.39 333 10:58 27.05.2020
2352 Drizzle 15 1017 67 10000 3.39 333 10:39 27.05.2020
2353 Drizzle 16 1017 67 10000 2.84 314 10:20 27.05.2020
2354 Drizzle 15 1017 71 10000 2.84 314 09:41 27.05.2020
2355 Drizzle 15 1017 71 10000 5.28 344 09:22 27.05.2020
2356 Drizzle 15 1017 71 10000 5.28 344 09:22 27.05.2020
2357 Drizzle 14 1017 71 10000 5.28 344 08:56 27.05.2020
2358 Drizzle 14 1017 71 10000 5.28 344 08:56 27.05.2020
2359 Drizzle 14 1017 67 10000 5.28 344 08:36 27.05.2020
2360 Drizzle 14 1017 67 10000 5.76 346 08:18 27.05.2020
2361 Clouds 14 1016 67 10000 5.76 346 07:50 27.05.2020
2362 Clouds 14 1016 71 10000 5.76 346 07:32 27.05.2020
2363 Clouds 13 1016 71 10000 5.9 345 06:49 27.05.2020
2364 Clouds 13 1016 76 10000 5.07 351 06:21 27.05.2020
2365 Clouds 13 1016 71 10000 5.07 351 05:49 27.05.2020
2366 Clouds 13 1016 71 10000 4.2 351 05:22 27.05.2020
2367 Clouds 13 1016 71 10000 3.94 353 02:36 27.05.2020
2368 Clouds 13 1016 71 10000 3.63 8 01:55 27.05.2020
2369 Clouds 13 1016 76 10000 3.66 16 01:30 27.05.2020
2370 Clouds 13 1016 93 10000 3.66 16 00:47 27.05.2020
2371 Clouds 13 1016 93 10000 3.64 33 00:20 27.05.2020
2372 Clouds 13 1016 82 10000 3.64 33 23:57 26.05.2020
2373 Clouds 13 1016 82 10000 3.64 33 23:38 26.05.2020
2374 Clouds 13 1017 82 10000 3.07 31 23:20 26.05.2020
2375 Clouds 13 1017 82 10000 3.07 31 22:41 26.05.2020
2376 Clouds 13 1017 82 10000 0.52 355 22:23 26.05.2020
2377 Clouds 13 1017 82 10000 0.52 355 22:23 26.05.2020
2378 Clouds 13 1017 82 10000 0.52 355 21:59 26.05.2020
2379 Clouds 13 1017 87 10000 1.24 352 21:40 26.05.2020
2380 Clouds 13 1017 87 10000 0.8 271 21:22 26.05.2020
2381 Clouds 13 1017 87 10000 0.8 271 20:57 26.05.2020
2382 Rain 13 1017 93 10000 0.8 271 20:39 26.05.2020
2383 Rain 14 1017 87 8000 0.35 247 20:19 26.05.2020
2384 Thunderstorm 15 1017 82 7000 0.35 247 19:40 26.05.2020
2385 Thunderstorm 15 1017 82 7000 0.2 351 19:20 26.05.2020
2386 Rain 16 1017 77 8000 0.2 351 18:58 26.05.2020
2387 Rain 17 1016 68 10000 0.2 351 18:39 26.05.2020
2388 Clouds 18 1016 68 10000 1.21 12 18:20 26.05.2020
2389 Clouds 18 1015 59 10000 1.21 12 17:40 26.05.2020
2390 Clouds 18 1015 59 10000 3.29 21 17:21 26.05.2020
2391 Clouds 18 1016 59 10000 3.29 21 16:48 26.05.2020
2392 Rain 18 1016 68 10000 3.98 31 16:23 26.05.2020
2393 Clouds 18 1016 72 10000 3.98 31 15:59 26.05.2020
2394 Clouds 18 1016 72 10000 3.98 31 15:40 26.05.2020
2395 Clouds 17 1016 72 10000 5.04 31 15:19 26.05.2020
2396 Clouds 17 1017 72 10000 5.04 31 15:19 26.05.2020
2397 Clouds 17 1017 72 10000 5.04 31 14:55 26.05.2020
2398 Rain 16 1017 93 7000 5.04 31 14:36 26.05.2020
2399 Rain 16 1017 93 7000 4.06 36 14:18 26.05.2020
2400 Clouds 19 1016 52 10000 4.06 36 13:40 26.05.2020
2401 Rain 19 1016 52 10000 2.26 36 13:22 26.05.2020
2402 Clouds 20 1016 46 10000 2.26 36 12:44 26.05.2020
2403 Clouds 21 1016 46 10000 1.84 16 12:23 26.05.2020
2404 Clouds 21 1016 46 10000 1.84 16 11:59 26.05.2020
2405 Rain 20 1016 51 0 0.45 36 11:40 26.05.2020
2406 Rain 20 1016 51 0 0.45 36 11:40 26.05.2020
2407 Rain 20 1016 51 0 0.45 36 11:40 26.05.2020
2408 Clouds 20 1017 49 10000 2.13 17 11:19 26.05.2020
2409 Clouds 20 1017 52 10000 2.13 17 10:47 26.05.2020
2410 Clouds 20 1017 52 10000 2.33 18 10:19 26.05.2020
2411 Clouds 19 1017 56 10000 2.33 18 09:57 26.05.2020
2412 Clouds 19 1017 60 10000 2.23 355 09:37 26.05.2020
2413 Clouds 19 1017 60 10000 2.55 358 09:18 26.05.2020
2414 Clouds 18 1017 63 10000 2.55 358 08:40 26.05.2020
2415 Clouds 18 1017 68 10000 2.7 7 08:21 26.05.2020
2416 Clouds 18 1017 63 10000 2.7 7 08:21 26.05.2020
2417 Clouds 17 1017 68 10000 2.7 7 07:42 26.05.2020
2418 Clouds 17 1017 68 10000 2.88 9 07:23 26.05.2020
2419 Rain 17 1017 72 10000 2.88 9 06:52 26.05.2020
2420 Clouds 16 1017 77 10000 2.4 5 06:28 26.05.2020
2421 Clouds 16 1017 77 10000 2.4 5 06:28 26.05.2020
2422 Clouds 16 1017 82 10000 2.4 5 05:42 26.05.2020
2423 Clouds 16 1017 82 10000 1.69 352 05:20 26.05.2020
2424 Clouds 16 1017 77 10000 1.69 352 04:48 26.05.2020
2425 Clouds 16 1017 72 10000 1.69 352 04:29 26.05.2020
2426 Clouds 16 1017 77 10000 1.96 8 03:46 26.05.2020
2427 Clouds 16 1017 82 10000 2.75 9 02:35 26.05.2020
2428 Rain 16 1018 82 10000 3.48 15 01:47 26.05.2020
2429 Rain 16 1018 87 10000 3.83 32 00:43 26.05.2020
2430 Rain 16 1018 87 10000 3.58 41 00:23 26.05.2020
2431 Rain 16 1018 87 10000 3.58 41 23:59 25.05.2020
2432 Rain 16 1018 87 10000 3.58 41 23:39 25.05.2020
2433 Rain 16 1018 93 8000 2.85 28 23:20 25.05.2020
2434 Rain 16 1018 87 10000 2.85 28 23:20 25.05.2020
2435 Rain 16 1018 93 8000 2.85 28 22:56 25.05.2020
2436 Rain 16 1018 82 7000 2.85 28 22:37 25.05.2020
2437 Rain 17 1017 64 8000 3.27 46 22:19 25.05.2020
2438 Rain 18 1017 64 8000 3.27 46 21:58 25.05.2020
2439 Clouds 19 1017 56 10000 3.27 46 21:38 25.05.2020
2440 Clouds 19 1017 56 10000 3.09 33 21:20 25.05.2020
2441 Clouds 19 1017 56 10000 3.09 33 20:59 25.05.2020
2442 Clouds 19 1017 56 10000 3.09 33 20:59 25.05.2020
2443 Clouds 19 1017 56 10000 3.09 33 20:59 25.05.2020
2444 Clouds 19 1017 56 10000 3.09 33 20:59 25.05.2020
2445 Clouds 19 1017 56 10000 3.09 33 20:59 25.05.2020
2446 Clouds 19 1016 56 10000 3.09 33 20:40 25.05.2020
2447 Clouds 20 1016 53 10000 3.49 47 20:20 25.05.2020
2448 Clouds 20 1016 53 10000 3.49 47 19:57 25.05.2020
2449 Clouds 20 1016 53 10000 3.49 47 19:57 25.05.2020
2450 Clouds 20 1016 49 10000 3.49 47 19:38 25.05.2020
2451 Clouds 20 1016 49 10000 3.84 42 19:18 25.05.2020
2452 Clouds 21 1016 46 10000 3.84 42 18:43 25.05.2020
2453 Rain 21 1015 56 0 1.79 65 18:22 25.05.2020
2454 Rain 21 1016 46 0 1.79 333 17:57 25.05.2020
2455 Clouds 22 1016 47 10000 4.37 43 17:38 25.05.2020
2456 Clouds 22 1016 47 10000 4.86 36 17:20 25.05.2020
2457 Rain 22 1015 54 0 1.79 63 16:55 25.05.2020
2458 Clouds 23 1017 44 10000 4.86 36 16:36 25.05.2020
2459 Clouds 23 1017 44 10000 5.45 37 16:18 25.05.2020
2460 Clouds 24 1017 44 10000 5.45 37 15:42 25.05.2020
2461 Clouds 24 1017 44 10000 4.91 40 15:18 25.05.2020
2462 Rain 23 1016 52 0 2.24 38 14:43 25.05.2020
2463 Clouds 23 1016 52 0 2.24 20 14:25 25.05.2020
2464 Clouds 23 1018 47 10000 5.86 36 14:25 25.05.2020
2465 Clouds 23 1018 47 10000 5.86 36 13:59 25.05.2020
2466 Clouds 23 1018 47 10000 5.86 36 13:39 25.05.2020
2467 Clouds 23 1018 47 10000 4.82 17 13:20 25.05.2020
2468 Clouds 23 1018 44 10000 4.82 17 12:57 25.05.2020
2469 Clouds 23 1019 47 10000 4.82 17 12:37 25.05.2020
2470 Clouds 23 1019 47 10000 4.71 8 12:19 25.05.2020
2471 Clouds 23 1019 46 10000 4.71 8 11:39 25.05.2020
2472 Clouds 23 1019 46 10000 4.19 356 11:20 25.05.2020
2473 Clouds 23 1019 44 10000 4.19 356 10:54 25.05.2020
2474 Clouds 23 1019 44 10000 4.19 356 10:54 25.05.2020
2475 Clouds 23 1019 44 10000 4.19 356 10:36 25.05.2020
2476 Clouds 23 1019 44 10000 4.19 356 10:36 25.05.2020
2477 Clouds 23 1019 47 10000 3.74 356 10:18 25.05.2020
2478 Clouds 23 1019 46 10000 4.29 359 09:42 25.05.2020
2479 Clouds 21 1019 46 10000 3.6 359 09:20 25.05.2020
2480 Clouds 21 1019 49 10000 3.6 359 08:59 25.05.2020
2481 Clouds 22 1018 46 10000 3.6 359 08:38 25.05.2020
2482 Clouds 21 1018 46 10000 3.33 4 08:20 25.05.2020
2483 Clouds 21 1019 53 10000 3.33 4 07:47 25.05.2020
2484 Clouds 21 1018 49 10000 3.27 23 07:26 25.05.2020
2485 Clouds 21 1018 52 10000 3.27 23 06:56 25.05.2020
2486 Clouds 20 1018 52 10000 3.27 23 06:35 25.05.2020
2487 Clouds 19 1018 63 10000 2.81 28 05:20 25.05.2020
2488 Clouds 19 1018 68 10000 1.94 12 03:25 25.05.2020
2489 Clear 19 1018 67 10000 1.94 12 02:46 25.05.2020
2490 Clear 19 1018 67 10000 1.39 355 01:59 25.05.2020
2491 Clear 18 1018 67 10000 1.39 355 01:40 25.05.2020
2492 Clear 19 1018 63 10000 1.37 339 00:46 25.05.2020
2493 Clear 19 1018 63 10000 1.14 334 00:24 25.05.2020
2494 Clear 19 1019 63 10000 1.14 334 23:58 24.05.2020
2495 Clear 19 1019 68 10000 1.14 334 23:39 24.05.2020
2496 Clear 19 1019 68 10000 0.59 307 23:20 24.05.2020
2497 Clear 19 1019 63 10000 0.59 307 22:55 24.05.2020
2498 Clear 20 1019 68 10000 0.9 213 22:37 24.05.2020
2499 Clear 20 1019 68 10000 0.9 213 22:18 24.05.2020
2500 Clear 20 1019 64 10000 0.9 213 21:54 24.05.2020
2501 Clear 20 1019 64 10000 1.07 168 21:36 24.05.2020
2502 Clear 20 1019 64 10000 1.07 168 21:18 24.05.2020
2503 Clear 20 1019 56 10000 1.07 168 20:41 24.05.2020
2504 Clouds 21 1019 56 10000 1.98 190 20:19 24.05.2020
2505 Clouds 21 1019 56 10000 1.98 190 19:56 24.05.2020
2506 Clouds 21 1019 49 10000 1.98 190 19:36 24.05.2020
2507 Clouds 21 1019 49 10000 2.52 197 19:18 24.05.2020
2508 Clouds 21 1019 49 10000 2.52 197 19:18 24.05.2020
2509 Clouds 21 1019 49 10000 2.52 197 18:42 24.05.2020
2510 Clouds 22 1019 49 10000 3.19 199 18:23 24.05.2020
2511 Clouds 22 1019 49 10000 3.19 199 17:57 24.05.2020
2512 Clouds 22 1020 43 10000 3.19 199 17:38 24.05.2020
2513 Clouds 23 1020 43 10000 3.94 203 17:19 24.05.2020
2514 Clouds 22 1020 40 10000 3.94 203 16:54 24.05.2020
2515 Clouds 23 1020 36 10000 3.94 203 16:36 24.05.2020
2516 Clouds 23 1020 36 10000 4.38 210 16:18 24.05.2020
2517 Clear 23 1020 38 10000 4.38 210 15:55 24.05.2020
2518 Clear 23 1021 38 10000 4.38 210 15:36 24.05.2020
2519 Clear 23 1021 38 10000 4.77 208 15:18 24.05.2020
2520 Clear 23 1021 44 10000 4.77 208 14:41 24.05.2020
2521 Clear 23 1021 44 10000 4.73 206 14:21 24.05.2020
2522 Clear 23 1021 44 10000 4.73 206 14:21 24.05.2020
2523 Clear 23 1022 41 10000 4.73 206 13:55 24.05.2020
2524 Clear 23 1022 41 10000 4.73 206 13:37 24.05.2020
2525 Clear 23 1022 41 10000 4.52 206 13:18 24.05.2020
2526 Clear 23 1022 38 10000 4.52 206 12:55 24.05.2020
2527 Clear 23 1022 40 10000 4.52 206 12:37 24.05.2020
2528 Clear 23 1022 40 10000 4.28 208 12:18 24.05.2020
2529 Clear 22 1023 35 10000 4.28 208 11:54 24.05.2020
2530 Clear 22 1023 35 10000 4.28 208 11:36 24.05.2020
2531 Clear 22 1023 35 10000 4.08 214 11:18 24.05.2020
2532 Clear 22 1023 37 10000 4.08 214 10:41 24.05.2020
2533 Clear 21 1023 37 10000 3.13 212 10:23 24.05.2020
2534 Clear 21 1023 30 10000 3.13 212 09:56 24.05.2020
2535 Clear 21 1023 30 10000 2.47 211 09:38 24.05.2020
2536 Clear 20 1023 30 10000 2.14 212 09:18 24.05.2020
2537 Clear 20 1023 37 10000 2.14 212 08:41 24.05.2020
2538 Clear 20 1023 37 10000 1.7 207 08:23 24.05.2020
2539 Clear 19 1023 45 10000 1.7 207 07:58 24.05.2020
2540 Clear 19 1023 52 10000 0.75 159 07:39 24.05.2020
2541 Clear 19 1023 52 10000 0.75 159 07:20 24.05.2020
2542 Clear 18 1024 43 0 0.75 159 06:39 24.05.2020
2543 Clouds 15 1022 58 10000 0.78 108 05:49 24.05.2020
2544 Clouds 16 1023 51 10000 1.01 79 03:57 24.05.2020
2545 Clouds 16 1023 51 10000 1.01 79 03:37 24.05.2020
2546 Clouds 16 1023 51 10000 1.43 58 02:24 24.05.2020
2547 Clouds 17 1023 44 10000 1.03 54 01:18 24.05.2020
2548 Clouds 17 1023 42 10000 1.03 54 00:37 24.05.2020
2549 Clouds 17 1023 42 10000 1.06 66 00:19 24.05.2020
2550 Clouds 18 1023 34 10000 1.06 66 23:39 23.05.2020
2551 Clouds 18 1023 36 10000 1.25 72 23:20 23.05.2020
2552 Clouds 18 1023 36 10000 1.25 72 22:55 23.05.2020
2553 Clouds 19 1023 34 10000 1.25 72 22:37 23.05.2020
2554 Clouds 19 1023 34 10000 1.89 64 22:19 23.05.2020
2555 Clouds 19 1023 37 10000 1.89 64 21:56 23.05.2020
2556 Clouds 18 1022 34 10000 1.89 64 21:37 23.05.2020
2557 Clouds 19 1022 34 10000 2.44 58 21:18 23.05.2020
2558 Clouds 19 1022 35 10000 2.44 58 20:41 23.05.2020
2559 Clouds 20 1022 35 10000 3.16 55 20:20 23.05.2020
2560 Clouds 20 1021 33 10000 3.16 55 19:59 23.05.2020
2561 Clouds 21 1021 28 10000 3.16 55 19:40 23.05.2020
2562 Clouds 21 1021 28 10000 4.24 30 19:19 23.05.2020
2563 Clouds 22 1021 25 10000 4.24 30 18:55 23.05.2020
2564 Clouds 23 1021 27 10000 4.24 30 18:36 23.05.2020
2565 Clouds 23 1021 27 10000 5.06 16 18:18 23.05.2020
2566 Clouds 23 1021 25 10000 5.06 16 17:54 23.05.2020
2567 Clouds 24 1021 25 10000 5.06 16 17:36 23.05.2020
2568 Clouds 24 1021 25 10000 5.91 12 17:18 23.05.2020
2569 Clear 24 1022 35 0 3.13 355 16:41 23.05.2020
2570 Clear 24 1022 34 0 3.13 20 16:21 23.05.2020
2571 Clear 24 1022 34 0 3.13 20 16:21 23.05.2020
2572 Clear 25 1022 35 0 4.02 348 15:59 23.05.2020
2573 Clear 25 1022 35 0 4.02 11 15:41 23.05.2020
2574 Clear 25 1022 44 0 0.89 235 15:22 23.05.2020
2575 Clear 25 1022 49 0 1.34 207 14:43 23.05.2020
2576 Clear 24 1022 46 0 1.34 207 14:24 23.05.2020
2577 Clear 24 1022 48 0 1.34 252 13:56 23.05.2020
2578 Clear 24 1022 47 0 0.89 261 13:37 23.05.2020
2579 Clear 24 1022 48 0 0.89 266 13:18 23.05.2020
2580 Clouds 23 1021 33 10000 2.62 301 12:41 23.05.2020
2581 Clouds 23 1021 41 10000 2.46 289 12:20 23.05.2020
2582 Clouds 23 1021 41 10000 2.46 289 11:59 23.05.2020
2583 Clouds 23 1021 41 10000 2.46 289 11:59 23.05.2020
2584 Clouds 22 1021 44 10000 2.66 285 11:40 23.05.2020
2585 Clouds 22 1021 44 10000 2.66 285 11:19 23.05.2020
2586 Clouds 22 1021 49 10000 2.66 285 10:55 23.05.2020
2587 Clouds 21 1021 49 10000 2.6 280 10:37 23.05.2020
2588 Clouds 21 1021 43 10000 2.6 280 10:18 23.05.2020
2589 Clear 21 1021 46 10000 2.6 280 09:43 23.05.2020
2590 Clear 20 1021 46 10000 2.11 308 09:24 23.05.2020
2591 Clear 20 1022 46 10000 2.11 308 08:58 23.05.2020
2592 Clouds 20 1021 45 10000 2.11 308 08:38 23.05.2020
2593 Clear 19 1021 52 10000 1.34 288 08:19 23.05.2020
2594 Clear 18 1021 55 10000 1.34 288 07:44 23.05.2020
2595 Clear 18 1021 55 10000 1.18 323 07:23 23.05.2020
2596 Clear 16 1021 62 10000 1.18 323 06:43 23.05.2020
2597 Clear 15 1021 66 10000 1.21 340 05:55 23.05.2020
2598 Clear 14 1021 62 10000 1.88 14 03:55 23.05.2020
2599 Clear 15 1021 62 10000 2.13 14 03:26 23.05.2020
2600 Clear 15 1021 62 10000 1.99 7 02:40 23.05.2020
2601 Clear 15 1021 62 10000 2.01 12 01:48 23.05.2020
2602 Clear 15 1022 62 10000 2.11 6 01:18 23.05.2020
2603 Clear 16 1022 58 10000 2.11 6 00:42 23.05.2020
2604 Clear 16 1022 58 10000 1.87 2 00:19 23.05.2020
2605 Clear 16 1022 48 10000 1.87 2 23:44 22.05.2020
2606 Clear 16 1022 55 10000 1.97 9 23:22 22.05.2020
2607 Clear 16 1022 55 10000 1.97 9 22:58 22.05.2020
2608 Clear 16 1022 55 10000 1.97 9 22:58 22.05.2020
2609 Clear 17 1022 48 10000 1.97 9 22:40 22.05.2020
2610 Clear 17 1022 48 10000 2.38 27 22:20 22.05.2020
2611 Clear 17 1022 55 10000 2.38 27 21:47 22.05.2020
2612 Clear 17 1021 52 10000 2.64 34 21:23 22.05.2020
2613 Clouds 17 1021 52 10000 2.3 29 20:59 22.05.2020
2614 Clouds 18 1020 42 10000 2.3 29 20:41 22.05.2020
2615 Clouds 18 1020 42 10000 2.3 29 20:41 22.05.2020
2616 Clouds 18 1020 42 10000 2.79 30 20:20 22.05.2020
2617 Clouds 18 1020 40 10000 2.79 30 19:45 22.05.2020
2618 Clouds 19 1020 37 10000 4.46 29 19:26 22.05.2020
2619 Clouds 19 1019 35 10000 4.46 29 18:55 22.05.2020
2620 Clear 19 1021 50 0 3.13 27 18:37 22.05.2020
2621 Clear 20 1021 50 0 3.13 20 18:19 22.05.2020
2622 Clear 20 1020 49 0 3.58 105 17:40 22.05.2020
2623 Clear 20 1020 49 0 3.58 77 17:20 22.05.2020
2624 Clear 20 1020 49 0 4.02 32 16:57 22.05.2020
2625 Clouds 21 1019 31 10000 7.33 26 16:39 22.05.2020
2626 Clouds 21 1019 33 10000 7.84 21 16:20 22.05.2020
2627 Clouds 21 1019 33 10000 7.84 21 15:56 22.05.2020
2628 Clear 20 1020 50 0 3.58 65 15:38 22.05.2020
2629 Clear 20 1020 50 0 4.02 325 15:18 22.05.2020
2630 Clouds 21 1018 38 10000 8.5 23 14:40 22.05.2020
2631 Clouds 21 1018 38 10000 7.93 16 14:21 22.05.2020
2632 Clouds 21 1018 35 10000 7.93 16 13:44 22.05.2020
2633 Clear 21 1019 53 0 3.58 71 13:19 22.05.2020
2634 Clear 21 1019 54 0 3.58 80 12:43 22.05.2020
2635 Clear 20 1019 53 0 3.58 36 12:25 22.05.2020
2636 Clear 20 1019 54 0 3.58 17 11:56 22.05.2020
2637 Clear 20 1019 56 0 3.58 77 11:37 22.05.2020
2638 Clouds 19 1018 56 0 3.58 5 11:19 22.05.2020
2639 Clouds 19 1018 58 0 4.02 88 10:41 22.05.2020
2640 Clouds 19 1018 57 0 4.02 73 10:22 22.05.2020
2641 Clouds 19 1017 58 0 4.02 73 09:59 22.05.2020
2642 Clouds 19 1017 58 0 4.02 73 09:59 22.05.2020
2643 Clouds 18 1016 49 10000 7.68 13 09:40 22.05.2020
2644 Clouds 18 1017 61 0 3.58 14 09:18 22.05.2020
2645 Clouds 17 1017 65 0 3.58 35 08:43 22.05.2020
2646 Clouds 17 1017 65 0 3.58 35 08:43 22.05.2020
2647 Clouds 17 1016 68 0 4.02 66 08:20 22.05.2020
2648 Clouds 16 1015 59 10000 8.33 26 07:54 22.05.2020
2649 Clouds 16 1014 63 10000 7.44 22 07:24 22.05.2020
2650 Clouds 16 1012 63 10000 7.44 22 06:56 22.05.2020
2651 Clouds 16 1013 67 10000 7.44 22 06:35 22.05.2020
2652 Rain 16 1012 63 10000 6.83 14 05:38 22.05.2020
2653 Rain 16 1014 76 0 4.92 5 04:51 22.05.2020
2654 Rain 16 1013 77 0 4.02 5 04:20 22.05.2020
2655 Rain 17 1011 68 10000 6.84 5 03:47 22.05.2020
2656 Clouds 18 1011 68 10000 7.33 5 02:59 22.05.2020
2657 Clouds 19 1010 72 10000 6.73 14 01:53 22.05.2020
2658 Clouds 19 1010 72 10000 6.82 342 01:25 22.05.2020
2659 Clouds 19 1010 72 10000 6.82 342 00:40 22.05.2020
2660 Clouds 19 1010 72 10000 5.12 334 00:22 22.05.2020
2661 Clouds 20 1009 72 10000 5.12 334 23:42 21.05.2020
2662 Clouds 19 1009 72 10000 4.65 339 23:24 21.05.2020
2663 Rain 19 1009 72 10000 4.65 339 22:58 21.05.2020
2664 Rain 20 1009 82 10000 4.71 347 22:38 21.05.2020
2665 Rain 20 1009 82 10000 4.71 347 22:20 21.05.2020
2666 Rain 21 1008 82 10000 4.71 347 21:56 21.05.2020
2667 Rain 21 1007 77 10000 4.71 347 21:38 21.05.2020
2668 Clouds 22 1007 60 10000 4.24 6 21:18 21.05.2020
2669 Clouds 22 1006 56 10000 4.24 6 20:42 21.05.2020
2670 Clouds 22 1006 56 10000 2.1 305 20:22 21.05.2020
2671 Clouds 23 1005 47 10000 2.1 305 19:41 21.05.2020
2672 Clouds 23 1005 47 10000 2.38 273 19:21 21.05.2020
2673 Clouds 24 1004 47 10000 2.38 273 18:59 21.05.2020
2674 Clouds 24 1004 44 10000 2.38 273 18:39 21.05.2020
2675 Clouds 24 1004 44 10000 3.63 242 18:19 21.05.2020
2676 Clouds 24 1004 41 10000 3.63 242 17:57 21.05.2020
2677 Clouds 25 1004 41 10000 3.63 242 17:39 21.05.2020
2678 Clouds 25 1004 41 10000 3.76 222 17:21 21.05.2020
2679 Clouds 25 1004 50 10000 3.76 222 16:45 21.05.2020
2680 Clouds 25 1004 41 10000 4.77 221 16:23 21.05.2020
2681 Clear 25 1003 43 0 7.6 240 15:45 21.05.2020
2682 Clear 26 1006 53 0 1.79 247 15:24 21.05.2020
2683 Clear 26 1006 55 0 2.24 203 14:56 21.05.2020
2684 Clear 26 1006 51 0 1.79 199 14:36 21.05.2020
2685 Clouds 27 1004 28 10000 7.07 225 14:18 21.05.2020
2686 Clouds 27 1004 28 10000 7.07 225 13:39 21.05.2020
2687 Clouds 27 1004 28 10000 7.07 225 13:39 21.05.2020
2688 Clouds 27 1004 28 10000 6.74 238 13:21 21.05.2020
2689 Clear 26 1003 48 0 3.13 173 12:55 21.05.2020
2690 Clouds 26 1004 34 10000 6.74 238 12:36 21.05.2020
2691 Clouds 26 1004 34 10000 5.64 254 12:18 21.05.2020
2692 Clouds 25 1004 34 10000 5.64 254 11:40 21.05.2020
2693 Clouds 25 1004 34 10000 4.55 256 11:22 21.05.2020
2694 Clear 25 1004 51 0 2.68 230 10:55 21.05.2020
2695 Clear 25 1004 36 10000 4.55 256 10:37 21.05.2020
2696 Clear 25 1004 36 10000 3.74 263 10:18 21.05.2020
2697 Clear 24 1004 44 10000 3.74 263 09:42 21.05.2020
2698 Clear 23 1004 55 0 2.68 193 09:24 21.05.2020
2699 Clear 23 1004 56 0 2.68 197 08:58 21.05.2020
2700 Clear 23 1004 47 10000 3.68 269 08:39 21.05.2020
2701 Clear 22 1004 47 10000 3.21 278 08:21 21.05.2020
2702 Clear 22 1004 49 10000 3.21 278 07:43 21.05.2020
2703 Clear 22 1004 49 10000 3.23 282 07:22 21.05.2020
2704 Clear 21 1004 56 10000 3.23 282 06:44 21.05.2020
2705 Clear 20 1004 60 10000 3.06 285 05:52 21.05.2020
2706 Clear 20 1004 60 10000 3.18 285 04:29 21.05.2020
2707 Clear 21 1004 56 10000 3.16 285 03:21 21.05.2020
2708 Clear 21 1004 56 10000 3.16 285 03:21 21.05.2020
2709 Clear 21 1004 60 10000 3.16 285 03:21 21.05.2020
2710 Clear 21 1004 64 10000 3.46 283 02:33 21.05.2020
2711 Clear 21 1004 60 10000 3.46 283 01:58 21.05.2020
2712 Clear 21 1004 56 10000 3.46 283 01:39 21.05.2020
2713 Clear 22 1004 56 10000 3.54 277 01:18 21.05.2020
2714 Clear 22 1004 68 10000 3.54 277 00:41 21.05.2020
2715 Clear 23 1004 68 10000 3.13 279 00:21 21.05.2020
2716 Clear 23 1004 83 10000 3.13 279 23:40 20.05.2020
2717 Clear 23 1004 83 10000 3.15 279 23:19 20.05.2020
2718 Clear 23 1004 83 10000 3.15 279 22:55 20.05.2020
2719 Clear 23 1004 83 10000 3.15 279 22:37 20.05.2020
2720 Clear 23 1004 83 10000 2.79 275 22:19 20.05.2020
2721 Clear 23 1004 78 10000 2.49 273 21:40 20.05.2020
2722 Clear 23 1004 78 10000 1.38 258 21:20 20.05.2020
2723 Clear 24 1004 73 10000 1.38 258 20:44 20.05.2020
2724 Clear 24 1004 73 10000 1.75 203 20:24 20.05.2020
2725 Clouds 25 1004 73 10000 1.75 203 19:55 20.05.2020
2726 Clouds 25 1004 65 10000 1.75 203 19:37 20.05.2020
2727 Clouds 26 1004 65 10000 2.43 180 19:18 20.05.2020
2728 Clouds 27 1004 57 10000 2.43 180 18:42 20.05.2020
2729 Clouds 27 1004 57 10000 4.02 173 18:22 20.05.2020
2730 Clear 29 1005 49 0 2.24 188 17:42 20.05.2020
2731 Clear 29 1006 47 0 2.24 209 17:22 20.05.2020
2732 Clear 30 1006 50 0 1.34 219 16:57 20.05.2020
2733 Clouds 30 1005 48 10000 4.1 169 16:39 20.05.2020
2734 Clouds 29 1005 48 10000 4.38 184 16:20 20.05.2020
2735 Clear 30 1005 48 10000 4.38 184 15:44 20.05.2020
2736 Clear 30 1006 53 0 2.24 260 15:25 20.05.2020
2737 Clear 30 1006 45 10000 4.6 184 14:45 20.05.2020
2738 Clouds 30 1006 45 10000 4.43 190 14:26 20.05.2020
2739 Clouds 30 1006 45 10000 4.54 196 13:59 20.05.2020
2740 Clouds 30 1007 42 10000 4.54 196 13:39 20.05.2020
2741 Clouds 30 1007 42 10000 3.82 190 13:18 20.05.2020
2742 Clouds 30 1007 40 10000 3.82 190 12:42 20.05.2020
2743 Clouds 29 1007 40 10000 4.05 201 12:21 20.05.2020
2744 Clouds 28 1007 40 10000 4.05 201 11:39 20.05.2020
2745 Clouds 28 1007 40 10000 2.3 189 11:20 20.05.2020
2746 Clouds 28 1007 39 10000 2.3 189 10:55 20.05.2020
2747 Clouds 28 1008 39 10000 2.3 189 10:37 20.05.2020
2748 Clouds 28 1008 39 10000 2.9 215 10:19 20.05.2020
2749 Clouds 27 1008 42 10000 2.9 215 09:41 20.05.2020
2750 Clouds 26 1008 42 10000 2.86 230 09:20 20.05.2020
2751 Clouds 26 1008 50 10000 2.86 230 08:42 20.05.2020
2752 Clouds 24 1008 50 10000 1.22 145 08:20 20.05.2020
2753 Clouds 24 1008 60 10000 1.22 145 07:50 20.05.2020
2754 Clouds 24 1008 60 10000 0.83 164 07:25 20.05.2020
2755 Clouds 23 1010 82 0 0.45 279 06:55 20.05.2020
2756 Clouds 22 1010 85 0 0.74 156 06:20 20.05.2020
2757 Clouds 21 1009 72 10000 0.6 178 04:59 20.05.2020
2758 Clouds 21 1010 88 0 0.9 224 04:19 20.05.2020
2759 Clouds 22 1009 72 10000 0.9 224 03:36 20.05.2020
2760 Clouds 23 1010 64 10000 0.29 218 01:57 20.05.2020
2761 Clouds 23 1011 64 10000 0.45 211 01:24 20.05.2020
2762 Clouds 24 1011 60 10000 0.45 211 00:41 20.05.2020
2763 Clouds 24 1011 60 10000 0.19 255 00:22 20.05.2020
2764 Clouds 24 1012 64 10000 0.19 255 23:38 19.05.2020
2765 Clouds 24 1012 64 10000 0.39 29 23:19 19.05.2020
2766 Clouds 24 1012 69 10000 0.39 29 22:55 19.05.2020
2767 Clouds 24 1012 65 10000 0.39 29 22:37 19.05.2020
2768 Clouds 24 1012 65 10000 0.23 320 22:18 19.05.2020
2769 Clouds 24 1012 57 10000 0.23 320 21:55 19.05.2020
2770 Clouds 25 1012 54 10000 0.78 230 21:36 19.05.2020
2771 Clouds 25 1012 54 10000 1.03 222 21:18 19.05.2020
2772 Clouds 25 1012 50 10000 1.03 222 20:56 19.05.2020
2773 Clouds 25 1011 47 10000 1.03 222 20:37 19.05.2020
2774 Clouds 26 1011 47 10000 1.32 215 20:19 19.05.2020
2775 Clouds 27 1011 45 10000 1.87 212 19:38 19.05.2020
2776 Clouds 27 1011 45 10000 1.87 212 19:20 19.05.2020
2777 Clouds 29 1011 42 10000 1.87 212 18:45 19.05.2020
2778 Clouds 29 1011 42 10000 2.82 202 18:23 19.05.2020
2779 Clouds 31 1011 40 10000 2.82 202 17:58 19.05.2020
2780 Clouds 31 1012 42 10000 2.82 202 17:39 19.05.2020
2781 Clouds 31 1012 42 10000 2.69 179 17:20 19.05.2020
2782 Clouds 32 1012 43 10000 2.69 179 16:56 19.05.2020
2783 Clouds 32 1012 35 10000 2.69 179 16:37 19.05.2020
2784 Clouds 32 1012 35 10000 2.44 152 16:19 19.05.2020
2785 Clouds 33 1012 29 10000 2.44 152 15:43 19.05.2020
2786 Clouds 32 1012 29 10000 3.03 147 15:20 19.05.2020
2787 Clouds 32 1013 33 10000 3.03 147 14:55 19.05.2020
2788 Clouds 33 1013 31 10000 2.94 149 14:37 19.05.2020
2789 Clouds 32 1013 31 10000 3.08 170 14:19 19.05.2020
2790 Clouds 32 1013 33 10000 3.08 170 13:56 19.05.2020
2791 Clouds 32 1013 38 10000 3.08 170 13:37 19.05.2020
2792 Clouds 32 1013 38 10000 3.08 170 13:37 19.05.2020
2793 Clouds 32 1013 38 10000 2.99 196 13:18 19.05.2020
2794 Clouds 32 1014 35 10000 2.99 196 12:55 19.05.2020
2795 Clouds 32 1014 30 10000 2.99 196 12:36 19.05.2020
2796 Clouds 31 1014 30 10000 1.35 212 12:18 19.05.2020
2797 Clouds 31 1014 31 10000 1.35 212 11:41 19.05.2020
2798 Clouds 30 1014 31 10000 0.41 289 11:22 19.05.2020
2799 Clouds 31 1014 29 10000 0.41 289 10:56 19.05.2020
2800 Clouds 30 1016 53 0 1.34 226 10:38 19.05.2020
2801 Clouds 30 1016 53 0 1.34 226 10:38 19.05.2020
2802 Clouds 29 1016 53 0 0.89 277 10:18 19.05.2020
2803 Clouds 29 1016 53 0 0.89 277 10:18 19.05.2020
2804 Clouds 29 1016 53 0 0.89 259 09:43 19.05.2020
2805 Clouds 27 1014 33 10000 1.97 5 09:25 19.05.2020
2806 Clouds 26 1014 42 10000 1.97 5 08:47 19.05.2020
2807 Clouds 25 1015 47 10000 2.36 357 08:25 19.05.2020
2808 Clouds 25 1015 47 10000 2.36 357 08:25 19.05.2020
2809 Clouds 25 1015 51 10000 2.36 357 07:49 19.05.2020
2810 Clouds 25 1015 60 10000 2.8 359 07:28 19.05.2020
2811 Clouds 24 1015 64 10000 2.8 359 06:55 19.05.2020
2812 Clouds 23 1015 60 10000 3.11 359 06:31 19.05.2020
2813 Clouds 23 1014 60 10000 3.11 359 05:53 19.05.2020
2814 Clouds 23 1014 56 10000 3.11 359 05:35 19.05.2020
2815 Clouds 23 1014 56 10000 3.1 359 04:50 19.05.2020
2816 Clouds 24 1015 64 10000 2.97 354 02:50 19.05.2020
2817 Clouds 25 1015 61 10000 2.95 356 00:59 19.05.2020
2818 Clouds 25 1016 64 10000 2.95 356 00:36 19.05.2020
2819 Clouds 25 1016 64 10000 2.61 353 00:18 19.05.2020
2820 Clouds 25 1016 53 10000 2.61 353 23:40 18.05.2020
2821 Clouds 25 1016 50 10000 2.13 356 23:20 18.05.2020
2822 Clouds 25 1016 50 10000 2.13 356 22:56 18.05.2020
2823 Clouds 26 1016 57 10000 2.13 356 22:38 18.05.2020
2824 Clear 26 1016 57 10000 1.49 344 22:19 18.05.2020
2825 Clear 26 1015 61 10000 1.49 344 21:42 18.05.2020
2826 Clear 27 1015 61 10000 0.93 319 21:21 18.05.2020
2827 Clear 27 1015 57 10000 0.95 309 20:57 18.05.2020
2828 Clear 27 1015 57 10000 0.95 309 20:37 18.05.2020
2829 Clouds 28 1014 51 10000 0.7 308 20:19 18.05.2020
2830 Clouds 28 1014 51 10000 0.7 308 19:54 18.05.2020
2831 Clouds 29 1014 48 10000 0.74 296 19:36 18.05.2020
2832 Clouds 29 1014 48 10000 0.46 249 19:18 18.05.2020
2833 Clouds 30 1014 38 10000 0.52 253 18:43 18.05.2020
2834 Clouds 31 1014 38 10000 1.18 225 18:20 18.05.2020
2835 Clouds 32 1013 35 10000 1.18 225 17:39 18.05.2020
2836 Clouds 32 1013 35 10000 1.74 182 17:18 18.05.2020
2837 Clouds 32 1014 33 10000 1.74 182 16:56 18.05.2020
2838 Clouds 33 1014 33 10000 1.74 182 16:37 18.05.2020
2839 Clouds 34 1014 30 10000 2.64 160 16:18 18.05.2020
2840 Clouds 34 1014 30 10000 2.64 160 16:18 18.05.2020
2841 Clouds 33 1014 30 10000 2.64 160 15:54 18.05.2020
2842 Clouds 34 1014 30 10000 2.61 159 15:36 18.05.2020
2843 Clouds 34 1014 30 10000 3.07 170 15:18 18.05.2020
2844 Clouds 33 1014 32 10000 2.86 166 14:41 18.05.2020
2845 Clouds 33 1014 32 10000 2.79 178 14:23 18.05.2020
2846 Clouds 32 1015 32 10000 2.79 178 13:57 18.05.2020
2847 Clouds 32 1015 33 10000 2.79 178 13:38 18.05.2020
2848 Clouds 33 1015 33 10000 2.91 197 13:19 18.05.2020
2849 Clouds 32 1015 33 10000 2.91 197 12:55 18.05.2020
2850 Clouds 33 1015 33 10000 2.91 197 12:37 18.05.2020
2851 Clouds 33 1015 33 10000 2.91 208 12:18 18.05.2020
2852 Clouds 33 1015 33 10000 2.91 208 11:46 18.05.2020
2853 Clouds 31 1015 33 10000 1.91 212 11:26 18.05.2020
2854 Clouds 32 1015 28 10000 1.91 212 10:55 18.05.2020
2855 Clouds 32 1015 26 10000 1.91 212 10:37 18.05.2020
2856 Clouds 31 1015 26 10000 0.32 220 10:19 18.05.2020
2857 Clouds 31 1015 31 10000 0.32 220 09:42 18.05.2020
2858 Clouds 29 1015 31 10000 0.89 20 09:23 18.05.2020
2859 Clouds 28 1015 42 10000 0.89 20 08:42 18.05.2020
2860 Clouds 27 1015 42 10000 1.25 20 08:24 18.05.2020
2861 Clouds 26 1015 47 10000 1.25 20 07:50 18.05.2020
2862 Clouds 25 1015 53 10000 1.95 29 07:26 18.05.2020
2863 Clouds 24 1015 53 10000 1.95 29 06:49 18.05.2020
2864 Clouds 24 1016 61 0 1.95 29 06:31 18.05.2020
2865 Clouds 23 1016 73 0 1.85 34 05:49 18.05.2020
2866 Clouds 23 1014 49 10000 1.53 60 04:40 18.05.2020
2867 Clouds 24 1015 66 0 1.33 70 03:30 18.05.2020
2868 Clouds 24 1015 53 10000 0.5 14 02:19 18.05.2020
2869 Clouds 25 1015 53 10000 0.45 334 00:55 18.05.2020
2870 Clouds 25 1017 64 0 0.32 249 00:23 18.05.2020
2871 Clouds 25 1017 64 0 0.45 278 23:56 17.05.2020
2872 Clouds 26 1016 64 10000 0.32 249 23:38 17.05.2020
2873 Clouds 26 1016 64 10000 0.5 226 23:19 17.05.2020
2874 Clouds 26 1016 65 10000 0.5 226 22:55 17.05.2020
2875 Clouds 26 1016 61 10000 0.5 226 22:36 17.05.2020
2876 Clouds 26 1016 61 10000 0.78 216 22:18 17.05.2020
2877 Clouds 27 1015 47 10000 0.78 216 21:42 17.05.2020
2878 Clouds 28 1015 47 10000 0.75 228 21:20 17.05.2020
2879 -273 0 0 0 0 0 20:59 17.05.2020
2880 Clouds 28 1014 45 10000 0.75 228 20:40 17.05.2020
2881 Clouds 29 1014 45 10000 1.54 231 20:20 17.05.2020
2882 Clouds 30 1014 37 10000 1.54 231 19:55 17.05.2020
2883 Clouds 30 1014 33 10000 1.54 231 19:37 17.05.2020
2884 Clouds 31 1014 33 10000 2.28 223 19:18 17.05.2020
2885 Clouds 32 1014 31 10000 2.28 223 18:39 17.05.2020
2886 Clouds 33 1014 31 10000 1.88 215 18:21 17.05.2020
2887 Clouds 33 1014 27 10000 1.88 215 17:56 17.05.2020
2888 Clouds 34 1014 29 10000 1.88 215 17:37 17.05.2020
2889 Clouds 35 1014 29 10000 2.22 219 17:18 17.05.2020
2890 Clouds 35 1014 24 10000 2.22 219 16:40 17.05.2020
2891 Clouds 35 1014 24 10000 2.75 207 16:20 17.05.2020
2892 Clouds 35 1014 24 10000 2.75 207 16:20 17.05.2020
2893 Clouds 35 1014 23 10000 2.75 207 15:56 17.05.2020
2894 Clouds 35 1014 18 10000 2.75 207 15:37 17.05.2020
2895 Clouds 36 1014 18 10000 3.17 196 15:19 17.05.2020
2896 Clouds 36 1015 16 10000 3.17 196 14:43 17.05.2020
2897 Clouds 35 1015 16 10000 3.94 195 14:24 17.05.2020
2898 Clouds 36 1015 14 10000 3.88 187 13:58 17.05.2020
2899 Clouds 36 1015 15 10000 3.88 187 13:39 17.05.2020
2900 Clouds 36 1015 15 10000 3.19 196 13:18 17.05.2020
2901 Clouds 25 1015 30 0 2.76 15 04:41 17.05.2020
2902 Clouds 25 1015 34 0 2.08 14 02:39 17.05.2020
2903 Clouds 25 1015 33 0 1.97 9 02:19 17.05.2020
2904 Clouds 25 1016 41 10000 1.97 9 01:44 17.05.2020
2905 Clouds 26 1017 41 10000 1.75 5 00:40 17.05.2020
2906 Clear 26 1015 35 0 1.56 353 00:20 17.05.2020
2907 Clear 26 1015 36 0 1.56 353 23:40 16.05.2020
2908 Clear 26 1015 35 0 1.42 3 23:20 16.05.2020
2909 Clear 27 1015 35 0 1.42 3 22:58 16.05.2020
2910 Clear 27 1015 38 0 1.42 3 22:40 16.05.2020
2911 Clear 27 1015 37 0 2.03 32 22:20 16.05.2020
2912 Clear 27 1016 34 10000 2.03 32 21:46 16.05.2020
2913 Clear 28 1016 34 10000 1.05 9 21:28 16.05.2020
2914 Clouds 28 1016 34 10000 0.7 356 20:59 16.05.2020
2915 Clouds 28 1015 32 10000 0.7 356 20:41 16.05.2020
2916 Clouds 29 1015 32 10000 0.72 290 20:22 16.05.2020
2917 Clouds 30 1015 27 10000 0.72 290 19:58 16.05.2020
2918 Clouds 31 1015 23 10000 0.72 290 19:40 16.05.2020
2919 Clouds 32 1015 23 10000 0.8 244 19:22 16.05.2020
2920 Clouds 32 1015 21 10000 0.8 244 18:44 16.05.2020
2921 Clouds 33 1015 21 10000 0.86 236 18:25 16.05.2020
2922 Clouds 33 1014 21 10000 0.86 236 17:58 16.05.2020
2923 Clouds 34 1014 20 10000 0.86 236 17:40 16.05.2020
2924 Clouds 35 1014 20 10000 0.71 206 17:20 16.05.2020
2925 Clouds 35 1014 23 10000 0.71 206 16:42 16.05.2020
2926 Clouds 36 1014 23 10000 1.15 144 16:23 16.05.2020
2927 Clouds 36 1014 23 10000 1.15 144 16:23 16.05.2020
2928 Clouds 36 1014 18 10000 1.15 144 15:58 16.05.2020
2929 Clouds 37 1014 18 10000 1.15 144 15:40 16.05.2020
2930 Clouds 37 1014 18 10000 1.85 150 15:20 16.05.2020
2931 Clouds 37 1014 15 10000 1.85 150 14:48 16.05.2020
2932 Clouds 37 1015 16 10000 2.31 168 14:21 16.05.2020
2933 Clouds 37 1015 16 10000 2.31 168 14:21 16.05.2020
2934 Clouds 37 1015 18 10000 2.02 161 13:59 16.05.2020
2935 Clouds 36 1015 19 10000 2.02 161 13:41 16.05.2020
2936 Clouds 36 1015 19 10000 2.02 161 13:41 16.05.2020
2937 Clouds 35 1015 19 10000 2.03 182 13:22 16.05.2020
2938 Clouds 36 1015 20 10000 2.03 182 12:55 16.05.2020
2939 Clouds 35 1015 20 10000 2.03 182 12:37 16.05.2020
2940 Clouds 35 1015 20 10000 2 186 12:18 16.05.2020
2941 Clouds 35 1015 15 10000 2 186 11:39 16.05.2020
2942 Clouds 34 1015 15 10000 1.69 185 11:20 16.05.2020
2943 Clouds 34 1015 16 10000 1.69 185 10:56 16.05.2020
2944 Clouds 34 1015 20 10000 1.69 185 10:37 16.05.2020
2945 Clouds 35 1015 20 10000 1.51 182 10:19 16.05.2020
2946 Clouds 34 1015 21 10000 1.51 182 09:45 16.05.2020
2947 Clouds 32 1015 21 10000 1 147 09:27 16.05.2020
2948 Clouds 32 1014 22 0 1 147 08:45 16.05.2020
2949 Clouds 30 1014 24 0 0.7 82 08:23 16.05.2020
2950 Clouds 30 1014 24 0 0.7 82 08:23 16.05.2020
2951 Clouds 30 1014 27 0 0.7 82 07:56 16.05.2020
2952 Clouds 29 1014 28 0 0.7 82 07:38 16.05.2020
2953 Clouds 28 1014 28 0 0.76 27 07:19 16.05.2020
2954 Clouds 25 1013 30 0 0.45 11 06:45 16.05.2020
2955 Clouds 23 1013 31 0 1.34 20 06:19 16.05.2020
2956 Clouds 23 1013 34 0 0.95 20 05:41 16.05.2020
2957 Clouds 24 1013 28 0 0.45 184 04:51 16.05.2020
2958 Clouds 24 1013 34 0 1.69 345 03:26 16.05.2020
2959 Clouds 24 1013 34 0 1.69 345 02:39 16.05.2020
2960 Clouds 24 1012 33 0 0.89 294 02:18 16.05.2020
2961 Clouds 24 1002 33 0 1.46 339 01:37 16.05.2020
2962 Clouds 24 1012 34 0 1.78 333 00:56 16.05.2020
2963 Clouds 25 1012 34 0 1.78 333 00:38 16.05.2020
2964 Clouds 25 1013 31 0 1.59 311 00:18 16.05.2020
2965 Clouds 25 1013 32 0 1.59 311 23:38 15.05.2020
2966 Clouds 25 1014 43 10000 1.49 276 23:19 15.05.2020
2967 Clouds 26 1013 32 0 1.49 276 22:41 15.05.2020
2968 Clouds 26 1013 34 0 0.78 245 22:20 15.05.2020
2969 Clouds 26 1014 44 10000 0.78 245 21:57 15.05.2020
2970 Clouds 26 1013 41 10000 0.78 245 21:38 15.05.2020
2971 Clouds 27 1012 30 0 0.71 223 21:20 15.05.2020
2972 Clouds 27 1013 36 10000 0.91 241 20:54 15.05.2020
2973 Clouds 27 1013 34 10000 0.73 244 20:36 15.05.2020
2974 Clear 27 1013 34 10000 1.2 223 20:18 15.05.2020
2975 Rain 28 1013 26 10000 1.2 223 19:42 15.05.2020
2976 Rain 29 1013 26 10000 2.02 225 19:23 15.05.2020
2977 Clear 30 1013 27 10000 1.79 220 18:48 15.05.2020
2978 Clear 30 1013 27 10000 2.47 221 18:28 15.05.2020
2979 Clear 31 1013 27 10000 2.47 221 17:59 15.05.2020
2980 Clear 31 1013 28 10000 2.47 221 17:37 15.05.2020
2981 Clear 32 1013 28 10000 2.91 220 17:18 15.05.2020
2982 Clear 32 1013 27 10000 2.91 220 16:56 15.05.2020
2983 Clear 33 1013 25 10000 2.91 220 16:37 15.05.2020
2984 Clear 33 1013 25 10000 3.82 226 16:18 15.05.2020
2985 Clouds 33 1013 27 10000 3.82 226 15:41 15.05.2020
2986 Clouds 35 1013 27 10000 3.74 229 15:20 15.05.2020
2987 Clouds 35 1013 29 10000 3.74 229 14:57 15.05.2020
2988 Clouds 34 1013 27 10000 3.74 229 14:38 15.05.2020
2989 Clouds 35 1013 27 10000 3.01 229 14:20 15.05.2020
2990 Clouds 36 1014 24 10000 3.01 229 13:42 15.05.2020
2991 Clouds 34 1014 24 10000 2.5 232 13:22 15.05.2020
2992 Clouds 34 1014 26 10000 2.5 232 12:56 15.05.2020
2993 Clouds 33 1014 26 10000 2.5 232 12:36 15.05.2020
2994 Clouds 33 1014 26 10000 2.98 229 12:18 15.05.2020
2995 Clouds 34 1014 24 10000 2.98 229 11:56 15.05.2020
2996 Clouds 34 1015 25 10000 2.98 229 11:37 15.05.2020
2997 Clouds 33 1015 25 10000 2.91 221 11:18 15.05.2020
2998 Clouds 33 1015 24 10000 2.91 221 10:54 15.05.2020
2999 Clouds 33 1015 25 10000 2.91 221 10:36 15.05.2020
3000 Clear 31 1015 25 10000 1.41 212 10:18 15.05.2020
3001 Clouds 30 1015 28 10000 1.36 211 09:39 15.05.2020
3002 Clouds 29 1015 28 10000 0.95 313 09:19 15.05.2020
3003 Clouds 29 1015 32 10000 0.95 313 08:58 15.05.2020
3004 Clouds 28 1014 33 0 0.95 313 08:37 15.05.2020
3005 Clouds 28 1014 33 0 2.62 275 08:19 15.05.2020
3006 Clouds 26 1014 38 0 2.62 275 07:44 15.05.2020
3007 Clouds 25 1014 40 0 0.96 285 07:24 15.05.2020
3008 Clouds 23 1014 41 0 0.96 285 06:54 15.05.2020
3009 Clouds 21 1013 43 0 0.76 314 05:49 15.05.2020
3010 Clear 21 1013 46 0 1.07 288 04:28 15.05.2020
3011 Clear 21 1013 43 0 0.45 186 03:48 15.05.2020
3012 Clear 22 1014 54 0 1.07 279 02:40 15.05.2020
3013 Clear 22 1014 44 0 0.93 281 01:31 15.05.2020
3014 Clear 22 1014 48 0 0.93 281 00:56 15.05.2020
3015 Clear 23 1014 44 0 0.93 281 00:37 15.05.2020
3016 Clear 23 1014 42 0 1.16 277 00:19 15.05.2020
3017 Clear 23 1015 49 10000 1.16 277 23:40 14.05.2020
3018 Clear 23 1015 49 10000 0.79 263 23:18 14.05.2020
3019 Clear 23 1015 46 10000 0.79 263 22:41 14.05.2020
3020 Clear 23 1015 46 10000 0.4 241 22:20 14.05.2020
3021 Clear 23 1015 46 10000 0.4 241 21:58 14.05.2020
3022 Clear 24 1015 43 10000 0.46 256 21:39 14.05.2020
3023 Clear 24 1015 43 10000 0.85 213 21:19 14.05.2020
3024 Clear 24 1014 46 10000 0.85 213 20:55 14.05.2020
3025 Clear 24 1014 46 10000 0.85 213 20:55 14.05.2020
3026 Clear 24 1014 44 10000 0.85 213 20:37 14.05.2020
3027 Clear 25 1014 44 10000 1.31 213 20:18 14.05.2020
3028 Clear 25 1015 41 10000 1.31 213 19:55 14.05.2020
3029 Clear 25 1015 38 10000 1.31 213 19:36 14.05.2020
3030 Clear 25 1015 38 10000 1.67 210 19:18 14.05.2020
3031 Clear 26 1015 36 10000 1.67 210 18:54 14.05.2020
3032 Clear 26 1015 39 10000 1.67 210 18:36 14.05.2020
3033 Clear 27 1015 36 10000 2.69 216 18:18 14.05.2020
3034 Clear 28 1015 36 10000 2.69 216 17:55 14.05.2020
3035 Clear 28 1015 39 10000 2.69 216 17:36 14.05.2020
3036 Clear 28 1015 39 10000 3.31 217 17:18 14.05.2020
3037 Clear 29 1015 32 10000 3.52 210 16:39 14.05.2020
3038 Clear 29 1015 32 10000 3.52 210 16:20 14.05.2020
3039 Clear 29 1015 32 10000 3.52 210 16:20 14.05.2020
3040 Clear 29 1015 30 10000 3.52 210 15:57 14.05.2020
3041 Clear 30 1015 30 10000 3.52 210 15:39 14.05.2020
3042 Clear 29 1015 30 10000 3 197 15:19 14.05.2020
3043 Clear 29 1015 30 10000 3 197 14:56 14.05.2020
3044 Clear 29 1015 28 10000 3.34 195 14:37 14.05.2020
3045 Clear 29 1015 28 10000 3.87 208 14:19 14.05.2020
3046 Clear 30 1016 27 10000 3.87 208 13:55 14.05.2020
3047 Clear 30 1016 28 10000 3.87 208 13:37 14.05.2020
3048 Clear 30 1016 28 10000 3.75 211 13:18 14.05.2020
3049 Clear 29 1016 30 10000 3.75 211 12:55 14.05.2020
3050 Clear 29 1016 30 10000 3.75 211 12:36 14.05.2020
3051 Clear 28 1016 30 10000 3.42 210 12:18 14.05.2020
3052 Clear 29 1016 28 10000 3.42 210 11:42 14.05.2020
3053 Clear 28 1016 28 10000 2.47 211 11:24 14.05.2020
3054 Clear 27 1016 32 10000 2.47 211 10:58 14.05.2020
3055 Clear 27 1016 32 10000 2.47 211 10:40 14.05.2020
3056 Clear 26 1016 32 10000 1.87 227 10:21 14.05.2020
3057 Clear 27 1016 32 10000 1.87 227 09:43 14.05.2020
3058 Clear 25 1016 32 10000 1.25 242 09:23 14.05.2020
3059 Clear 25 1016 38 10000 1.25 242 08:56 14.05.2020
3060 Clear 26 1016 41 10000 1.25 242 08:36 14.05.2020
3061 Clear 24 1016 41 10000 1.56 243 08:18 14.05.2020
3062 Clear 23 1015 48 0 1.56 243 07:43 14.05.2020
3063 Clear 22 1016 52 10000 0.23 233 07:20 14.05.2020
3064 Clear 21 1016 50 0 0.23 233 06:43 14.05.2020
3065 Clear 20 1015 52 0 0.36 357 06:23 14.05.2020
3066 Clear 19 1015 53 0 0.36 357 05:37 14.05.2020
3067 Clear 19 1014 53 0 0.3 75 04:45 14.05.2020
3068 Clear 19 1016 59 10000 0.34 39 03:37 14.05.2020
3069 Clear 20 1016 59 10000 0.53 61 02:57 14.05.2020
3070 Clear 20 1016 59 10000 0.53 61 02:57 14.05.2020
3071 Clear 20 1016 59 10000 0.53 61 02:34 14.05.2020
3072 Clear 20 1016 55 10000 0.76 22 01:47 14.05.2020
3073 Clear 20 1017 55 10000 0.6 344 00:51 14.05.2020
3074 Clear 20 1016 52 0 0.73 332 00:27 14.05.2020
3075 Clear 21 1016 55 0 0.73 332 23:45 13.05.2020
3076 Clear 21 1016 56 0 0.45 198 23:23 13.05.2020
3077 Clear 21 1017 56 10000 0.68 331 22:59 13.05.2020
3078 Clear 21 1017 52 10000 0.68 331 22:41 13.05.2020
3079 Clear 21 1017 52 10000 0.59 337 22:21 13.05.2020
3080 Clear 21 1017 52 10000 0.59 337 22:21 13.05.2020
3081 Clear 21 1017 52 10000 0.59 337 21:57 13.05.2020
3082 Clear 22 1017 60 10000 0.55 295 21:39 13.05.2020
3083 Clear 22 1017 60 10000 0.55 295 21:39 13.05.2020
3084 Clear 22 1017 60 10000 0.53 228 21:19 13.05.2020
3085 Clear 22 1017 56 10000 0.53 228 20:55 13.05.2020
3086 Clear 23 1016 56 10000 0.53 228 20:37 13.05.2020
3087 Clear 23 1016 56 10000 1.22 214 20:18 13.05.2020
3088 Clear 23 1016 56 10000 1.22 214 19:41 13.05.2020
3089 Clear 24 1016 56 10000 1.77 211 19:22 13.05.2020
3090 Clear 25 1016 41 10000 1.77 211 18:43 13.05.2020
3091 Clear 26 1016 41 10000 2.48 203 18:22 13.05.2020
3092 Clear 26 1016 41 10000 2.48 203 18:22 13.05.2020
3093 Clear 26 1016 39 10000 3.1 180 17:58 13.05.2020
3094 Clear 27 1016 41 10000 3.1 200 17:38 13.05.2020
3095 Clear 27 1016 41 10000 3.1 200 17:18 13.05.2020
3096 Clear 28 1015 32 10000 4.1 180 16:40 13.05.2020
3097 Clear 29 1015 32 10000 4.1 180 16:19 13.05.2020
3098 Clear 29 1015 28 10000 4.1 190 15:55 13.05.2020
3099 Clear 29 1015 28 10000 4.1 180 15:36 13.05.2020
3100 Clear 29 1015 28 10000 4.1 180 15:36 13.05.2020
3101 Clear 29 1015 28 10000 4.1 180 15:18 13.05.2020
3102 Clear 29 1015 30 10000 4.1 200 14:42 13.05.2020
3103 Clear 29 1015 30 10000 4.1 200 14:24 13.05.2020
3104 Clear 29 1015 25 10000 4.1 200 13:59 13.05.2020
3105 Clear 29 1015 27 10000 3.6 190 13:41 13.05.2020
3106 Clear 29 1015 27 10000 3.6 190 13:22 13.05.2020
3107 Clear 29 1015 23 10000 3.1 210 12:58 13.05.2020
3108 Clear 30 1015 25 10000 3.1 210 12:39 13.05.2020
3109 Clear 29 1015 25 10000 3.1 210 12:20 13.05.2020
3110 Clear 29 1015 24 10000 3.1 210 11:56 13.05.2020
3111 Clear 29 1015 24 10000 3.1 210 11:56 13.05.2020
3112 Clear 29 1015 22 10000 2.1 220 11:37 13.05.2020
3113 Clear 28 1015 33 0 1.79 180 11:19 13.05.2020
3114 Clear 28 1015 23 10000 1.26 238 10:57 13.05.2020
3115 Clear 28 1015 23 10000 1.26 238 10:38 13.05.2020
3116 Clear 28 1015 23 10000 1 315 10:19 13.05.2020
3117 Clear 27 1015 28 10000 1 315 09:46 13.05.2020
3118 Clear 26 1015 36 10000 1.06 333 09:24 13.05.2020
3119 Clear 25 1015 50 10000 1.06 333 08:58 13.05.2020
3120 Clear 25 1015 53 10000 1.06 333 08:39 13.05.2020
3121 Clouds 24 1015 53 10000 1.6 353 08:20 13.05.2020
3122 Clouds 24 1015 53 10000 1.6 353 07:51 13.05.2020
3123 Clouds 23 1015 52 10000 2.4 6 07:31 13.05.2020
3124 Clouds 21 1014 40 0 2.4 6 06:52 13.05.2020
3125 Clouds 20 1015 50 0 2.71 6 06:33 13.05.2020
3126 Clouds 19 1013 45 0 0.45 167 05:34 13.05.2020
3127 Clouds 19 1012 45 0 2.94 1 03:49 13.05.2020
3128 Clear 19 1013 55 10000 2.52 2 02:37 13.05.2020
3129 Clouds 20 1013 52 10000 2.04 343 01:46 13.05.2020
3130 Clouds 20 1013 45 10000 2.1 360 00:58 13.05.2020
3131 Clouds 21 1013 46 10000 1.81 311 00:23 13.05.2020
3132 Clouds 21 1012 49 10000 1.81 311 23:58 12.05.2020
3133 Clouds 21 1012 46 10000 1.5 0 23:39 12.05.2020
3134 Clouds 21 1012 46 10000 1.5 0 23:18 12.05.2020
3135 Clouds 22 1012 46 10000 1.78 301 22:42 12.05.2020
3136 Clouds 22 1012 46 10000 1.91 276 22:22 12.05.2020
3137 Clouds 23 1011 53 10000 1.91 276 21:56 12.05.2020
3138 Clouds 23 1011 53 10000 1.91 276 21:38 12.05.2020
3139 Clouds 23 1011 53 10000 1.59 254 21:19 12.05.2020
3140 Clouds 23 1011 53 10000 1.59 254 21:19 12.05.2020
3141 Clouds 24 1011 47 10000 1.55 262 20:59 12.05.2020
3142 Clouds 24 1010 47 10000 1.55 262 20:39 12.05.2020
3143 Clouds 24 1010 47 10000 1.25 233 20:21 12.05.2020
3144 Clouds 25 1010 47 10000 1.25 233 19:58 12.05.2020
3145 Clouds 25 1010 46 0 1.34 156 19:39 12.05.2020
3146 Clouds 26 1010 39 10000 1.5 0 19:21 12.05.2020
3147 Clouds 26 1009 42 0 0.89 151 18:56 12.05.2020
3148 Clouds 26 1009 42 0 0.89 151 18:38 12.05.2020
3149 Clouds 26 1009 42 0 0.89 150 18:19 12.05.2020
3150 Clouds 27 1010 42 10000 3.1 210 17:42 12.05.2020
3151 Clouds 27 1010 42 10000 3.1 210 17:24 12.05.2020
3152 Clouds 27 1010 42 10000 2.6 190 16:47 12.05.2020
3153 Clouds 27 1010 42 10000 2.86 218 16:26 12.05.2020
3154 Clouds 28 1010 44 10000 3.1 150 15:56 12.05.2020
3155 Clouds 29 1010 35 10000 2.1 150 15:38 12.05.2020
3156 Clouds 28 1010 35 10000 2.1 150 15:38 12.05.2020
3157 Clouds 29 1010 35 10000 2.1 150 15:19 12.05.2020
3158 Clouds 29 1010 37 10000 2.1 180 14:57 12.05.2020
3159 Clouds 29 1010 39 10000 2.1 210 14:37 12.05.2020
3160 Clouds 28 1010 39 10000 2.1 210 14:19 12.05.2020
3161 Clouds 28 1010 39 10000 2.1 180 13:58 12.05.2020
3162 Clouds 27 1010 44 10000 2.1 200 13:39 12.05.2020
3163 Clouds 27 1010 44 10000 2.1 200 13:19 12.05.2020
3164 Clouds 26 1010 41 10000 2.6 170 12:57 12.05.2020
3165 Clouds 26 1011 47 10000 2.6 180 12:39 12.05.2020
3166 Clouds 26 1011 47 10000 2.6 180 12:21 12.05.2020
3167 Clouds 26 1011 50 10000 2.6 200 11:58 12.05.2020
3168 Clouds 25 1011 50 10000 2.6 170 11:39 12.05.2020
3169 Clouds 25 1011 50 10000 2.6 170 11:21 12.05.2020
3170 Clouds 25 1010 47 10000 1.5 210 10:58 12.05.2020
3171 Clouds 26 1010 44 10000 3.55 219 10:40 12.05.2020
3172 Clouds 25 1010 44 10000 3.31 211 10:21 12.05.2020
3173 Clouds 25 1010 44 10000 3.31 211 09:59 12.05.2020
3174 Clouds 24 1010 47 10000 3.33 223 09:39 12.05.2020
3175 Clouds 24 1010 47 10000 3.01 194 09:20 12.05.2020
3176 Clouds 23 1011 53 10000 2.83 205 08:54 12.05.2020
3177 Clouds 23 1011 56 10000 2.83 205 08:36 12.05.2020
3178 Clouds 22 1011 56 10000 2.24 188 08:18 12.05.2020
3179 Clouds 22 1009 47 0 3.13 165 07:41 12.05.2020
3180 Clouds 21 1011 63 10000 1.34 150 07:22 12.05.2020
3181 Clouds 19 1010 60 0 0.89 147 06:47 12.05.2020
3182 Clear 18 1010 77 10000 1.19 162 06:27 12.05.2020
3183 Clear 18 1010 77 10000 1.19 162 05:50 12.05.2020
3184 Clear 18 1010 77 10000 1.74 177 05:30 12.05.2020
3185 Clear 18 1011 72 10000 2.06 176 03:27 12.05.2020
3186 Clear 18 1011 72 10000 2.06 176 02:41 12.05.2020
3187 Clouds 18 1011 72 10000 2.38 167 02:18 12.05.2020
3188 Clouds 19 1012 68 10000 2.62 168 01:26 12.05.2020
3189 Clouds 20 1013 72 10000 2.92 161 00:27 12.05.2020
3190 Clouds 20 1013 68 10000 2.92 161 23:58 11.05.2020
3191 Clouds 20 1013 68 10000 2.92 161 23:40 11.05.2020
3192 Clouds 20 1013 68 10000 2.84 161 23:20 11.05.2020
3193 Clouds 20 1013 68 10000 2.84 161 22:58 11.05.2020
3194 Clouds 20 1013 68 10000 2.84 161 22:58 11.05.2020
3195 Clouds 21 1013 64 10000 2.84 161 22:40 11.05.2020
3196 Clouds 21 1013 64 10000 2.61 155 22:20 11.05.2020
3197 Clouds 21 1013 64 10000 2.61 155 21:58 11.05.2020
3198 Clouds 21 1013 64 10000 2.54 169 21:40 11.05.2020
3199 Clouds 21 1013 64 10000 2.54 160 21:19 11.05.2020
3200 Clouds 21 1013 64 10000 2.54 160 20:58 11.05.2020
3201 Clouds 21 1013 64 10000 2.54 160 20:40 11.05.2020
3202 Clouds 21 1013 64 10000 2.25 148 20:20 11.05.2020
3203 Clouds 21 1013 60 10000 2.25 148 19:55 11.05.2020
3204 Clouds 21 1013 60 10000 2.25 148 19:55 11.05.2020
3205 Clouds 22 1013 56 10000 2.25 148 19:36 11.05.2020
3206 Clouds 22 1013 56 10000 2.41 155 19:18 11.05.2020
3207 Clouds 22 1013 53 10000 2.41 155 18:55 11.05.2020
3208 Clouds 23 1013 49 10000 2.1 170 18:37 11.05.2020
3209 Clouds 23 1013 49 10000 2.1 170 18:18 11.05.2020
3210 Clouds 24 1013 44 10000 2.6 160 17:55 11.05.2020
3211 Clouds 24 1013 41 10000 3.1 160 17:36 11.05.2020
3212 Clear 24 1013 41 10000 3.1 160 17:18 11.05.2020
3213 Clear 25 1013 41 10000 4.1 160 16:40 11.05.2020
3214 Clear 25 1013 41 10000 4.1 160 16:22 11.05.2020
3215 Clear 25 1013 38 10000 4.6 160 15:57 11.05.2020
3216 Clear 25 1013 41 10000 4.1 180 15:39 11.05.2020
3217 Clear 25 1013 41 10000 4.1 180 15:19 11.05.2020
3218 Clear 25 1013 53 10000 4.1 180 14:54 11.05.2020
3219 Clear 25 1013 44 10000 4.6 190 14:36 11.05.2020
3220 Clear 25 1013 44 10000 4.6 190 14:18 11.05.2020
3221 Clear 25 1014 47 10000 3.6 180 13:41 11.05.2020
3222 Clear 25 1014 47 10000 3.6 180 13:19 11.05.2020
3223 Clouds 25 1014 44 10000 2.6 210 12:58 11.05.2020
3224 Clouds 25 1014 44 10000 2.6 210 12:40 11.05.2020
3225 Clouds 25 1014 44 10000 2.6 210 12:21 11.05.2020
3226 Clouds 24 1014 44 10000 2.6 170 11:56 11.05.2020
3227 Clouds 24 1014 53 10000 2.6 190 11:37 11.05.2020
3228 Clouds 24 1014 53 10000 2.6 190 11:19 11.05.2020
3229 Clouds 24 1014 53 10000 2.1 190 10:55 11.05.2020
3230 Clouds 23 1014 53 10000 1.5 0 10:37 11.05.2020
3231 Clouds 22 1014 53 10000 2.92 200 10:18 11.05.2020
3232 Clouds 22 1014 53 10000 2.92 200 09:54 11.05.2020
3233 Clouds 22 1014 56 10000 2.92 200 09:36 11.05.2020
3234 Clouds 21 1014 56 10000 2.5 200 09:18 11.05.2020
3235 Clouds 20 1014 68 10000 2.5 200 08:39 11.05.2020
3236 Clouds 19 1014 68 10000 1.61 202 08:19 11.05.2020
3237 Clouds 19 1014 68 10000 1.61 202 07:50 11.05.2020
3238 Clouds 18 1014 63 10000 1.61 202 07:32 11.05.2020
3239 Clouds 18 1014 63 10000 1.61 202 07:32 11.05.2020
3240 Clouds 18 1014 67 10000 0.86 241 06:55 11.05.2020
3241 Clouds 17 1012 67 10000 0.88 213 06:31 11.05.2020
3242 Clouds 17 1014 67 10000 1.05 191 05:31 11.05.2020
3243 Clouds 17 1014 67 10000 1.05 191 04:58 11.05.2020
3244 Clouds 17 1014 67 10000 0.82 196 03:47 11.05.2020
3245 Clouds 18 1014 63 10000 0.49 172 02:35 11.05.2020
3246 Clouds 18 1014 59 10000 0.7 224 01:55 11.05.2020
3247 Clouds 19 1014 59 10000 0.67 251 00:54 11.05.2020
3248 Clouds 19 1014 55 10000 0.66 256 00:27 11.05.2020
3249 Clouds 19 1015 55 10000 0.66 256 23:56 10.05.2020
3250 Clouds 19 1014 67 0 0.66 256 23:36 10.05.2020
3251 Clouds 19 1015 55 10000 0.18 215 23:18 10.05.2020
3252 Clouds 20 1015 63 10000 0.18 215 22:42 10.05.2020
3253 Clouds 20 1015 63 10000 1.25 219 22:24 10.05.2020
3254 Clouds 20 1015 68 10000 1.25 219 21:46 10.05.2020
3255 Clouds 20 1015 68 10000 1.71 229 21:21 10.05.2020
3256 Clouds 20 1015 68 10000 1.16 210 20:59 10.05.2020
3257 Clouds 21 1015 64 10000 1.16 210 20:41 10.05.2020
3258 Clouds 21 1015 64 10000 1.5 199 20:23 10.05.2020
3259 Clouds 21 1014 60 10000 1.5 199 19:54 10.05.2020
3260 Clouds 21 1014 52 10000 1.5 200 19:36 10.05.2020
3261 Clouds 21 1014 52 10000 1.5 200 19:36 10.05.2020
3262 Clouds 22 1014 52 10000 1.5 200 19:18 10.05.2020
3263 Clouds 22 1014 46 10000 2.1 200 18:54 10.05.2020
3264 Clouds 22 1014 46 10000 2.1 200 18:54 10.05.2020
3265 Clouds 23 1014 49 10000 2.1 210 18:36 10.05.2020
3266 Clouds 23 1014 49 10000 2.1 210 18:36 10.05.2020
3267 Clouds 23 1014 49 10000 2.1 210 18:18 10.05.2020
3268 Clouds 23 1014 43 10000 2.6 210 17:56 10.05.2020
3269 Clouds 24 1014 46 10000 2.6 210 17:36 10.05.2020
3270 Clouds 24 1014 41 10000 3.1 190 17:18 10.05.2020
3271 Clouds 24 1014 43 10000 3.1 190 16:43 10.05.2020
3272 Clouds 25 1014 43 10000 3.1 190 16:20 10.05.2020
3273 Clouds 24 1014 38 10000 3.6 190 15:58 10.05.2020
3274 Clouds 25 1014 36 10000 3.6 180 15:38 10.05.2020
3275 Clouds 25 1014 36 10000 3.6 180 15:19 10.05.2020
3276 Clouds 25 1015 44 10000 3.6 190 14:55 10.05.2020
3277 Clouds 25 1015 34 10000 3.1 200 14:37 10.05.2020
3278 Clouds 25 1015 34 10000 3.1 200 14:18 10.05.2020
3279 Clouds 25 1015 31 10000 3.1 190 13:55 10.05.2020
3280 Clouds 25 1015 31 10000 2.6 190 13:36 10.05.2020
3281 Clouds 25 1015 31 10000 2.6 190 13:36 10.05.2020
3282 Clouds 25 1015 31 10000 2.6 190 13:18 10.05.2020
3283 Clouds 24 1015 33 10000 2.1 200 12:42 10.05.2020
3284 Clouds 23 1015 33 10000 2.1 200 12:21 10.05.2020
3285 Clouds 23 1015 33 10000 1.5 0 11:58 10.05.2020
3286 Clouds 24 1015 38 10000 1.5 0 11:40 10.05.2020
3287 Clouds 24 1015 38 10000 1.5 0 11:40 10.05.2020
3288 Clouds 23 1015 38 10000 1.5 0 11:21 10.05.2020
3289 Clouds 23 1015 36 10000 1.5 0 10:54 10.05.2020
3290 Clouds 23 1015 38 10000 1.5 0 10:36 10.05.2020
3291 Clouds 22 1015 38 10000 1.5 0 10:18 10.05.2020
3292 Clouds 22 1014 43 10000 2.2 206 09:41 10.05.2020
3293 Clouds 21 1014 43 10000 1.19 177 09:23 10.05.2020
3294 Clouds 21 1014 43 10000 1.19 175 08:57 10.05.2020
3295 Clouds 21 1014 46 10000 1.19 175 08:39 10.05.2020
3296 Clouds 21 1014 46 10000 0.74 86 08:20 10.05.2020
3297 Clouds 20 1013 48 0 0.74 86 07:40 10.05.2020
3298 Clouds 19 1013 50 0 0.99 12 07:19 10.05.2020
3299 Clouds 17 1013 53 0 0.99 12 06:50 10.05.2020
3300 Clear 16 1013 57 0 0.9 339 06:24 10.05.2020
3301 Clouds 15 1014 66 10000 0.9 339 05:45 10.05.2020
3302 Clear 15 1014 66 10000 1.01 328 04:45 10.05.2020
3303 Clear 16 1014 66 10000 1.03 328 04:25 10.05.2020
3304 Clear 15 1014 66 10000 1.03 328 03:47 10.05.2020
3305 Clear 16 1014 62 10000 1.02 321 02:59 10.05.2020
3306 Clear 16 1014 62 10000 0.93 306 02:25 10.05.2020
3307 Clear 16 1015 62 10000 0.93 306 01:58 10.05.2020
3308 Clear 16 1015 62 10000 0.93 306 01:39 10.05.2020
3309 Clear 16 1015 62 10000 0.57 291 01:18 10.05.2020
3310 Clear 16 1015 62 10000 0.57 291 00:52 10.05.2020
3311 Clear 17 1015 58 10000 0.12 131 00:21 10.05.2020
3312 Clear 17 1015 55 10000 0.12 131 23:40 09.05.2020
3313 Clear 17 1015 55 10000 0.12 131 23:40 09.05.2020
3314 Clear 17 1015 55 10000 0.27 189 23:22 09.05.2020
3315 Clear 17 1015 55 10000 0.27 189 22:59 09.05.2020
3316 Clear 17 1015 55 10000 0.27 189 22:40 09.05.2020
3317 Clear 17 1015 55 10000 0.87 176 22:22 09.05.2020
3318 Clear 18 1015 51 10000 0.87 176 21:57 09.05.2020
3319 Clear 18 1015 52 10000 0.87 176 21:39 09.05.2020
3320 Clear 18 1015 52 10000 1.07 183 21:20 09.05.2020
3321 Clear 19 1015 52 10000 0.97 187 20:56 09.05.2020
3322 Clear 19 1015 45 10000 0.97 187 20:38 09.05.2020
3323 Clouds 19 1015 45 10000 1.46 190 20:19 09.05.2020
3324 Clouds 19 1015 42 10000 2.6 180 19:40 09.05.2020
3325 Clouds 20 1015 42 10000 2.6 180 19:21 09.05.2020
3326 Clouds 20 1015 43 10000 2.6 180 18:59 09.05.2020
3327 Clouds 21 1014 46 10000 3.6 180 18:40 09.05.2020
3328 Clouds 21 1014 46 10000 3.6 180 18:21 09.05.2020
3329 Clouds 22 1015 40 10000 4.1 180 17:44 09.05.2020
3330 Clouds 22 1015 40 10000 4.1 180 17:23 09.05.2020
3331 Clouds 23 1014 40 10000 4.6 180 16:56 09.05.2020
3332 Clouds 23 1015 38 10000 4.6 180 16:38 09.05.2020
3333 Clouds 23 1015 38 10000 4.6 180 16:18 09.05.2020
3334 Clouds 24 1015 29 10000 3.6 200 15:42 09.05.2020
3335 Clouds 24 1015 29 10000 3.6 200 15:22 09.05.2020
3336 Clouds 24 1016 27 10000 3.6 190 14:56 09.05.2020
3337 Clouds 24 1016 29 10000 3.1 180 14:37 09.05.2020
3338 Clouds 24 1016 29 10000 3.1 180 14:18 09.05.2020
3339 Clear 24 1016 31 10000 2.6 190 13:55 09.05.2020
3340 Clear 23 1016 33 10000 3.1 190 13:37 09.05.2020
3341 Clear 24 1016 33 10000 3.1 190 13:18 09.05.2020
3342 Clear 24 1017 29 10000 2.6 190 12:39 09.05.2020
3343 Clear 23 1017 29 10000 2.6 190 12:21 09.05.2020
3344 Clear 23 1017 29 10000 2.6 160 11:45 09.05.2020
3345 Clear 22 1017 29 10000 2.6 160 11:20 09.05.2020
3346 Clear 22 1018 28 10000 2.1 180 10:55 09.05.2020
3347 Clear 22 1018 28 10000 1.5 210 10:37 09.05.2020
3348 Clear 21 1018 28 10000 1.5 210 10:19 09.05.2020
3349 Clear 21 1018 30 10000 0.78 230 09:44 09.05.2020
3350 Clear 20 1018 30 10000 0.41 280 09:20 09.05.2020
3351 Clear 20 1018 32 10000 0.41 280 08:58 09.05.2020
3352 Clear 19 1018 37 10000 0.41 280 08:40 09.05.2020
3353 Clear 19 1018 37 10000 0.46 324 08:21 09.05.2020
3354 Clear 18 1018 45 10000 0.46 324 07:45 09.05.2020
3355 Clear 18 1017 42 0 1.09 11 07:27 09.05.2020
3356 Clear 16 1017 48 0 1.09 11 06:44 09.05.2020
3357 Clear 15 1016 49 0 1.27 21 06:20 09.05.2020
3358 Clear 14 1018 58 10000 1.27 21 05:42 09.05.2020
3359 Clear 14 1018 62 10000 1.67 19 03:41 09.05.2020
3360 Clear 15 1016 66 0 0.89 239 02:55 09.05.2020
3361 Clear 15 1018 58 10000 2.03 8 02:30 09.05.2020
3362 Clear 15 1018 54 10000 2.03 8 01:51 09.05.2020
3363 Clear 15 1018 58 10000 2.17 10 01:22 09.05.2020
3364 Clear 16 1019 58 10000 2.17 10 00:44 09.05.2020
3365 Clear 15 1019 58 10000 2.12 5 00:24 09.05.2020
3366 Clear 16 1018 54 10000 1.5 0 23:48 08.05.2020
3367 Clear 16 1018 54 10000 1.5 0 23:28 08.05.2020
3368 Clear 17 1018 51 10000 1.97 5 22:57 08.05.2020
3369 Clear 17 1018 63 10000 1.97 5 22:39 08.05.2020
3370 Clear 17 1018 63 10000 1.9 2 22:19 08.05.2020
3371 Clear 17 1018 67 10000 1.9 2 21:58 08.05.2020
3372 Clear 18 1018 67 10000 1.9 2 21:38 08.05.2020
3373 Clear 18 1018 67 10000 1.85 354 21:18 08.05.2020
3374 Clouds 18 1018 59 10000 1.5 0 20:56 08.05.2020
3375 Clouds 19 1017 55 10000 2.1 200 20:38 08.05.2020
3376 Clear 19 1017 55 10000 2.1 200 20:19 08.05.2020
3377 Clear 20 1017 49 10000 2.6 180 19:42 08.05.2020
3378 Clear 20 1017 49 10000 2.6 180 19:22 08.05.2020
3379 Clear 21 1016 49 10000 3.6 170 18:50 08.05.2020
3380 Clear 22 1015 40 0 2.24 222 18:31 08.05.2020
3381 Clear 22 1018 42 0 0.45 186 17:43 08.05.2020
3382 Clear 22 1015 38 0 2.24 180 17:21 08.05.2020
3383 Clear 22 1016 36 0 2.68 188 16:58 08.05.2020
3384 Clear 22 1016 36 0 1.34 153 16:39 08.05.2020
3385 Clear 22 1016 37 0 1.79 163 16:21 08.05.2020
3386 Clear 22 1016 37 0 3.13 165 15:54 08.05.2020
3387 Clouds 22 1017 25 10000 3.6 350 15:36 08.05.2020
3388 Clear 21 1016 37 0 2.68 141 15:18 08.05.2020
3389 Clear 21 1016 37 0 2.68 141 15:18 08.05.2020
3390 Clear 22 1016 31 0 0.89 43 14:41 08.05.2020
3391 Clear 22 1016 31 0 0.89 43 14:41 08.05.2020
3392 Clear 22 1016 31 0 0.89 304 14:20 08.05.2020
3393 Clear 22 1016 32 0 0.89 48 13:57 08.05.2020
3394 Clear 22 1016 32 0 0.89 48 13:39 08.05.2020
3395 Clouds 22 1018 27 10000 3.6 350 13:19 08.05.2020
3396 Clouds 22 1018 28 10000 4.1 360 12:45 08.05.2020
3397 Clouds 21 1018 28 10000 4.1 360 12:24 08.05.2020
3398 Clear 21 1017 37 0 1.34 38 11:55 08.05.2020
3399 Clear 21 1017 38 0 2.24 19 11:37 08.05.2020
3400 Clear 21 1017 38 0 2.24 19 11:37 08.05.2020
3401 Clear 20 1017 38 0 1.34 37 11:18 08.05.2020
3402 Clouds 20 1018 32 10000 5.1 360 10:45 08.05.2020
3403 Clouds 20 1018 32 10000 5.1 360 10:22 08.05.2020
3404 Clouds 19 1018 35 10000 3.6 360 10:00 08.05.2020
3405 Clear 19 1018 37 10000 3.6 360 09:40 08.05.2020
3406 Clear 19 1018 37 10000 3.6 360 09:19 08.05.2020
3407 Clear 19 1018 37 10000 3.6 360 09:19 08.05.2020
3408 Clear 18 1018 39 10000 3.1 350 08:51 08.05.2020
3409 Clear 18 1018 42 10000 5.1 360 08:25 08.05.2020
3410 Clear 17 1018 48 10000 4.1 360 07:54 08.05.2020
3411 Clear 16 1018 48 10000 1.5 0 07:36 08.05.2020
3412 Clear 16 1018 48 10000 1.5 0 07:18 08.05.2020
3413 Clear 15 1017 54 10000 2.1 350 06:39 08.05.2020
3414 Clear 14 1017 54 10000 2.1 350 06:18 08.05.2020
3415 Clear 14 1017 58 10000 1.5 280 05:24 08.05.2020
3416 Clear 14 1017 54 10000 2.1 350 03:21 08.05.2020
3417 Clear 14 1017 54 10000 3.73 351 02:29 08.05.2020
3418 Clear 14 1017 44 10000 2.6 340 01:39 08.05.2020
3419 Clear 14 1017 44 10000 2.6 340 01:20 08.05.2020
3420 Clear 14 1017 47 10000 3.69 349 00:47 08.05.2020
3421 Clear 14 1017 47 10000 3.76 348 00:25 08.05.2020
3422 Clear 14 1016 44 10000 3.1 320 23:56 07.05.2020
3423 Clear 14 1016 47 10000 2.1 330 23:37 07.05.2020
3424 Clear 14 1016 47 10000 2.1 330 23:19 07.05.2020
3425 Clear 14 1016 41 10000 3.27 1 22:41 07.05.2020
3426 Clear 14 1016 41 10000 2.83 5 22:20 07.05.2020
3427 Clear 15 1015 41 10000 2.83 5 21:57 07.05.2020
3428 Clear 15 1015 41 10000 2.83 5 21:57 07.05.2020
3429 Clouds 15 1015 38 10000 3.56 10 21:38 07.05.2020
3430 Clouds 15 1015 38 10000 3.56 10 21:38 07.05.2020
3431 Clouds 15 1015 38 10000 3.67 10 21:20 07.05.2020
3432 Clouds 15 1014 33 10000 3.1 360 20:57 07.05.2020
3433 Clouds 15 1014 36 10000 3.1 350 20:38 07.05.2020
3434 Clouds 15 1013 46 0 1.79 58 20:19 07.05.2020
3435 Clouds 16 1014 34 10000 3.6 340 19:47 07.05.2020
3436 Clouds 16 1013 34 10000 4.6 350 19:23 07.05.2020
3437 Clouds 17 1013 32 10000 5.1 350 18:56 07.05.2020
3438 Clouds 17 1013 30 10000 6.2 350 18:38 07.05.2020
3439 Clouds 18 1013 30 10000 6.2 350 18:20 07.05.2020
3440 Clouds 18 1013 32 10000 5.7 360 17:41 07.05.2020
3441 Clouds 17 1013 32 10000 5.7 360 17:20 07.05.2020
3442 Clouds 17 1013 36 0 3.58 31 16:43 07.05.2020
3443 Clouds 18 1013 32 10000 5.1 340 16:19 07.05.2020
3444 Clouds 18 1013 32 10000 5.7 250 15:58 07.05.2020
3445 Clouds 17 1013 37 10000 5.7 350 15:39 07.05.2020
3446 Clouds 17 1013 37 10000 5.7 350 15:18 07.05.2020
3447 Clouds 17 1013 39 10000 5.7 350 14:57 07.05.2020
3448 Clouds 16 1013 45 10000 5.7 340 14:39 07.05.2020
3449 Clouds 17 1013 45 10000 5.7 340 14:18 07.05.2020
3450 Clouds 17 1013 45 10000 7.2 340 13:42 07.05.2020
3451 Clouds 17 1013 45 10000 7.2 340 13:24 07.05.2020
3452 Clouds 17 1013 42 10000 6.7 340 12:43 07.05.2020
3453 Clouds 17 1013 42 10000 6.7 340 12:20 07.05.2020
3454 Clouds 17 1013 45 10000 7.7 330 11:57 07.05.2020
3455 Clouds 17 1013 48 10000 7.7 330 11:38 07.05.2020
3456 Clouds 17 1013 48 10000 7.7 330 11:20 07.05.2020
3457 Clouds 16 1013 48 10000 6.7 330 10:40 07.05.2020
3458 Rain 16 1013 48 10000 6.7 330 10:21 07.05.2020
3459 Rain 16 1012 51 10000 7.2 330 09:41 07.05.2020
3460 Rain 16 1012 51 10000 7.2 330 09:20 07.05.2020
3461 Rain 16 1012 48 10000 6.7 330 08:56 07.05.2020
3462 Rain 16 1012 48 10000 6.7 340 08:38 07.05.2020
3463 Clouds 16 1012 48 10000 6.7 340 08:19 07.05.2020
3464 Clouds 16 1011 51 10000 5.1 320 07:43 07.05.2020
3465 Clouds 16 1011 51 10000 5.1 320 07:43 07.05.2020
3466 Clouds 16 1011 51 10000 5.1 320 07:25 07.05.2020
3467 Clouds 16 1010 48 10000 5.1 330 06:48 07.05.2020
3468 Clouds 16 1010 51 10000 4.1 330 06:23 07.05.2020
3469 Clouds 16 1009 55 10000 5.1 330 05:30 07.05.2020
3470 Clouds 17 1009 52 10000 3.1 320 03:55 07.05.2020
3471 Clouds 18 1009 52 10000 3.1 320 03:25 07.05.2020
3472 Clouds 18 1008 48 10000 3.6 340 02:42 07.05.2020
3473 Clouds 18 1007 68 0 3.78 12 01:44 07.05.2020
3474 Clouds 19 1008 56 10000 1.5 0 01:24 07.05.2020
3475 Clouds 18 1008 59 10000 1.5 0 00:46 07.05.2020
3476 Clouds 19 1008 59 10000 1.5 0 00:27 07.05.2020
3477 Clouds 19 1008 59 10000 1.5 0 00:27 07.05.2020
3478 Clouds 20 1008 59 10000 1.5 0 23:47 06.05.2020
3479 Clouds 20 1009 63 10000 1.5 0 23:25 06.05.2020
3480 Clouds 19 1008 52 10000 1.5 0 22:58 06.05.2020
3481 Clouds 20 1008 60 10000 1.5 0 22:40 06.05.2020
3482 Clouds 20 1008 60 10000 1.5 0 22:19 06.05.2020
3483 Clouds 20 1008 60 10000 1.5 0 21:57 06.05.2020
3484 Clouds 20 1008 52 10000 1.5 0 21:39 06.05.2020
3485 Clouds 20 1008 52 10000 1.5 0 21:20 06.05.2020
3486 Clouds 21 1008 49 10000 3.1 200 20:43 06.05.2020
3487 Clouds 21 1008 49 10000 3.1 200 20:24 06.05.2020
3488 Clouds 21 1011 47 0 1.79 258 19:59 06.05.2020
3489 Clouds 21 1011 45 0 1.34 226 19:39 06.05.2020
3490 Clear 22 1007 40 0 1.34 145 19:20 06.05.2020
3491 Clear 22 1007 40 0 2.68 153 18:59 06.05.2020
3492 Clear 22 1008 43 0 2.68 152 18:41 06.05.2020
3493 Clear 22 1008 43 0 3.58 176 18:21 06.05.2020
3494 Clear 23 1008 40 0 3.58 198 17:59 06.05.2020
3495 Clear 23 1007 42 0 3.13 175 17:40 06.05.2020
3496 Clear 23 1007 39 0 3.13 194 17:22 06.05.2020
3497 Clear 24 1008 35 0 3.58 149 16:58 06.05.2020
3498 Clear 24 1008 35 0 3.58 149 16:58 06.05.2020
3499 Clear 24 1008 35 0 4.47 132 16:40 06.05.2020
3500 Clear 24 1008 36 0 4.47 188 16:21 06.05.2020
3501 Clear 24 1009 35 0 3.58 124 15:59 06.05.2020
3502 Clear 24 1009 35 0 3.58 124 15:59 06.05.2020
3503 Clear 24 1009 35 0 2.68 205 15:40 06.05.2020
3504 Clear 25 1008 35 0 4.02 176 15:21 06.05.2020
3505 Clear 25 1008 36 0 4.02 193 14:56 06.05.2020
3506 Clear 25 1008 24 10000 5.1 210 14:37 06.05.2020
3507 Clouds 25 1008 24 10000 5.1 210 14:18 06.05.2020
3508 Clouds 25 1009 21 10000 4.6 210 13:43 06.05.2020
3509 Clouds 25 1009 21 10000 4.6 210 13:24 06.05.2020
3510 Clouds 24 1009 24 10000 4.6 190 12:58 06.05.2020
3511 Clouds 25 1010 24 10000 2.1 170 12:39 06.05.2020
3512 Clouds 23 1009 33 0 3.13 202 12:21 06.05.2020
3513 Clouds 23 1010 27 10000 2.1 170 11:41 06.05.2020
3514 Clouds 23 1010 27 10000 2.1 170 11:21 06.05.2020
3515 Clouds 23 1011 29 10000 1.5 170 10:58 06.05.2020
3516 Clouds 22 1010 31 10000 2.1 120 10:38 06.05.2020
3517 Clouds 22 1010 31 10000 2.1 120 10:19 06.05.2020
3518 Clouds 22 1011 35 10000 3.53 260 09:45 06.05.2020
3519 Clouds 21 1011 35 10000 2.75 260 09:24 06.05.2020
3520 Clouds 19 1010 44 0 2.24 158 08:50 06.05.2020
3521 Clouds 19 1011 43 10000 2.16 289 08:24 06.05.2020
3522 Clouds 18 1011 59 10000 2.16 289 07:59 06.05.2020
3523 Clouds 18 1010 51 0 1.79 148 07:40 06.05.2020
3524 Clouds 17 1010 52 0 2.24 148 07:21 06.05.2020
3525 Clouds 17 1010 52 0 2.15 292 06:56 06.05.2020
3526 Clouds 16 1011 58 10000 2.15 292 06:38 06.05.2020
3527 Clouds 15 1011 58 10000 2.16 279 06:18 06.05.2020
3528 Clouds 15 1011 71 10000 2.16 279 05:37 06.05.2020
3529 Clear 16 1011 71 10000 1.58 270 04:40 06.05.2020
3530 Clear 16 1012 76 10000 1.31 289 03:44 06.05.2020
3531 Clear 16 1014 60 0 0.89 264 03:22 06.05.2020
3532 Clear 16 1012 71 10000 1.26 301 02:30 06.05.2020
3533 Clouds 16 1013 71 10000 1.53 291 01:56 06.05.2020
3534 Clouds 16 1013 71 10000 1.53 291 01:34 06.05.2020
3535 Clear 17 1013 71 10000 1.44 279 00:54 06.05.2020
3536 Clear 17 1013 67 10000 0.88 253 00:27 06.05.2020
3537 Clear 17 1015 59 0 0.45 294 23:57 05.05.2020
3538 Clear 17 1014 67 10000 0.88 253 23:39 05.05.2020
3539 Clear 17 1014 67 10000 0.62 265 23:19 05.05.2020
3540 Clear 17 1014 67 10000 0.62 265 23:19 05.05.2020
3541 Clear 17 1014 63 10000 1.5 0 22:42 05.05.2020
3542 Clear 17 1014 63 10000 1.5 0 22:20 05.05.2020
3543 Clear 17 1014 67 10000 1.5 0 21:58 05.05.2020
3544 Clear 18 1014 63 10000 0.8 215 21:39 05.05.2020
3545 Clear 18 1014 63 10000 1.26 185 21:21 05.05.2020
3546 Clear 18 1014 59 10000 1.26 185 20:58 05.05.2020
3547 Clear 18 1014 59 10000 1.5 170 20:39 05.05.2020
3548 Clear 18 1014 59 10000 1.5 170 20:19 05.05.2020
3549 Clear 19 1014 55 10000 1.5 170 19:57 05.05.2020
3550 Clear 19 1014 49 10000 2.6 170 19:37 05.05.2020
3551 Clear 19 1014 43 10000 2.1 170 19:18 05.05.2020
3552 Clear 19 1014 43 10000 2.1 170 18:54 05.05.2020
3553 Clear 19 1015 56 0 3.13 115 18:36 05.05.2020
3554 Clear 20 1014 40 10000 3.6 160 18:18 05.05.2020
3555 Clear 21 1013 31 10000 3.6 160 17:41 05.05.2020
3556 Clear 21 1013 31 10000 3.6 160 17:23 05.05.2020
3557 Clear 22 1015 53 0 1.79 329 16:57 05.05.2020
3558 Clear 21 1015 51 0 2.24 215 16:37 05.05.2020
3559 Clouds 22 1013 22 10000 2.6 200 16:18 05.05.2020
3560 Clouds 23 1013 23 10000 3.1 190 15:55 05.05.2020
3561 Clouds 23 1013 23 10000 3.6 210 15:37 05.05.2020
3562 Clouds 22 1013 23 10000 3.6 210 15:19 05.05.2020
3563 Clear 22 1014 25 10000 4.1 200 14:42 05.05.2020
3564 Clear 22 1014 25 10000 4.1 200 14:24 05.05.2020
3565 Clouds 23 1014 28 10000 3.6 220 13:58 05.05.2020
3566 Clouds 22 1014 27 10000 3.1 230 13:40 05.05.2020
3567 Clouds 22 1014 27 10000 3.1 230 13:21 05.05.2020
3568 Clouds 23 1015 27 10000 3.1 340 12:59 05.05.2020
3569 Clear 22 1015 28 10000 4.1 340 12:40 05.05.2020
3570 Clear 21 1015 28 10000 4.1 340 12:20 05.05.2020
3571 Clear 22 1015 28 10000 3.1 340 11:57 05.05.2020
3572 Clear 21 1015 30 10000 4.1 340 11:39 05.05.2020
3573 Clear 21 1015 30 10000 4.1 340 11:18 05.05.2020
3574 Clear 21 1016 30 10000 2.6 340 10:39 05.05.2020
3575 Clear 21 1016 30 10000 2.6 340 10:39 05.05.2020
3576 Clear 21 1016 30 10000 2.6 340 10:39 05.05.2020
3577 Clear 20 1016 30 10000 2.6 340 10:20 05.05.2020
3578 -273 0 0 0 0 0 09:59 05.05.2020
3579 Clear 20 1015 32 10000 4.6 340 09:59 05.05.2020
3580 Clear 20 1015 32 10000 4.1 340 09:41 05.05.2020
3581 Clear 19 1015 32 10000 4.1 340 09:22 05.05.2020
3582 Clear 18 1015 34 10000 3.6 330 08:42 05.05.2020
3583 Clear 18 1015 34 10000 3.6 330 08:21 05.05.2020
3584 Clear 17 1015 45 10000 2.1 310 07:58 05.05.2020
3585 Clear 17 1015 45 10000 2.6 320 07:39 05.05.2020
3586 Clear 16 1015 45 10000 2.6 320 07:19 05.05.2020
3587 Clouds 15 1014 54 10000 1.5 0 06:49 05.05.2020
3588 Clouds 14 1014 51 10000 3.87 351 06:23 05.05.2020
3589 Clouds 14 1014 51 10000 1.5 0 05:39 05.05.2020
3590 Clouds 14 1013 54 10000 2.6 310 03:39 05.05.2020
3591 Clouds 15 1013 58 10000 1.5 0 02:18 05.05.2020
3592 Clouds 15 1013 50 10000 1.5 0 00:54 05.05.2020
3593 Clouds 15 1013 50 10000 1.5 0 00:22 05.05.2020
3594 Clear 16 1014 48 0 2.68 38 23:46 04.05.2020
3595 Clear 16 1012 49 0 6.09 358 23:24 04.05.2020
3596 Clouds 16 1013 54 10000 1.5 0 22:57 04.05.2020
3597 Clouds 16 1012 54 10000 6.09 358 22:38 04.05.2020
3598 Clouds 16 1012 54 10000 6 360 22:19 04.05.2020
3599 Clouds 16 1012 44 10000 6 360 21:56 04.05.2020
3600 Clouds 17 1012 39 10000 4.75 2 21:35 04.05.2020
3601 Clouds 17 1011 39 10000 4.78 3 21:03 04.05.2020
3602 Clouds 17 1011 39 10000 4.78 3 21:03 04.05.2020
3603 Clouds 17 1011 39 10000 4.78 3 21:03 04.05.2020
3604 Clouds 17 1011 39 10000 4.78 3 21:03 04.05.2020
3605 Clouds 17 1011 39 10000 4.78 3 21:03 04.05.2020
3606 Clouds 17 1011 36 10000 1.5 0 20:38 04.05.2020
3607 Clouds 17 1011 36 10000 1.5 0 20:18 04.05.2020
3608 Clouds 17 1010 32 10000 3.6 350 19:43 04.05.2020
3609 Clouds 18 1010 32 10000 3.6 350 19:23 04.05.2020
3610 Clouds 18 1010 32 10000 3.6 350 19:23 04.05.2020
3611 Clouds 18 1010 32 10000 4.6 10 18:58 04.05.2020
3612 Clear 18 1012 41 0 2.24 316 18:38 04.05.2020
3613 Clouds 19 1010 32 10000 4.6 10 18:19 04.05.2020
3614 Clear 19 1011 44 0 2.68 5 17:56 04.05.2020
3615 Clear 19 1011 43 0 2.68 5 17:37 04.05.2020
3616 Clouds 19 1011 43 0 2.24 341 17:18 04.05.2020
3617 Clouds 19 1009 32 10000 4.1 360 16:43 04.05.2020
3618 Clouds 19 1011 45 0 3.13 355 16:22 04.05.2020
3619 Clouds 20 1009 32 10000 4.1 360 15:57 04.05.2020
3620 Clouds 20 1011 40 0 4.47 343 15:38 04.05.2020
3621 Clear 20 1011 41 0 3.58 5 15:19 04.05.2020
3622 Clouds 20 1009 28 10000 5.7 320 14:48 04.05.2020
3623 Clouds 20 1009 28 10000 5.7 320 14:48 04.05.2020
3624 Clouds 20 1009 28 10000 5.7 320 14:48 04.05.2020
3625 Clouds 20 1009 28 10000 5.7 320 14:48 04.05.2020
3626 Clouds 20 1009 28 10000 5.7 320 14:48 04.05.2020
3627 Clouds 21 1009 28 10000 5.1 340 14:20 04.05.2020
3628 Rain 20 1010 44 0 3.58 284 12:57 04.05.2020
3629 Clouds 20 1009 37 10000 5.1 330 12:37 04.05.2020
3630 Clouds 20 1009 37 10000 5.1 330 12:37 04.05.2020
3631 Clouds 19 1009 37 10000 5.1 330 12:37 04.05.2020
3632 Clouds 19 1009 37 10000 5.1 330 12:37 04.05.2020
3633 Clouds 20 1009 37 10000 5.1 330 12:37 04.05.2020
3634 Clouds 19 1009 52 10000 3.6 320 10:38 04.05.2020
3635 Clouds 17 1009 59 10000 4.6 330 09:26 04.05.2020
3636 Clouds 17 1009 59 10000 4.6 330 09:26 04.05.2020
3637 Clouds 17 1009 59 10000 4.6 330 09:26 04.05.2020
3638 Clouds 17 1009 59 10000 4.6 330 09:26 04.05.2020
3639 Clouds 17 1009 59 10000 4.6 330 09:26 04.05.2020
3640 Clouds 16 1009 67 10000 4.6 330 07:53 04.05.2020
3641 Clouds 16 1008 63 10000 3.1 320 07:33 04.05.2020
3642 Clouds 16 1008 63 10000 3.1 320 07:33 04.05.2020
3643 Clouds 16 1008 63 10000 3.1 320 07:33 04.05.2020
3644 Clouds 16 1008 63 10000 3.1 320 07:33 04.05.2020
3645 Clouds 15 1008 63 10000 3.1 300 05:18 04.05.2020
3646 Rain 15 1007 55 10000 2.1 310 04:09 04.05.2020
3647 Clouds 17 1007 55 10000 2.6 310 02:38 04.05.2020
3648 Clouds 16 1008 52 10000 2.1 320 01:20 04.05.2020
3649 Rain 18 1007 72 10000 2.05 26 23:58 03.05.2020
3650 Clouds 18 1007 68 10000 2.05 26 23:40 03.05.2020
3651 Clouds 18 1007 68 10000 2.42 44 23:22 03.05.2020
3652 Clouds 18 1007 59 10000 2.42 44 22:43 03.05.2020
3653 Clouds 18 1007 59 10000 2.42 44 22:43 03.05.2020
3654 Clouds 18 1007 59 10000 2.42 44 22:43 03.05.2020
3655 Clouds 18 1007 59 10000 2.49 55 22:22 03.05.2020
3656 Clouds 18 1007 56 10000 2.49 55 21:42 03.05.2020
3657 Clouds 18 1007 56 10000 1.7 72 21:22 03.05.2020
3658 Clouds 18 1006 56 10000 3.38 63 20:56 03.05.2020
3659 Clouds 18 1006 56 10000 3.38 63 20:38 03.05.2020
3660 Clouds 19 1006 56 10000 2.33 78 20:19 03.05.2020
3661 Clouds 19 1006 56 10000 2.33 78 20:19 03.05.2020
3662 Clouds 19 1005 56 10000 2.1 50 19:47 03.05.2020
3663 Clouds 19 1005 56 10000 2.1 50 19:47 03.05.2020
3664 Clouds 19 1005 56 10000 2.1 50 19:47 03.05.2020
3665 Clouds 19 1005 56 10000 2.1 50 19:47 03.05.2020
3666 Clouds 19 1005 56 10000 2.1 50 19:47 03.05.2020
3667 Clouds 20 1005 52 10000 2.6 70 19:27 03.05.2020
3668 Clouds 20 1005 52 10000 2.6 70 19:27 03.05.2020
3669 Clouds 20 1005 52 10000 2.6 70 19:27 03.05.2020
3670 Rain 21 1006 56 0 1.79 181 18:40 03.05.2020
3671 Rain 21 1006 55 0 1.79 189 18:21 03.05.2020
3672 Rain 21 1006 54 0 1.79 198 17:59 03.05.2020
3673 Rain 21 1006 55 0 1.79 214 17:40 03.05.2020
3674 Rain 22 1006 53 0 1.34 268 17:21 03.05.2020
3675 Rain 22 1006 51 0 1.79 225 16:45 03.05.2020
3676 Clouds 22 1006 53 0 1.79 169 16:20 03.05.2020
3677 Clouds 22 1006 53 0 1.79 169 16:20 03.05.2020
3678 Clouds 23 1006 52 0 1.79 218 15:58 03.05.2020
3679 Clouds 23 1004 33 10000 4.1 210 15:39 03.05.2020
3680 Clouds 24 1004 33 10000 4.1 210 15:20 03.05.2020
3681 Clouds 25 1004 28 10000 4.6 210 14:57 03.05.2020
3682 Clouds 24 1004 29 10000 4.6 200 14:38 03.05.2020
3683 Clouds 24 1004 29 10000 4.6 200 14:20 03.05.2020
3684 Clouds 24 1004 26 10000 2.6 310 13:41 03.05.2020
3685 Clouds 24 1004 26 10000 2.6 310 13:41 03.05.2020
3686 Clouds 24 1004 27 10000 2.6 310 12:59 03.05.2020
3687 Clouds 24 1004 27 10000 2.6 310 12:59 03.05.2020
3688 Clouds 24 1004 27 10000 2.6 310 12:59 03.05.2020
3689 Clouds 23 1004 31 10000 4.6 290 12:39 03.05.2020
3690 Clouds 23 1005 31 10000 4.1 310 12:18 03.05.2020
3691 Clear 23 1004 48 0 2.24 185 11:55 03.05.2020
3692 Clouds 22 1005 33 10000 4.6 330 11:37 03.05.2020
3693 Clouds 23 1005 33 10000 4.6 330 11:18 03.05.2020
3694 Clouds 22 1005 38 10000 5.1 320 10:39 03.05.2020
3695 Clouds 22 1005 38 10000 5.1 320 10:39 03.05.2020
3696 Clouds 22 1005 38 10000 5.1 320 10:39 03.05.2020
3697 Clouds 22 1005 38 10000 5.1 320 10:39 03.05.2020
3698 Clouds 22 1005 38 10000 5.1 320 10:39 03.05.2020
3699 Clouds 21 1005 40 10000 3.1 300 09:52 03.05.2020
3700 Clouds 21 1005 40 10000 3.1 300 09:48 03.05.2020
3701 Clouds 21 1005 40 10000 3.1 300 09:48 03.05.2020
3702 Clouds 21 1005 40 10000 3.1 300 09:48 03.05.2020
3703 Clouds 21 1005 40 10000 3.1 300 09:48 03.05.2020
3704 Clouds 20 1005 40 10000 3.1 300 09:27 03.05.2020
3705 Clouds 20 1005 40 10000 3.1 300 09:27 03.05.2020
3706 Clouds 20 1005 40 10000 3.1 300 09:27 03.05.2020
3707 Clouds 20 1005 46 10000 3.1 320 08:52 03.05.2020
3708 Clouds 20 1005 46 10000 3.1 320 08:52 03.05.2020
3709 Clouds 20 1005 46 10000 3.1 320 08:52 03.05.2020
3710 Clouds 19 1005 52 10000 1.5 0 08:19 03.05.2020
3711 Clouds 19 1005 52 10000 1.5 0 08:19 03.05.2020
3712 Clouds 19 1005 52 10000 1.5 0 08:19 03.05.2020
3713 Clouds 19 1005 52 10000 1.5 0 08:19 03.05.2020
3714 Clouds 19 1004 67 10000 1.5 0 07:38 03.05.2020
3715 Clouds 17 1004 72 10000 1.5 0 06:19 03.05.2020
3716 Clouds 17 1003 67 10000 1.5 0 05:44 03.05.2020
3717 Clouds 17 1003 63 10000 1.5 0 04:29 03.05.2020
3718 Clouds 17 1003 63 10000 1.5 0 03:59 03.05.2020
3719 Clouds 17 1003 63 10000 1.5 0 03:59 03.05.2020
3720 Clouds 18 1004 59 10000 1.5 0 02:53 03.05.2020
3721 Clouds 18 1002 71 0 0.45 144 02:22 03.05.2020
3722 Clouds 18 1004 59 10000 1.5 0 01:42 03.05.2020
3723 Clouds 18 1004 59 10000 1.5 0 01:24 03.05.2020
3724 Clouds 18 1004 59 10000 1.5 0 00:41 03.05.2020
3725 Clouds 19 1004 59 10000 1.5 0 00:21 03.05.2020
3726 Clouds 18 1004 59 10000 1.5 0 23:56 02.05.2020
3727 Clouds 19 1004 55 10000 1.5 0 23:38 02.05.2020
3728 Clouds 19 1004 55 10000 1.5 0 23:19 02.05.2020
3729 Clouds 19 1005 55 10000 4.05 279 22:42 02.05.2020
3730 Clouds 19 1005 55 10000 3.01 256 22:23 02.05.2020
3731 Clouds 19 1005 55 10000 1.5 0 21:56 02.05.2020
3732 Clouds 19 1005 55 10000 1.5 0 21:37 02.05.2020
3733 Clouds 19 1005 55 10000 1.5 0 21:18 02.05.2020
3734 Clouds 20 1005 52 10000 1.5 0 20:55 02.05.2020
3735 Clouds 20 1005 46 10000 1.5 0 20:37 02.05.2020
3736 Clouds 20 1005 46 10000 1.5 0 20:18 02.05.2020
3737 Clouds 20 1006 56 0 0.45 215 19:55 02.05.2020
3738 Clouds 20 1006 60 0 0.45 198 19:36 02.05.2020
3739 Clouds 21 1005 43 10000 3.1 210 19:18 02.05.2020
3740 Clouds 21 1005 46 10000 3.6 180 18:40 02.05.2020
3741 Clouds 21 1005 46 10000 3.6 180 18:22 02.05.2020
3742 Clouds 22 1005 49 10000 3.6 170 17:57 02.05.2020
3743 Clouds 22 1007 48 0 1.79 180 17:39 02.05.2020
3744 Clouds 22 1007 44 0 1.79 188 17:20 02.05.2020
3745 Clouds 22 1005 41 10000 4.1 170 16:57 02.05.2020
3746 Clouds 23 1005 41 10000 6.2 170 16:39 02.05.2020
3747 Clouds 22 1007 45 0 2.68 202 16:21 02.05.2020
3748 Clouds 22 1007 54 0 2.24 153 15:42 02.05.2020
3749 Clouds 23 1008 57 0 2.24 232 15:20 02.05.2020
3750 Clouds 23 1008 55 0 1.79 192 14:46 02.05.2020
3751 Clouds 24 1006 29 10000 3.1 220 14:28 02.05.2020
3752 Clouds 24 1007 33 10000 5.1 220 13:59 02.05.2020
3753 Clouds 24 1007 36 10000 4.6 220 13:40 02.05.2020
3754 Clouds 24 1007 36 10000 4.6 220 13:21 02.05.2020
3755 Clouds 23 1008 24 10000 4.1 220 12:43 02.05.2020
3756 Clouds 23 1008 24 10000 4.1 220 12:25 02.05.2020
3757 Clouds 23 1008 26 10000 2.6 230 11:59 02.05.2020
3758 Clouds 23 1008 29 10000 2.1 210 11:40 02.05.2020
3759 Clouds 23 1008 29 10000 2.1 210 11:22 02.05.2020
3760 Clouds 23 1008 33 10000 3.93 236 10:58 02.05.2020
3761 Clouds 22 1008 36 10000 1.5 170 10:38 02.05.2020
3762 Clouds 22 1008 36 10000 1.5 170 10:20 02.05.2020
3763 Clouds 22 1008 38 10000 3.04 242 09:56 02.05.2020
3764 Clouds 21 1008 38 10000 2.1 180 09:37 02.05.2020
3765 Clouds 20 1007 55 0 3.13 144 09:19 02.05.2020
3766 Clouds 19 1008 52 10000 1.78 263 08:46 02.05.2020
3767 Clouds 19 1008 52 10000 1.98 286 08:26 02.05.2020
3768 Clouds 19 1007 45 10000 1.98 286 07:47 02.05.2020
3769 Clouds 19 1008 52 10000 2.02 307 07:28 02.05.2020
3770 Clouds 17 1008 52 10000 2.02 307 06:51 02.05.2020
3771 Clouds 16 1008 59 10000 2.47 319 05:29 02.05.2020
3772 Clouds 16 1008 59 10000 2.47 319 04:48 02.05.2020
3773 Clouds 16 1008 63 10000 1.5 0 04:24 02.05.2020
3774 Clouds 17 1008 63 10000 2.67 308 02:44 02.05.2020
3775 Clouds 17 1008 59 10000 2.64 297 02:24 02.05.2020
3776 Clouds 17 1008 67 10000 2.64 297 01:49 02.05.2020
3777 Clouds 18 1009 59 10000 2.49 303 00:48 02.05.2020
3778 Clouds 18 1008 55 10000 2.55 290 00:29 02.05.2020
3779 Clouds 18 1009 63 10000 1.5 0 23:59 01.05.2020
3780 Clouds 18 1009 63 10000 2.55 290 23:39 01.05.2020
3781 Clouds 19 1009 63 10000 2.79 272 23:20 01.05.2020
3782 Clouds 19 1009 63 10000 2.79 272 22:55 01.05.2020
3783 Clouds 19 1009 63 10000 2.6 210 22:37 01.05.2020
3784 Clouds 19 1009 63 10000 2.6 210 22:18 01.05.2020
3785 Clouds 19 1009 63 10000 2.6 210 22:18 01.05.2020
3786 Clouds 19 1009 59 10000 2.6 220 21:55 01.05.2020
3787 Clouds 19 1009 55 10000 1.5 0 21:37 01.05.2020
3788 Clouds 19 1009 55 10000 1.5 0 21:18 01.05.2020
3789 Clear 19 1009 52 10000 2.1 220 20:55 01.05.2020
3790 Clear 19 1011 58 0 0.45 266 20:37 01.05.2020
3791 Clouds 19 1011 58 0 0.45 211 20:37 01.05.2020
3792 Clouds 19 1008 52 0 1.34 194 20:18 01.05.2020
3793 Clouds 20 1008 56 10000 3.6 170 19:41 01.05.2020
3794 Clouds 20 1008 56 10000 3.6 170 19:22 01.05.2020
3795 Clouds 20 1008 52 10000 5.1 170 18:58 01.05.2020
3796 Clouds 21 1008 52 10000 5.1 170 18:39 01.05.2020
3797 Clouds 22 1008 52 10000 5.1 170 18:20 01.05.2020
3798 Clouds 22 1008 43 10000 5.1 180 17:57 01.05.2020
3799 Clouds 22 1008 41 10000 5.1 180 17:38 01.05.2020
3800 Clear 22 1008 41 10000 5.1 180 17:20 01.05.2020
3801 Clouds 23 1008 41 10000 5.1 170 16:55 01.05.2020
3802 Clouds 23 1008 41 10000 5.1 170 16:55 01.05.2020
3803 Clear 23 1010 50 0 2.24 279 16:37 01.05.2020
3804 Clear 23 1010 49 0 2.24 162 16:19 01.05.2020
3805 Clear 23 1010 51 0 1.79 210 15:42 01.05.2020
3806 Clear 24 1010 50 0 2.24 196 15:24 01.05.2020
3807 Clear 24 1011 47 0 1.79 213 14:59 01.05.2020
3808 Clouds 24 1009 29 10000 5.1 210 14:40 01.05.2020
3809 Clouds 24 1009 29 10000 5.1 210 14:22 01.05.2020
3810 Clouds 24 1009 29 10000 5.1 200 13:41 01.05.2020
3811 Clouds 24 1009 29 10000 5.1 200 13:23 01.05.2020
3812 Clouds 24 1011 52 0 2.24 207 12:58 01.05.2020
3813 Clouds 24 1010 27 10000 4.1 200 12:40 01.05.2020
3814 Clouds 23 1010 27 10000 4.1 200 12:20 01.05.2020
3815 Clouds 23 1012 50 0 1.34 271 11:58 01.05.2020
3816 Clouds 23 1010 36 10000 4.28 232 11:40 01.05.2020
3817 Clouds 22 1010 36 10000 3.42 227 11:19 01.05.2020
3818 Clouds 22 1011 43 10000 3.42 227 10:41 01.05.2020
3819 Clouds 22 1011 43 10000 3.42 227 10:41 01.05.2020
3820 Clouds 22 1011 43 10000 2.41 241 10:20 01.05.2020
3821 Clouds 22 1011 43 10000 2.41 241 09:59 01.05.2020
3822 Clouds 21 1011 49 10000 1.99 238 09:41 01.05.2020
3823 Clouds 20 1011 49 10000 1.93 267 09:18 01.05.2020
3824 Clouds 20 1010 56 10000 1.64 270 08:43 01.05.2020
3825 Clouds 20 1010 56 10000 1.3 293 08:25 01.05.2020
3826 Clouds 18 1010 59 10000 1.3 293 07:55 01.05.2020
3827 Clouds 18 1010 59 10000 1.3 293 07:36 01.05.2020
3828 Clouds 17 1010 63 10000 1.7 329 06:58 01.05.2020
3829 Clouds 15 1010 63 10000 2.06 314 05:48 01.05.2020
3830 Clouds 16 1010 63 10000 2.16 308 05:20 01.05.2020
3831 Clouds 16 1009 55 10000 1.91 317 03:42 01.05.2020
3832 Clouds 17 1009 55 10000 2.27 314 02:50 01.05.2020
3833 Clouds 16 1010 55 10000 2.44 306 02:32 01.05.2020
3834 Clouds 17 1010 63 10000 1.93 313 01:47 01.05.2020
3835 Clouds 17 1010 55 10000 2.25 304 01:26 01.05.2020
3836 Clouds 18 1010 55 10000 2.25 304 00:40 01.05.2020
3837 Clouds 18 1010 55 10000 3.01 298 00:20 01.05.2020
3838 Clouds 18 1010 59 10000 3.01 298 23:57 30.04.2020
3839 Clouds 18 1010 55 10000 3.01 298 23:38 30.04.2020
3840 Clouds 18 1010 55 10000 3.01 298 23:38 30.04.2020
3841 Clouds 19 1010 55 10000 3.16 297 23:19 30.04.2020
3842 Clouds 19 1010 55 10000 3.16 297 22:54 30.04.2020
3843 Clouds 18 1010 59 10000 3.16 297 22:36 30.04.2020
3844 Clouds 18 1010 59 10000 2.29 303 22:18 30.04.2020
3845 Clouds 18 1009 59 10000 2.29 303 21:41 30.04.2020
3846 Clouds 19 1009 59 10000 1.72 301 21:21 30.04.2020
3847 Clouds 19 1008 59 10000 1.4 303 20:58 30.04.2020
3848 Clouds 19 1008 56 10000 1.4 303 20:39 30.04.2020
3849 Clouds 20 1008 56 10000 1.5 80 20:18 30.04.2020
3850 Clouds 20 1008 56 10000 1.5 80 20:18 30.04.2020
3851 Clouds 20 1008 56 10000 0.64 216 20:18 30.04.2020
3852 Clouds 20 1007 52 10000 3.1 100 19:46 30.04.2020
3853 Clouds 20 1007 52 10000 3.1 100 19:26 30.04.2020
3854 Clouds 21 1007 52 10000 2.6 110 18:57 30.04.2020
3855 Clouds 22 1007 43 10000 4.1 130 18:39 30.04.2020
3856 Clouds 22 1007 43 10000 4.1 130 18:21 30.04.2020
3857 Clouds 22 1006 38 10000 4.6 140 17:57 30.04.2020
3858 Clouds 22 1009 52 0 1.34 253 17:39 30.04.2020
3859 Clouds 22 1009 52 0 1.34 253 17:39 30.04.2020
3860 Clouds 22 1009 50 0 1.34 180 17:20 30.04.2020
3861 Clouds 23 1009 53 0 1.34 202 16:56 30.04.2020
3862 Clouds 22 1009 54 0 1.79 234 16:38 30.04.2020
3863 Clouds 23 1008 50 0 1.79 186 16:18 30.04.2020
3864 Clouds 24 1006 27 10000 3.6 210 15:45 30.04.2020
3865 Clouds 23 1008 46 0 1.79 198 15:24 30.04.2020
3866 Clouds 23 1006 37 0 3.58 202 14:57 30.04.2020
3867 Clouds 23 1007 38 0 4.02 164 14:39 30.04.2020
3868 Clouds 23 1007 38 0 4.02 164 14:19 30.04.2020
3869 Clouds 24 1007 29 10000 3.1 240 13:55 30.04.2020
3870 Clouds 23 1007 38 0 4.02 189 13:36 30.04.2020
3871 Clouds 24 1008 31 10000 1.5 0 13:18 30.04.2020
3872 Clouds 23 1008 31 10000 3.1 210 12:41 30.04.2020
3873 Clouds 23 1008 31 10000 3.1 210 12:20 30.04.2020
3874 Clear 23 1007 40 0 3.58 209 11:58 30.04.2020
3875 Clouds 23 1008 33 10000 1.5 0 11:36 30.04.2020
3876 Clouds 23 1008 33 10000 1.5 0 11:18 30.04.2020
3877 Clouds 22 1008 36 10000 2.1 290 10:41 30.04.2020
3878 Clouds 22 1008 36 10000 2.1 290 10:22 30.04.2020
3879 Clouds 21 1008 43 10000 4.06 276 09:58 30.04.2020
3880 Clouds 21 1008 46 10000 4.06 276 09:39 30.04.2020
3881 Clouds 20 1008 46 10000 4.06 283 09:21 30.04.2020
3882 Clouds 20 1008 52 10000 4.06 283 08:48 30.04.2020
3883 Clouds 19 1008 56 10000 3.02 294 08:27 30.04.2020
3884 Clouds 19 1008 52 10000 3.02 294 07:58 30.04.2020
3885 Clear 18 1008 55 10000 3.02 294 07:39 30.04.2020
3886 Clear 18 1008 55 10000 2.78 306 07:20 30.04.2020
3887 Clear 17 1008 55 10000 2.6 260 06:33 30.04.2020
3888 Clear 17 1008 55 10000 3.6 300 05:47 30.04.2020
3889 Clouds 17 1008 59 10000 2.71 292 05:26 30.04.2020
3890 Clouds 17 1009 72 10000 2.92 292 04:25 30.04.2020
3891 Clouds 18 1009 67 10000 3.62 296 02:56 30.04.2020
3892 Clouds 18 1009 63 10000 3.65 292 02:28 30.04.2020
3893 Clouds 18 1009 63 10000 3.5 292 01:48 30.04.2020
3894 Clouds 19 1010 63 10000 3.77 293 00:58 30.04.2020
3895 Clouds 19 1010 63 10000 3.77 293 00:36 30.04.2020
3896 Clouds 19 1009 63 10000 3.57 280 00:18 30.04.2020
3897 Clouds 19 1010 63 10000 3.57 280 23:42 29.04.2020
3898 Clouds 19 1010 63 10000 3.76 266 23:23 29.04.2020
3899 Clouds 19 1010 63 10000 3.76 266 22:58 29.04.2020
3900 Clouds 19 1010 56 10000 3.76 266 22:39 29.04.2020
3901 Clouds 19 1010 56 10000 2.95 282 22:20 29.04.2020
3902 Clouds 19 1010 56 10000 2.95 282 21:39 29.04.2020
3903 Clouds 20 1010 56 10000 3.31 278 21:21 29.04.2020
3904 Clouds 20 1010 60 10000 3.31 278 20:59 29.04.2020
3905 Clouds 20 1010 56 10000 3.31 278 20:40 29.04.2020
3906 Clouds 20 1010 56 10000 1.93 261 20:19 29.04.2020
3907 Clouds 20 1009 56 10000 2.6 160 19:57 29.04.2020
3908 Clouds 20 1009 56 10000 2.6 160 19:39 29.04.2020
3909 Clouds 20 1009 56 10000 2.6 160 19:18 29.04.2020
3910 Clouds 20 1009 52 10000 4.6 170 18:42 29.04.2020
3911 Clouds 21 1009 52 10000 4.6 170 18:21 29.04.2020
3912 Clouds 21 1009 56 10000 4.6 160 17:56 29.04.2020
3913 Clouds 22 1009 46 10000 3.1 180 17:37 29.04.2020
3914 Clouds 22 1009 46 10000 3.1 180 17:19 29.04.2020
3915 Clouds 22 1012 55 0 2.24 190 16:38 29.04.2020
3916 Clouds 22 1012 55 0 2.24 190 16:38 29.04.2020
3917 Clouds 22 1011 54 0 1.79 232 16:19 29.04.2020
3918 Clouds 23 1011 53 0 1.79 196 15:57 29.04.2020
3919 Clouds 23 1011 52 0 1.79 186 15:39 29.04.2020
3920 Clouds 23 1011 52 0 1.79 157 15:20 29.04.2020
3921 Clouds 23 1012 50 0 1.79 177 14:46 29.04.2020
3922 Clouds 23 1012 53 0 1.34 156 14:27 29.04.2020
3923 Clouds 23 1013 54 0 1.79 215 13:59 29.04.2020
3924 Clouds 23 1010 29 10000 4.1 220 13:40 29.04.2020
3925 Clouds 24 1010 29 10000 4.1 220 13:20 29.04.2020
3926 Clouds 24 1010 29 10000 4.1 220 13:20 29.04.2020
3927 Clouds 24 1011 29 10000 4.1 210 12:57 29.04.2020
3928 Clouds 23 1013 52 0 1.34 254 12:38 29.04.2020
3929 Clouds 23 1013 57 0 1.34 196 12:18 29.04.2020
3930 Clouds 23 1013 57 0 1.34 196 12:18 29.04.2020
3931 Clouds 23 1012 38 10000 2.1 170 11:40 29.04.2020
3932 Clouds 23 1012 38 10000 2.1 170 11:20 29.04.2020
3933 Clouds 22 1012 46 10000 1.5 0 10:57 29.04.2020
3934 Clouds 21 1012 46 10000 4.15 249 10:37 29.04.2020
3935 Clouds 21 1012 52 10000 3.53 253 10:19 29.04.2020
3936 Clouds 20 1012 56 10000 3.53 253 09:42 29.04.2020
3937 Clouds 19 1012 56 10000 2.81 253 09:23 29.04.2020
3938 Clouds 19 1012 63 10000 2.57 258 08:56 29.04.2020
3939 Clouds 18 1012 63 10000 2.57 258 08:37 29.04.2020
3940 Clouds 18 1012 63 10000 1.96 259 08:19 29.04.2020
3941 Clouds 18 1014 64 0 0.45 311 07:41 29.04.2020
3942 Clouds 17 1014 64 0 0.89 271 07:23 29.04.2020
3943 Clouds 16 1012 71 10000 1.54 270 06:50 29.04.2020
3944 Clouds 15 1013 72 0 1.18 296 06:30 29.04.2020
3945 Clouds 15 1013 71 0 1.38 305 05:21 29.04.2020
3946 Clouds 15 1013 70 0 1.38 305 05:21 29.04.2020
3947 Clouds 15 1012 76 10000 1.38 305 04:38 29.04.2020
3948 Clouds 15 1013 68 0 1.43 291 04:18 29.04.2020
3949 Clouds 15 1013 66 10000 0.94 285 02:40 29.04.2020
3950 Clouds 16 1014 68 0 1.05 304 01:44 29.04.2020
3951 Clear 16 1014 70 0 0.55 327 01:22 29.04.2020
3952 Clear 16 1013 62 10000 0.55 327 00:41 29.04.2020
3953 Clear 16 1013 62 10000 0.57 248 00:19 29.04.2020
3954 Clear 17 1015 59 0 0.57 248 23:49 28.04.2020
3955 Clear 17 1014 58 10000 0.6 227 23:24 28.04.2020
3956 Clear 17 1014 58 10000 0.6 227 22:55 28.04.2020
3957 Clear 17 1014 62 10000 0.6 227 22:37 28.04.2020
3958 Clear 17 1014 62 10000 0.6 227 22:37 28.04.2020
3959 Clear 17 1014 62 10000 0.71 193 22:18 28.04.2020
3960 Clear 17 1014 59 10000 0.71 193 21:54 28.04.2020
3961 Clear 18 1014 59 10000 0.71 193 21:36 28.04.2020
3962 Clear 18 1014 59 10000 0.95 190 21:18 28.04.2020
3963 Clear 18 1014 67 10000 0.95 190 20:55 28.04.2020
3964 Clear 19 1013 59 10000 0.95 190 20:36 28.04.2020
3965 Clear 19 1013 59 10000 1.29 176 20:18 28.04.2020
3966 Clear 19 1013 60 10000 1.5 0 19:42 28.04.2020
3967 Clear 19 1013 60 10000 1.5 0 19:22 28.04.2020
3968 Clear 20 1013 49 10000 1.5 0 18:59 28.04.2020
3969 Clear 21 1013 49 10000 2.6 190 18:40 28.04.2020
3970 Clear 21 1013 49 10000 2.6 190 18:19 28.04.2020
3971 Clear 21 1013 49 10000 2.6 190 18:19 28.04.2020
3972 Clouds 21 1012 40 10000 2.6 180 17:57 28.04.2020
3973 Clouds 22 1012 40 10000 3.1 180 17:36 28.04.2020
3974 Clouds 22 1012 40 10000 3.1 180 17:18 28.04.2020
3975 Clouds 22 1012 38 10000 3.6 180 16:42 28.04.2020
3976 Clouds 23 1012 38 10000 3.6 180 16:23 28.04.2020
3977 Clouds 23 1013 41 10000 3.6 170 15:58 28.04.2020
3978 Clouds 23 1013 44 10000 3.1 190 15:39 28.04.2020
3979 Clouds 23 1013 44 10000 3.1 190 15:21 28.04.2020
3980 Clouds 23 1013 44 10000 3.6 190 14:59 28.04.2020
3981 Clouds 23 1013 36 10000 3.6 180 14:40 28.04.2020
3982 Clouds 23 1013 36 10000 3.6 180 14:21 28.04.2020
3983 Clouds 23 1013 44 10000 2.6 180 13:58 28.04.2020
3984 Clouds 23 1013 44 10000 1.5 0 13:38 28.04.2020
3985 Clouds 23 1013 41 10000 2.1 200 13:19 28.04.2020
3986 Clouds 23 1013 41 10000 2.1 200 13:19 28.04.2020
3987 Clouds 22 1014 46 10000 2.1 170 12:46 28.04.2020
3988 Clouds 22 1014 46 10000 2.1 170 12:26 28.04.2020
3989 Clouds 22 1014 53 10000 2.1 200 11:56 28.04.2020
3990 Clouds 22 1014 53 10000 2.1 170 11:37 28.04.2020
3991 Clouds 22 1014 53 10000 2.1 170 11:37 28.04.2020
3992 Clouds 21 1014 53 10000 2.1 170 11:18 28.04.2020
3993 Clouds 21 1014 49 10000 1.5 0 10:39 28.04.2020
3994 Clouds 20 1014 49 10000 1.5 0 10:19 28.04.2020
3995 Clear 20 1014 52 10000 1.5 0 09:59 28.04.2020
3996 Clear 20 1014 52 10000 1.5 0 09:40 28.04.2020
3997 Clear 18 1014 52 10000 1.5 0 09:21 28.04.2020
3998 Clear 18 1014 52 10000 1.26 211 08:46 28.04.2020
3999 Clouds 18 1014 55 10000 0.71 232 08:27 28.04.2020
4000 Clouds 17 1015 70 0 0.71 232 07:46 28.04.2020
4001 Clouds 17 1015 73 0 0.49 300 07:21 28.04.2020
4002 Clouds 16 1015 76 0 0.49 300 06:55 28.04.2020
4003 Clouds 14 1013 81 10000 0.59 329 06:22 28.04.2020
4004 Clouds 14 1013 76 10000 0.59 329 05:43 28.04.2020
4005 Clouds 14 1013 76 10000 0.6 325 05:25 28.04.2020
4006 Clouds 15 1013 76 10000 0.6 325 04:33 28.04.2020
4007 Clouds 15 1013 71 10000 0.58 275 02:36 28.04.2020
4008 Clouds 15 1013 76 10000 0.4 245 01:23 28.04.2020
4009 Clouds 16 1013 76 10000 0.4 245 00:58 28.04.2020
4010 Clouds 16 1013 72 10000 0.53 231 00:25 28.04.2020
4011 Clouds 16 1013 72 10000 0.53 231 23:47 27.04.2020
4012 Clouds 16 1013 67 10000 0.6 236 23:24 27.04.2020
4013 Clouds 17 1013 67 10000 0.6 236 22:56 27.04.2020
4014 Clouds 17 1013 67 10000 0.28 243 22:38 27.04.2020
4015 Clouds 17 1013 67 10000 0.78 233 22:20 27.04.2020
4016 Clouds 17 1013 67 10000 0.78 233 21:56 27.04.2020
4017 Clouds 17 1013 68 10000 1.5 0 21:38 27.04.2020
4018 Clouds 17 1013 68 10000 1.5 0 21:18 27.04.2020
4019 Clouds 18 1012 63 10000 1.5 0 20:54 27.04.2020
4020 Clouds 18 1012 59 10000 1.09 228 20:36 27.04.2020
4021 Clouds 18 1012 59 10000 1.48 221 20:18 27.04.2020
4022 Clouds 18 1011 55 10000 2.1 180 19:40 27.04.2020
4023 Clouds 19 1011 55 10000 2.1 180 19:21 27.04.2020
4024 Clouds 19 1011 49 10000 2.6 170 18:59 27.04.2020
4025 Clouds 20 1011 52 10000 4.1 180 18:40 27.04.2020
4026 Clouds 20 1011 52 10000 4.1 180 18:19 27.04.2020
4027 Clouds 21 1011 49 10000 4.1 190 17:57 27.04.2020
4028 Clouds 22 1011 49 10000 4.1 200 17:38 27.04.2020
4029 Clouds 22 1011 49 10000 4.1 200 17:18 27.04.2020
4030 Clouds 22 1011 40 10000 5.1 180 16:40 27.04.2020
4031 Clouds 22 1011 40 10000 5.1 180 16:22 27.04.2020
4032 Clouds 22 1011 40 10000 4.1 180 15:57 27.04.2020
4033 Clouds 22 1010 40 10000 4.1 190 15:38 27.04.2020
4034 Clouds 22 1010 36 10000 4.1 210 15:19 27.04.2020
4035 Clouds 22 1010 36 10000 4.1 210 14:56 27.04.2020
4036 Clouds 23 1010 38 10000 4.1 200 14:38 27.04.2020
4037 Clouds 22 1010 38 10000 4.1 200 14:18 27.04.2020
4038 Clouds 22 1010 38 10000 4.1 200 13:42 27.04.2020
4039 Clouds 22 1010 38 10000 4.1 200 13:42 27.04.2020
4040 Clouds 22 1010 38 10000 4.1 200 13:22 27.04.2020
4041 Clouds 23 1010 31 10000 2.6 220 12:58 27.04.2020
4042 Clouds 22 1011 36 10000 2.6 220 12:40 27.04.2020
4043 Clouds 22 1011 36 10000 2.6 220 12:20 27.04.2020
4044 Clouds 22 1011 49 10000 2.6 200 11:41 27.04.2020
4045 Clear 21 1010 46 10000 2.6 180 11:21 27.04.2020
4046 Clear 21 1010 46 10000 2.6 180 10:58 27.04.2020
4047 Clear 21 1010 49 10000 2.6 200 10:39 27.04.2020
4048 Clear 21 1010 49 10000 2.6 200 10:20 27.04.2020
4049 Clear 20 1010 49 10000 0.56 59 09:44 27.04.2020
4050 Clouds 19 1010 49 10000 1.62 6 09:21 27.04.2020
4051 Clouds 18 1010 52 10000 1.62 6 08:59 27.04.2020
4052 Clouds 17 1010 55 10000 1.62 6 08:41 27.04.2020
4053 Clouds 15 1012 63 10000 0.5 0 08:23 27.04.2020
4054 Clouds 15 1010 71 10000 1.62 6 07:44 27.04.2020
4055 Clouds 15 1010 71 10000 1.62 6 07:22 27.04.2020
4056 Clouds 14 1009 76 10000 1.62 6 06:56 27.04.2020
4057 Clouds 13 1009 76 10000 2.17 336 06:27 27.04.2020
4058 Clouds 13 1009 81 10000 2.17 336 05:50 27.04.2020
4059 Clouds 13 1009 76 10000 2.17 336 04:51 27.04.2020
4060 Clouds 13 1009 76 10000 2.17 336 04:20 27.04.2020
4061 Clouds 13 1009 76 10000 2.17 336 03:36 27.04.2020
4062 Clouds 14 1009 76 10000 2.69 324 01:45 27.04.2020
4063 Clouds 14 1009 71 10000 2.69 324 01:18 27.04.2020
4064 Clouds 15 1009 71 10000 1.8 277 00:20 27.04.2020
4065 Clouds 15 1009 71 10000 1.8 277 23:59 26.04.2020
4066 Clouds 15 1009 67 10000 1.8 277 23:41 26.04.2020
4067 Clouds 15 1009 67 10000 1.8 277 23:22 26.04.2020
4068 Clouds 15 1009 71 10000 1.8 277 22:58 26.04.2020
4069 Clouds 15 1009 67 10000 1.8 277 22:39 26.04.2020
4070 Clouds 15 1009 67 10000 1.8 277 22:21 26.04.2020
4071 Clouds 16 1009 67 10000 1.8 277 21:58 26.04.2020
4072 Clouds 16 1009 63 10000 1.8 277 21:38 26.04.2020
4073 Clouds 16 1009 63 10000 2.17 187 21:18 26.04.2020
4074 Clouds 16 1008 63 10000 1.5 170 20:55 26.04.2020
4075 Clouds 16 1008 59 10000 2.17 187 20:37 26.04.2020
4076 Clouds 17 1008 59 10000 2.17 187 20:18 26.04.2020
4077 Clouds 17 1008 59 10000 2.1 150 19:56 26.04.2020
4078 Clouds 17 1007 55 10000 2.1 160 19:36 26.04.2020
4079 Clouds 17 1008 55 10000 2.1 150 19:18 26.04.2020
4080 Clouds 18 1008 59 10000 3.1 160 18:43 26.04.2020
4081 Clouds 19 1008 59 10000 3.1 160 18:24 26.04.2020
4082 Clouds 19 1008 56 10000 2.6 170 17:43 26.04.2020
4083 Clouds 19 1008 56 10000 2.6 170 17:23 26.04.2020
4084 Clouds 20 1007 52 10000 2.6 170 16:57 26.04.2020
4085 Clouds 20 1007 49 10000 3.6 160 16:38 26.04.2020
4086 Clouds 21 1007 49 10000 3.6 160 16:19 26.04.2020
4087 Clouds 21 1007 33 10000 3.1 180 15:57 26.04.2020
4088 Clouds 21 1008 33 10000 2.6 200 15:37 26.04.2020
4089 Clouds 21 1008 33 10000 2.6 200 15:18 26.04.2020
4090 Clouds 22 1008 27 10000 3.6 210 14:41 26.04.2020
4091 Clouds 22 1008 27 10000 3.6 210 14:19 26.04.2020
4092 Clouds 22 1008 27 10000 3.6 210 14:19 26.04.2020
4093 Clouds 21 1008 25 10000 2.6 200 13:59 26.04.2020
4094 Clouds 21 1008 30 10000 2.6 210 13:40 26.04.2020
4095 Clouds 20 1010 52 10000 3.1 120 13:22 26.04.2020
4096 Clouds 20 1008 40 10000 3.6 190 12:57 26.04.2020
4097 Clouds 20 1008 40 10000 4.1 200 12:39 26.04.2020
4098 Clouds 20 1008 40 10000 4.1 200 12:20 26.04.2020
4099 Clouds 20 1008 40 10000 4.1 210 11:54 26.04.2020
4100 Clouds 20 1008 43 10000 3.1 210 11:36 26.04.2020
4101 Clouds 20 1008 43 10000 3.1 210 11:18 26.04.2020
4102 Clouds 19 1008 42 10000 2.1 170 10:42 26.04.2020
4103 Clouds 20 1008 42 10000 2.1 170 10:24 26.04.2020
4104 Clouds 19 1008 48 10000 1.5 0 09:58 26.04.2020
4105 Clouds 18 1008 52 10000 1.5 0 09:38 26.04.2020
4106 Clouds 18 1008 52 10000 1.5 0 09:38 26.04.2020
4107 Clouds 18 1008 52 10000 1.5 0 09:20 26.04.2020
4108 Clouds 17 1008 63 10000 2.4 335 08:41 26.04.2020
4109 Clouds 16 1008 63 10000 2.4 335 08:23 26.04.2020
4110 Clouds 16 1007 59 10000 2.4 335 07:49 26.04.2020
4111 Clouds 15 1008 71 10000 2.4 335 07:25 26.04.2020
4112 Clouds 14 1008 71 10000 2.4 335 06:54 26.04.2020
4113 Clouds 13 1008 81 10000 2.4 335 06:32 26.04.2020
4114 Clouds 13 1008 81 10000 3.5 301 05:54 26.04.2020
4115 Clouds 13 1008 81 10000 3.5 301 05:34 26.04.2020
4116 Clouds 13 1008 76 10000 3.5 301 04:42 26.04.2020
4117 Clouds 13 1008 81 10000 3.5 301 03:49 26.04.2020
4118 Clear 14 1008 62 10000 1.5 0 02:40 26.04.2020
4119 Clear 15 1008 62 10000 1.5 0 02:20 26.04.2020
4120 Clear 14 1009 76 10000 4.24 298 01:38 26.04.2020
4121 Clear 15 1009 76 10000 4.24 298 01:19 26.04.2020
4122 Clear 15 1009 71 10000 4.24 298 00:38 26.04.2020
4123 Clear 15 1009 71 10000 2.75 282 00:18 26.04.2020
4124 Clear 15 1008 71 10000 2.75 282 23:38 25.04.2020
4125 Clear 15 1008 71 10000 2.75 282 23:20 25.04.2020
4126 Clear 15 1009 71 10000 2.75 282 22:54 25.04.2020
4127 Clear 15 1009 71 10000 2.75 282 22:36 25.04.2020
4128 Clear 15 1009 71 10000 2.75 282 22:18 25.04.2020
4129 Clear 15 1008 67 10000 2.75 282 21:39 25.04.2020
4130 Clouds 16 1008 67 10000 1.37 185 21:20 25.04.2020
4131 Clouds 16 1008 67 10000 1.37 185 20:57 25.04.2020
4132 Clouds 16 1008 63 10000 1.37 185 20:39 25.04.2020
4133 Clouds 17 1008 63 10000 1.37 185 20:20 25.04.2020
4134 Clouds 17 1008 59 10000 1.5 0 19:41 25.04.2020
4135 Clouds 17 1008 59 10000 1.5 0 19:23 25.04.2020
4136 Clouds 18 1008 59 10000 2.1 170 18:58 25.04.2020
4137 Clouds 18 1008 55 10000 2.1 170 18:39 25.04.2020
4138 Clouds 18 1008 55 10000 2.1 170 18:20 25.04.2020
4139 Clouds 19 1008 45 10000 2.6 170 17:58 25.04.2020
4140 Clouds 20 1007 42 10000 3.1 160 17:38 25.04.2020
4141 Clouds 20 1007 42 10000 3.1 160 17:19 25.04.2020
4142 Clouds 20 1008 43 10000 4.1 150 16:55 25.04.2020
4143 Clouds 21 1007 40 10000 4.1 170 16:37 25.04.2020
4144 Clouds 21 1007 40 10000 4.1 170 16:18 25.04.2020
4145 Clouds 21 1009 26 10000 2.6 100 15:41 25.04.2020
4146 Clouds 21 1009 26 10000 2.6 100 15:20 25.04.2020
4147 Clouds 21 1010 26 10000 3.1 90 14:58 25.04.2020
4148 Clouds 21 1008 33 10000 3.6 160 14:39 25.04.2020
4149 Clouds 21 1010 26 10000 2.1 90 14:20 25.04.2020
4150 Clouds 21 1009 40 10000 3.1 200 13:43 25.04.2020
4151 Clouds 21 1009 40 10000 3.1 200 13:22 25.04.2020
4152 Clouds 21 1009 46 10000 3.6 200 12:59 25.04.2020
4153 Clouds 21 1009 43 10000 3.6 190 12:41 25.04.2020
4154 Clouds 20 1009 43 10000 3.6 190 12:21 25.04.2020
4155 Clouds 20 1010 49 10000 3.1 210 11:59 25.04.2020
4156 Clear 20 1010 49 10000 2.6 200 11:40 25.04.2020
4157 Clear 19 1010 49 10000 2.6 200 11:22 25.04.2020
4158 Clear 19 1010 42 10000 0.58 287 10:45 25.04.2020
4159 Clear 19 1010 42 10000 0.58 287 10:25 25.04.2020
4160 Clear 18 1010 36 10000 0.58 287 09:55 25.04.2020
4161 Clear 18 1010 41 10000 0.58 287 09:36 25.04.2020
4162 Clear 16 1010 41 10000 1.98 339 09:18 25.04.2020
4163 Clear 15 1010 44 10000 1.83 331 08:40 25.04.2020
4164 Clear 15 1010 44 10000 1.83 331 08:21 25.04.2020
4165 Clear 15 1010 47 10000 1.98 339 07:59 25.04.2020
4166 Clear 14 1010 57 10000 1.83 331 07:40 25.04.2020
4167 Clear 11 1010 61 10000 1.83 331 06:56 25.04.2020
4168 Clear 10 1010 65 10000 1.83 331 06:36 25.04.2020
4169 Clear 10 1010 45 10000 2.5 337 05:42 25.04.2020
4170 Clear 10 1010 45 10000 2.5 337 05:23 25.04.2020
4171 Clouds 10 1010 45 10000 1.5 0 03:19 25.04.2020
4172 Clouds 10 1010 42 10000 1.5 0 02:28 25.04.2020
4173 Clouds 11 1010 49 10000 1.5 0 01:55 25.04.2020
4174 Clouds 11 1010 49 10000 1.5 0 01:37 25.04.2020
4175 Clouds 11 1010 49 10000 1.5 0 01:18 25.04.2020
4176 Clouds 11 1011 43 10000 1.5 0 00:37 25.04.2020
4177 Clouds 12 1011 46 10000 1.5 0 23:59 24.04.2020
4178 Clouds 12 1011 40 10000 2.87 343 23:40 24.04.2020
4179 Clouds 11 1011 40 10000 2.87 343 23:20 24.04.2020
4180 Clouds 12 1011 26 10000 1.5 0 22:41 24.04.2020
4181 Clouds 12 1011 26 10000 1.5 0 22:20 24.04.2020
4182 Clouds 12 1011 26 10000 1.5 0 21:58 24.04.2020
4183 Clouds 12 1011 26 10000 2.6 320 21:39 24.04.2020
4184 Clouds 13 1011 26 10000 2.6 320 21:21 24.04.2020
4185 Clouds 14 1010 28 10000 3.1 330 20:56 24.04.2020
4186 Clouds 14 1010 26 10000 4.1 330 20:38 24.04.2020
4187 Clouds 14 1010 26 10000 4.1 330 20:18 24.04.2020
4188 Clouds 15 1009 25 10000 1.5 0 19:44 24.04.2020
4189 Clouds 16 1009 25 10000 1.5 0 19:25 24.04.2020
4190 Clouds 16 1010 25 10000 3.6 350 18:58 24.04.2020
4191 Clouds 16 1010 25 10000 5.1 350 18:38 24.04.2020
4192 Clouds 17 1010 25 10000 5.1 350 18:20 24.04.2020
4193 Clouds 18 1010 25 10000 5.1 340 17:42 24.04.2020
4194 Clouds 18 1010 25 10000 5.1 340 17:24 24.04.2020
4195 Clouds 18 1010 25 10000 6.2 340 16:59 24.04.2020
4196 Clouds 18 1010 36 10000 5.7 340 16:41 24.04.2020
4197 Clouds 18 1010 36 10000 5.7 340 16:41 24.04.2020
4198 Clouds 18 1010 36 10000 5.7 340 16:22 24.04.2020
4199 Clouds 18 1010 36 10000 5.1 340 15:59 24.04.2020
4200 Clouds 18 1010 36 10000 4.6 340 15:38 24.04.2020
4201 Clouds 18 1010 38 10000 4.6 340 15:18 24.04.2020
4202 Clouds 18 1011 29 10000 5.7 330 14:40 24.04.2020
4203 Clouds 18 1011 29 10000 5.7 330 14:21 24.04.2020
4204 Clouds 18 1011 32 10000 5.1 350 13:57 24.04.2020
4205 Clouds 18 1011 32 10000 5.1 350 13:38 24.04.2020
4206 Clouds 18 1011 32 10000 5.1 350 13:19 24.04.2020
4207 Clouds 17 1012 36 10000 5.1 340 12:42 24.04.2020
4208 Clouds 17 1012 36 10000 5.1 340 12:24 24.04.2020
4209 Clouds 17 1012 39 10000 7.2 330 11:58 24.04.2020
4210 Clouds 17 1012 39 10000 7.2 330 11:38 24.04.2020
4211 Clouds 16 1012 39 10000 7.2 330 11:20 24.04.2020
4212 Clouds 16 1012 44 10000 6.7 340 10:55 24.04.2020
4213 Clouds 16 1012 44 10000 6.2 330 10:37 24.04.2020
4214 Clouds 16 1012 44 10000 6.2 330 10:19 24.04.2020
4215 Clouds 15 1012 51 10000 5.7 340 09:45 24.04.2020
4216 Clouds 13 1012 51 10000 5.7 340 09:24 24.04.2020
4217 Clouds 13 1012 54 10000 7.2 330 08:58 24.04.2020
4218 Clouds 13 1013 58 10000 5.1 340 08:37 24.04.2020
4219 Clouds 12 1013 58 10000 5.1 340 08:18 24.04.2020
4220 Clouds 12 1012 58 10000 4.6 340 07:45 24.04.2020
4221 Clouds 12 1012 58 10000 4.6 340 07:26 24.04.2020
4222 Clouds 11 1012 58 10000 4.6 340 06:57 24.04.2020
4223 Clouds 11 1012 58 10000 4.6 340 06:37 24.04.2020
4224 Clouds 10 1012 54 10000 4.6 330 05:48 24.04.2020
4225 Clouds 10 1013 50 10000 3.1 330 04:30 24.04.2020
4226 Clouds 11 1013 50 10000 2.6 340 03:19 24.04.2020
4227 Clouds 11 1013 54 10000 3.6 340 02:41 24.04.2020
4228 Clouds 11 1013 54 10000 3.6 340 02:20 24.04.2020
4229 Clouds 11 1014 54 10000 4.1 340 01:23 24.04.2020
4230 Clouds 11 1014 50 10000 2.6 340 00:38 24.04.2020
4231 Clouds 11 1014 50 10000 2.6 340 00:18 24.04.2020
4232 Clouds 11 1015 59 10000 2.6 340 23:44 23.04.2020
4233 Clouds 11 1015 59 10000 2.6 340 23:26 23.04.2020
4234 Clouds 11 1015 59 10000 7.74 354 22:55 23.04.2020
4235 Clouds 11 1016 59 10000 7.74 354 22:37 23.04.2020
4236 Clouds 11 1016 59 10000 7.74 354 22:37 23.04.2020
4237 Clouds 11 1016 59 10000 7.74 354 22:18 23.04.2020
4238 Clouds 11 1015 59 10000 2.1 340 21:56 23.04.2020
4239 Clouds 11 1015 59 10000 2.1 340 21:56 23.04.2020
4240 Clouds 11 1015 57 10000 3.1 340 21:38 23.04.2020
4241 Clouds 11 1015 56 10000 3.1 340 21:20 23.04.2020
4242 Clouds 11 1015 56 10000 3.1 360 20:54 23.04.2020
4243 Clouds 11 1015 56 10000 4.1 340 20:36 23.04.2020
4244 Clouds 12 1015 56 10000 4.1 340 20:18 23.04.2020
4245 Clouds 12 1014 37 10000 3.6 330 19:41 23.04.2020
4246 Clouds 12 1014 37 10000 3.6 330 19:22 23.04.2020
4247 Clouds 12 1014 56 10000 5.7 330 18:58 23.04.2020
4248 Clouds 12 1014 56 10000 5.1 340 18:39 23.04.2020
4249 Clouds 13 1014 51 10000 5.1 340 18:21 23.04.2020
4250 Clouds 13 1014 51 10000 6.2 330 17:56 23.04.2020
4251 Clouds 13 1015 38 10000 5.1 330 17:38 23.04.2020
4252 Clouds 13 1015 38 10000 5.1 330 17:20 23.04.2020
4253 Clouds 14 1015 33 10000 6.2 350 16:44 23.04.2020
4254 Clouds 14 1015 33 10000 6.2 350 16:44 23.04.2020
4255 Clouds 14 1015 33 10000 6.2 350 16:21 23.04.2020
4256 Clouds 15 1015 51 10000 7.2 340 15:43 23.04.2020
4257 Clouds 15 1015 46 10000 7.2 340 15:25 23.04.2020
4258 Clouds 15 1016 36 10000 6.2 340 14:59 23.04.2020
4259 Clouds 15 1015 31 10000 7.7 330 14:41 23.04.2020
4260 Clouds 15 1015 31 10000 7.7 330 14:22 23.04.2020
4261 Clouds 15 1015 45 10000 8.7 340 13:59 23.04.2020
4262 Clouds 15 1015 36 10000 8.2 330 13:40 23.04.2020
4263 Clouds 15 1015 36 10000 8.2 330 13:22 23.04.2020
4264 Clouds 15 1015 45 10000 7.7 350 12:57 23.04.2020
4265 Clouds 15 1016 41 10000 7.2 350 12:38 23.04.2020
4266 Clouds 15 1016 41 10000 7.2 350 12:20 23.04.2020
4267 Clouds 15 1017 47 10000 6.2 320 11:47 23.04.2020
4268 Clouds 15 1017 47 10000 6.2 320 11:27 23.04.2020
4269 Clouds 14 1017 54 10000 6.7 330 10:58 23.04.2020
4270 Clouds 14 1017 54 10000 6.7 330 10:39 23.04.2020
4271 Clouds 14 1017 54 10000 6.7 330 10:20 23.04.2020
4272 Clouds 14 1017 58 10000 5.1 330 09:40 23.04.2020
4273 Clouds 13 1017 58 10000 5.1 330 09:18 23.04.2020
4274 Clouds 13 1017 58 10000 5.1 330 09:18 23.04.2020
4275 Clouds 12 1016 58 10000 7.7 330 08:50 23.04.2020
4276 Clouds 12 1016 58 10000 7.7 330 08:30 23.04.2020
4277 Clouds 12 1016 58 10000 7.7 340 07:57 23.04.2020
4278 Clouds 11 1016 62 10000 5.1 330 07:39 23.04.2020
4279 Clouds 11 1016 62 10000 5.1 330 07:39 23.04.2020
4280 Clouds 12 1016 62 10000 5.1 330 07:19 23.04.2020
4281 Clouds 11 1016 62 10000 5.1 330 06:44 23.04.2020
4282 Clouds 11 1016 66 10000 5.7 330 05:39 23.04.2020
4283 Clouds 11 1016 66 10000 6.2 330 05:21 23.04.2020
4284 Clouds 11 1017 66 10000 3.6 330 02:52 23.04.2020
4285 Clouds 11 1017 66 10000 3.1 340 02:23 23.04.2020
4286 Clouds 11 1017 58 10000 4.1 330 01:38 23.04.2020
4287 Clouds 11 1017 58 10000 5.1 340 00:54 23.04.2020
4288 Clouds 12 1017 58 10000 4.1 330 00:27 23.04.2020
4289 Drizzle 11 1017 58 10000 5.1 330 23:58 22.04.2020
4290 Clouds 11 1017 58 10000 3.6 330 23:40 22.04.2020
4291 Clouds 11 1017 58 10000 3.6 330 23:19 22.04.2020
4292 Clouds 11 1017 58 10000 4.1 350 22:40 22.04.2020
4293 Clouds 11 1017 58 10000 4.1 350 22:20 22.04.2020
4294 Clouds 11 1017 58 10000 5.1 350 21:59 22.04.2020
4295 Clouds 11 1017 58 10000 5.1 340 21:40 22.04.2020
4296 Clouds 12 1017 58 10000 5.1 340 21:21 22.04.2020
4297 Clouds 11 1017 54 10000 5.7 340 20:57 22.04.2020
4298 Clouds 11 1016 58 10000 5.7 340 20:39 22.04.2020
4299 Clouds 11 1016 58 10000 5.7 340 20:18 22.04.2020
4300 Clouds 11 1016 58 10000 6.2 350 19:57 22.04.2020
4301 Clouds 11 1016 54 10000 6.2 350 19:37 22.04.2020
4302 Clouds 12 1016 54 10000 6.2 350 19:18 22.04.2020
4303 Clouds 12 1016 54 10000 5.1 350 18:56 22.04.2020
4304 Clouds 12 1016 50 10000 5.7 340 18:37 22.04.2020
4305 Clouds 13 1016 50 10000 5.7 340 18:19 22.04.2020
4306 Clouds 13 1016 54 10000 5.1 350 17:43 22.04.2020
4307 Clouds 13 1016 54 10000 5.1 350 17:43 22.04.2020
4308 Clouds 13 1016 54 10000 5.1 350 17:25 22.04.2020
4309 Clouds 13 1015 47 10000 5.7 330 16:56 22.04.2020
4310 Clouds 13 1015 47 10000 6.2 330 16:38 22.04.2020
4311 Clouds 14 1015 47 10000 6.2 330 16:19 22.04.2020
4312 Clouds 15 1016 48 10000 6.2 330 15:41 22.04.2020
4313 Clouds 15 1016 48 10000 6.2 330 15:22 22.04.2020
4314 Clouds 15 1016 48 10000 7.2 350 14:58 22.04.2020
4315 Clouds 15 1016 48 10000 7.2 340 14:38 22.04.2020
4316 Clouds 15 1016 48 10000 7.2 340 14:19 22.04.2020
4317 Clouds 15 1016 44 10000 7.2 330 13:44 22.04.2020
4318 Clouds 15 1016 51 10000 6.7 330 13:20 22.04.2020
4319 Clouds 14 1016 51 10000 6.7 330 12:57 22.04.2020
4320 Clouds 14 1016 51 10000 6.7 330 12:39 22.04.2020
4321 Clouds 14 1016 51 10000 6.7 330 12:20 22.04.2020
4322 Clouds 13 1016 54 10000 5.7 330 11:40 22.04.2020
4323 Clouds 13 1016 54 10000 5.7 330 11:20 22.04.2020
4324 Clouds 13 1015 58 10000 6.2 340 10:59 22.04.2020
4325 Clouds 12 1015 58 10000 6.2 340 10:39 22.04.2020
4326 Rain 12 1015 58 10000 4.6 340 10:19 22.04.2020
4327 Rain 12 1015 62 10000 5.7 340 09:39 22.04.2020
4328 Rain 12 1015 62 10000 5.7 340 09:20 22.04.2020
4329 Clouds 11 1014 66 10000 5.1 330 08:56 22.04.2020
4330 Clouds 11 1014 66 10000 4.1 330 08:38 22.04.2020
4331 Clouds 11 1014 66 10000 4.1 330 08:19 22.04.2020
4332 Clouds 10 1015 66 10000 5.1 340 07:52 22.04.2020
4333 Clouds 10 1014 71 10000 5.1 330 07:24 22.04.2020
4334 Clouds 10 1014 71 10000 5.1 320 06:52 22.04.2020
4335 Rain 10 1014 76 10000 4.6 330 05:48 22.04.2020
4336 Rain 10 1014 71 10000 5.1 340 05:27 22.04.2020
4337 Rain 10 1014 71 10000 5.1 340 05:27 22.04.2020
4338 Rain 10 1013 76 10000 5.1 340 04:20 22.04.2020
4339 Rain 11 1013 81 10000 4.1 330 02:40 22.04.2020
4340 Rain 11 1013 66 10000 4.6 330 01:44 22.04.2020
4341 Rain 11 1013 66 10000 4.6 330 01:24 22.04.2020
4342 Rain 11 1013 66 10000 4.6 330 00:47 22.04.2020
4343 Rain 11 1013 66 10000 4.6 340 00:22 22.04.2020
4344 Rain 12 1013 66 10000 5.1 350 23:59 21.04.2020
4345 Clouds 12 1013 66 10000 4.6 330 23:40 21.04.2020
4346 Clouds 12 1013 66 10000 4.6 330 23:18 21.04.2020
4347 Clouds 12 1013 66 10000 5.7 340 22:40 21.04.2020
4348 Clouds 12 1013 66 10000 5.7 340 22:21 21.04.2020
4349 Clouds 12 1013 66 10000 5.1 340 21:58 21.04.2020
4350 Clouds 12 1012 66 10000 4.6 350 21:40 21.04.2020
4351 Clouds 12 1012 66 10000 4.6 350 21:22 21.04.2020
4352 Clouds 12 1012 67 10000 5.1 350 20:54 21.04.2020
4353 Clouds 12 1012 67 10000 5.7 350 20:36 21.04.2020
4354 Clouds 12 1012 67 10000 5.7 350 20:18 21.04.2020
4355 Clouds 13 1011 67 10000 6.7 340 19:40 21.04.2020
4356 Clouds 13 1011 67 10000 6.7 340 19:19 21.04.2020
4357 Clouds 13 1011 67 10000 5.7 340 18:56 21.04.2020
4358 Clouds 14 1011 62 10000 6.7 340 18:38 21.04.2020
4359 Clouds 14 1011 62 10000 6.7 340 18:18 21.04.2020
4360 Clouds 14 1011 63 10000 5.1 330 17:41 21.04.2020
4361 Clouds 14 1011 63 10000 5.1 330 17:41 21.04.2020
4362 Clouds 15 1011 63 10000 5.1 330 17:22 21.04.2020
4363 Clouds 15 1011 63 10000 5.1 340 16:59 21.04.2020
4364 Clouds 16 1011 63 10000 6.7 330 16:39 21.04.2020
4365 Clouds 16 1011 63 10000 6.7 330 16:19 21.04.2020
4366 Clouds 16 1011 63 10000 6.7 330 15:57 21.04.2020
4367 Clouds 17 1011 59 10000 6.7 330 15:38 21.04.2020
4368 Clouds 17 1011 59 10000 6.7 330 15:20 21.04.2020
4369 Clouds 17 1011 59 10000 7.2 330 14:54 21.04.2020
4370 Clouds 17 1011 59 10000 6.7 330 14:36 21.04.2020
4371 Clouds 18 1011 63 10000 6.2 340 14:18 21.04.2020
4372 Clouds 18 1011 63 10000 6.2 340 13:40 21.04.2020
4373 Clouds 18 1011 63 10000 6.2 340 13:22 21.04.2020
4374 Clouds 17 1011 56 10000 5.7 330 12:55 21.04.2020
4375 Clouds 17 1011 56 10000 5.1 340 12:36 21.04.2020
4376 Clouds 17 1011 56 10000 5.1 340 12:18 21.04.2020
4377 Clouds 17 1011 59 10000 6.7 320 11:55 21.04.2020
4378 Clouds 18 1011 63 10000 6.7 320 11:36 21.04.2020
4379 Clouds 17 1011 63 10000 6.7 320 11:18 21.04.2020
4380 Clouds 18 1011 63 10000 5.7 330 10:55 21.04.2020
4381 Clouds 18 1011 63 10000 6.2 330 10:36 21.04.2020
4382 Clouds 18 1011 63 10000 6.2 330 10:36 21.04.2020
4383 Clouds 17 1010 63 10000 5.7 320 10:18 21.04.2020
4384 Clouds 17 1010 63 10000 4.1 330 09:37 21.04.2020
4385 Clouds 16 1010 63 10000 4.1 330 09:18 21.04.2020
4386 Clouds 17 1010 67 10000 4.1 330 08:55 21.04.2020
4387 Clouds 16 1010 63 10000 3.1 330 08:37 21.04.2020
4388 Clouds 16 1010 72 10000 2.6 320 08:18 21.04.2020
4389 Clouds 16 1011 77 10000 2.6 340 07:43 21.04.2020
4390 Clouds 15 1011 77 10000 2.6 340 07:20 21.04.2020
4391 Clouds 15 1010 72 10000 3.1 320 06:44 21.04.2020
4392 Clouds 15 1010 72 10000 3.1 320 06:19 21.04.2020
4393 Clouds 16 1010 77 10000 3.1 320 05:48 21.04.2020
4394 Clouds 16 1010 93 10000 4.43 359 03:48 21.04.2020
4395 Clouds 17 1010 88 10000 4.32 6 03:27 21.04.2020
4396 Clouds 17 1011 77 10000 1.5 0 01:46 21.04.2020
4397 Clouds 17 1010 88 10000 1.5 0 00:53 21.04.2020
4398 Clouds 17 1010 88 10000 2.6 360 00:32 21.04.2020
4399 Clouds 17 1012 88 10000 2.22 15 23:44 20.04.2020
4400 Clouds 17 1012 88 10000 2.22 15 23:25 20.04.2020
4401 Clouds 17 1011 88 10000 2.22 15 22:57 20.04.2020
4402 Clouds 17 1011 88 10000 2.22 15 22:38 20.04.2020
4403 Clouds 17 1011 88 10000 2.22 15 22:19 20.04.2020
4404 Clouds 17 1011 88 10000 2.22 15 22:19 20.04.2020
4405 Clouds 17 1011 82 10000 2.22 15 21:56 20.04.2020
4406 Clouds 17 1010 82 10000 2.22 15 21:38 20.04.2020
4407 Clouds 17 1010 82 10000 1.1 104 21:19 20.04.2020
4408 Clouds 17 1010 82 10000 1.1 104 20:56 20.04.2020
4409 Clouds 17 1010 88 10000 1.5 10 20:37 20.04.2020
4410 Clouds 17 1010 88 10000 1.5 10 20:18 20.04.2020
4411 Clouds 17 1010 88 10000 2.6 180 19:55 20.04.2020
4412 Clouds 17 1009 77 10000 4.6 190 19:37 20.04.2020
4413 Clouds 18 1009 77 10000 4.6 190 19:18 20.04.2020
4414 Clouds 18 1009 77 10000 1.1 104 18:42 20.04.2020
4415 Clouds 19 1009 77 10000 2.49 147 18:22 20.04.2020
4416 Clouds 19 1009 77 10000 2.49 147 18:22 20.04.2020
4417 Clouds 18 1009 77 10000 2.49 147 17:55 20.04.2020
4418 Clouds 19 1010 72 10000 2.6 190 17:37 20.04.2020
4419 Clouds 19 1010 72 10000 2.6 190 17:19 20.04.2020
4420 Clouds 20 1009 68 10000 2.49 147 16:43 20.04.2020
4421 Clouds 20 1009 68 10000 2.49 147 16:21 20.04.2020
4422 Clouds 21 1009 72 10000 2.1 190 15:58 20.04.2020
4423 Clouds 21 1009 72 10000 2.6 180 15:39 20.04.2020
4424 Clouds 21 1009 72 10000 2.6 180 15:21 20.04.2020
4425 Clouds 21 1010 72 10000 4.1 190 14:55 20.04.2020
4426 Clouds 21 1010 60 10000 4.1 180 14:36 20.04.2020
4427 Clouds 22 1009 56 10000 2.6 200 14:18 20.04.2020
4428 Clouds 22 1009 56 10000 3.1 190 13:41 20.04.2020
4429 Clouds 22 1009 56 10000 3.1 190 13:22 20.04.2020
4430 Clouds 23 1010 53 10000 2.1 170 12:54 20.04.2020
4431 Clouds 23 1010 60 10000 1.5 0 12:36 20.04.2020
4432 Clouds 22 1010 60 10000 1.5 0 12:18 20.04.2020
4433 Clouds 23 1010 56 10000 1.5 0 11:40 20.04.2020
4434 Clouds 22 1010 56 10000 1.5 0 11:21 20.04.2020
4435 Clouds 21 1010 60 10000 1.5 0 10:57 20.04.2020
4436 Clouds 21 1010 60 10000 1.5 0 10:57 20.04.2020
4437 Clouds 21 1010 52 10000 1.97 137 10:38 20.04.2020
4438 Clouds 20 1010 52 10000 1.97 137 10:19 20.04.2020
4439 Clouds 20 1010 56 10000 1.97 137 09:55 20.04.2020
4440 Clouds 20 1010 55 10000 2.05 135 09:36 20.04.2020
4441 Clouds 19 1010 55 10000 1.06 122 09:18 20.04.2020
4442 Clouds 17 1010 67 10000 1.06 122 08:41 20.04.2020
4443 Clouds 17 1010 67 10000 1.06 122 08:21 20.04.2020
4444 Clouds 17 1011 80 0 1.06 122 07:52 20.04.2020
4445 Clouds 16 1011 82 0 1.06 122 07:29 20.04.2020
4446 Clouds 15 1011 82 0 1.06 122 06:57 20.04.2020
4447 Clouds 15 1011 80 0 1.06 122 06:36 20.04.2020
4448 Clouds 15 1011 84 0 0.49 62 05:41 20.04.2020
4449 Clouds 15 1011 87 0 0.49 62 04:18 20.04.2020
4450 Clouds 15 1010 71 10000 0.57 235 02:46 20.04.2020
4451 Clouds 16 1012 79 0 0.44 233 01:51 20.04.2020
4452 Clouds 16 1012 66 0 0.44 233 01:28 20.04.2020
4453 Clouds 16 1012 71 10000 0.44 233 00:36 20.04.2020
4454 Clouds 16 1012 71 10000 0.73 192 23:59 19.04.2020
4455 Clouds 17 1012 62 10000 0.73 192 23:38 19.04.2020
4456 Clouds 17 1012 62 10000 0.73 192 23:19 19.04.2020
4457 Clouds 17 1012 62 10000 0.73 192 22:41 19.04.2020
4458 Clouds 17 1012 62 10000 0.73 192 22:23 19.04.2020
4459 Clouds 17 1013 58 0 0.45 355 21:58 19.04.2020
4460 Clouds 17 1013 58 0 0.45 355 21:40 19.04.2020
4461 Clouds 18 1014 58 0 0.89 355 21:21 19.04.2020
4462 Clouds 18 1012 51 10000 1.29 174 20:55 19.04.2020
4463 Clouds 18 1012 48 10000 1.29 174 20:37 19.04.2020
4464 Clouds 19 1012 48 10000 1.29 174 20:19 19.04.2020
4465 Clouds 19 1011 45 10000 1.29 174 19:41 19.04.2020
4466 Clouds 20 1011 45 10000 1.29 174 19:23 19.04.2020
4467 Clouds 20 1012 45 10000 1.29 174 18:58 19.04.2020
4468 Clouds 20 1012 42 10000 2.6 190 18:40 19.04.2020
4469 Clouds 21 1012 42 10000 2.6 190 18:21 19.04.2020
4470 Clouds 21 1012 43 10000 2.6 200 17:59 19.04.2020
4471 Clouds 22 1012 43 10000 3.1 180 17:41 19.04.2020
4472 Clouds 22 1012 43 10000 3.1 180 17:22 19.04.2020
4473 Clouds 22 1012 46 10000 4.1 190 16:58 19.04.2020
4474 Clouds 22 1012 46 10000 3.1 210 16:39 19.04.2020
4475 Clouds 23 1012 49 10000 2.6 180 16:21 19.04.2020
4476 Clouds 23 1012 49 10000 2.6 180 15:54 19.04.2020
4477 Clouds 22 1012 49 10000 3.6 210 15:36 19.04.2020
4478 Clouds 23 1012 49 10000 3.6 210 15:18 19.04.2020
4479 Clouds 23 1013 47 10000 3.1 220 14:38 19.04.2020
4480 Clouds 23 1013 47 10000 3.1 220 14:20 19.04.2020
4481 Clouds 23 1013 49 10000 2.6 210 13:54 19.04.2020
4482 Clouds 23 1013 53 10000 2.1 190 13:36 19.04.2020
4483 Clouds 23 1013 53 10000 2.1 190 13:18 19.04.2020
4484 Clouds 22 1014 53 10000 2.1 180 12:42 19.04.2020
4485 Clouds 22 1014 53 10000 2.1 180 12:23 19.04.2020
4486 Clouds 22 1014 49 10000 2.1 150 11:39 19.04.2020
4487 Clouds 21 1014 49 10000 2.1 150 11:20 19.04.2020
4488 Clouds 21 1014 52 10000 1.5 0 10:58 19.04.2020
4489 Clouds 21 1015 49 10000 2.27 168 10:40 19.04.2020
4490 Clouds 21 1015 49 10000 2.27 168 10:20 19.04.2020
4491 Clouds 20 1015 55 10000 2.27 168 09:47 19.04.2020
4492 Clouds 19 1015 55 10000 0.6 214 09:28 19.04.2020
4493 Clouds 18 1015 63 10000 0.47 192 08:59 19.04.2020
4494 Clouds 17 1016 69 0 0.45 251 08:38 19.04.2020
4495 Clouds 17 1014 67 10000 0.47 192 08:18 19.04.2020
4496 Clouds 16 1007 45 0 1.34 43 07:44 19.04.2020
4497 Clouds 16 1007 47 0 0.47 192 07:25 19.04.2020
4498 Clouds 14 1013 76 10000 0.47 192 06:37 19.04.2020
4499 Clouds 14 1013 76 10000 0.69 355 06:18 19.04.2020
4500 Clouds 14 1007 47 0 0.76 353 04:56 19.04.2020
4501 Clear 15 1008 47 0 1.34 42 03:21 19.04.2020
4502 Clear 15 1008 48 0 0.96 284 02:22 19.04.2020
4503 Clear 15 1015 76 10000 0.96 284 01:39 19.04.2020
4504 Clear 15 1015 76 10000 0.96 284 01:19 19.04.2020
4505 Clear 15 1015 76 10000 0.96 284 00:40 19.04.2020
4506 Clear 16 1008 46 0 2.24 40 00:19 19.04.2020
4507 Clear 16 1015 71 10000 0.6 204 23:41 18.04.2020
4508 Clear 16 1015 71 10000 0.6 204 23:19 18.04.2020
4509 Clear 16 1016 72 0 0.6 204 22:43 18.04.2020
4510 Clear 16 1015 71 10000 0.6 204 22:23 18.04.2020
4511 Clear 17 1015 67 10000 0.6 204 21:58 18.04.2020
4512 Clear 17 1015 67 10000 0.47 222 21:39 18.04.2020
4513 Clear 17 1015 67 10000 1.15 185 21:21 18.04.2020
4514 Clear 17 1015 63 10000 1.15 185 20:58 18.04.2020
4515 Clear 17 1015 67 10000 1.15 185 20:40 18.04.2020
4516 Clear 17 1015 67 10000 1.15 185 20:18 18.04.2020
4517 Clear 18 1014 59 10000 1.15 185 19:41 18.04.2020
4518 Clear 18 1014 59 10000 1.15 185 19:22 18.04.2020
4519 Clear 20 1014 60 10000 2.6 190 18:39 18.04.2020
4520 Clear 21 1014 60 10000 2.6 190 18:20 18.04.2020
4521 Clear 21 1014 52 10000 3.6 190 17:58 18.04.2020
4522 Clear 21 1014 52 10000 2.6 190 17:39 18.04.2020
4523 Clear 22 1014 52 10000 2.6 190 17:19 18.04.2020
4524 Clear 22 1014 46 10000 3.1 200 16:43 18.04.2020
4525 Clear 22 1014 46 10000 3.1 200 16:22 18.04.2020
4526 Clear 22 1014 43 10000 2.6 190 15:56 18.04.2020
4527 Clear 22 1014 43 10000 4.1 180 15:37 18.04.2020
4528 Clear 23 1014 43 10000 4.1 180 15:19 18.04.2020
4529 Clear 23 1015 43 10000 3.1 190 14:44 18.04.2020
4530 Clear 23 1015 43 10000 3.1 190 14:23 18.04.2020
4531 Clear 23 1015 43 10000 2.6 200 13:44 18.04.2020
4532 Clear 23 1015 43 10000 2.6 200 13:22 18.04.2020
4533 Clear 22 1015 49 10000 2.6 200 12:55 18.04.2020
4534 Clear 22 1015 53 10000 2.6 200 12:36 18.04.2020
4535 Clear 22 1015 53 10000 2.6 200 12:36 18.04.2020
4536 Clear 22 1015 53 10000 2.6 200 12:18 18.04.2020
4537 Clear 22 1015 49 10000 1.5 0 11:41 18.04.2020
4538 Clear 20 1015 49 10000 1.5 0 11:22 18.04.2020
4539 Clear 20 1015 49 10000 1.5 0 11:22 18.04.2020
4540 Clear 20 1015 49 10000 1.5 0 10:57 18.04.2020
4541 Clear 20 1016 49 10000 1.5 0 10:36 18.04.2020
4542 Clear 20 1015 48 10000 1.5 0 10:18 18.04.2020
4543 Clear 19 1015 55 10000 1.49 146 09:41 18.04.2020
4544 Clear 18 1015 55 10000 1.13 9 09:21 18.04.2020
4545 Clear 17 1009 36 0 1.79 68 08:43 18.04.2020
4546 Clear 17 1009 36 0 1.79 68 08:43 18.04.2020
4547 Clear 17 1015 67 10000 1.13 9 08:24 18.04.2020
4548 Clear 16 1017 62 0 1.13 9 07:52 18.04.2020
4549 Clear 15 1016 67 0 1.13 9 07:33 18.04.2020
4550 Clear 13 1016 70 0 1.13 9 06:53 18.04.2020
4551 Clear 12 1014 81 10000 1.86 339 05:50 18.04.2020
4552 Clear 12 1014 81 10000 1.86 339 05:23 18.04.2020
4553 Clear 12 1007 45 0 1.86 339 04:45 18.04.2020
4554 Clear 13 1007 45 0 1.86 339 04:24 18.04.2020
4555 Clouds 13 1014 76 10000 1.52 313 02:45 18.04.2020
4556 Clouds 13 1014 76 10000 1.61 317 02:22 18.04.2020
4557 Clouds 13 1015 69 0 1.61 317 01:51 18.04.2020
4558 Clouds 13 1015 76 10000 1.61 317 01:31 18.04.2020
4559 Clouds 14 1015 76 10000 1.61 317 00:40 18.04.2020
4560 Clouds 14 1015 76 10000 0.84 238 00:20 18.04.2020
4561 Clouds 14 1008 40 0 1.79 35 23:55 17.04.2020
4562 Clouds 14 1015 71 10000 0.84 238 23:36 17.04.2020
4563 Clouds 14 1015 71 10000 0.84 238 23:18 17.04.2020
4564 Clouds 14 1016 67 0 0.45 21 22:54 17.04.2020
4565 Clouds 14 1015 71 10000 0.84 238 22:36 17.04.2020
4566 Clouds 14 1015 71 10000 0.84 238 22:18 17.04.2020
4567 Clouds 15 1015 67 10000 0.81 229 21:40 17.04.2020
4568 Clouds 15 1015 67 10000 1.3 178 21:20 17.04.2020
4569 Clouds 15 1015 58 10000 1.3 178 20:56 17.04.2020
4570 Clouds 15 1015 55 10000 1.3 178 20:37 17.04.2020
4571 Clouds 15 1015 55 10000 1.3 178 20:18 17.04.2020
4572 Clouds 16 1014 55 10000 1.3 178 19:56 17.04.2020
4573 Clouds 16 1014 55 10000 1.5 0 19:38 17.04.2020
4574 Clouds 16 1014 55 10000 1.5 0 19:19 17.04.2020
4575 Clouds 16 1014 63 10000 2.1 180 18:42 17.04.2020
4576 Clouds 17 1014 63 10000 2.1 180 18:22 17.04.2020
4577 Clouds 18 1014 63 10000 3.6 180 17:38 17.04.2020
4578 Clouds 19 1014 63 10000 3.6 180 17:20 17.04.2020
4579 Clouds 19 1015 59 10000 3.6 190 16:59 17.04.2020
4580 Clouds 19 1014 59 10000 4.1 180 16:41 17.04.2020
4581 Clouds 19 1014 59 10000 4.1 180 16:22 17.04.2020
4582 Clouds 20 1014 52 10000 3.1 180 15:40 17.04.2020
4583 Clouds 20 1014 52 10000 3.1 180 15:22 17.04.2020
4584 Clouds 21 1014 43 10000 3.6 180 14:55 17.04.2020
4585 Clouds 21 1015 40 10000 3.6 180 14:36 17.04.2020
4586 Clear 21 1015 40 10000 3.6 180 14:18 17.04.2020
4587 Clear 21 1015 43 10000 2.6 170 13:40 17.04.2020
4588 Clear 21 1015 43 10000 2.6 170 13:20 17.04.2020
4589 Clear 20 1015 37 10000 2.6 200 12:57 17.04.2020
4590 Clear 20 1016 30 10000 1.5 180 12:38 17.04.2020
4591 Clear 20 1016 30 10000 1.5 180 12:20 17.04.2020
4592 Clear 19 1016 35 10000 0.98 159 11:40 17.04.2020
4593 Clear 19 1016 35 10000 0.98 159 11:19 17.04.2020
4594 Clear 18 1016 35 10000 0.98 159 11:19 17.04.2020
4595 Clear 18 1017 31 10000 1.5 130 10:43 17.04.2020
4596 Clear 18 1017 31 10000 1.5 130 10:22 17.04.2020
4597 Clear 17 1017 33 10000 0.98 159 09:57 17.04.2020
4598 Clear 17 1017 36 10000 0.98 159 09:38 17.04.2020
4599 Clear 15 1017 36 10000 1.77 352 09:19 17.04.2020
4600 Clear 15 1017 38 10000 1.77 352 08:47 17.04.2020
4601 Clear 14 1017 47 10000 1.77 352 08:27 17.04.2020
4602 Clear 14 1017 47 10000 1.77 352 07:58 17.04.2020
4603 Clear 13 1017 47 10000 1.77 352 07:39 17.04.2020
4604 Clear 12 1017 57 10000 1.77 352 07:19 17.04.2020
4605 Clear 10 1017 61 10000 1.77 352 06:44 17.04.2020
4606 Clear 9 1017 45 10000 2.39 352 05:58 17.04.2020
4607 Clear 10 1018 42 10000 3.04 348 03:24 17.04.2020
4608 Clear 10 1018 34 10000 3.04 348 02:52 17.04.2020
4609 Clear 10 1019 39 10000 3.22 348 01:41 17.04.2020
4610 Clear 11 1019 28 10000 3.22 348 01:19 17.04.2020
4611 Clear 11 1019 24 10000 1.5 0 00:21 17.04.2020
4612 Clear 11 1019 24 10000 1.5 0 23:55 16.04.2020
4613 Clear 12 1019 24 10000 1.5 0 23:37 16.04.2020
4614 Clear 12 1019 24 10000 1.5 0 23:18 16.04.2020
4615 Clear 12 1019 32 10000 1.5 0 22:40 16.04.2020
4616 Clear 12 1019 30 10000 1.5 0 22:22 16.04.2020
4617 Clear 12 1019 35 10000 2.6 360 21:58 16.04.2020
4618 Clear 12 1019 35 10000 2.6 360 21:40 16.04.2020
4619 Clear 13 1019 35 10000 1.5 0 21:19 16.04.2020
4620 Clear 13 1019 50 10000 2.6 320 20:42 16.04.2020
4621 Clear 13 1019 50 10000 2.6 320 20:42 16.04.2020
4622 Clear 13 1019 50 10000 4.1 330 20:23 16.04.2020
4623 Clear 13 1019 33 10000 3.1 340 19:59 16.04.2020
4624 Clear 14 1019 33 10000 3.1 340 19:39 16.04.2020
4625 Clear 14 1019 29 10000 4.1 320 19:19 16.04.2020
4626 Clear 15 1019 33 10000 4.6 320 18:56 16.04.2020
4627 Clear 15 1019 33 10000 4.6 320 18:37 16.04.2020
4628 Clear 16 1020 33 10000 5.1 340 18:19 16.04.2020
4629 Clear 16 1020 33 10000 5.1 330 17:43 16.04.2020
4630 Clear 16 1020 31 10000 5.1 350 17:24 16.04.2020
4631 Clear 17 1020 31 10000 5.1 350 16:59 16.04.2020
4632 Clear 17 1020 34 10000 6.2 350 16:40 16.04.2020
4633 Clear 17 1020 34 10000 6.2 340 16:19 16.04.2020
4634 Clear 17 1020 36 10000 6.7 330 15:42 16.04.2020
4635 Clouds 16 1021 39 10000 5.1 340 15:19 16.04.2020
4636 Clouds 16 1021 39 10000 5.1 340 15:19 16.04.2020
4637 Clouds 16 1021 39 10000 5.1 340 14:58 16.04.2020
4638 Clouds 16 1022 51 10000 9.3 40 14:38 16.04.2020
4639 Clouds 16 1022 39 10000 5.7 340 14:19 16.04.2020
4640 Clouds 16 1022 39 10000 5.7 340 13:56 16.04.2020
4641 Clouds 16 1022 39 10000 5.7 340 13:36 16.04.2020
4642 Clouds 16 1022 42 10000 6.2 340 13:18 16.04.2020
4643 Clouds 15 1022 42 10000 6.2 360 12:56 16.04.2020
4644 Clouds 15 1022 42 10000 6.2 360 12:37 16.04.2020
4645 Clouds 15 1022 44 10000 6.2 340 12:18 16.04.2020
4646 Clouds 14 1022 44 10000 6.2 350 11:42 16.04.2020
4647 Clouds 14 1024 47 10000 12.3 30 11:22 16.04.2020
4648 Clouds 13 1023 51 10000 5.7 340 10:57 16.04.2020
4649 Clouds 14 1023 51 10000 5.7 340 10:39 16.04.2020
4650 Clouds 13 1023 54 10000 6.2 340 10:19 16.04.2020
4651 Clouds 13 1023 54 10000 6.2 340 09:58 16.04.2020
4652 Clouds 13 1023 54 10000 6.7 340 09:38 16.04.2020
4653 Clouds 12 1023 50 10000 8.2 340 09:19 16.04.2020
4654 Clouds 12 1023 58 10000 7.7 350 08:42 16.04.2020
4655 Clouds 12 1023 58 10000 6.2 340 08:23 16.04.2020
4656 Clouds 11 1023 62 10000 7.2 340 07:46 16.04.2020
4657 Clouds 11 1023 62 10000 7.2 340 07:46 16.04.2020
4658 Clouds 11 1022 66 10000 7.7 340 07:26 16.04.2020
4659 Clouds 10 1022 66 10000 5.1 340 06:45 16.04.2020
4660 Clouds 10 1022 66 10000 4.1 330 06:26 16.04.2020
4661 Clouds 10 1021 71 10000 4.6 310 05:37 16.04.2020
4662 Clouds 10 1020 66 10000 4.1 340 04:28 16.04.2020
4663 Clouds 10 1021 66 10000 2.1 300 03:24 16.04.2020
4664 Clouds 10 1021 66 10000 3.6 350 02:49 16.04.2020
4665 Clouds 10 1021 66 10000 3.6 350 02:31 16.04.2020
4666 Clouds 10 1020 71 10000 5.1 340 01:19 16.04.2020
4667 Clouds 10 1020 76 10000 5.7 340 00:37 16.04.2020
4668 Clouds 10 1020 81 10000 3.6 350 23:59 15.04.2020
4669 Clouds 10 1020 81 10000 3.6 350 23:41 15.04.2020
4670 Clouds 10 1019 71 10000 5.1 340 23:22 15.04.2020
4671 Clouds 11 1019 71 10000 5.1 340 22:41 15.04.2020
4672 Clouds 11 1019 66 10000 6.2 330 22:22 15.04.2020
4673 Clouds 11 1019 66 10000 6.2 330 22:22 15.04.2020
4674 Clouds 11 1019 66 10000 6.2 330 21:59 15.04.2020
4675 Clouds 11 1018 62 10000 6.2 340 21:41 15.04.2020
4676 Clouds 11 1016 62 10000 5.7 340 21:23 15.04.2020
4677 Clouds 11 1018 66 10000 5.7 340 20:58 15.04.2020
4678 Clouds 11 1018 66 10000 5.7 340 20:40 15.04.2020
4679 Clouds 11 1017 62 10000 5.7 340 20:22 15.04.2020
4680 Clouds 11 1017 62 10000 5.7 340 20:22 15.04.2020
4681 Clouds 11 1017 62 10000 6.7 340 19:46 15.04.2020
4682 Clouds 11 1016 66 10000 6.7 340 19:21 15.04.2020
4683 Clouds 11 1016 66 10000 6.2 330 18:58 15.04.2020
4684 Clouds 11 1016 66 10000 6.2 330 18:40 15.04.2020
4685 Rain 12 1016 66 10000 5.1 330 18:21 15.04.2020
4686 Rain 12 1016 66 10000 5.1 330 18:21 15.04.2020
4687 Rain 12 1015 62 10000 7.2 330 17:55 15.04.2020
4688 Rain 12 1015 62 10000 7.2 330 17:36 15.04.2020
4689 Rain 12 1015 62 10000 7.2 330 17:36 15.04.2020
4690 Rain 13 1014 58 10000 6.7 330 17:18 15.04.2020
4691 Clouds 13 1014 54 10000 7.2 330 16:54 15.04.2020
4692 Clouds 13 1014 54 10000 7.2 330 16:36 15.04.2020
4693 Rain 14 1013 58 10000 7.7 330 16:18 15.04.2020
4694 Rain 14 1013 58 10000 7.2 340 15:55 15.04.2020
4695 Rain 15 1013 58 10000 7.2 340 15:36 15.04.2020
4696 Rain 15 1013 58 10000 8.7 350 15:18 15.04.2020
4697 Rain 15 1013 58 10000 8.7 340 14:42 15.04.2020
4698 Clouds 15 1013 58 10000 9.3 350 14:23 15.04.2020
4699 Clouds 15 1012 58 10000 9.8 340 14:00 15.04.2020
4700 Clouds 15 1012 58 10000 9.8 340 13:40 15.04.2020
4701 Clouds 15 1012 59 10000 9.8 340 13:21 15.04.2020
4702 Clouds 16 1011 55 10000 8.7 350 12:59 15.04.2020
4703 Clouds 16 1011 55 10000 8.7 350 12:41 15.04.2020
4704 Clouds 16 1011 52 10000 8.7 350 12:22 15.04.2020
4705 Clouds 16 1010 52 10000 7.2 350 11:58 15.04.2020
4706 Clouds 16 1010 52 10000 7.2 350 11:38 15.04.2020
4707 Clouds 15 1010 52 10000 7.7 340 11:20 15.04.2020
4708 Clouds 15 1010 48 10000 7.2 340 10:39 15.04.2020
4709 Clouds 16 1009 48 10000 7.2 360 10:20 15.04.2020
4710 Clouds 16 1008 48 10000 7.2 360 09:57 15.04.2020
4711 Clouds 16 1008 48 10000 7.2 360 09:39 15.04.2020
4712 Clouds 16 1008 52 10000 4.6 350 09:20 15.04.2020
4713 Clouds 15 1009 67 10000 5.7 50 08:55 15.04.2020
4714 Clouds 16 1009 67 10000 5.7 50 08:37 15.04.2020
4715 Clouds 16 1009 67 10000 5.7 50 08:37 15.04.2020
4716 Clouds 17 1008 55 10000 1.5 0 08:18 15.04.2020
4717 Clouds 16 1007 62 10000 3.7 31 07:46 15.04.2020
4718 Clouds 16 1007 66 10000 1.5 0 07:28 15.04.2020
4719 Clouds 15 1007 66 10000 2.6 340 06:32 15.04.2020
4720 Clouds 14 1007 76 10000 2.32 138 05:50 15.04.2020
4721 Clouds 15 1008 76 10000 2.32 138 04:48 15.04.2020
4722 Clouds 15 1008 71 10000 2.32 138 04:24 15.04.2020
4723 Clouds 16 1008 67 10000 3.02 139 03:23 15.04.2020
4724 Clouds 16 1009 67 10000 3.02 139 02:52 15.04.2020
4725 Clouds 16 1010 67 10000 2.1 130 01:54 15.04.2020
4726 Clouds 16 1010 63 10000 3.02 139 01:25 15.04.2020
4727 Clouds 16 1010 63 10000 1.5 60 00:51 15.04.2020
4728 Clouds 16 1011 63 10000 3.69 157 00:30 15.04.2020
4729 Clouds 17 1011 63 10000 3.69 157 23:57 14.04.2020
4730 Clouds 17 1011 63 10000 3.69 157 23:38 14.04.2020
4731 Clouds 17 1011 63 10000 3.69 157 23:20 14.04.2020
4732 Clouds 17 1011 63 10000 3.69 157 22:58 14.04.2020
4733 Clouds 17 1011 63 10000 3.69 157 22:39 14.04.2020
4734 Clouds 17 1011 63 10000 3.69 157 22:21 14.04.2020
4735 Clouds 17 1011 59 10000 3.69 157 21:57 14.04.2020
4736 Clouds 17 1011 59 10000 3.69 157 21:39 14.04.2020
4737 Clouds 18 1011 63 10000 2.74 180 21:20 14.04.2020
4738 Clouds 18 1011 59 10000 2.74 180 20:59 14.04.2020
4739 Clouds 18 1011 59 10000 2.74 180 20:40 14.04.2020
4740 Clouds 18 1011 59 10000 2.74 180 20:21 14.04.2020
4741 Clouds 18 1011 59 10000 2.74 180 20:21 14.04.2020
4742 Clouds 18 1011 63 10000 2.85 180 19:57 14.04.2020
4743 Clouds 18 1011 63 10000 2.85 180 19:38 14.04.2020
4744 Clouds 18 1011 55 10000 1.5 150 19:19 14.04.2020
4745 Clouds 19 1011 52 10000 1.5 120 18:41 14.04.2020
4746 Clouds 19 1011 45 10000 4.1 130 18:22 14.04.2020
4747 Clouds 19 1011 45 10000 3.1 130 17:58 14.04.2020
4748 Clouds 19 1011 45 10000 3.1 130 17:39 14.04.2020
4749 Clouds 20 1011 49 10000 3.1 130 17:20 14.04.2020
4750 Clouds 20 1011 49 10000 3.1 120 16:58 14.04.2020
4751 Clouds 20 1011 49 10000 3.1 120 16:39 14.04.2020
4752 Clouds 20 1012 49 10000 2.1 160 16:20 14.04.2020
4753 Clouds 20 1013 40 10000 2.1 180 15:56 14.04.2020
4754 Clouds 21 1013 40 10000 2.1 180 15:38 14.04.2020
4755 Clouds 21 1013 40 10000 2.1 180 15:18 14.04.2020
4756 Clouds 21 1013 40 10000 4.1 180 14:57 14.04.2020
4757 Clouds 21 1013 40 10000 4.1 180 14:38 14.04.2020
4758 Clouds 22 1013 37 10000 4.1 160 14:20 14.04.2020
4759 Clouds 22 1014 40 10000 4.1 170 13:43 14.04.2020
4760 Clouds 22 1014 35 10000 4.1 180 13:24 14.04.2020
4761 Clouds 22 1014 37 10000 4.1 180 12:56 14.04.2020
4762 Clouds 22 1014 37 10000 4.1 180 12:38 14.04.2020
4763 Clouds 21 1014 37 10000 4.1 170 12:19 14.04.2020
4764 Clouds 21 1015 43 10000 3.36 200 11:41 14.04.2020
4765 Clouds 21 1015 43 10000 3.36 200 11:41 14.04.2020
4766 Clouds 21 1015 43 10000 3.36 200 11:22 14.04.2020
4767 Clouds 21 1015 40 10000 3.36 200 10:56 14.04.2020
4768 Clouds 21 1015 40 10000 3.36 200 10:38 14.04.2020
4769 Clouds 20 1015 48 10000 3.36 200 10:19 14.04.2020
4770 Clouds 20 1015 48 10000 3.36 200 09:42 14.04.2020
4771 Clouds 18 1015 51 10000 1.21 266 09:22 14.04.2020
4772 Clouds 17 1015 55 10000 1.21 266 08:56 14.04.2020
4773 Clouds 17 1015 52 0 1.21 266 08:36 14.04.2020
4774 Clouds 17 1015 52 0 1.21 266 08:36 14.04.2020
4775 Clouds 17 1015 52 0 1.21 266 08:18 14.04.2020
4776 Clouds 16 1015 66 10000 1.21 266 07:49 14.04.2020
4777 Clouds 14 1015 76 10000 1.21 266 07:26 14.04.2020
4778 Clouds 12 1015 76 10000 1.21 266 06:45 14.04.2020
4779 Clouds 12 1015 76 10000 1.66 302 05:43 14.04.2020
4780 Clear 13 1017 71 10000 1.66 302 03:38 14.04.2020
4781 Clear 13 1016 76 10000 1.07 255 02:34 14.04.2020
4782 Clear 13 1017 66 10000 1.07 275 01:27 14.04.2020
4783 Clouds 14 1017 66 10000 1.07 275 00:51 14.04.2020
4784 Clouds 15 1017 66 10000 1.08 192 00:24 14.04.2020
4785 Clouds 15 1017 66 10000 1.08 192 23:59 13.04.2020
4786 Clouds 15 1017 66 10000 1.08 192 23:37 13.04.2020
4787 Clouds 15 1018 66 10000 1.08 192 23:19 13.04.2020
4788 Clouds 15 1018 66 10000 1.08 192 22:54 13.04.2020
4789 Clouds 15 1018 66 10000 1.08 192 22:36 13.04.2020
4790 Clouds 15 1018 66 10000 1.08 192 22:18 13.04.2020
4791 Clouds 16 1018 67 10000 1.08 192 21:41 13.04.2020
4792 Clouds 16 1018 67 10000 1.51 169 21:21 13.04.2020
4793 Clouds 16 1018 67 10000 1.51 169 20:58 13.04.2020
4794 Clouds 16 1018 67 10000 1.51 169 20:40 13.04.2020
4795 Clouds 16 1018 63 10000 1.51 169 20:19 13.04.2020
4796 Clouds 17 1017 63 10000 1.51 169 19:58 13.04.2020
4797 Clouds 17 1017 63 10000 1.51 169 19:37 13.04.2020
4798 Clear 17 1017 63 10000 2.1 200 19:18 13.04.2020
4799 Clear 18 1017 59 10000 1.5 0 18:57 13.04.2020
4800 Clear 18 1017 59 10000 1.5 0 18:37 13.04.2020
4801 Clouds 19 1017 52 10000 2.1 190 18:18 13.04.2020
4802 Clouds 20 1017 49 10000 2.6 180 17:56 13.04.2020
4803 Clouds 20 1017 49 10000 2.6 180 17:37 13.04.2020
4804 Clouds 21 1017 45 10000 2.6 190 17:18 13.04.2020
4805 Clouds 21 1017 40 10000 3.1 190 16:57 13.04.2020
4806 Clouds 21 1017 40 10000 3.1 190 16:37 13.04.2020
4807 Clouds 21 1017 40 10000 2.6 190 16:19 13.04.2020
4808 Clouds 21 1017 40 10000 2.6 190 16:19 13.04.2020
4809 Clouds 21 1017 43 10000 2.6 180 15:46 13.04.2020
4810 Clouds 21 1017 43 10000 2.6 180 15:28 13.04.2020
4811 Clouds 21 1018 40 10000 2.6 190 14:59 13.04.2020
4812 Clouds 21 1018 40 10000 2.6 190 14:40 13.04.2020
4813 Clouds 20 1018 35 10000 2.6 190 14:22 13.04.2020
4814 Clouds 21 1019 35 10000 2.6 190 13:56 13.04.2020
4815 Clouds 21 1019 35 10000 2.6 190 13:38 13.04.2020
4816 Clouds 21 1019 40 10000 2.6 210 13:20 13.04.2020
4817 Clouds 21 1019 46 10000 2.1 220 12:58 13.04.2020
4818 Clouds 20 1019 46 10000 2.1 220 12:39 13.04.2020
4819 Clouds 20 1019 40 10000 2.6 210 12:19 13.04.2020
4820 Clouds 20 1020 40 10000 2.1 200 11:57 13.04.2020
4821 Clouds 20 1020 40 10000 2.1 200 11:39 13.04.2020
4822 Clouds 19 1020 40 10000 0.35 37 11:18 13.04.2020
4823 Clouds 18 1020 42 10000 0.35 37 10:55 13.04.2020
4824 Clouds 18 1020 42 10000 0.56 27 10:36 13.04.2020
4825 Clouds 18 1020 42 10000 0.35 37 10:18 13.04.2020
4826 Clouds 18 1020 42 10000 0.56 27 09:43 13.04.2020
4827 Clouds 16 1020 48 10000 2.83 359 09:25 13.04.2020
4828 Clouds 15 1020 59 10000 2.83 359 08:45 13.04.2020
4829 Clouds 15 1020 62 10000 2.83 359 08:27 13.04.2020
4830 Clouds 15 1020 66 10000 2.83 359 07:56 13.04.2020
4831 Clouds 14 1020 66 10000 2.83 359 07:38 13.04.2020
4832 Clouds 13 1020 71 10000 2.83 359 07:18 13.04.2020
4833 Clear 12 1020 76 10000 2.83 359 06:42 13.04.2020
4834 Clear 12 1019 76 10000 3.77 359 05:52 13.04.2020
4835 Clear 12 1019 71 10000 1.5 0 05:19 13.04.2020
4836 Clear 12 1019 71 0 1 0 04:31 13.04.2020
4837 Clear 12 1019 76 0 0.5 0 03:56 13.04.2020
4838 Clear 11 1019 76 0 0.5 0 03:34 13.04.2020
4839 Clear 12 1019 71 0 1.5 0 02:41 13.04.2020
4840 Clear 13 1020 71 0 1 0 01:47 13.04.2020
4841 Clear 13 1020 66 0 1.5 0 01:28 13.04.2020
4842 Clear 13 1020 71 0 3.8 354 00:50 13.04.2020
4843 Clear 13 1020 71 0 0.5 0 00:25 13.04.2020
4844 Clear 13 1020 71 0 4.03 358 23:57 12.04.2020
4845 Clear 14 1020 71 0 4.03 358 23:38 12.04.2020
4846 Clear 14 1020 71 0 4.03 358 23:38 12.04.2020
4847 Clear 13 1020 76 10000 1.5 0 23:20 12.04.2020
4848 Clear 14 1020 71 10000 4.03 358 22:54 12.04.2020
4849 Clear 14 1020 71 10000 4.03 358 22:36 12.04.2020
4850 Clear 14 1020 67 10000 4.03 358 22:18 12.04.2020
4851 Clear 14 1020 62 10000 4.45 356 21:38 12.04.2020
4852 Clear 15 1019 63 10000 4.68 9 21:19 12.04.2020
4853 Clear 15 1019 51 10000 4.68 9 20:43 12.04.2020
4854 Clear 16 1019 55 10000 1.5 0 20:23 12.04.2020
4855 Clear 16 1019 52 10000 1.5 0 19:59 12.04.2020
4856 Clear 16 1019 52 10000 1.5 0 19:40 12.04.2020
4857 Clouds 17 1019 52 10000 3.6 80 19:19 12.04.2020
4858 Clouds 18 1019 43 10000 2.6 70 18:58 12.04.2020
4859 Clouds 19 1019 43 10000 2.6 70 18:39 12.04.2020
4860 Clouds 20 1019 40 10000 3.6 80 18:19 12.04.2020
4861 Clouds 20 1019 40 10000 4.1 80 17:54 12.04.2020
4862 Clouds 21 1019 40 10000 4.1 80 17:36 12.04.2020
4863 Clouds 21 1018 35 10000 4.1 90 17:18 12.04.2020
4864 Clouds 21 1018 31 10000 4.1 80 16:41 12.04.2020
4865 Clouds 22 1018 29 10000 4.1 90 16:21 12.04.2020
4866 Clouds 22 1018 25 10000 4.1 80 15:52 12.04.2020
4867 Clouds 22 1018 25 10000 4.1 80 15:31 12.04.2020
4868 Clouds 22 1019 23 10000 3.6 70 14:57 12.04.2020
4869 Clouds 22 1019 23 10000 3.6 70 14:39 12.04.2020
4870 Clouds 22 1019 23 10000 3.6 70 14:39 12.04.2020
4871 Clouds 22 1019 23 10000 4.1 60 14:20 12.04.2020
4872 Clear 22 1019 23 10000 3.6 40 13:55 12.04.2020
4873 Clear 22 1019 23 10000 3.6 40 13:36 12.04.2020
4874 Clear 22 1022 42 10000 8.2 40 13:18 12.04.2020
4875 Clear 22 1020 23 10000 3.1 100 12:45 12.04.2020
4876 Clear 21 1022 40 10000 9.3 40 12:21 12.04.2020
4877 Clear 21 1020 27 10000 1.5 0 11:58 12.04.2020
4878 Clear 21 1020 27 10000 1.5 0 11:37 12.04.2020
4879 Clear 21 1022 40 10000 9.3 40 11:37 12.04.2020
4880 Clear 19 1022 40 10000 7.2 60 11:18 12.04.2020
4881 Clear 20 1020 37 10000 5.73 8 10:55 12.04.2020
4882 Clear 20 1020 37 10000 5.73 8 10:37 12.04.2020
4883 Clear 20 1020 43 10000 1.5 0 10:19 12.04.2020
4884 Clear 20 1020 48 10000 5.73 8 09:56 12.04.2020
4885 Clear 20 1020 48 10000 5.73 8 09:37 12.04.2020
4886 Clear 17 1020 45 10000 4.43 360 09:19 12.04.2020
4887 Clear 17 1020 51 10000 4.43 360 08:47 12.04.2020
4888 Clear 16 1020 55 10000 4.43 360 08:29 12.04.2020
4889 Clear 16 1020 62 10000 4.43 360 07:47 12.04.2020
4890 Clear 14 1020 66 10000 4.43 360 07:19 12.04.2020
4891 Clear 14 1020 70 10000 4.43 360 06:42 12.04.2020
4892 Clear 13 1019 66 10000 3.62 355 06:22 12.04.2020
4893 Clear 13 1019 66 10000 3.62 355 05:42 12.04.2020
4894 Clear 13 1019 71 0 1.5 0 04:25 12.04.2020
4895 Clear 14 1019 66 0 1 0 03:29 12.04.2020
4896 Clear 14 1019 58 0 1 0 02:47 12.04.2020
4897 Clear 14 1019 58 0 1 0 02:27 12.04.2020
4898 Clear 14 1019 54 0 1 0 01:22 12.04.2020
4899 Clear 14 1019 62 0 2.1 350 00:43 12.04.2020
4900 Clear 15 1019 62 0 1 0 00:21 12.04.2020
4901 Clear 15 1019 58 0 1 0 23:47 11.04.2020
4902 Clear 15 1019 54 10000 2.38 348 23:26 11.04.2020
4903 Clear 15 1019 54 10000 2.38 348 22:58 11.04.2020
4904 Clear 16 1019 54 10000 2.38 348 22:37 11.04.2020
4905 Clear 16 1018 58 10000 2.38 348 22:18 11.04.2020
4906 Clear 16 1018 62 10000 2.38 348 21:55 11.04.2020
4907 Clear 16 1018 62 10000 2.38 348 21:36 11.04.2020
4908 Clear 17 1018 58 10000 2.63 5 21:18 11.04.2020
4909 Clear 17 1018 59 10000 2.63 5 20:55 11.04.2020
4910 Clear 17 1018 59 10000 2.63 5 20:37 11.04.2020
4911 Clear 18 1017 55 10000 2.63 5 20:19 11.04.2020
4912 Clear 18 1017 52 10000 2.63 5 19:56 11.04.2020
4913 Clear 18 1017 52 10000 2.63 5 19:37 11.04.2020
4914 Clear 20 1017 42 10000 2.63 5 19:18 11.04.2020
4915 Clear 21 1016 37 10000 1.5 0 18:55 11.04.2020
4916 Clear 21 1016 37 10000 1.5 0 18:36 11.04.2020
4917 Clear 22 1016 28 10000 2.1 180 18:18 11.04.2020
4918 Clear 22 1016 31 10000 1.5 0 17:56 11.04.2020
4919 Clear 22 1016 31 10000 1.5 0 17:36 11.04.2020
4920 Clear 22 1018 28 10000 3.1 70 17:18 11.04.2020
4921 Clouds 22 1018 28 10000 2.6 70 16:42 11.04.2020
4922 Clouds 22 1019 26 10000 2.6 100 16:21 11.04.2020
4923 Clouds 22 1019 26 10000 4.1 70 15:41 11.04.2020
4924 Clouds 23 1018 27 10000 7.2 60 15:21 11.04.2020
4925 Clouds 23 1017 25 10000 3.6 220 14:58 11.04.2020
4926 Clouds 23 1017 25 10000 3.6 220 14:39 11.04.2020
4927 Clouds 23 1017 23 10000 3.1 220 14:20 11.04.2020
4928 Clouds 23 1017 25 10000 3.1 220 13:42 11.04.2020
4929 Clouds 23 1017 27 10000 3.6 200 13:24 11.04.2020
4930 Clear 22 1018 23 10000 3.1 240 12:59 11.04.2020
4931 Clear 22 1018 23 10000 3.1 240 12:37 11.04.2020
4932 Clear 22 1018 23 10000 2.6 350 12:18 11.04.2020
4933 Clear 21 1018 38 10000 3.1 330 11:43 11.04.2020
4934 Clear 21 1018 22 10000 1.5 0 11:21 11.04.2020
4935 Clear 21 1018 30 10000 1.5 0 10:57 11.04.2020
4936 Clear 21 1018 30 10000 1.5 0 10:37 11.04.2020
4937 Clear 21 1018 39 10000 1.5 0 10:19 11.04.2020
4938 Clear 20 1018 45 10000 4.56 3 09:57 11.04.2020
4939 Clear 19 1018 45 10000 4.82 4 09:38 11.04.2020
4940 Clear 17 1018 42 10000 3.62 339 09:19 11.04.2020
4941 Clear 16 1018 45 10000 3.62 339 08:43 11.04.2020
4942 Clear 16 1018 44 10000 3.62 339 08:23 11.04.2020
4943 Clear 15 1018 58 10000 3.62 339 07:49 11.04.2020
4944 Clear 13 1018 57 10000 3.62 339 07:28 11.04.2020
4945 Clear 11 1017 61 10000 3.62 339 06:44 11.04.2020
4946 Clear 11 1017 57 10000 3.52 334 05:59 11.04.2020
4947 Clear 12 1017 53 0 0.5 0 04:34 11.04.2020
4948 Clear 11 1017 50 0 1.5 0 03:40 11.04.2020
4949 Clear 12 1017 50 10000 3.46 332 01:52 11.04.2020
4950 Clear 12 1017 53 10000 3.46 332 01:20 11.04.2020
4951 Clear 12 1017 57 10000 3.46 332 00:44 11.04.2020
4952 Clear 13 1017 50 10000 2.6 310 00:19 11.04.2020
4953 Clear 13 1017 54 10000 3.6 360 23:56 10.04.2020
4954 Clear 13 1017 54 10000 3.6 360 23:56 10.04.2020
4955 Clear 13 1017 54 10000 3.6 360 23:37 10.04.2020
4956 Clear 13 1017 47 10000 3.67 334 23:18 10.04.2020
4957 Clear 14 1017 47 10000 3.67 334 22:43 10.04.2020
4958 Clear 14 1017 54 10000 2.1 290 22:21 10.04.2020
4959 Clear 14 1017 47 10000 3.67 334 21:58 10.04.2020
4960 Clear 15 1017 47 10000 3.72 330 21:39 10.04.2020
4961 Clear 16 1016 41 10000 3.73 337 21:20 10.04.2020
4962 Clear 16 1016 41 10000 3.73 337 20:43 10.04.2020
4963 Clear 16 1015 36 10000 3.73 337 20:23 10.04.2020
4964 Clear 16 1015 31 10000 3.73 337 19:58 10.04.2020
4965 Clear 16 1015 31 10000 3.73 337 19:40 10.04.2020
4966 Clear 18 1015 29 10000 4.1 10 19:20 10.04.2020
4967 Clear 19 1015 26 10000 4.1 360 18:58 10.04.2020
4968 Clear 19 1015 26 10000 4.1 360 18:39 10.04.2020
4969 Clear 20 1015 26 10000 5.1 10 18:21 10.04.2020
4970 Clear 20 1015 24 10000 4.1 360 17:58 10.04.2020
4971 Clear 20 1015 24 10000 4.1 360 17:39 10.04.2020
4972 Clear 21 1015 24 10000 6.2 340 17:20 10.04.2020
4973 Clear 21 1015 23 10000 6.2 350 16:56 10.04.2020
4974 Clear 21 1015 23 10000 6.2 350 16:38 10.04.2020
4975 Clear 21 1015 25 10000 5.1 360 16:20 10.04.2020
4976 Clear 21 1015 23 10000 6.2 350 15:56 10.04.2020
4977 Clear 21 1015 23 10000 6.2 350 15:37 10.04.2020
4978 Clear 21 1015 23 10000 6.2 350 15:37 10.04.2020
4979 Clear 21 1015 25 10000 5.1 10 15:18 10.04.2020
4980 Clear 21 1015 25 10000 7.2 350 14:56 10.04.2020
4981 Clear 21 1015 25 10000 7.2 350 14:38 10.04.2020
4982 Clear 21 1015 25 10000 7.2 350 14:38 10.04.2020
4983 Clear 21 1016 25 10000 6.7 360 14:18 10.04.2020
4984 Clear 21 1017 26 10000 7.7 40 13:43 10.04.2020
4985 Clear 20 1017 26 10000 6.7 50 13:21 10.04.2020
4986 Clear 20 1016 26 10000 5.1 10 12:44 10.04.2020
4987 Clear 20 1016 26 10000 5.1 350 12:24 10.04.2020
4988 Clear 20 1016 40 10000 3.1 350 11:58 10.04.2020
4989 Clear 20 1016 40 10000 3.1 350 11:39 10.04.2020
4990 Clear 20 1016 26 10000 3.1 340 11:21 10.04.2020
4991 Clear 19 1016 26 10000 3.6 350 10:46 10.04.2020
4992 Clear 19 1016 28 10000 3.1 330 10:23 10.04.2020
4993 Clear 18 1016 30 10000 6.83 356 09:57 10.04.2020
4994 Clear 18 1016 30 10000 7.01 358 09:39 10.04.2020
4995 Clear 16 1016 31 10000 5.61 337 09:20 10.04.2020
4996 Clear 15 1016 36 10000 5.61 337 08:43 10.04.2020
4997 Clear 15 1016 47 10000 3.1 350 08:24 10.04.2020
4998 Clear 14 1016 47 10000 3.1 350 07:47 10.04.2020
4999 Clear 13 1016 47 10000 5.61 337 07:27 10.04.2020
5000 Clear 12 1016 47 10000 5.61 337 06:52 10.04.2020
5001 Clear 11 1016 52 10000 6 334 06:29 10.04.2020
5002 Clear 11 1016 57 10000 6 334 05:42 10.04.2020
5003 Clear 11 1016 53 0 1.5 0 05:18 10.04.2020
5004 Clear 11 1016 52 0 1.5 0 03:53 10.04.2020
5005 Clear 11 1016 52 0 1.5 0 03:32 10.04.2020
5006 Clear 12 1016 53 0 2.1 20 02:49 10.04.2020
5007 Clear 12 1016 53 0 2.1 20 02:31 10.04.2020
5008 Clear 11 1017 53 10000 6.46 335 01:30 10.04.2020
5009 Clear 12 1017 54 10000 6.46 335 00:53 10.04.2020
5010 Clear 12 1017 37 10000 2.1 330 00:26 10.04.2020
5011 Clear 12 1017 35 10000 1.5 350 23:57 09.04.2020
5012 Clear 13 1017 35 10000 1.5 350 23:38 09.04.2020
5013 Clear 13 1017 35 10000 1.5 350 23:38 09.04.2020
5014 Clear 12 1017 33 10000 3.1 330 23:20 09.04.2020
5015 Clear 13 1017 43 10000 4.1 350 22:42 09.04.2020
5016 Clear 13 1017 43 10000 4.1 350 22:24 09.04.2020
5017 Clear 13 1017 54 10000 3.1 340 21:59 09.04.2020
5018 Clear 13 1017 54 10000 3.1 340 21:37 09.04.2020
5019 Clear 13 1017 51 10000 1.5 310 21:19 09.04.2020
5020 Clear 13 1017 51 10000 1.5 310 21:19 09.04.2020
5021 Clear 13 1017 51 10000 2.6 290 20:45 09.04.2020
5022 Clear 13 1017 33 10000 2.6 330 20:21 09.04.2020
5023 Clear 14 1016 31 10000 3.6 320 19:58 09.04.2020
5024 Clear 14 1016 31 10000 3.6 320 19:37 09.04.2020
5025 Clear 15 1016 31 10000 3.6 330 19:18 09.04.2020
5026 Clear 15 1016 29 10000 5.7 350 18:42 09.04.2020
5027 Clear 16 1016 29 10000 5.1 350 18:20 09.04.2020
5028 Clear 16 1016 25 10000 6.2 350 17:42 09.04.2020
5029 Clear 16 1016 25 10000 5.7 350 17:24 09.04.2020
5030 Clear 17 1016 43 10000 5.7 360 16:57 09.04.2020
5031 Clear 17 1016 43 10000 5.7 360 16:38 09.04.2020
5032 Clear 17 1016 43 10000 6.7 340 16:19 09.04.2020
5033 Clear 17 1016 43 10000 5.7 350 15:55 09.04.2020
5034 Clear 17 1016 43 10000 5.7 350 15:37 09.04.2020
5035 Clear 17 1016 40 10000 8.2 330 15:18 09.04.2020
5036 Clear 17 1017 29 10000 6.2 350 14:42 09.04.2020
5037 Clear 17 1017 40 10000 7.2 350 14:21 09.04.2020
5038 Clear 17 1017 40 10000 7.2 350 13:56 09.04.2020
5039 Clear 17 1017 40 10000 7.2 350 13:37 09.04.2020
5040 Clear 17 1017 31 10000 6.2 350 13:18 09.04.2020
5041 Clear 16 1017 40 10000 5.7 340 12:42 09.04.2020
5042 Clear 16 1017 27 10000 6.2 350 12:23 09.04.2020
5043 Clouds 16 1017 42 10000 6.7 330 11:59 09.04.2020
5044 Clouds 16 1017 42 10000 6.7 330 11:40 09.04.2020
5045 Clouds 16 1018 41 10000 7.7 330 11:20 09.04.2020
5046 Clouds 15 1018 41 10000 7.7 330 10:57 09.04.2020
5047 Clouds 15 1018 41 10000 7.7 330 10:38 09.04.2020
5048 Clouds 15 1017 44 10000 7.7 340 10:19 09.04.2020
5049 Clouds 15 1017 47 10000 7.2 340 09:55 09.04.2020
5050 Rain 14 1017 47 10000 7.2 340 09:37 09.04.2020
5051 Clouds 13 1017 50 10000 6.2 340 09:19 09.04.2020
5052 Clouds 13 1017 47 10000 5.7 340 08:43 09.04.2020
5053 Rain 13 1017 44 10000 5.1 340 08:23 09.04.2020
5054 Clouds 12 1016 43 10000 6.2 340 07:55 09.04.2020
5055 Clouds 12 1016 37 10000 6.7 350 07:25 09.04.2020
5056 Clouds 11 1017 37 10000 6.2 350 06:55 09.04.2020
5057 Clouds 11 1016 51 10000 4.6 330 05:59 09.04.2020
5058 Clouds 11 1016 51 10000 4.6 330 05:38 09.04.2020
5059 Clouds 11 1016 37 0 3.1 320 03:49 09.04.2020
5060 Clouds 12 1017 51 10000 3.6 320 02:25 09.04.2020
5061 Clouds 12 1017 51 10000 2.6 300 01:40 09.04.2020
5062 Clouds 12 1017 51 10000 4.6 320 01:20 09.04.2020
5063 Clouds 11 1018 51 10000 1.5 0 00:41 09.04.2020
5064 Clouds 12 1018 57 10000 1.5 0 00:19 09.04.2020
5065 Clouds 12 1018 37 10000 2.6 320 23:57 08.04.2020
5066 Clouds 12 1018 37 10000 2.6 320 23:39 08.04.2020
5067 Clouds 12 1018 57 10000 1.5 0 23:20 08.04.2020
5068 Clouds 12 1018 57 10000 1.5 0 22:43 08.04.2020
5069 Clouds 12 1018 57 10000 2.1 310 22:24 08.04.2020
5070 Clouds 12 1018 57 10000 2.6 320 21:56 08.04.2020
5071 Clouds 12 1019 56 10000 3.6 330 21:37 08.04.2020
5072 Clouds 12 1019 57 10000 3.6 330 21:19 08.04.2020
5073 Clouds 12 1019 57 10000 3.6 330 20:56 08.04.2020
5074 Clouds 12 1018 57 10000 3.1 340 20:38 08.04.2020
5075 Clouds 12 1018 57 10000 3.1 340 20:19 08.04.2020
5076 Clouds 12 1018 57 10000 3.6 340 19:42 08.04.2020
5077 Clouds 12 1018 57 10000 3.6 340 19:42 08.04.2020
5078 Clouds 12 1018 41 10000 4.1 330 19:22 08.04.2020
5079 Clouds 13 1018 41 10000 4.1 330 18:56 08.04.2020
5080 Clouds 13 1019 38 10000 5.1 330 18:38 08.04.2020
5081 Clouds 14 1019 38 10000 5.1 330 18:19 08.04.2020
5082 Clouds 14 1019 55 10000 5.7 350 17:43 08.04.2020
5083 Clouds 14 1019 55 10000 5.7 350 17:22 08.04.2020
5084 Clouds 14 1019 33 10000 6.7 360 16:59 08.04.2020
5085 Clouds 14 1019 36 10000 7.7 340 16:40 08.04.2020
5086 Clouds 13 1020 41 10000 12.9 20 16:22 08.04.2020
5087 Clouds 14 1020 55 10000 8.2 350 15:39 08.04.2020
5088 Clouds 14 1020 55 10000 8.2 350 15:39 08.04.2020
5089 Clouds 14 1020 52 10000 8.2 350 15:21 08.04.2020
5090 Clouds 14 1020 36 10000 8.2 360 14:59 08.04.2020
5091 Clouds 14 1020 36 10000 8.2 360 14:41 08.04.2020
5092 Clouds 14 1020 52 10000 8.2 350 14:22 08.04.2020
5093 Clouds 14 1020 52 10000 8.2 350 14:22 08.04.2020
5094 Clouds 14 1020 52 10000 9.8 330 13:44 08.04.2020
5095 Clouds 14 1020 52 10000 8.7 340 13:22 08.04.2020
5096 Clouds 14 1020 52 10000 9.8 350 12:58 08.04.2020
5097 Clouds 14 1020 52 10000 9.8 350 12:40 08.04.2020
5098 Clouds 14 1020 38 10000 10.3 350 12:18 08.04.2020
5099 Clouds 14 1020 38 10000 9.3 360 11:42 08.04.2020
5100 Clouds 14 1021 41 10000 10.3 360 11:23 08.04.2020
5101 Clouds 14 1021 41 10000 10.3 350 10:59 08.04.2020
5102 Clouds 14 1021 41 10000 10.3 350 10:41 08.04.2020
5103 Clouds 13 1020 41 10000 8.2 350 10:21 08.04.2020
5104 Clouds 13 1020 41 10000 8.2 350 09:59 08.04.2020
5105 Clouds 13 1021 41 10000 8.7 350 09:41 08.04.2020
5106 Clouds 12 1021 43 10000 6.2 340 09:19 08.04.2020
5107 Clouds 12 1021 46 10000 6.7 330 08:58 08.04.2020
5108 Clouds 12 1021 46 10000 6.7 330 08:40 08.04.2020
5109 Clouds 11 1020 46 10000 5.7 340 08:21 08.04.2020
5110 Clouds 11 1020 46 10000 7.2 350 07:43 08.04.2020
5111 Clouds 11 1020 46 10000 5.1 360 07:22 08.04.2020
5112 Clouds 10 1019 46 10000 7.2 350 06:32 08.04.2020
5113 Clouds 10 1020 60 0 5.1 340 04:59 08.04.2020
5114 Rain 10 1021 40 0 3.6 320 02:51 08.04.2020
5115 Rain 10 1021 40 0 2.6 330 02:22 08.04.2020
5116 Rain 10 1021 40 0 2.6 330 02:22 08.04.2020
5117 Rain 10 1021 60 0 3.6 340 01:56 08.04.2020
5118 Clouds 11 1021 40 0 4.6 340 01:28 08.04.2020
5119 Clouds 11 1021 40 0 4.6 340 01:28 08.04.2020
5120 Clouds 11 1022 34 10000 7.7 350 00:49 08.04.2020
5121 Clouds 11 1022 34 10000 7.7 350 00:31 08.04.2020
5122 Clouds 11 1022 37 10000 4.1 360 23:57 07.04.2020
5123 Clouds 11 1022 37 10000 4.1 360 23:38 07.04.2020
5124 Clouds 11 1022 35 10000 6.2 360 23:19 07.04.2020
5125 Clouds 11 1022 35 10000 7.7 360 22:56 07.04.2020
5126 Clouds 11 1022 35 10000 7.7 360 22:37 07.04.2020
5127 Clouds 11 1022 37 10000 5.1 350 22:18 07.04.2020
5128 Rain 11 1022 37 10000 7.2 10 21:42 07.04.2020
5129 Rain 12 1022 37 10000 5.1 360 21:22 07.04.2020
5130 Rain 12 1021 37 10000 7.7 350 20:59 07.04.2020
5131 Clouds 12 1021 37 10000 7.7 350 20:41 07.04.2020
5132 Clouds 12 1021 37 10000 7.7 360 20:21 07.04.2020
5133 Clouds 12 1022 37 10000 6.7 350 19:58 07.04.2020
5134 Clouds 12 1021 55 10000 6.2 350 19:38 07.04.2020
5135 Clouds 12 1021 55 10000 6.2 350 19:38 07.04.2020
5136 Rain 12 1021 55 10000 6.2 350 19:20 07.04.2020
5137 Rain 12 1020 43 10000 6.2 350 18:59 07.04.2020
5138 Rain 12 1020 43 10000 6.2 350 18:40 07.04.2020
5139 Rain 12 1021 43 10000 6.2 340 18:21 07.04.2020
5140 Rain 12 1021 50 10000 5.1 340 17:47 07.04.2020
5141 Clouds 12 1021 54 10000 6.2 340 17:25 07.04.2020
5142 Clouds 12 1021 54 10000 6.7 350 16:59 07.04.2020
5143 Clouds 12 1020 54 10000 6.2 350 16:41 07.04.2020
5144 Clouds 12 1020 54 10000 6.2 350 16:22 07.04.2020
5145 Clouds 12 1021 58 10000 5.1 330 15:44 07.04.2020
5146 Clouds 12 1021 58 10000 6.2 340 15:26 07.04.2020
5147 Clouds 11 1021 62 10000 5.7 330 14:55 07.04.2020
5148 Clouds 11 1021 62 10000 5.7 330 14:37 07.04.2020
5149 Clouds 11 1022 57 10000 8.2 350 14:18 07.04.2020
5150 Clouds 10 1022 66 10000 7.2 360 13:42 07.04.2020
5151 Clouds 10 1022 66 10000 8.7 360 13:19 07.04.2020
5152 Clouds 10 1023 66 10000 5.1 350 12:57 07.04.2020
5153 Clouds 10 1023 66 10000 5.1 350 12:57 07.04.2020
5154 Clouds 9 1023 66 10000 5.1 350 12:38 07.04.2020
5155 Clouds 9 1023 66 10000 5.1 350 12:20 07.04.2020
5156 Clouds 9 1023 70 10000 4.1 340 11:57 07.04.2020
5157 Rain 9 1023 70 10000 4.1 340 11:39 07.04.2020
5158 Drizzle 9 1023 76 8000 3.1 350 11:19 07.04.2020
5159 Rain 9 1023 76 9000 5.1 340 10:39 07.04.2020
5160 Rain 9 1022 76 8000 7.7 360 10:20 07.04.2020
5161 Rain 9 1022 81 7000 4.6 350 09:56 07.04.2020
5162 Rain 8 1022 81 7000 4.6 350 09:37 07.04.2020
5163 Rain 8 1022 81 6000 6.2 350 09:18 07.04.2020
5164 Rain 8 1022 75 8000 7.7 350 08:40 07.04.2020
5165 Rain 8 1021 75 10000 7.7 340 08:20 07.04.2020
5166 Clouds 8 1021 70 10000 5.1 340 07:46 07.04.2020
5167 Clouds 9 1021 70 10000 6.2 330 07:26 07.04.2020
5168 Clouds 9 1021 70 10000 7.7 330 06:53 07.04.2020
5169 Clouds 9 1021 70 10000 9.3 340 06:26 07.04.2020
5170 Clouds 9 1021 70 10000 6.2 340 05:59 07.04.2020
5171 Clouds 9 1020 70 10000 5.1 310 05:26 07.04.2020
5172 Clouds 9 1021 70 0 6.2 340 04:22 07.04.2020
5173 Clouds 8 1021 70 0 4.6 310 03:23 07.04.2020
5174 Clouds 8 1021 70 0 5.1 330 02:47 07.04.2020
5175 Rain 9 1022 70 0 5.1 320 01:43 07.04.2020
5176 Rain 9 1022 70 0 4.1 340 01:22 07.04.2020
5177 Clouds 9 1022 66 0 5.1 290 00:26 07.04.2020
5178 Rain 9 1022 66 0 6.7 330 23:44 06.04.2020
5179 Clouds 9 1021 66 10000 6.2 340 23:22 06.04.2020
5180 Clouds 9 1021 66 10000 5.1 350 22:56 06.04.2020
5181 Clouds 9 1021 66 10000 5.1 350 22:37 06.04.2020
5182 Clouds 9 1021 66 10000 6.2 340 22:19 06.04.2020
5183 Clouds 9 1021 66 10000 5.1 340 21:56 06.04.2020
5184 Clouds 9 1021 66 10000 5.1 340 21:37 06.04.2020
5185 Clouds 9 1021 71 10000 5.7 340 21:18 06.04.2020
5186 Clouds 9 1021 71 10000 5.1 350 20:41 06.04.2020
5187 Drizzle 9 1021 71 10000 6.2 330 20:21 06.04.2020
5188 Drizzle 9 1020 71 10000 5.1 330 19:58 06.04.2020
5189 Drizzle 9 1020 71 10000 5.1 330 19:58 06.04.2020
5190 Drizzle 9 1020 71 10000 5.1 330 19:39 06.04.2020
5191 Drizzle 9 1021 71 10000 6.2 340 19:20 06.04.2020
5192 Drizzle 9 1021 81 10000 6.7 330 18:54 06.04.2020
5193 Drizzle 9 1021 81 10000 6.7 330 18:36 06.04.2020
5194 Drizzle 9 1021 81 10000 7.7 330 18:18 06.04.2020
5195 Drizzle 10 1020 76 9000 7.7 340 17:41 06.04.2020
5196 Drizzle 10 1020 76 8000 7.2 330 17:19 06.04.2020
5197 Drizzle 10 1020 76 8000 7.2 330 16:50 06.04.2020
5198 Drizzle 10 1021 76 8000 5.1 330 16:31 06.04.2020
5199 Drizzle 10 1021 81 8000 6.7 330 15:40 06.04.2020
5200 Drizzle 10 1021 81 8000 6.7 330 15:40 06.04.2020
5201 Drizzle 11 1021 71 10000 7.2 340 13:45 06.04.2020
5202 Drizzle 11 1021 71 10000 7.2 340 13:23 06.04.2020
5203 Drizzle 11 1021 71 10000 5.7 340 12:54 06.04.2020
5204 Drizzle 11 1021 71 10000 5.7 340 12:54 06.04.2020
5205 Drizzle 11 1021 71 10000 5.7 340 12:54 06.04.2020
5206 Drizzle 11 1021 71 10000 5.7 340 12:54 06.04.2020
5207 Rain 10 1021 71 10000 6.7 340 12:21 06.04.2020
5208 Rain 10 1021 71 10000 6.7 340 12:21 06.04.2020
5209 Clouds 10 1021 71 10000 6.7 340 11:54 06.04.2020
5210 Clouds 10 1021 71 10000 6.7 340 11:54 06.04.2020
5211 Clouds 10 1021 71 10000 6.7 340 11:54 06.04.2020
5212 Clouds 10 1021 71 10000 6.7 340 11:54 06.04.2020
5213 Clouds 10 1021 71 10000 6.7 340 11:54 06.04.2020
5214 Rain 10 1020 71 10000 6.2 350 11:31 06.04.2020
5215 Rain 10 1020 71 10000 6.2 350 11:31 06.04.2020
5216 Clouds 10 1020 71 10000 6.2 350 11:31 06.04.2020
5217 Clouds 10 1020 71 10000 6.2 350 11:31 06.04.2020
5218 Clouds 10 1020 71 10000 6.2 350 11:30 06.04.2020
5219 Rain 10 1020 71 10000 5.1 340 10:50 06.04.2020
5220 Rain 10 1020 71 10000 4.1 330 10:50 06.04.2020
5221 Rain 10 1020 71 10000 4.1 330 10:50 06.04.2020
5222 Rain 10 1020 71 10000 4.1 330 10:50 06.04.2020
5223 Rain 10 1020 71 10000 5.1 340 10:50 06.04.2020
5224 Clouds 10 1020 66 10000 10.8 10 10:21 06.04.2020
5225 Clouds 10 1019 71 10000 5.7 340 09:47 06.04.2020
5226 Clouds 10 1019 71 10000 5.7 340 09:47 06.04.2020
5227 Clouds 10 1019 71 10000 5.7 340 09:47 06.04.2020
5228 Clouds 10 1019 71 10000 5.7 340 09:47 06.04.2020
5229 Clouds 10 1019 71 10000 5.7 340 09:47 06.04.2020
5230 -273 0 0 0 0 0 09:20 06.04.2020
5231 Clouds 10 1019 71 10000 5.1 330 08:53 06.04.2020
5232 Rain 10 1019 71 10000 6.7 330 08:30 06.04.2020
5233 Drizzle 10 1018 71 10000 8.2 340 07:30 06.04.2020
5234 Drizzle 10 1018 71 10000 8.2 340 07:30 06.04.2020
5235 Drizzle 10 1018 71 10000 8.2 340 07:30 06.04.2020
5236 Drizzle 9 1017 71 10000 7.7 340 06:41 06.04.2020
5237 Drizzle 10 1017 71 10000 7.7 340 06:22 06.04.2020
5238 Rain 9 1016 76 0 6.7 340 04:18 06.04.2020
5239 Rain 10 1016 76 0 5.7 10 02:57 06.04.2020
5240 Rain 10 1016 81 0 6.2 310 02:18 06.04.2020
5241 Rain 10 1016 81 0 7.2 330 01:23 06.04.2020
5242 Rain 10 1016 81 0 5.1 300 00:41 06.04.2020
5243 Rain 10 1016 81 0 5.7 320 00:21 06.04.2020
5244 Rain 10 1016 81 0 5.1 300 00:21 06.04.2020
5245 Rain 10 1015 81 0 5.1 340 23:43 05.04.2020
5246 Rain 10 1015 81 0 5.1 340 23:24 05.04.2020
5247 Rain 10 1015 81 0 5.1 340 23:24 05.04.2020
5248 Rain 10 1015 81 9000 7.7 330 22:55 05.04.2020
5249 Rain 10 1015 81 8000 7.7 330 22:37 05.04.2020
5250 Rain 10 1015 81 8000 6.7 330 22:18 05.04.2020
5251 Rain 10 1014 87 8000 7.7 330 21:45 05.04.2020
5252 Rain 10 1014 87 8000 7.7 330 21:45 05.04.2020
5253 Rain 10 1014 87 8000 7.7 330 21:23 05.04.2020
5254 Rain 10 1013 87 8000 8.2 340 20:26 05.04.2020
5255 Rain 10 1013 81 8000 7.7 340 19:59 05.04.2020
5256 Rain 11 1012 81 8000 7.7 330 19:37 05.04.2020
5257 Rain 11 1012 81 8000 8.2 330 19:19 05.04.2020
5258 Rain 11 1011 81 7000 8.7 330 18:44 05.04.2020
5259 Rain 11 1011 81 7000 8.7 330 18:44 05.04.2020
5260 Rain 11 1011 81 7000 8.7 330 18:43 05.04.2020
5261 Rain 12 1010 81 7000 10.3 330 17:51 05.04.2020
5262 Rain 12 1010 81 7000 10.3 330 17:51 05.04.2020
5263 Rain 12 1010 81 7000 10.3 330 17:51 05.04.2020
5264 Rain 12 1010 81 7000 10.3 330 17:51 05.04.2020
5265 Rain 12 1010 81 7000 10.3 330 17:51 05.04.2020
5266 Rain 12 1010 81 7000 10.3 330 17:23 05.04.2020
5267 Drizzle 13 1009 76 9000 9.3 330 16:47 05.04.2020
5268 Drizzle 13 1009 76 9000 9.3 330 16:20 05.04.2020
5269 Drizzle 13 1009 76 9000 9.3 330 16:20 05.04.2020
5270 Rain 13 1009 71 9000 9.3 330 15:49 05.04.2020
5271 Rain 13 1009 71 9000 8.7 320 15:30 05.04.2020
5272 Rain 13 1009 71 8000 8.2 320 14:48 05.04.2020
5273 Drizzle 13 1008 81 8000 10.3 320 14:24 05.04.2020
5274 Drizzle 13 1008 76 6000 9.3 320 13:41 05.04.2020
5275 Rain 13 1008 81 9000 7.2 330 12:48 05.04.2020
5276 Rain 13 1008 81 9000 7.2 330 12:48 05.04.2020
5277 Rain 13 1007 76 9000 6.7 320 11:41 05.04.2020
5278 Rain 13 1007 76 9000 6.7 320 11:20 05.04.2020
5279 Clouds 13 1007 76 10000 3.6 310 10:48 05.04.2020
5280 Clouds 13 1007 76 10000 3.6 310 10:24 05.04.2020
5281 Clouds 13 1007 76 10000 3.6 310 10:24 05.04.2020
5282 Clouds 13 1007 76 10000 3.6 310 10:24 05.04.2020
5283 Clouds 13 1007 76 10000 3.6 310 10:24 05.04.2020
5284 Clouds 14 1007 76 10000 3.6 310 10:24 05.04.2020
5285 Clouds 13 1007 76 10000 5.1 310 09:56 05.04.2020
5286 Clouds 13 1007 76 10000 5.1 310 09:56 05.04.2020
5287 Rain 13 1006 67 10000 5.1 310 09:31 05.04.2020
5288 Rain 13 1006 67 10000 5.1 310 09:31 05.04.2020
5289 Rain 13 1006 71 10000 4.6 320 08:53 05.04.2020
5290 Clouds 13 1006 71 10000 4.6 320 08:53 05.04.2020
5291 Rain 13 1006 71 10000 4.6 320 08:53 05.04.2020
5292 Rain 13 1006 71 10000 4.6 320 08:53 05.04.2020
5293 Rain 13 1006 71 10000 4.6 320 08:53 05.04.2020
5294 Clouds 11 1005 76 10000 5.7 320 07:24 05.04.2020
5295 Clouds 11 1005 76 10000 5.7 320 07:24 05.04.2020
5296 Clouds 11 1005 76 10000 5.7 320 07:24 05.04.2020
5297 Clouds 10 1004 76 10000 5.1 340 04:33 05.04.2020
5298 Clouds 10 1004 76 10000 4.6 330 03:30 05.04.2020
5299 Rain 10 1004 81 10000 4.1 320 02:49 05.04.2020
5300 Rain 10 1004 81 10000 5.1 360 01:46 05.04.2020
5301 Rain 10 1004 81 10000 5.1 360 01:25 05.04.2020
5302 Rain 10 1006 93 8000 7.7 360 00:43 05.04.2020
5303 Rain 10 1006 93 8000 7.7 360 00:21 05.04.2020
5304 Rain 10 1005 81 10000 3.6 310 23:42 04.04.2020
5305 Rain 11 1005 81 10000 3.6 310 23:23 04.04.2020
5306 Rain 11 1006 81 10000 4.1 310 22:57 04.04.2020
5307 Rain 11 1005 87 8000 6.2 350 22:39 04.04.2020
5308 Rain 11 1005 87 8000 6.2 350 22:21 04.04.2020
5309 Rain 11 1005 81 10000 7.7 360 21:58 04.04.2020
5310 Rain 11 1005 76 10000 8.2 360 21:39 04.04.2020
5311 Rain 11 1005 76 10000 7.7 350 21:19 04.04.2020
5312 Rain 12 1005 76 10000 7.7 350 20:58 04.04.2020
5313 Rain 12 1005 81 10000 6.2 350 20:39 04.04.2020
5314 Rain 12 1005 81 10000 6.2 350 20:20 04.04.2020
5315 Rain 12 1005 87 8000 7.2 330 19:56 04.04.2020
5316 Rain 12 1004 81 9000 7.7 340 19:37 04.04.2020
5317 Rain 12 1005 81 9000 6.7 340 19:18 04.04.2020
5318 Rain 12 1005 81 9000 6.7 340 18:55 04.04.2020
5319 Rain 12 1005 76 10000 7.7 340 18:37 04.04.2020
5320 Rain 12 1004 81 10000 8.7 340 18:18 04.04.2020
5321 Rain 12 1005 76 10000 7.7 340 17:40 04.04.2020
5322 Rain 12 1005 76 10000 7.2 330 17:20 04.04.2020
5323 Rain 13 1005 76 10000 7.2 330 16:55 04.04.2020
5324 Rain 13 1005 76 10000 6.2 320 16:37 04.04.2020
5325 Rain 13 1005 76 10000 6.2 320 16:37 04.04.2020
5326 Rain 13 1006 81 8000 5.7 340 16:18 04.04.2020
5327 Rain 12 1006 81 8000 5.7 340 15:40 04.04.2020
5328 Rain 12 1006 81 8000 5.7 340 15:22 04.04.2020
5329 Rain 12 1006 81 9000 7.7 330 14:57 04.04.2020
5330 Rain 12 1006 87 8000 6.7 330 14:39 04.04.2020
5331 Rain 12 1006 87 8000 6.7 330 14:21 04.04.2020
5332 Rain 12 1007 81 8000 5.1 340 13:55 04.04.2020
5333 Rain 12 1008 81 9000 5.1 330 13:37 04.04.2020
5334 Rain 12 1008 81 9000 4.1 320 13:18 04.04.2020
5335 Rain 12 1007 81 10000 3.6 320 12:44 04.04.2020
5336 Rain 12 1008 76 10000 1.5 0 12:23 04.04.2020
5337 Rain 12 1008 76 10000 1.5 0 12:23 04.04.2020
5338 Rain 12 1008 76 10000 1.5 0 11:55 04.04.2020
5339 Rain 12 1008 87 10000 1.5 0 11:37 04.04.2020
5340 Rain 12 1010 93 10000 1.5 0 11:18 04.04.2020
5341 Rain 12 1011 81 9000 7.7 30 10:55 04.04.2020
5342 Rain 12 1010 93 10000 1.5 0 10:37 04.04.2020
5343 Rain 12 1010 93 9000 6.03 6 10:18 04.04.2020
5344 Rain 11 1010 93 9000 6.03 6 09:54 04.04.2020
5345 Rain 11 1010 93 10000 1.5 0 09:36 04.04.2020
5346 Clouds 11 1009 93 10000 5.74 360 09:18 04.04.2020
5347 Clouds 11 1009 100 10000 1.5 0 08:38 04.04.2020
5348 Clouds 11 1009 100 10000 1.5 0 08:19 04.04.2020
5349 Rain 10 1010 93 10000 5.86 352 07:41 04.04.2020
5350 Rain 10 1010 93 10000 5.86 352 07:23 04.04.2020
5351 Rain 10 1010 100 8000 3.1 290 06:47 04.04.2020
5352 Rain 10 1009 93 8000 3.81 9 06:18 04.04.2020
5353 Rain 10 1010 93 8000 2.1 320 05:41 04.04.2020
5354 Rain 10 1010 93 8000 2.1 320 05:23 04.04.2020
5355 Rain 10 1010 93 0 1.5 0 04:27 04.04.2020
5356 Rain 10 1011 93 0 1.5 0 03:49 04.04.2020
5357 Rain 10 1011 87 0 0.5 0 02:50 04.04.2020
5358 Rain 10 1011 87 0 0.5 0 02:32 04.04.2020
5359 Rain 10 1012 87 8000 2.53 20 01:53 04.04.2020
5360 Rain 10 1012 87 8000 2.53 20 01:24 04.04.2020
5361 Rain 10 1013 81 0 1 0 00:48 04.04.2020
5362 Rain 10 1013 81 0 1 0 00:28 04.04.2020
5363 Clouds 10 1013 87 0 2.1 360 23:39 03.04.2020
5364 Clouds 10 1013 87 0 2.1 360 23:21 03.04.2020
5365 Clouds 10 1014 81 10000 3.08 12 22:57 03.04.2020
5366 Clouds 10 1014 87 10000 3.08 12 22:39 03.04.2020
5367 Clouds 10 1014 87 10000 3.08 12 22:18 03.04.2020
5368 Clouds 10 1014 76 10000 2.6 70 21:43 03.04.2020
5369 Clouds 10 1014 76 10000 2.6 70 21:24 03.04.2020
5370 Clouds 10 1014 76 10000 2.6 70 20:57 03.04.2020
5371 Clouds 10 1014 76 10000 2.6 70 20:57 03.04.2020
5372 Clouds 10 1014 81 10000 2.1 60 20:37 03.04.2020
5373 Clouds 10 1014 81 10000 2.1 90 20:19 03.04.2020
5374 Clouds 10 1014 81 10000 2.1 90 19:57 03.04.2020
5375 Clouds 10 1014 81 10000 3.1 100 19:38 03.04.2020
5376 Clouds 10 1013 81 10000 3.6 80 19:20 03.04.2020
5377 Clouds 10 1013 81 10000 3.6 80 18:58 03.04.2020
5378 Clouds 10 1013 81 10000 4.1 80 18:40 03.04.2020
5379 Clouds 11 1013 81 10000 4.1 80 18:22 03.04.2020
5380 Clouds 11 1013 76 10000 4.1 80 17:55 03.04.2020
5381 Clouds 11 1013 76 10000 4.1 80 17:36 03.04.2020
5382 Clouds 11 1013 76 10000 2.6 70 17:18 03.04.2020
5383 Clouds 11 1013 76 10000 0.76 95 16:43 03.04.2020
5384 Clouds 11 1013 76 10000 0.76 95 16:21 03.04.2020
5385 Rain 11 1014 87 9000 0.76 95 15:58 03.04.2020
5386 Rain 11 1014 81 8000 0.76 95 15:39 03.04.2020
5387 -273 0 0 0 0 0 15:20 03.04.2020
5388 Rain 11 1015 79 0 0.45 258 14:55 03.04.2020
5389 Drizzle 11 1016 71 10000 1.5 0 14:37 03.04.2020
5390 Drizzle 11 1016 71 10000 1.5 0 14:19 03.04.2020
5391 Rain 11 1015 76 8000 1.05 142 13:42 03.04.2020
5392 Rain 11 1015 76 8000 1.05 142 13:24 03.04.2020
5393 Rain 12 1015 71 8000 1.05 142 12:45 03.04.2020
5394 Rain 12 1015 62 10000 1.27 145 12:21 03.04.2020
5395 Rain 12 1015 62 10000 1.27 145 11:57 03.04.2020
5396 Rain 12 1015 62 10000 1.27 145 11:57 03.04.2020
5397 Clouds 12 1016 62 10000 2.1 180 11:39 03.04.2020
5398 Clouds 12 1016 62 10000 2.1 180 11:21 03.04.2020
5399 Clouds 12 1016 62 10000 2.1 180 11:21 03.04.2020
5400 Clouds 12 1015 62 10000 2.1 70 10:59 03.04.2020
5401 Clouds 12 1016 66 10000 1.27 145 10:39 03.04.2020
5402 Clouds 12 1016 66 10000 1.27 145 10:20 03.04.2020
5403 Clouds 12 1016 66 10000 1.27 145 09:59 03.04.2020
5404 Clouds 11 1015 66 10000 1.27 145 09:40 03.04.2020
5405 Clouds 11 1015 71 10000 1.86 53 09:22 03.04.2020
5406 Clouds 10 1015 71 10000 1.71 47 08:57 03.04.2020
5407 Clouds 10 1015 71 10000 1.71 47 08:38 03.04.2020
5408 Clouds 10 1015 70 10000 1.71 47 08:20 03.04.2020
5409 Clouds 10 1015 76 10000 1.71 47 07:48 03.04.2020
5410 Clouds 10 1015 76 10000 1.71 47 07:29 03.04.2020
5411 Clouds 9 1015 75 10000 1.71 47 06:42 03.04.2020
5412 Clouds 9 1014 81 10000 1.71 47 06:23 03.04.2020
5413 Clouds 9 1014 75 10000 1.5 0 05:39 03.04.2020
5414 Clouds 8 1014 81 10000 1.5 0 03:42 03.04.2020
5415 Clouds 8 1014 81 10000 1.5 0 02:56 03.04.2020
5416 Clouds 8 1014 81 10000 3.04 23 02:18 03.04.2020
5417 Clouds 9 1014 75 10000 1.5 0 01:22 03.04.2020
5418 Clouds 9 1014 70 10000 3.04 23 00:37 03.04.2020
5419 Clouds 9 1014 70 10000 1.5 0 00:19 03.04.2020
5420 Clouds 9 1014 70 10000 1.5 0 23:42 02.04.2020
5421 Clouds 9 1014 70 10000 1.5 0 23:23 02.04.2020
5422 Clouds 9 1014 66 10000 1.5 0 22:58 02.04.2020
5423 Clouds 10 1014 61 10000 1.5 0 22:38 02.04.2020
5424 Clouds 10 1013 61 10000 1.5 0 22:20 02.04.2020
5425 Clouds 10 1013 61 10000 1.5 0 21:39 02.04.2020
5426 Clouds 10 1013 57 10000 2.6 330 21:20 02.04.2020
5427 Clouds 10 1013 57 10000 2.6 330 20:58 02.04.2020
5428 Clouds 10 1013 57 10000 3.1 310 20:40 02.04.2020
5429 Clouds 11 1013 57 10000 3.1 310 20:21 02.04.2020
5430 Clouds 11 1012 58 10000 2.1 340 19:44 02.04.2020
5431 Rain 11 1012 58 10000 2.1 340 19:21 02.04.2020
5432 Rain 12 1012 50 10000 3.6 330 18:59 02.04.2020
5433 Rain 12 1011 50 10000 2.6 360 18:41 02.04.2020
5434 Clouds 13 1011 50 10000 2.6 360 18:20 02.04.2020
5435 Clouds 13 1011 47 10000 3.6 340 17:57 02.04.2020
5436 Clouds 13 1011 41 10000 4.6 340 17:39 02.04.2020
5437 Clouds 14 1011 41 10000 4.6 340 17:20 02.04.2020
5438 Clouds 14 1011 44 10000 4.1 350 16:56 02.04.2020
5439 Clouds 14 1010 41 10000 4.1 330 16:37 02.04.2020
5440 Clouds 14 1010 41 10000 4.1 330 16:19 02.04.2020
5441 Clouds 14 1011 50 10000 4.6 350 15:54 02.04.2020
5442 Clouds 14 1010 44 10000 5.1 330 15:36 02.04.2020
5443 Clouds 14 1010 36 10000 4.6 320 15:18 02.04.2020
5444 Clouds 14 1010 38 10000 3.1 330 14:40 02.04.2020
5445 Clouds 14 1010 38 10000 3.1 330 14:40 02.04.2020
5446 Clouds 14 1011 44 10000 6.2 300 14:20 02.04.2020
5447 Clouds 14 1010 38 10000 3.1 330 13:58 02.04.2020
5448 Clouds 13 1010 38 10000 3.6 330 13:39 02.04.2020
5449 Clouds 14 1010 41 10000 5.1 320 13:21 02.04.2020
5450 Clouds 14 1010 41 10000 5.1 320 12:56 02.04.2020
5451 Clouds 14 1010 41 10000 5.1 320 12:56 02.04.2020
5452 Clouds 13 1010 41 10000 5.1 320 12:37 02.04.2020
5453 Clouds 13 1010 44 10000 3.6 350 12:19 02.04.2020
5454 Clouds 13 1010 44 10000 3.6 350 11:57 02.04.2020
5455 Clouds 13 1010 47 10000 3.1 340 11:38 02.04.2020
5456 Clouds 12 1010 50 10000 4.1 340 11:19 02.04.2020
5457 Clouds 12 1010 50 10000 4.1 340 11:19 02.04.2020
5458 Clouds 12 1010 50 10000 4.1 340 10:55 02.04.2020
5459 Clouds 12 1010 50 10000 4.1 340 10:55 02.04.2020
5460 Clouds 12 1010 47 10000 3.6 330 10:37 02.04.2020
5461 Clouds 12 1009 43 10000 3.1 320 10:18 02.04.2020
5462 Clouds 12 1009 43 10000 3.6 320 09:43 02.04.2020
5463 Clouds 11 1009 43 10000 3.6 320 09:25 02.04.2020
5464 Clouds 11 1009 46 10000 4.1 310 08:58 02.04.2020
5465 Clouds 11 1008 53 10000 1.5 330 08:40 02.04.2020
5466 Clouds 10 1008 53 10000 1.5 330 08:22 02.04.2020
5467 Clouds 10 1008 61 10000 1.5 300 07:44 02.04.2020
5468 Clouds 9 1008 57 10000 2.1 310 07:20 02.04.2020
5469 Clouds 9 1008 57 10000 2.1 310 06:58 02.04.2020
5470 Clouds 9 1008 57 10000 3.6 320 06:21 02.04.2020
5471 Clouds 9 1007 57 10000 6.54 300 05:44 02.04.2020
5472 Clouds 10 1007 61 10000 2.6 290 03:57 02.04.2020
5473 Clouds 11 1007 62 10000 5.1 300 01:34 02.04.2020
5474 Clouds 12 1007 66 10000 4.1 290 00:48 02.04.2020
5475 Clouds 12 1007 66 10000 4.1 290 00:26 02.04.2020
5476 Clouds 12 1007 76 10000 4.1 290 23:54 01.04.2020
5477 Clouds 13 1007 87 10000 1.66 200 23:36 01.04.2020
5478 Clouds 13 1007 87 8000 1.66 200 23:18 01.04.2020
5479 Clouds 13 1007 87 8000 1.66 200 22:40 01.04.2020
5480 Clouds 13 1008 82 8000 1.66 200 22:21 01.04.2020
5481 Clouds 13 1008 82 8000 1.66 200 21:55 01.04.2020
5482 Clouds 13 1008 82 8000 1.66 200 21:36 01.04.2020
5483 Clouds 13 1008 82 8000 4.98 155 21:18 01.04.2020
5484 Clouds 13 1008 82 8000 4.98 155 20:54 01.04.2020
5485 Clouds 12 1008 82 8000 4.98 155 20:36 01.04.2020
5486 Clouds 13 1008 82 8000 4.98 155 20:18 01.04.2020
5487 Clouds 13 1009 82 8000 4.98 155 19:41 01.04.2020
5488 Clouds 13 1009 82 8000 4.98 155 19:21 01.04.2020
5489 Rain 13 1009 82 7000 2.1 140 18:46 01.04.2020
5490 Rain 13 1009 82 7000 2.1 140 18:27 01.04.2020
5491 Rain 13 1009 76 8000 3.1 170 17:59 01.04.2020
5492 Rain 13 1009 76 8000 3.1 170 17:59 01.04.2020
5493 Clouds 14 1009 76 10000 3.6 150 17:39 01.04.2020
5494 Clouds 14 1009 76 10000 3.6 150 17:20 01.04.2020
5495 Clouds 13 1009 72 10000 4.6 150 16:59 01.04.2020
5496 Rain 13 1010 82 9000 2.6 160 16:41 01.04.2020
5497 Rain 14 1010 82 9000 2.6 160 16:22 01.04.2020
5498 Rain 13 1010 76 8000 5.7 170 15:58 01.04.2020
5499 Clouds 14 1010 67 10000 5.1 170 15:38 01.04.2020
5500 Clouds 14 1010 67 10000 5.1 170 15:38 01.04.2020
5501 Clouds 14 1010 67 10000 5.1 170 15:20 01.04.2020
5502 Clouds 14 1010 63 10000 6.2 170 14:57 01.04.2020
5503 Clouds 14 1010 63 10000 5.1 180 14:38 01.04.2020
5504 Clouds 15 1010 55 10000 4.6 180 14:19 01.04.2020
5505 Clouds 15 1012 58 10000 4.1 90 13:57 01.04.2020
5506 Clouds 15 1010 59 10000 4.1 160 13:37 01.04.2020
5507 Clouds 15 1011 63 10000 3.1 170 13:18 01.04.2020
5508 Clouds 15 1011 63 10000 3.1 170 12:54 01.04.2020
5509 Clouds 15 1011 59 10000 3.1 180 12:36 01.04.2020
5510 Clouds 14 1012 59 10000 2.1 160 12:18 01.04.2020
5511 Clouds 14 1012 59 10000 2.6 140 11:40 01.04.2020
5512 Clouds 13 1012 59 10000 2.6 140 11:21 01.04.2020
5513 Clouds 13 1012 62 10000 2.6 140 10:57 01.04.2020
5514 Clouds 13 1012 62 10000 3.1 110 10:37 01.04.2020
5515 Clouds 13 1012 58 10000 1.5 0 10:18 01.04.2020
5516 Clouds 13 1012 58 10000 1.5 0 09:55 01.04.2020
5517 Clouds 13 1012 62 10000 1.5 0 09:37 01.04.2020
5518 Clouds 12 1013 66 9000 1.5 0 09:18 01.04.2020
5519 Clouds 11 1013 71 9000 4.05 17 08:40 01.04.2020
5520 Clouds 11 1013 81 10000 4.05 17 08:18 01.04.2020
5521 Clouds 11 1012 87 10000 4.05 17 07:42 01.04.2020
5522 Clouds 10 1012 93 10000 4.05 17 07:20 01.04.2020
5523 Clouds 9 1012 93 10000 1.5 0 06:47 01.04.2020
5524 Clouds 9 1012 93 10000 1.5 0 06:23 01.04.2020
5525 Clouds 9 1012 93 10000 3.95 15 05:55 01.04.2020
5526 Clouds 10 1012 93 10000 3.95 15 04:30 01.04.2020
5527 Clouds 10 1012 87 10000 3.95 15 03:28 01.04.2020
5528 Clouds 10 1012 87 10000 4.51 10 02:49 01.04.2020
5529 Clear 11 1012 87 10000 4.58 9 01:56 01.04.2020
5530 Clear 11 1013 87 10000 4.58 9 01:37 01.04.2020
5531 Clear 11 1013 81 10000 4.58 9 01:18 01.04.2020
5532 Clear 11 1013 81 10000 4.58 9 00:45 01.04.2020
5533 Clouds 11 1013 76 10000 4.92 9 00:19 01.04.2020
5534 Clouds 11 1013 76 10000 4.92 9 23:42 31.03.2020
5535 Clouds 12 1013 76 10000 4.92 9 23:23 31.03.2020
5536 Clouds 12 1013 76 10000 4.92 9 22:58 31.03.2020
5537 Clouds 12 1013 76 10000 4.92 9 22:37 31.03.2020
5538 Clouds 12 1012 71 10000 4.92 9 22:19 31.03.2020
5539 Clouds 12 1012 71 10000 4.92 9 21:56 31.03.2020
5540 Clouds 12 1012 66 10000 1.5 0 21:37 31.03.2020
5541 Clouds 13 1012 62 10000 5.27 9 21:19 31.03.2020
5542 Clouds 13 1012 67 10000 2.6 340 20:55 31.03.2020
5543 Clouds 13 1011 62 10000 2.1 350 20:36 31.03.2020
5544 Clouds 14 1011 62 10000 2.1 350 20:18 31.03.2020
5545 Clouds 14 1011 62 10000 2.1 350 20:18 31.03.2020
5546 Clouds 14 1011 58 10000 2.1 350 19:41 31.03.2020
5547 Clouds 14 1010 55 10000 2.1 360 19:22 31.03.2020
5548 Clouds 15 1010 55 10000 2.1 360 18:58 31.03.2020
5549 Clouds 15 1010 48 10000 1.5 350 18:39 31.03.2020
5550 Clouds 17 1010 42 10000 3.1 350 18:18 31.03.2020
5551 Clouds 17 1010 42 10000 3.1 350 17:55 31.03.2020
5552 Clouds 17 1010 34 10000 5.1 360 17:37 31.03.2020
5553 Clouds 17 1010 34 10000 4.1 340 17:18 31.03.2020
5554 Clouds 17 1009 32 10000 5.1 350 16:40 31.03.2020
5555 Clouds 18 1009 32 10000 6.2 360 16:19 31.03.2020
5556 Clouds 18 1009 32 10000 6.2 360 15:57 31.03.2020
5557 Clouds 18 1009 30 10000 5.1 340 15:39 31.03.2020
5558 Clouds 18 1010 37 10000 6.2 350 15:20 31.03.2020
5559 Clouds 18 1010 37 10000 6.2 350 14:57 31.03.2020
5560 Clouds 18 1010 40 10000 5.1 340 14:38 31.03.2020
5561 Clouds 18 1010 40 10000 6.2 350 14:20 31.03.2020
5562 Clouds 18 1010 42 10000 6.2 350 13:43 31.03.2020
5563 Clouds 18 1010 42 10000 6.2 360 13:20 31.03.2020
5564 Clouds 18 1010 42 10000 6.2 360 12:57 31.03.2020
5565 Clouds 18 1010 42 10000 6.2 330 12:39 31.03.2020
5566 Clouds 17 1010 45 10000 6.2 340 12:19 31.03.2020
5567 Clouds 17 1010 48 10000 5.1 340 11:40 31.03.2020
5568 Clouds 17 1011 48 10000 4.1 330 11:20 31.03.2020
5569 Clouds 17 1011 48 10000 4.1 330 10:59 31.03.2020
5570 Clouds 17 1011 51 10000 5.1 350 10:40 31.03.2020
5571 Clouds 17 1011 51 10000 6.2 340 10:22 31.03.2020
5572 Clouds 16 1011 51 10000 6.2 340 09:59 31.03.2020
5573 Clouds 16 1010 51 10000 6.2 330 09:40 31.03.2020
5574 Clouds 15 1011 48 10000 8.7 30 09:22 31.03.2020
5575 Clouds 14 1010 51 10000 6.2 340 08:57 31.03.2020
5576 Clouds 13 1010 51 10000 6.2 340 08:38 31.03.2020
5577 Clouds 14 1010 47 10000 5.1 350 08:19 31.03.2020
5578 Clouds 14 1010 47 10000 5.1 350 08:19 31.03.2020
5579 Clouds 13 1010 47 10000 5.1 350 07:56 31.03.2020
5580 Clouds 13 1009 50 10000 4.1 350 07:37 31.03.2020
5581 Clouds 13 1009 50 10000 4.1 350 07:18 31.03.2020
5582 Clouds 12 1009 50 10000 5.1 340 06:45 31.03.2020
5583 Clouds 12 1009 50 10000 4.6 330 06:18 31.03.2020
5584 Clouds 12 1009 50 10000 4.1 350 05:39 31.03.2020
5585 Clouds 12 1009 70 10000 4.69 354 03:34 31.03.2020
5586 Clouds 12 1009 70 10000 3.67 1 01:59 31.03.2020
5587 Clouds 12 1009 66 10000 1.5 0 01:40 31.03.2020
5588 Clouds 12 1010 66 10000 1.5 0 00:47 31.03.2020
5589 Clouds 12 1011 76 10000 2.1 270 00:25 31.03.2020
5590 Clouds 12 1010 66 10000 1.5 0 23:56 30.03.2020
5591 Clouds 12 1010 66 10000 1.5 0 23:37 30.03.2020
5592 Clouds 12 1010 66 10000 1.5 0 23:18 30.03.2020
5593 Clouds 12 1010 66 10000 1.5 0 22:55 30.03.2020
5594 Clouds 12 1010 76 10000 1.5 0 22:36 30.03.2020
5595 Clouds 12 1010 76 10000 1.5 0 22:18 30.03.2020
5596 Clouds 13 1010 76 10000 1.5 0 21:54 30.03.2020
5597 Clouds 13 1010 76 10000 1.5 0 21:36 30.03.2020
5598 Clouds 13 1009 87 10000 1.5 0 21:18 30.03.2020
5599 Clouds 13 1009 67 10000 1.5 0 20:40 30.03.2020
5600 Clouds 13 1009 67 10000 1.5 0 20:22 30.03.2020
5601 Clouds 14 1009 58 10000 1.5 0 19:59 30.03.2020
5602 Clouds 14 1009 58 10000 2.1 160 19:39 30.03.2020
5603 Clouds 14 1009 58 10000 2.1 160 19:21 30.03.2020
5604 Clouds 15 1009 55 10000 2.6 150 18:56 30.03.2020
5605 Clouds 15 1009 51 10000 1.5 0 18:37 30.03.2020
5606 Clouds 16 1008 55 10000 2.1 190 18:19 30.03.2020
5607 Clouds 16 1008 55 10000 2.1 190 17:55 30.03.2020
5608 Clouds 17 1008 52 10000 2.6 190 17:36 30.03.2020
5609 Clouds 17 1008 52 10000 3.6 180 17:18 30.03.2020
5610 Clouds 17 1008 52 10000 3.6 200 16:41 30.03.2020
5611 Clouds 17 1009 52 10000 4.6 180 16:22 30.03.2020
5612 Clouds 17 1009 52 10000 4.6 180 15:57 30.03.2020
5613 Clouds 18 1009 45 10000 3.1 200 15:39 30.03.2020
5614 Clouds 18 1009 45 10000 3.1 200 15:21 30.03.2020
5615 Clouds 18 1009 45 10000 3.1 200 14:59 30.03.2020
5616 Clouds 18 1009 48 10000 3.6 190 14:38 30.03.2020
5617 Clouds 17 1009 45 10000 3.6 180 14:19 30.03.2020
5618 Clouds 17 1009 45 10000 3.6 180 14:19 30.03.2020
5619 Clouds 17 1009 45 10000 3.6 180 13:58 30.03.2020
5620 Clouds 18 1010 45 10000 2.6 170 13:39 30.03.2020
5621 Clouds 17 1010 45 10000 1.5 0 13:20 30.03.2020
5622 Clouds 17 1010 42 10000 1.5 0 12:45 30.03.2020
5623 Clouds 16 1012 55 10000 3.6 120 12:22 30.03.2020
5624 Clouds 16 1012 54 10000 2.6 100 11:59 30.03.2020
5625 Clouds 16 1012 62 10000 2.6 90 11:41 30.03.2020
5626 Clouds 16 1012 62 10000 2.6 90 11:22 30.03.2020
5627 Clouds 16 1011 55 10000 0.99 142 10:57 30.03.2020
5628 Clouds 15 1011 55 10000 1.5 0 10:37 30.03.2020
5629 Clouds 15 1011 55 10000 0.99 142 10:19 30.03.2020
5630 Clouds 14 1011 62 10000 0.99 142 09:41 30.03.2020
5631 Clear 13 1011 58 10000 1.26 30 09:20 30.03.2020
5632 Clear 13 1011 58 10000 1.44 25 08:58 30.03.2020
5633 Clear 12 1011 71 10000 1.44 25 08:38 30.03.2020
5634 Clear 11 1011 81 10000 1.44 25 08:20 30.03.2020
5635 Clear 10 1011 87 10000 1.44 25 07:44 30.03.2020
5636 Clear 9 1011 87 10000 1.44 25 07:23 30.03.2020
5637 Clear 9 1011 87 10000 1.5 0 06:47 30.03.2020
5638 Clear 8 1011 87 10000 1.5 0 06:25 30.03.2020
5639 Clear 8 1011 87 10000 0.38 41 05:44 30.03.2020
5640 Rain 8 1011 93 10000 1.5 0 04:31 30.03.2020
5641 Clouds 8 1010 87 10000 0.38 41 03:57 30.03.2020
5642 Clouds 9 1010 87 10000 1.5 0 02:45 30.03.2020
5643 Clouds 9 1008 87 10000 0.52 171 01:58 30.03.2020
5644 Clouds 10 1011 93 10000 1.5 0 01:18 30.03.2020
5645 Clouds 10 1011 93 10000 0.52 171 00:29 30.03.2020
5646 Clouds 10 1011 87 10000 0.94 154 23:57 29.03.2020
5647 Clouds 10 1011 87 10000 0.94 154 23:57 29.03.2020
5648 Clouds 10 1012 93 10000 0.94 154 23:39 29.03.2020
5649 Clouds 11 1012 87 10000 0.94 154 23:20 29.03.2020
5650 Clouds 11 1012 87 10000 0.94 154 22:55 29.03.2020
5651 Clouds 11 1012 87 10000 0.94 154 22:55 29.03.2020
5652 Clouds 11 1012 87 10000 1.5 0 22:37 29.03.2020
5653 Clouds 11 1012 87 10000 1.5 0 22:37 29.03.2020
5654 Clouds 11 1012 87 10000 0.94 154 22:18 29.03.2020
5655 Clouds 11 1011 87 10000 1.5 0 21:39 29.03.2020
5656 Clouds 11 1011 87 10000 1.5 0 21:20 29.03.2020
5657 Clouds 11 1011 87 10000 2.37 160 20:56 29.03.2020
5658 Clouds 12 1010 87 10000 2.37 160 20:37 29.03.2020
5659 Clouds 12 1010 81 10000 2.37 160 20:19 29.03.2020
5660 Clouds 12 1010 81 10000 2.37 160 19:58 29.03.2020
5661 Clouds 12 1010 81 10000 2.37 160 19:40 29.03.2020
5662 Clouds 13 1010 76 10000 2.37 160 19:22 29.03.2020
5663 Clouds 13 1010 72 10000 1.5 0 18:57 29.03.2020
5664 Clouds 14 1010 72 10000 1.5 0 18:38 29.03.2020
5665 Clouds 14 1009 72 10000 1.5 0 18:19 29.03.2020
5666 Clouds 14 1009 72 10000 1.5 0 17:56 29.03.2020
5667 Clouds 14 1009 63 10000 1.5 0 17:38 29.03.2020
5668 Clouds 14 1009 62 10000 1.5 0 17:19 29.03.2020
5669 Clouds 14 1009 62 10000 1.5 0 16:56 29.03.2020
5670 Clouds 14 1009 51 10000 1.5 0 16:38 29.03.2020
5671 Clouds 14 1011 66 10000 0.5 0 16:19 29.03.2020
5672 Clouds 14 1009 55 10000 1.5 0 15:42 29.03.2020
5673 Clouds 15 1009 55 10000 1.5 0 15:24 29.03.2020
5674 Clouds 14 1009 59 10000 1.5 0 14:59 29.03.2020
5675 Clouds 14 1009 59 10000 1.5 0 14:40 29.03.2020
5676 Rain 14 1009 59 10000 2.6 230 14:20 29.03.2020
5677 Rain 15 1009 59 10000 2.6 230 13:58 29.03.2020
5678 Clouds 15 1009 51 10000 2.1 200 13:40 29.03.2020
5679 Clouds 15 1009 51 10000 1.5 0 13:20 29.03.2020
5680 Clouds 15 1009 51 10000 1.5 0 13:20 29.03.2020
5681 Clouds 15 1009 51 10000 1.5 0 12:56 29.03.2020
5682 Clouds 15 1010 55 10000 1.5 0 12:37 29.03.2020
5683 Clouds 15 1010 55 10000 1.5 0 12:37 29.03.2020
5684 Clouds 15 1010 51 10000 1.5 0 12:19 29.03.2020
5685 Clouds 15 1010 51 10000 1.5 0 12:19 29.03.2020
5686 Clouds 15 1010 51 10000 1.5 0 11:55 29.03.2020
5687 Clouds 14 1011 62 10000 2.1 130 11:37 29.03.2020
5688 Clouds 14 1010 59 10000 1.5 0 11:18 29.03.2020
5689 Clouds 14 1010 59 10000 1.5 0 11:18 29.03.2020
5690 Clouds 14 1010 59 10000 1.5 0 10:38 29.03.2020
5691 Clouds 14 1010 67 10000 1.5 0 10:19 29.03.2020
5692 Clouds 14 1010 62 10000 1.5 0 09:41 29.03.2020
5693 Clouds 13 1010 62 10000 1.5 0 09:22 29.03.2020
5694 Clouds 12 1010 67 10000 1.5 0 08:57 29.03.2020
5695 Clouds 12 1010 71 10000 1.57 329 08:39 29.03.2020
5696 Clouds 12 1010 81 10000 1.5 0 08:20 29.03.2020
5697 Clouds 11 1010 87 10000 1.5 0 07:44 29.03.2020
5698 Clouds 10 1010 93 10000 1.57 329 07:21 29.03.2020
5699 Clouds 9 1010 93 10000 1.84 334 05:58 29.03.2020
5700 Clouds 9 1010 93 10000 1.5 0 04:55 29.03.2020
5701 Clouds 9 1010 93 10000 1.5 0 03:33 29.03.2020
5702 Clouds 10 1010 93 10000 1.91 349 01:57 29.03.2020
5703 Clouds 10 1010 87 10000 1.91 349 01:37 29.03.2020
5704 Clouds 10 1011 93 10000 1.5 0 01:19 29.03.2020
5705 Rain 10 1011 93 10000 1.5 0 00:39 29.03.2020
5706 Clouds 10 1011 93 10000 1.5 0 23:59 28.03.2020
5707 Clouds 10 1011 87 10000 1.5 0 23:40 28.03.2020
5708 Clouds 10 1011 93 10000 1.5 0 23:22 28.03.2020
5709 Clouds 10 1011 87 10000 1.5 0 22:42 28.03.2020
5710 Clouds 11 1011 87 10000 1.5 0 22:22 28.03.2020
5711 Clouds 11 1011 87 10000 1.82 14 21:57 28.03.2020
5712 Clouds 11 1011 87 10000 1.5 0 21:39 28.03.2020
5713 Clouds 11 1011 93 10000 1.5 0 21:19 28.03.2020
5714 Clouds 11 1011 93 10000 1.5 0 20:56 28.03.2020
5715 Rain 11 1011 93 10000 1.82 14 20:37 28.03.2020
5716 Rain 12 1011 87 10000 1.02 109 20:18 28.03.2020
5717 Rain 12 1011 87 10000 0.53 110 19:55 28.03.2020
5718 Rain 12 1011 87 10000 0.53 110 19:36 28.03.2020
5719 Rain 12 1010 81 10000 0.53 110 19:18 28.03.2020
5720 Clouds 12 1011 82 10000 0.53 110 18:39 28.03.2020
5721 Clouds 12 1010 82 10000 1.5 0 18:20 28.03.2020
5722 Rain 12 1010 82 10000 0.53 110 17:41 28.03.2020
5723 Rain 13 1010 82 10000 1.5 0 17:22 28.03.2020
5724 Clouds 13 1010 82 10000 1.5 0 16:59 28.03.2020
5725 Rain 13 1010 76 10000 2.6 170 16:38 28.03.2020
5726 Rain 13 1010 76 10000 3.6 170 16:18 28.03.2020
5727 Clouds 14 1010 62 10000 4.6 180 15:40 28.03.2020
5728 Clouds 14 1012 62 10000 4.6 120 15:20 28.03.2020
5729 Clouds 15 1010 62 10000 4.6 180 14:59 28.03.2020
5730 Clouds 14 1010 51 10000 3.6 180 14:40 28.03.2020
5731 Clouds 14 1010 51 10000 3.6 180 14:21 28.03.2020
5732 Clouds 15 1011 45 10000 3.1 170 13:43 28.03.2020
5733 Clouds 15 1011 45 10000 3.1 170 13:23 28.03.2020
5734 Clouds 15 1011 45 10000 2.6 160 12:41 28.03.2020
5735 Clouds 15 1012 48 10000 2.6 170 12:22 28.03.2020
5736 Clouds 15 1012 48 10000 2.6 170 11:55 28.03.2020
5737 Rain 14 1012 51 10000 3.19 159 11:37 28.03.2020
5738 Rain 14 1012 51 10000 1.33 143 11:18 28.03.2020
5739 Clouds 14 1012 58 10000 1.33 143 10:39 28.03.2020
5740 Clouds 14 1012 58 10000 1.33 143 10:20 28.03.2020
5741 Clouds 13 1013 66 10000 1.5 0 09:43 28.03.2020
5742 Clouds 13 1013 66 10000 1.5 0 09:24 28.03.2020
5743 Clouds 13 1013 71 10000 2.1 150 08:58 28.03.2020
5744 Clouds 13 1013 62 10000 1.5 0 08:40 28.03.2020
5745 Clouds 12 1013 62 10000 1.5 0 08:21 28.03.2020
5746 Clouds 11 1012 66 10000 2.11 343 07:46 28.03.2020
5747 Clouds 11 1013 76 10000 2.11 343 07:28 28.03.2020
5748 Clouds 9 1012 81 10000 2.11 343 06:36 28.03.2020
5749 Clouds 8 1012 81 10000 2.11 343 05:54 28.03.2020
5750 Clouds 8 1012 76 10000 2.83 323 05:21 28.03.2020
5751 Clouds 8 1012 76 10000 2.83 323 05:21 28.03.2020
5752 Clouds 8 1012 76 10000 3.1 300 04:42 28.03.2020
5753 Clouds 8 1012 76 10000 2.1 300 03:54 28.03.2020
5754 Clouds 9 1014 81 10000 1.5 110 02:26 28.03.2020
5755 Clouds 9 1013 76 10000 3.13 320 01:43 28.03.2020
5756 Clouds 9 1013 76 10000 2.1 330 01:18 28.03.2020
5757 Clouds 9 1013 76 10000 3.38 322 00:45 28.03.2020
5758 Clouds 9 1013 76 10000 3.38 322 00:20 28.03.2020
5759 Clouds 9 1013 76 10000 3.38 322 23:42 27.03.2020
5760 Clouds 9 1013 81 10000 2.6 340 23:22 27.03.2020
5761 Clouds 9 1013 81 10000 2.6 340 22:56 27.03.2020
5762 Clouds 10 1013 81 10000 4.33 309 22:38 27.03.2020
5763 Clouds 10 1013 81 10000 2.1 320 22:20 27.03.2020
5764 Clouds 10 1013 81 10000 2.1 320 21:55 27.03.2020
5765 Clouds 10 1013 76 10000 2.6 320 21:37 27.03.2020
5766 Clouds 10 1013 76 10000 5.1 330 21:19 27.03.2020
5767 Clouds 10 1013 76 10000 4.1 320 20:42 27.03.2020
5768 Clouds 10 1012 81 10000 3.6 320 20:21 27.03.2020
5769 Clouds 10 1012 81 10000 3.6 320 19:59 27.03.2020
5770 Clouds 10 1012 81 10000 2.6 330 19:40 27.03.2020
5771 Clouds 11 1012 81 10000 3.1 350 19:22 27.03.2020
5772 Clouds 11 1012 81 10000 3.1 350 18:56 27.03.2020
5773 Clouds 11 1011 81 10000 2.1 330 18:38 27.03.2020
5774 Clouds 11 1011 76 10000 3.1 320 18:19 27.03.2020
5775 Clouds 11 1011 76 10000 3.1 320 17:40 27.03.2020
5776 Clouds 11 1010 81 10000 2.6 320 17:20 27.03.2020
5777 Rain 11 1010 87 10000 2.6 280 16:54 27.03.2020
5778 Rain 11 1010 87 10000 2.6 280 16:36 27.03.2020
5779 Rain 11 1010 87 10000 2.6 280 16:36 27.03.2020
5780 Rain 11 1010 93 8000 5.37 311 16:18 27.03.2020
5781 Rain 11 1010 93 8000 5.37 311 15:41 27.03.2020
5782 Rain 11 1011 93 8000 5.37 311 15:22 27.03.2020
5783 Rain 11 1011 93 8000 5.37 311 14:46 27.03.2020
5784 Rain 11 1011 93 8000 5.37 311 14:25 27.03.2020
5785 Rain 11 1011 93 8000 5.37 311 14:25 27.03.2020
5786 Rain 11 1010 87 7000 6.64 296 13:56 27.03.2020
5787 Rain 11 1010 87 7000 6.64 296 13:37 27.03.2020
5788 Rain 11 1010 87 7000 6.64 296 13:37 27.03.2020
5789 Rain 11 1010 93 7000 6.64 296 13:19 27.03.2020
5790 Rain 11 1010 93 7000 6.16 313 12:51 27.03.2020
5791 Rain 11 1010 93 7000 2.1 270 12:21 27.03.2020
5792 Rain 11 1010 93 7000 2.1 270 11:59 27.03.2020
5793 Rain 11 1010 93 7000 2.1 270 11:41 27.03.2020
5794 Rain 11 1010 93 7000 2.1 280 11:22 27.03.2020
5795 Rain 11 1010 93 7000 2.1 300 10:54 27.03.2020
5796 Rain 11 1010 93 7000 2.1 300 10:36 27.03.2020
5797 Rain 11 1010 81 8000 4.1 320 10:18 27.03.2020
5798 Rain 11 1010 81 8000 4.1 320 09:56 27.03.2020
5799 Drizzle 11 1010 81 10000 4.1 320 09:37 27.03.2020
5800 Rain 11 1009 81 10000 4.1 330 09:18 27.03.2020
5801 Rain 11 1009 81 10000 4.1 330 08:55 27.03.2020
5802 Drizzle 12 1009 81 10000 5.1 320 08:36 27.03.2020
5803 Clouds 12 1009 71 10000 4.1 330 08:18 27.03.2020
5804 Clouds 12 1009 71 10000 4.1 330 07:49 27.03.2020
5805 Clouds 12 1009 71 10000 3.1 340 07:22 27.03.2020
5806 Clouds 11 1009 71 10000 2.6 340 06:45 27.03.2020
5807 Rain 11 1010 85 0 4.47 360 06:26 27.03.2020
5808 Clouds 11 1009 71 10000 2.6 330 04:21 27.03.2020
5809 Rain 11 1010 81 10000 2.6 310 02:25 27.03.2020
5810 Rain 11 1010 81 10000 2.6 320 01:22 27.03.2020
5811 Clouds 12 1010 76 10000 2.6 340 00:47 27.03.2020
5812 Clouds 11 1010 76 10000 2.1 330 00:23 27.03.2020
5813 Clouds 12 1011 81 10000 3.1 310 23:42 26.03.2020
5814 Clouds 11 1011 81 10000 2.6 330 23:21 26.03.2020
5815 Clouds 11 1011 81 10000 3.1 320 22:58 26.03.2020
5816 Rain 11 1011 81 10000 3.1 320 22:37 26.03.2020
5817 Rain 11 1011 81 10000 3.1 320 22:19 26.03.2020
5818 Rain 11 1011 81 10000 3.6 340 21:55 26.03.2020
5819 Rain 11 1011 71 10000 1.5 0 21:36 26.03.2020
5820 Clouds 11 1011 81 10000 3.6 340 21:18 26.03.2020
5821 Clouds 11 1011 81 10000 4.6 10 20:41 26.03.2020
5822 Clouds 11 1011 81 10000 4.6 10 20:23 26.03.2020
5823 Clouds 11 1011 81 10000 4.6 10 20:23 26.03.2020
5824 Clouds 11 1011 81 10000 4.6 10 20:23 26.03.2020
5825 Clouds 11 1011 81 10000 3.6 320 19:58 26.03.2020
5826 Clouds 11 1011 81 10000 3.1 340 19:40 26.03.2020
5827 Clouds 11 1011 81 10000 3.1 340 19:40 26.03.2020
5828 Rain 11 1011 81 10000 2.1 340 19:22 26.03.2020
5829 Rain 11 1011 81 10000 2.1 340 18:59 26.03.2020
5830 Rain 11 1011 81 8000 2.6 340 18:41 26.03.2020
5831 Rain 11 1011 87 8000 1.5 0 18:23 26.03.2020
5832 Rain 11 1011 87 8000 1.5 0 17:45 26.03.2020
5833 Rain 11 1011 87 8000 1.5 0 17:20 26.03.2020
5834 Rain 11 1011 87 8000 1.5 0 16:59 26.03.2020
5835 Rain 12 1011 82 9000 1.5 0 16:39 26.03.2020
5836 Rain 12 1011 82 9000 1.5 0 16:39 26.03.2020
5837 Rain 12 1011 82 9000 1.5 0 16:21 26.03.2020
5838 Rain 12 1010 87 7000 2.6 330 15:56 26.03.2020
5839 Rain 12 1011 87 7000 2.6 320 15:38 26.03.2020
5840 Rain 12 1011 76 8000 2.6 340 15:20 26.03.2020
5841 Drizzle 12 1010 76 10000 4.1 20 14:44 26.03.2020
5842 Drizzle 12 1010 76 10000 4.1 20 14:26 26.03.2020
5843 Drizzle 12 1010 76 10000 5.1 20 13:59 26.03.2020
5844 Rain 12 1011 84 0 2.68 16 13:40 26.03.2020
5845 Clouds 12 1010 71 10000 5.7 20 13:21 26.03.2020
5846 Clouds 12 1011 76 10000 5.1 20 12:54 26.03.2020
5847 Rain 12 1011 76 10000 3.6 30 12:36 26.03.2020
5848 Rain 12 1011 87 9000 1.5 0 12:18 26.03.2020
5849 Rain 12 1011 87 7000 1.5 0 11:43 26.03.2020
5850 Rain 12 1011 82 7000 1.5 0 11:19 26.03.2020
5851 Drizzle 12 1011 87 10000 1.5 0 10:42 26.03.2020
5852 Drizzle 12 1011 87 10000 1.5 0 10:42 26.03.2020
5853 Drizzle 12 1011 76 10000 2.1 340 10:20 26.03.2020
5854 Drizzle 12 1011 76 10000 2.1 340 09:59 26.03.2020
5855 Rain 12 1011 81 10000 1.5 0 09:41 26.03.2020
5856 Rain 12 1011 93 10000 1.5 0 09:19 26.03.2020
5857 Rain 11 1011 93 9000 1.5 0 08:44 26.03.2020
5858 Rain 11 1011 93 9000 1.5 0 08:26 26.03.2020
5859 Rain 11 1011 93 9000 1.5 0 07:57 26.03.2020
5860 Rain 11 1011 93 9000 1.5 0 07:57 26.03.2020
5861 Rain 11 1011 93 9000 1.5 0 07:38 26.03.2020
5862 Drizzle 11 1010 87 10000 1.5 0 07:19 26.03.2020
5863 Drizzle 11 1010 87 10000 1.5 0 06:35 26.03.2020
5864 Clouds 11 1010 100 10000 1.5 0 05:51 26.03.2020
5865 Rain 10 1011 93 8000 5.13 11 03:47 26.03.2020
5866 Rain 10 1011 93 8000 5.13 11 03:26 26.03.2020
5867 Rain 10 1012 93 8000 5.13 11 02:52 26.03.2020
5868 Rain 10 1012 93 8000 1.5 0 01:19 26.03.2020
5869 Rain 10 1013 93 8000 7.48 10 00:33 26.03.2020
5870 Rain 10 1013 87 10000 1.5 0 23:44 25.03.2020
5871 Rain 10 1014 81 10000 1.5 0 23:26 25.03.2020
5872 Rain 10 1014 81 10000 1.5 0 22:56 25.03.2020
5873 Clouds 11 1014 71 10000 2.6 300 22:38 25.03.2020
5874 Clouds 11 1014 71 10000 2.6 300 22:19 25.03.2020
5875 Clouds 11 1014 71 10000 2.1 30 22:19 25.03.2020
5876 Clouds 11 1014 71 10000 2.1 30 21:54 25.03.2020
5877 Clouds 11 1013 71 10000 2.6 30 21:36 25.03.2020
5878 Clouds 11 1013 71 10000 1.5 0 21:18 25.03.2020
5879 Clouds 11 1014 66 10000 2.6 300 20:39 25.03.2020
5880 Clouds 11 1014 66 10000 2.6 300 20:20 25.03.2020
5881 Clouds 11 1013 71 10000 2.6 250 19:57 25.03.2020
5882 Clouds 11 1014 71 10000 2.6 270 19:38 25.03.2020
5883 Clouds 11 1015 66 10000 3.1 300 19:20 25.03.2020
5884 Clouds 11 1015 66 10000 3.1 300 18:54 25.03.2020
5885 Clouds 11 1015 66 10000 2.6 300 18:36 25.03.2020
5886 Clouds 11 1014 66 10000 3.6 330 18:18 25.03.2020
5887 Clouds 11 1015 66 10000 3.1 350 17:41 25.03.2020
5888 Clouds 11 1015 66 10000 4.1 350 17:22 25.03.2020
5889 Clouds 11 1015 66 10000 4.1 350 16:59 25.03.2020
5890 Rain 11 1014 66 10000 5.1 340 16:39 25.03.2020
5891 Rain 11 1015 75 0 4.02 29 16:21 25.03.2020
5892 Rain 11 1015 75 0 4.02 29 16:21 25.03.2020
5893 Rain 11 1015 62 10000 4.6 330 15:44 25.03.2020
5894 Rain 12 1015 62 10000 6.2 330 15:21 25.03.2020
5895 Rain 12 1015 62 10000 6.2 330 14:59 25.03.2020
5896 Rain 12 1015 62 10000 6.2 330 14:59 25.03.2020
5897 Rain 12 1015 62 10000 5.1 330 14:40 25.03.2020
5898 Rain 12 1015 58 10000 5.7 10 14:20 25.03.2020
5899 Rain 12 1016 58 10000 6.7 350 13:46 25.03.2020
5900 Rain 12 1016 58 10000 6.7 350 13:25 25.03.2020
5901 Rain 12 1018 68 0 3.58 14 12:55 25.03.2020
5902 Rain 12 1016 58 10000 5.1 360 12:37 25.03.2020
5903 Rain 12 1017 54 10000 6.2 360 12:18 25.03.2020
5904 Rain 13 1017 58 10000 3.6 350 11:41 25.03.2020
5905 Rain 13 1017 54 10000 4.1 10 11:21 25.03.2020
5906 Clouds 13 1017 54 10000 4.1 10 10:59 25.03.2020
5907 Clouds 13 1016 58 10000 7.2 10 10:40 25.03.2020
5908 Clouds 13 1018 65 0 5.81 12 10:19 25.03.2020
5909 Clouds 13 1018 65 0 5.81 12 10:19 25.03.2020
5910 Clouds 12 1017 65 0 5.36 11 09:59 25.03.2020
5911 Clouds 13 1016 58 10000 6.7 30 09:40 25.03.2020
5912 Clouds 13 1016 58 10000 6.7 30 09:21 25.03.2020
5913 Clouds 13 1016 58 10000 3.6 30 08:43 25.03.2020
5914 Clouds 12 1016 58 10000 3.6 30 08:25 25.03.2020
5915 Rain 11 1018 72 0 3.13 19 07:59 25.03.2020
5916 Clouds 11 1016 62 10000 1.5 0 07:39 25.03.2020
5917 Clouds 11 1016 76 10000 1.5 0 07:19 25.03.2020
5918 Clouds 11 1015 76 10000 1.5 0 06:45 25.03.2020
5919 Clouds 10 1015 76 10000 1.5 0 06:25 25.03.2020
5920 Clouds 10 1015 87 10000 1.5 0 05:50 25.03.2020
5921 Clear 10 1016 79 0 3.58 22 04:59 25.03.2020
5922 Clouds 10 1015 81 10000 1.5 0 04:36 25.03.2020
5923 Clouds 10 1015 81 10000 2.1 300 03:34 25.03.2020
5924 Clouds 10 1015 76 10000 2.6 330 01:55 25.03.2020
5925 Clouds 10 1015 71 10000 2.1 310 01:20 25.03.2020
5926 Clouds 10 1015 71 10000 2.6 320 00:43 25.03.2020
5927 Clouds 11 1015 71 10000 2.1 320 00:19 25.03.2020
5928 Clouds 11 1015 71 10000 2.1 320 23:42 24.03.2020
5929 Clouds 11 1015 66 10000 3.6 330 23:22 24.03.2020
5930 Clouds 11 1015 66 10000 3.6 330 22:55 24.03.2020
5931 Clouds 11 1015 76 10000 2.6 330 22:37 24.03.2020
5932 Clouds 11 1015 76 10000 2.6 330 22:37 24.03.2020
5933 Clouds 11 1015 76 10000 2.6 330 22:37 24.03.2020
5934 Clouds 11 1015 76 10000 2.6 330 22:19 24.03.2020
5935 Clouds 11 1015 76 10000 3.6 340 21:55 24.03.2020
5936 Clouds 11 1015 76 10000 4.1 330 21:36 24.03.2020
5937 Clouds 12 1015 71 10000 3.1 320 21:18 24.03.2020
5938 Clouds 12 1014 71 10000 2.6 320 20:42 24.03.2020
5939 Clouds 12 1014 71 10000 2.6 320 20:23 24.03.2020
5940 Clouds 12 1014 71 10000 2.1 320 19:56 24.03.2020
5941 Clouds 12 1014 71 10000 2.1 320 19:56 24.03.2020
5942 Clouds 13 1014 76 10000 3.1 320 19:38 24.03.2020
5943 Clouds 13 1014 71 10000 1.5 0 19:18 24.03.2020
5944 Clouds 13 1014 71 10000 1.5 0 18:55 24.03.2020
5945 Clouds 13 1013 62 10000 1.5 0 18:36 24.03.2020
5946 Clouds 14 1013 58 10000 2.6 320 18:18 24.03.2020
5947 Clouds 14 1013 58 10000 3.1 330 17:41 24.03.2020
5948 Rain 14 1014 55 0 1.34 273 17:22 24.03.2020
5949 Clouds 14 1014 67 10000 3.1 40 16:58 24.03.2020
5950 Clouds 15 1014 67 10000 3.1 60 16:39 24.03.2020
5951 Clouds 15 1014 67 10000 3.1 60 16:21 24.03.2020
5952 Clouds 15 1014 67 10000 4.1 60 16:20 24.03.2020
5953 -273 0 0 0 0 0 16:20 24.03.2020
5954 Clouds 15 1014 67 10000 4.1 60 15:55 24.03.2020
5955 Clouds 16 1012 51 10000 3.1 340 15:37 24.03.2020
5956 Clouds 16 1012 51 10000 3.6 350 15:19 24.03.2020
5957 Clouds 16 1012 51 10000 3.1 360 14:42 24.03.2020
5958 Clouds 16 1012 55 10000 3.6 330 14:19 24.03.2020
5959 Clouds 16 1012 51 10000 3.1 340 13:42 24.03.2020
5960 Clouds 16 1012 51 10000 3.6 360 13:24 24.03.2020
5961 Clouds 16 1012 51 10000 3.6 360 12:55 24.03.2020
5962 Clouds 15 1012 55 10000 3.1 360 12:37 24.03.2020
5963 Clouds 16 1012 59 10000 3.6 330 12:18 24.03.2020
5964 Clouds 15 1013 59 10000 3.6 340 11:39 24.03.2020
5965 Clouds 14 1013 59 10000 4.1 350 11:20 24.03.2020
5966 Clouds 14 1013 62 10000 3.6 350 10:43 24.03.2020
5967 Clouds 13 1014 72 10000 1 0 10:20 24.03.2020
5968 Rain 14 1014 72 10000 1 0 09:59 24.03.2020
5969 Clouds 13 1013 67 10000 5.1 350 09:40 24.03.2020
5970 Clouds 13 1013 67 10000 5.1 350 09:22 24.03.2020
5971 Rain 13 1013 66 10000 6.2 330 08:39 24.03.2020
5972 Clouds 12 1013 66 10000 6.2 330 08:20 24.03.2020
5973 Clouds 12 1012 71 10000 3.6 320 07:48 24.03.2020
5974 Clouds 11 1012 71 10000 3.6 320 07:25 24.03.2020
5975 Clouds 11 1012 71 10000 4.1 340 06:58 24.03.2020
5976 Clouds 11 1012 81 10000 4.1 330 06:31 24.03.2020
5977 Clouds 10 1011 76 10000 3.6 320 05:22 24.03.2020
5978 Clouds 11 1011 76 10000 3.1 320 04:27 24.03.2020
5979 Rain 10 1011 81 10000 3.1 320 03:18 24.03.2020
5980 Clouds 11 1011 81 10000 3.1 320 01:49 24.03.2020
5981 Clouds 11 1011 81 10000 3.6 330 00:49 24.03.2020
5982 Clouds 11 1011 81 10000 3.6 330 00:26 24.03.2020
5983 Clouds 11 1012 87 10000 4.1 320 23:46 23.03.2020
5984 Clouds 11 1011 81 10000 3.6 330 23:26 23.03.2020
5985 Clouds 11 1011 81 10000 3.6 330 22:56 23.03.2020
5986 Clouds 11 1012 87 10000 3.6 340 22:37 23.03.2020
5987 Clouds 11 1012 81 10000 2.6 330 22:19 23.03.2020
5988 Rain 11 1012 81 10000 3.35 3 21:44 23.03.2020
5989 Rain 11 1012 93 10000 3.35 3 21:21 23.03.2020
5990 Rain 11 1012 93 10000 3.35 3 20:58 23.03.2020
5991 Rain 12 1011 87 10000 3.35 3 20:40 23.03.2020
5992 Rain 11 1011 87 10000 2.94 26 20:22 23.03.2020
5993 Rain 12 1011 81 7000 3.1 330 19:54 23.03.2020
5994 Rain 12 1012 87 7000 2.6 330 19:36 23.03.2020
5995 Rain 12 1011 87 6000 3.6 310 19:18 23.03.2020
5996 Drizzle 12 1011 87 10000 2.94 26 18:42 23.03.2020
5997 Drizzle 13 1011 82 10000 2.94 26 18:23 23.03.2020
5998 Drizzle 13 1011 82 10000 2.94 26 17:56 23.03.2020
5999 Drizzle 13 1011 82 10000 2.94 26 17:56 23.03.2020
6000 Rain 13 1010 82 10000 2.94 26 17:38 23.03.2020
6001 Rain 13 1010 77 10000 2.29 162 17:18 23.03.2020
6002 Rain 14 1010 77 10000 2.29 162 16:43 23.03.2020
6003 Rain 14 1010 77 10000 2.29 162 16:25 23.03.2020
6004 Rain 14 1010 82 8000 2.29 162 15:43 23.03.2020
6005 Rain 14 1010 77 8000 2.29 162 15:21 23.03.2020
6006 Rain 14 1010 77 8000 2.29 162 14:57 23.03.2020
6007 Rain 14 1010 77 8000 2.29 162 14:37 23.03.2020
6008 Rain 14 1010 82 8000 3.53 171 14:18 23.03.2020
6009 Rain 14 1010 82 8000 3.53 171 14:18 23.03.2020
6010 Rain 15 1010 72 8000 3.53 171 13:41 23.03.2020
6011 Rain 15 1010 72 8000 3.53 171 13:41 23.03.2020
6012 Rain 15 1011 59 10000 3.53 171 13:22 23.03.2020
6013 Rain 15 1011 59 10000 3.67 176 12:58 23.03.2020
6014 Rain 15 1011 63 10000 3.67 176 12:40 23.03.2020
6015 Clouds 15 1011 67 10000 3.67 176 12:22 23.03.2020
6016 Clouds 15 1011 72 10000 3.67 176 11:42 23.03.2020
6017 Clouds 16 1011 72 10000 2.12 196 11:22 23.03.2020
6018 Clouds 15 1011 72 10000 2.12 196 10:58 23.03.2020
6019 Clouds 15 1011 77 9000 2.12 196 10:40 23.03.2020
6020 Clouds 15 1011 77 9000 2.12 196 10:40 23.03.2020
6021 Rain 15 1012 82 9000 2.12 196 10:22 23.03.2020
6022 Rain 15 1012 82 9000 2.12 196 09:58 23.03.2020
6023 Rain 14 1012 87 8000 2.12 196 09:40 23.03.2020
6024 Rain 14 1012 87 8000 2.12 196 09:19 23.03.2020
6025 Rain 14 1012 100 7000 2.12 196 08:38 23.03.2020
6026 Rain 14 1012 100 7000 1.35 64 08:19 23.03.2020
6027 Rain 13 1011 93 7000 1.35 64 07:51 23.03.2020
6028 Rain 13 1011 93 7000 1.35 64 07:32 23.03.2020
6029 Rain 13 1011 100 10000 1.35 64 06:55 23.03.2020
6030 Rain 12 1011 100 8000 1.35 64 06:32 23.03.2020
6031 Rain 12 1011 93 10000 1.35 64 05:43 23.03.2020
6032 Rain 12 1011 100 10000 2.08 35 03:54 23.03.2020
6033 Clouds 13 1011 93 10000 2.08 35 02:43 23.03.2020
6034 Clouds 13 1012 87 10000 1.66 174 01:42 23.03.2020
6035 Clouds 13 1012 87 10000 0.5 110 00:46 23.03.2020
6036 Clouds 13 1012 87 10000 0.5 110 00:26 23.03.2020
6037 Clouds 13 1012 87 10000 0.5 110 23:42 22.03.2020
6038 Clouds 13 1012 82 10000 0.5 110 23:24 22.03.2020
6039 Clouds 13 1012 87 10000 1.93 130 22:41 22.03.2020
6040 Clouds 13 1012 87 10000 1.93 130 22:20 22.03.2020
6041 Clouds 13 1012 87 10000 1.93 130 21:41 22.03.2020
6042 Clouds 13 1012 87 10000 1.93 130 21:23 22.03.2020
6043 Clouds 13 1014 82 10000 1 320 20:58 22.03.2020
6044 Clouds 13 1012 87 10000 1.93 130 20:40 22.03.2020
6045 Clouds 13 1012 87 10000 3.48 146 20:22 22.03.2020
6046 Clouds 14 1012 87 10000 3.48 146 19:56 22.03.2020
6047 Clouds 14 1012 82 10000 3.48 146 19:38 22.03.2020
6048 Clouds 14 1012 82 10000 3.48 146 19:19 22.03.2020
6049 Clouds 14 1012 82 10000 3.48 146 18:57 22.03.2020
6050 Clouds 14 1012 82 10000 1.5 0 18:39 22.03.2020
6051 Clouds 14 1012 77 10000 3.6 170 18:19 22.03.2020
6052 Clouds 14 1012 77 10000 3.6 170 17:56 22.03.2020
6053 Clouds 15 1011 72 10000 1.5 0 17:37 22.03.2020
6054 Clouds 15 1011 72 10000 1.5 0 17:19 22.03.2020
6055 Clouds 15 1011 72 10000 1.5 0 16:57 22.03.2020
6056 Clouds 15 1011 67 10000 1.5 0 16:39 22.03.2020
6057 Clouds 15 1011 67 10000 1.5 0 16:20 22.03.2020
6058 Drizzle 16 1012 67 10000 2.6 190 15:40 22.03.2020
6059 Drizzle 16 1012 67 10000 2.6 190 15:19 22.03.2020
6060 Clouds 16 1012 67 10000 2.1 180 14:46 22.03.2020
6061 Clouds 16 1012 72 10000 2.6 160 14:18 22.03.2020
6062 Clouds 16 1012 72 10000 3.6 160 13:43 22.03.2020
6063 Clouds 16 1012 72 9000 4.6 160 13:20 22.03.2020
6064 Clouds 16 1012 72 9000 4.6 160 12:57 22.03.2020
6065 Clouds 16 1013 67 9000 4.1 160 12:38 22.03.2020
6066 Clouds 16 1013 67 9000 4.6 170 12:18 22.03.2020
6067 Clouds 16 1013 67 9000 1.5 0 11:43 22.03.2020
6068 Clouds 16 1013 67 9000 1.5 0 11:25 22.03.2020
6069 Clouds 16 1013 72 9000 1.5 0 10:58 22.03.2020
6070 Clouds 16 1013 72 9000 1.5 0 10:39 22.03.2020
6071 Clouds 16 1013 72 9000 1.5 0 10:21 22.03.2020
6072 Clouds 16 1013 67 9000 4.29 157 09:45 22.03.2020
6073 Clouds 15 1013 67 9000 4.29 157 09:27 22.03.2020
6074 Clouds 15 1013 62 10000 1.5 0 08:48 22.03.2020
6075 Clouds 15 1013 62 10000 1.5 0 08:30 22.03.2020
6076 Clouds 14 1013 71 10000 1.5 0 07:54 22.03.2020
6077 Clouds 13 1013 76 10000 1.5 0 07:36 22.03.2020
6078 Clouds 12 1013 76 10000 1.5 0 06:41 22.03.2020
6079 Clouds 11 1013 81 10000 1.5 0 05:47 22.03.2020
6080 Clouds 11 1013 76 10000 1.5 0 04:39 22.03.2020
6081 Clouds 12 1013 71 10000 1.5 0 01:47 22.03.2020
6082 Clouds 12 1014 76 10000 1.5 0 00:50 22.03.2020
6083 Clouds 12 1014 76 10000 1.5 0 00:31 22.03.2020
6084 Clouds 12 1014 71 10000 1.5 0 23:46 21.03.2020
6085 Clouds 12 1014 71 10000 1.5 0 23:22 21.03.2020
6086 Clouds 12 1014 71 10000 1.5 0 22:59 21.03.2020
6087 Clouds 12 1014 76 10000 1.5 0 22:38 21.03.2020
6088 Clouds 12 1014 76 10000 1.5 0 22:19 21.03.2020
6089 Clouds 13 1014 71 10000 2.57 139 21:58 21.03.2020
6090 Clouds 13 1014 76 10000 2.57 139 21:38 21.03.2020
6091 Clouds 13 1015 71 10000 2.57 139 21:19 21.03.2020
6092 Clouds 13 1015 71 10000 1.5 0 20:42 21.03.2020
6093 Clear 14 1014 71 10000 3.09 171 20:22 21.03.2020
6094 Clear 14 1014 71 10000 2.96 169 19:55 21.03.2020
6095 Clear 14 1014 67 10000 2.96 169 19:37 21.03.2020
6096 Clear 14 1014 62 10000 2.96 169 19:18 21.03.2020
6097 Clear 15 1014 62 10000 2.96 169 18:41 21.03.2020
6098 Clear 15 1014 59 10000 1.5 0 18:21 21.03.2020
6099 Clear 16 1014 59 10000 1.5 0 17:59 21.03.2020
6100 Clear 16 1014 48 10000 1.5 0 17:41 21.03.2020
6101 Clear 17 1014 52 10000 1.5 0 17:22 21.03.2020
6102 Clear 18 1014 55 10000 1.5 0 16:42 21.03.2020
6103 Clear 19 1014 55 10000 1.5 0 16:24 21.03.2020
6104 Clear 19 1014 55 10000 1.5 0 16:24 21.03.2020
6105 Clear 19 1014 48 10000 2.6 170 15:59 21.03.2020
6106 Clouds 19 1014 37 10000 3.1 190 15:40 21.03.2020
6107 Clouds 19 1014 37 10000 3.1 190 15:22 21.03.2020
6108 Clouds 20 1014 32 10000 2.6 200 14:57 21.03.2020
6109 Clouds 20 1014 32 10000 2.6 200 14:38 21.03.2020
6110 Clouds 20 1014 32 10000 2.6 200 14:38 21.03.2020
6111 Clouds 20 1014 32 10000 3.1 210 14:20 21.03.2020
6112 Clouds 20 1014 32 10000 3.1 210 13:58 21.03.2020
6113 Clouds 20 1015 32 10000 3.1 210 13:39 21.03.2020
6114 Clouds 19 1015 32 10000 3.1 210 13:21 21.03.2020
6115 Clear 20 1015 32 10000 3.1 220 12:57 21.03.2020
6116 Clear 19 1015 35 10000 3.1 220 12:37 21.03.2020
6117 Clear 20 1016 32 10000 2.6 220 12:19 21.03.2020
6118 Clear 20 1016 32 10000 2.6 210 11:55 21.03.2020
6119 Clear 20 1016 32 10000 2.6 210 11:37 21.03.2020
6120 Clear 19 1016 35 10000 1.5 0 11:18 21.03.2020
6121 Clear 19 1016 35 10000 1.5 0 10:56 21.03.2020
6122 Clear 19 1017 37 10000 1.5 0 10:38 21.03.2020
6123 Clear 18 1017 37 10000 1.5 0 10:18 21.03.2020
6124 Clear 17 1017 36 10000 1.5 0 09:40 21.03.2020
6125 Clear 17 1017 36 10000 1.5 0 09:21 21.03.2020
6126 Clear 17 1017 39 10000 1.5 0 08:58 21.03.2020
6127 Clear 17 1017 48 10000 0.58 235 08:39 21.03.2020
6128 Clear 15 1017 48 10000 2.58 13 08:21 21.03.2020
6129 Clear 14 1018 62 10000 2.67 16 07:40 21.03.2020
6130 Clear 13 1018 62 10000 2.67 16 07:21 21.03.2020
6131 Clear 11 1017 61 10000 1.5 0 06:45 21.03.2020
6132 Clear 11 1018 70 10000 2.67 16 06:26 21.03.2020
6133 Clear 9 1018 61 10000 1.5 320 05:41 21.03.2020
6134 Clear 10 1017 65 10000 2.86 2 04:42 21.03.2020
6135 Clear 10 1018 61 10000 2.86 2 02:40 21.03.2020
6136 Clear 10 1018 65 10000 2.76 349 02:18 21.03.2020
6137 Clear 10 1019 61 10000 2.84 352 01:31 21.03.2020
6138 Clear 11 1019 57 10000 2.84 352 00:47 21.03.2020
6139 Clear 11 1019 57 10000 2.84 352 00:25 21.03.2020
6140 Clear 11 1019 57 10000 2.84 352 23:48 20.03.2020
6141 Clear 12 1019 50 10000 3.01 355 23:24 20.03.2020
6142 Clear 12 1019 50 10000 3.01 355 22:56 20.03.2020
6143 Clear 11 1020 57 10000 3.01 355 22:37 20.03.2020
6144 Clear 12 1020 53 10000 3.01 355 22:19 20.03.2020
6145 Clear 12 1020 53 10000 3.01 355 21:54 20.03.2020
6146 Clear 12 1020 61 10000 3.01 355 21:36 20.03.2020
6147 Clear 13 1019 50 10000 3.01 355 21:18 20.03.2020
6148 Clear 13 1019 47 10000 3.01 355 20:42 20.03.2020
6149 Clear 13 1019 38 10000 1.5 320 20:21 20.03.2020
6150 Clear 13 1019 38 10000 1.5 320 19:59 20.03.2020
6151 Clear 14 1019 38 10000 1.5 360 19:40 20.03.2020
6152 Clear 14 1019 44 10000 1.5 350 19:18 20.03.2020
6153 Clear 14 1019 44 10000 1.5 350 18:54 20.03.2020
6154 Clear 14 1019 41 10000 2.1 360 18:36 20.03.2020
6155 Clouds 15 1019 36 10000 2.6 350 18:18 20.03.2020
6156 Clouds 15 1019 36 10000 3.6 360 17:39 20.03.2020
6157 Clouds 16 1019 34 10000 3.1 350 17:21 20.03.2020
6158 Clouds 16 1019 34 10000 3.1 350 16:57 20.03.2020
6159 Clouds 17 1019 32 10000 4.1 10 16:39 20.03.2020
6160 Clouds 17 1019 29 10000 5.7 350 16:18 20.03.2020
6161 Clouds 17 1019 32 10000 5.1 10 15:42 20.03.2020
6162 Clouds 17 1019 29 10000 5.7 340 15:21 20.03.2020
6163 Clouds 17 1019 29 10000 5.7 340 14:54 20.03.2020
6164 Clouds 17 1019 32 10000 5.1 350 14:36 20.03.2020
6165 Clouds 18 1020 36 10000 11.3 40 14:18 20.03.2020
6166 Clouds 18 1019 29 10000 5.7 340 13:40 20.03.2020
6167 Clouds 17 1021 39 10000 8.7 10 13:19 20.03.2020
6168 Clouds 17 1020 29 10000 5.1 340 12:39 20.03.2020
6169 Clouds 17 1020 32 10000 5.1 360 12:20 20.03.2020
6170 Clouds 17 1020 32 10000 5.1 360 12:20 20.03.2020
6171 Clouds 17 1020 32 10000 5.1 360 12:20 20.03.2020
6172 Clouds 17 1020 32 10000 5.1 360 11:57 20.03.2020
6173 Clouds 17 1020 32 10000 5.7 350 11:38 20.03.2020
6174 Clouds 16 1021 38 10000 8.7 20 11:18 20.03.2020
6175 Clouds 16 1020 31 10000 3.6 350 10:41 20.03.2020
6176 Clouds 16 1021 39 10000 5.7 330 10:21 20.03.2020
6177 Clouds 16 1021 39 10000 5.7 330 09:56 20.03.2020
6178 Clear 16 1021 33 10000 3.6 340 09:37 20.03.2020
6179 Clear 16 1021 33 10000 3.1 350 09:18 20.03.2020
6180 Clear 15 1021 36 10000 2.6 350 08:42 20.03.2020
6181 Clear 12 1021 41 10000 1.5 0 08:22 20.03.2020
6182 Clear 11 1021 43 10000 3.67 348 07:48 20.03.2020
6183 Clear 11 1021 43 10000 3.67 348 07:30 20.03.2020
6184 Clear 10 1021 57 10000 1.5 0 06:58 20.03.2020
6185 Clear 8 1021 50 10000 3.67 348 06:40 20.03.2020
6186 Clouds 6 1020 60 10000 2.73 344 04:51 20.03.2020
6187 Clouds 7 1020 48 10000 2.73 344 03:21 20.03.2020
6188 Clouds 6 1021 41 10000 1.55 359 01:57 20.03.2020
6189 Clouds 7 1022 44 10000 1.83 352 00:59 20.03.2020
6190 Clouds 7 1022 44 10000 1.83 352 00:30 20.03.2020
6191 Clouds 7 1022 48 10000 1.83 352 23:47 19.03.2020
6192 Clouds 7 1022 48 10000 1.83 352 23:28 19.03.2020
6193 Clouds 7 1023 60 10000 1.45 23 22:57 19.03.2020
6194 Clouds 7 1023 60 10000 1.45 23 22:38 19.03.2020
6195 Clouds 8 1023 56 10000 1.45 23 22:19 19.03.2020
6196 Clouds 8 1023 56 10000 1.45 23 21:42 19.03.2020
6197 Clouds 9 1023 52 10000 1.45 23 21:20 19.03.2020
6198 Clouds 9 1023 52 10000 1.45 23 20:59 19.03.2020
6199 Clouds 9 1023 49 10000 1.45 23 20:41 19.03.2020
6200 Clouds 9 1023 49 10000 2.73 3 20:22 19.03.2020
6201 Clouds 10 1023 42 10000 2.73 3 19:55 19.03.2020
6202 Clouds 10 1023 39 10000 2.73 3 19:37 19.03.2020
6203 Clouds 10 1022 28 10000 2.73 3 19:19 19.03.2020
6204 Clouds 11 1022 28 10000 3.1 360 18:55 19.03.2020
6205 Clouds 11 1022 28 10000 3.1 360 18:37 19.03.2020
6206 Clouds 11 1022 28 10000 3.1 360 18:37 19.03.2020
6207 Clouds 11 1022 26 10000 4.1 360 18:19 19.03.2020
6208 Clouds 12 1022 24 10000 4.1 360 17:41 19.03.2020
6209 Clouds 13 1022 26 10000 6.2 340 17:19 19.03.2020
6210 Clouds 14 1024 37 10000 7.2 50 16:44 19.03.2020
6211 Clouds 14 1024 37 10000 7.2 50 16:24 19.03.2020
6212 Clouds 14 1022 30 10000 4.1 330 15:54 19.03.2020
6213 Clouds 14 1022 30 10000 4.1 340 15:36 19.03.2020
6214 Clouds 14 1023 33 10000 5.1 340 15:18 19.03.2020
6215 Clouds 14 1024 38 10000 10.3 50 14:42 19.03.2020
6216 Clouds 14 1023 36 10000 5.1 360 14:20 19.03.2020
6217 Clouds 14 1024 35 10000 8.2 30 13:41 19.03.2020
6218 Clouds 14 1024 36 10000 5.1 360 13:19 19.03.2020
6219 Clouds 14 1024 36 10000 5.1 360 12:57 19.03.2020
6220 Clouds 14 1024 33 10000 6.2 340 12:39 19.03.2020
6221 Clouds 14 1024 41 10000 6.2 340 12:21 19.03.2020
6222 Clouds 13 1024 41 10000 6.2 360 11:42 19.03.2020
6223 Clouds 13 1024 41 10000 6.2 350 11:24 19.03.2020
6224 Clouds 13 1025 43 10000 6.2 360 10:57 19.03.2020
6225 Clouds 13 1025 43 10000 6.2 360 10:38 19.03.2020
6226 Clouds 12 1025 41 10000 5.1 350 10:19 19.03.2020
6227 Clouds 12 1026 43 10000 5.1 360 09:45 19.03.2020
6228 Clouds 12 1026 43 10000 5.1 360 09:27 19.03.2020
6229 Clouds 11 1026 47 10000 5.1 360 08:59 19.03.2020
6230 Clouds 11 1026 50 10000 6.2 360 08:41 19.03.2020
6231 Clouds 10 1026 53 10000 5.1 340 08:19 19.03.2020
6232 Clouds 10 1026 53 10000 6.17 11 07:44 19.03.2020
6233 Clouds 10 1026 53 10000 6.17 11 07:25 19.03.2020
6234 Clouds 8 1025 70 10000 6.17 11 06:35 19.03.2020
6235 Clouds 8 1025 70 10000 1.5 0 05:48 19.03.2020
6236 Clouds 8 1025 75 10000 1.5 0 04:57 19.03.2020
6237 Clouds 8 1025 65 10000 1.5 0 04:39 19.03.2020
6238 Clouds 9 1025 70 10000 1.5 0 02:49 19.03.2020
6239 Clouds 9 1025 65 10000 1.5 0 01:21 19.03.2020
6240 Clouds 9 1025 70 10000 1.5 0 00:28 19.03.2020
6241 Clouds 9 1026 61 10000 1.5 0 23:48 18.03.2020
6242 Clouds 9 1026 61 10000 1.5 0 23:30 18.03.2020
6243 Clouds 9 1025 53 10000 1.5 0 22:56 18.03.2020
6244 Clouds 9 1025 53 10000 1.5 0 22:38 18.03.2020
6245 Clouds 9 1025 57 10000 2.1 360 22:20 18.03.2020
6246 Clouds 9 1025 53 10000 3.1 10 21:42 18.03.2020
6247 Clouds 9 1025 53 10000 3.1 10 21:21 18.03.2020
6248 Clouds 9 1025 53 10000 2.1 330 20:59 18.03.2020
6249 Clouds 10 1025 53 10000 1.5 0 20:40 18.03.2020
6250 Clouds 10 1025 53 10000 1.5 0 20:40 18.03.2020
6251 Clouds 10 1025 50 10000 2.1 340 20:20 18.03.2020
6252 Clouds 10 1025 50 10000 2.1 340 19:58 18.03.2020
6253 Clouds 10 1024 50 10000 2.6 10 19:39 18.03.2020
6254 Clouds 10 1024 53 10000 1.5 0 19:20 18.03.2020
6255 Clouds 10 1024 50 10000 1.5 0 18:41 18.03.2020
6256 Clouds 11 1024 54 10000 2.6 360 18:21 18.03.2020
6257 Clouds 11 1024 53 10000 8.7 20 17:59 18.03.2020
6258 Clouds 12 1023 47 10000 3.6 10 17:41 18.03.2020
6259 Clouds 12 1024 54 10000 11.3 40 17:22 18.03.2020
6260 Clouds 13 1022 41 10000 4.6 20 16:58 18.03.2020
6261 Clouds 13 1024 54 10000 8.7 60 16:40 18.03.2020
6262 Clouds 14 1022 44 10000 5.1 30 16:20 18.03.2020
6263 Clouds 14 1022 44 10000 5.1 30 16:20 18.03.2020
6264 Clouds 14 1021 39 10000 4.6 350 15:45 18.03.2020
6265 Clouds 14 1023 50 10000 9.3 60 15:23 18.03.2020
6266 Clouds 14 1021 42 10000 3.6 350 14:57 18.03.2020
6267 Clouds 15 1023 54 10000 8.7 70 14:39 18.03.2020
6268 Clouds 15 1023 54 10000 9.8 60 14:20 18.03.2020
6269 Clouds 15 1023 50 10000 9.3 30 13:39 18.03.2020
6270 Clouds 15 1023 51 10000 8.2 30 13:19 18.03.2020
6271 Clouds 15 1023 51 10000 8.2 30 13:19 18.03.2020
6272 Clouds 16 1021 31 10000 4.6 330 12:42 18.03.2020
6273 Clouds 16 1022 33 10000 5.1 330 12:20 18.03.2020
6274 Clear 16 1022 40 10000 5.1 330 11:57 18.03.2020
6275 Clear 16 1022 40 10000 5.1 330 11:37 18.03.2020
6276 Clear 15 1024 54 10000 7.7 40 11:18 18.03.2020
6277 Clear 14 1024 50 10000 7.2 30 10:54 18.03.2020
6278 Clear 14 1024 50 10000 7.2 30 10:36 18.03.2020
6279 Clear 15 1022 38 10000 1.53 48 10:18 18.03.2020
6280 Clear 14 1022 44 10000 1.53 48 09:41 18.03.2020
6281 Clear 13 1023 41 10000 1.53 48 09:22 18.03.2020
6282 Clear 13 1023 43 10000 1.53 48 08:40 18.03.2020
6283 Clear 11 1023 43 10000 2.51 1 08:21 18.03.2020
6284 Clear 9 1023 46 10000 2.42 7 07:49 18.03.2020
6285 Clear 10 1023 46 10000 2.42 7 07:31 18.03.2020
6286 Clear 8 1022 46 10000 2.42 7 06:55 18.03.2020
6287 Clear 7 1022 46 10000 2.42 7 06:37 18.03.2020
6288 Clear 6 1023 69 10000 1.5 0 05:37 18.03.2020
6289 Clear 6 1023 69 10000 2.51 359 04:38 18.03.2020
6290 Clear 6 1023 69 10000 2.51 359 03:21 18.03.2020
6291 Clear 6 1021 65 10000 2.51 359 02:36 18.03.2020
6292 Clear 6 1024 65 10000 1.5 0 01:42 18.03.2020
6293 Clear 6 1026 74 10000 1 0 00:43 18.03.2020
6294 Clear 7 1024 52 10000 1.5 0 00:21 18.03.2020
6295 Clear 7 1024 49 10000 1.5 0 23:42 17.03.2020
6296 Clear 7 1025 56 10000 1.5 0 23:20 17.03.2020
6297 Clear 7 1025 45 10000 1.5 0 22:45 17.03.2020
6298 Clear 8 1025 45 10000 1.5 0 22:26 17.03.2020
6299 Clear 8 1025 49 10000 1.5 0 21:44 17.03.2020
6300 Clear 8 1025 49 10000 1.5 0 21:25 17.03.2020
6301 Clear 9 1025 45 10000 1.5 0 20:58 17.03.2020
6302 Clear 9 1025 46 10000 1.5 0 20:38 17.03.2020
6303 Clear 9 1025 46 10000 1.5 0 20:38 17.03.2020
6304 Clear 9 1025 46 10000 1.5 0 20:19 17.03.2020
6305 Clear 10 1025 44 10000 1.5 0 19:42 17.03.2020
6306 Clear 10 1025 53 10000 1.5 0 19:20 17.03.2020
6307 Clear 10 1025 53 10000 1.5 0 18:58 17.03.2020
6308 Clear 10 1025 44 10000 1.5 0 18:40 17.03.2020
6309 Clear 11 1025 44 10000 2.6 350 18:21 17.03.2020
6310 Clear 11 1025 35 10000 3.1 350 17:56 17.03.2020
6311 Clear 11 1025 35 10000 3.1 350 17:38 17.03.2020
6312 Clear 12 1025 35 10000 3.1 360 17:19 17.03.2020
6313 Clear 13 1025 30 10000 3.6 350 16:42 17.03.2020
6314 Clear 13 1026 30 10000 4.1 330 16:19 17.03.2020
6315 Clear 13 1026 33 10000 4.6 350 15:47 17.03.2020
6316 Clear 13 1026 33 10000 4.6 350 15:23 17.03.2020
6317 Clear 14 1026 33 10000 5.1 350 14:49 17.03.2020
6318 Clear 14 1026 33 10000 5.1 350 14:30 17.03.2020
6319 Clouds 13 1026 33 10000 5.1 340 13:58 17.03.2020
6320 Clouds 13 1027 35 10000 6.2 340 13:40 17.03.2020
6321 Clouds 13 1027 37 10000 5.1 340 13:22 17.03.2020
6322 Clouds 13 1028 37 10000 5.1 330 12:47 17.03.2020
6323 Clouds 13 1028 41 10000 4.6 340 12:25 17.03.2020
6324 Clouds 13 1028 41 10000 4.6 340 11:57 17.03.2020
6325 Clouds 12 1028 44 10000 5.1 350 11:39 17.03.2020
6326 Clouds 12 1029 43 10000 5.1 340 11:20 17.03.2020
6327 Clouds 11 1029 46 10000 4.1 340 10:54 17.03.2020
6328 Clouds 11 1029 46 10000 4.1 340 10:36 17.03.2020
6329 Clouds 11 1029 46 10000 4.6 350 10:18 17.03.2020
6330 Clouds 11 1029 46 10000 3.6 350 09:45 17.03.2020
6331 Clouds 10 1030 46 10000 4.1 350 09:20 17.03.2020
6332 Clouds 10 1030 47 10000 4.1 350 08:57 17.03.2020
6333 Clouds 9 1030 50 10000 3.6 340 08:39 17.03.2020
6334 Clouds 8 1030 53 10000 2.6 340 08:18 17.03.2020
6335 Clouds 8 1030 57 10000 3.6 340 07:47 17.03.2020
6336 Clouds 8 1029 56 10000 3.6 340 07:20 17.03.2020
6337 Clouds 7 1029 56 10000 2.6 350 06:45 17.03.2020
6338 Clouds 7 1029 56 10000 5.1 330 06:25 17.03.2020
6339 Clouds 6 1028 57 10000 6.2 350 05:20 17.03.2020
6340 Clouds 7 1028 57 10000 5.1 340 03:31 17.03.2020
6341 Clouds 7 1028 58 10000 5.1 340 01:50 17.03.2020
6342 Clouds 7 1028 58 10000 5.1 340 01:31 17.03.2020
6343 Clouds 7 1028 59 10000 5.1 340 00:52 17.03.2020
6344 Clouds 7 1028 59 10000 6.2 350 00:18 17.03.2020
6345 Clouds 8 1029 61 10000 9.8 20 23:34 16.03.2020
6346 Clouds 8 1028 49 10000 5.1 360 22:58 16.03.2020
6347 Clouds 8 1029 61 10000 11.3 20 22:38 16.03.2020
6348 Clouds 8 1028 52 10000 5.1 340 22:19 16.03.2020
6349 Clouds 8 1028 49 10000 7.7 350 21:44 16.03.2020
6350 Clouds 8 1028 49 10000 7.7 350 21:25 16.03.2020
6351 Clouds 8 1028 49 10000 5.1 350 20:59 16.03.2020
6352 Clouds 8 1029 49 10000 7.7 350 20:39 16.03.2020
6353 Clouds 8 1028 49 10000 6.2 350 20:20 16.03.2020
6354 Clouds 8 1028 49 10000 6.2 350 19:46 16.03.2020
6355 Clouds 8 1028 49 10000 6.2 350 19:24 16.03.2020
6356 Clouds 8 1028 49 10000 6.2 350 18:59 16.03.2020
6357 Clouds 8 1028 49 10000 5.1 360 18:39 16.03.2020
6358 Clouds 8 1028 49 10000 5.1 360 18:19 16.03.2020
6359 Clouds 8 1027 49 10000 5.1 340 17:46 16.03.2020
6360 Clouds 8 1027 49 10000 5.1 340 17:25 16.03.2020
6361 Clouds 9 1027 46 10000 6.2 360 16:56 16.03.2020
6362 Rain 9 1027 46 10000 6.2 350 16:37 16.03.2020
6363 Rain 9 1026 46 10000 7.2 360 16:19 16.03.2020
6364 Rain 9 1027 46 10000 7.7 360 15:42 16.03.2020
6365 Rain 9 1027 46 10000 7.7 360 15:23 16.03.2020
6366 Rain 9 1027 46 10000 7.7 360 15:23 16.03.2020
6367 Rain 9 1027 49 10000 12.9 20 14:45 16.03.2020
6368 Rain 9 1026 40 10000 9.3 360 14:20 16.03.2020
6369 Rain 10 1025 50 10000 9.3 360 13:47 16.03.2020
6370 Rain 10 1025 50 10000 9.3 360 13:27 16.03.2020
6371 Rain 9 1026 50 10000 8.7 360 12:57 16.03.2020
6372 Rain 10 1026 53 10000 9.8 360 12:38 16.03.2020
6373 Rain 9 1027 53 10000 8.7 360 12:20 16.03.2020
6374 Rain 9 1027 53 10000 9.3 10 11:43 16.03.2020
6375 Rain 9 1027 57 10000 6.7 360 11:23 16.03.2020
6376 Rain 8 1027 61 10000 7.7 360 10:44 16.03.2020
6377 Rain 8 1027 61 10000 7.7 360 10:24 16.03.2020
6378 Clouds 9 1026 61 10000 5.1 10 09:56 16.03.2020
6379 Rain 8 1026 61 10000 5.1 350 09:37 16.03.2020
6380 Rain 8 1026 66 10000 7.7 350 09:19 16.03.2020
6381 Drizzle 8 1025 75 10000 5.1 360 08:40 16.03.2020
6382 Drizzle 8 1025 75 10000 4.1 350 08:21 16.03.2020
6383 Rain 7 1024 75 9000 4.1 360 07:42 16.03.2020
6384 Rain 7 1024 75 9000 4.1 360 07:19 16.03.2020
6385 Rain 7 1023 81 9000 6.2 10 06:29 16.03.2020
6386 Rain 7 1023 81 10000 5.1 360 05:59 16.03.2020
6387 Drizzle 8 1021 76 10000 4.6 350 04:21 16.03.2020
6388 Clouds 9 1020 76 10000 4.1 340 01:46 16.03.2020
6389 Rain 9 1019 71 10000 4.1 340 00:45 16.03.2020
6390 Rain 9 1019 71 10000 4.1 340 00:26 16.03.2020
6391 Rain 9 1019 76 10000 4.1 340 23:40 15.03.2020
6392 Rain 9 1019 76 8000 4.6 330 23:19 15.03.2020
6393 Drizzle 10 1018 66 10000 3.6 330 22:42 15.03.2020
6394 Clouds 10 1018 76 10000 11.8 40 22:21 15.03.2020
6395 Clouds 11 1017 62 10000 1.5 0 21:39 15.03.2020
6396 Clouds 11 1017 62 10000 1.5 0 21:21 15.03.2020
6397 Clouds 11 1017 66 10000 1.5 0 20:58 15.03.2020
6398 Clouds 11 1017 66 10000 1.5 0 20:40 15.03.2020
6399 Clouds 11 1017 66 10000 2.1 350 20:19 15.03.2020
6400 Clouds 11 1017 66 10000 2.1 350 19:55 15.03.2020
6401 Clouds 11 1016 66 10000 2.1 310 19:37 15.03.2020
6402 Clouds 11 1016 62 10000 2.1 350 19:18 15.03.2020
6403 Clouds 11 1016 67 10000 3.1 350 18:42 15.03.2020
6404 Clouds 12 1016 67 10000 3.1 50 18:24 15.03.2020
6405 Clouds 12 1016 67 10000 3.1 50 17:59 15.03.2020
6406 Clouds 12 1015 67 10000 3.6 60 17:39 15.03.2020
6407 Clouds 12 1016 71 10000 9.3 10 17:20 15.03.2020
6408 Clouds 13 1015 67 10000 2.6 330 16:55 15.03.2020
6409 Clouds 13 1014 67 10000 3.1 320 16:37 15.03.2020
6410 Clouds 13 1016 71 10000 11.3 30 16:18 15.03.2020
6411 Clouds 14 1014 63 10000 6.2 340 15:42 15.03.2020
6412 Clouds 14 1014 63 10000 6.2 340 15:22 15.03.2020
6413 Clouds 15 1013 63 10000 6.2 350 14:47 15.03.2020
6414 Clouds 15 1013 63 10000 6.2 350 14:28 15.03.2020
6415 Clouds 16 1013 63 10000 7.2 360 13:59 15.03.2020
6416 Clouds 16 1013 63 10000 7.2 360 13:39 15.03.2020
6417 Clouds 16 1013 63 10000 7.2 360 13:39 15.03.2020
6418 Clouds 16 1013 63 10000 7.2 360 13:21 15.03.2020
6419 Clouds 16 1013 63 10000 7.2 350 12:57 15.03.2020
6420 Clouds 16 1013 59 10000 7.2 330 12:38 15.03.2020
6421 Clouds 17 1013 56 10000 6.2 350 12:20 15.03.2020
6422 Clouds 17 1013 59 10000 6.2 330 11:40 15.03.2020
6423 Clouds 17 1013 59 10000 6.2 340 11:22 15.03.2020
6424 Clouds 17 1013 59 10000 6.2 330 10:56 15.03.2020
6425 Clouds 17 1013 59 10000 6.2 330 10:38 15.03.2020
6426 Clouds 17 1013 59 10000 6.2 330 10:20 15.03.2020
6427 Clouds 17 1012 59 10000 4.1 350 09:41 15.03.2020
6428 Clouds 17 1012 59 10000 4.1 350 09:22 15.03.2020
6429 Clouds 17 1012 55 10000 2.07 20 08:54 15.03.2020
6430 Clouds 17 1012 59 10000 3.34 13 08:36 15.03.2020
6431 Clouds 15 1012 67 10000 2.88 7 08:18 15.03.2020
6432 Clouds 14 1011 82 10000 2.88 7 07:44 15.03.2020
6433 Clouds 14 1011 82 10000 2.88 7 06:54 15.03.2020
6434 Clouds 13 1011 81 10000 2.88 7 06:24 15.03.2020
6435 Clouds 12 1010 81 10000 1.5 0 05:43 15.03.2020
6436 Clouds 12 1010 81 10000 1.5 0 04:47 15.03.2020
6437 Clouds 12 1010 81 10000 1.5 0 04:28 15.03.2020
6438 Clouds 12 1010 87 10000 1.21 338 03:54 15.03.2020
6439 Clouds 13 1010 76 10000 1.21 338 02:48 15.03.2020
6440 Clouds 13 1011 81 10000 0.5 348 01:50 15.03.2020
6441 Clouds 14 1011 71 10000 0.36 28 00:51 15.03.2020
6442 Clouds 14 1011 71 10000 0.36 28 00:28 15.03.2020
6443 Clouds 14 1011 76 10000 0.36 28 23:58 14.03.2020
6444 Clouds 14 1011 71 10000 0.36 28 23:37 14.03.2020
6445 Clouds 14 1012 71 10000 1.14 162 23:18 14.03.2020
6446 Clouds 15 1012 71 10000 1.14 162 22:44 14.03.2020
6447 Clouds 15 1012 71 10000 1.14 162 22:26 14.03.2020
6448 Clouds 15 1012 71 10000 1.14 162 21:57 14.03.2020
6449 Clouds 15 1012 72 10000 1.14 162 21:37 14.03.2020
6450 Clouds 16 1012 72 10000 1.14 162 21:18 14.03.2020
6451 Clouds 16 1012 72 10000 1.14 162 20:59 14.03.2020
6452 Clouds 16 1012 67 10000 1.14 162 20:41 14.03.2020
6453 Clouds 16 1012 67 10000 2.39 210 20:20 14.03.2020
6454 Clouds 16 1012 67 10000 2.39 210 19:59 14.03.2020
6455 Clouds 16 1012 63 10000 2.39 210 19:40 14.03.2020
6456 Clouds 16 1012 63 10000 2.39 210 19:20 14.03.2020
6457 Clouds 17 1011 63 10000 2.39 210 18:39 14.03.2020
6458 Clouds 17 1011 55 10000 3.1 200 18:19 14.03.2020
6459 Clouds 18 1011 48 10000 3.6 190 17:41 14.03.2020
6460 Clouds 18 1011 45 10000 3.6 190 17:21 14.03.2020
6461 Clouds 19 1011 45 10000 3.6 190 16:57 14.03.2020
6462 Clouds 20 1011 49 10000 4.1 180 16:38 14.03.2020
6463 Clouds 20 1011 40 10000 3.1 200 16:18 14.03.2020
6464 Clouds 21 1011 38 10000 2.6 210 15:28 14.03.2020
6465 Clouds 21 1011 35 10000 3.1 200 14:59 14.03.2020
6466 Clouds 21 1011 35 10000 3.1 200 14:59 14.03.2020
6467 Clouds 21 1011 38 10000 3.1 210 14:39 14.03.2020
6468 Clouds 21 1011 35 10000 3.6 200 14:20 14.03.2020
6469 Clouds 21 1011 35 10000 3.6 200 13:56 14.03.2020
6470 Clouds 21 1011 38 10000 3.6 210 13:38 14.03.2020
6471 Clouds 21 1011 40 10000 3.1 200 13:19 14.03.2020
6472 Clouds 22 1012 38 10000 3.1 200 12:44 14.03.2020
6473 Clouds 22 1012 33 10000 2.1 200 12:25 14.03.2020
6474 Clouds 22 1013 33 10000 1.5 0 11:45 14.03.2020
6475 Clouds 22 1013 38 10000 1.5 0 11:26 14.03.2020
6476 Clear 22 1013 40 10000 1.5 0 10:55 14.03.2020
6477 Clear 22 1013 40 10000 1.5 0 10:36 14.03.2020
6478 Clear 20 1013 40 10000 1.5 0 10:18 14.03.2020
6479 Clear 20 1013 43 10000 1.5 0 09:41 14.03.2020
6480 Clear 20 1013 43 10000 0.14 114 09:22 14.03.2020
6481 Clear 19 1013 48 10000 1.5 0 08:47 14.03.2020
6482 Clear 19 1013 48 10000 1.5 0 08:27 14.03.2020
6483 Clear 16 1013 67 10000 1.5 0 07:45 14.03.2020
6484 Clear 15 1012 66 10000 2.6 340 07:23 14.03.2020
6485 Clear 14 1012 66 10000 2.6 340 06:59 14.03.2020
6486 Clear 12 1012 81 10000 1.5 0 06:39 14.03.2020
6487 Clear 12 1011 76 10000 1.46 6 04:57 14.03.2020
6488 Clear 12 1012 81 10000 1.46 6 03:40 14.03.2020
6489 Clear 12 1011 71 10000 1.46 6 02:53 14.03.2020
6490 Clear 13 1011 71 10000 2.6 330 01:50 14.03.2020
6491 Clear 13 1011 76 10000 1.57 346 00:36 14.03.2020
6492 Clear 14 1010 62 10000 2.1 340 23:44 13.03.2020
6493 Clear 14 1010 62 10000 2.1 340 23:24 13.03.2020
6494 Clear 14 1010 54 10000 2.1 330 22:46 13.03.2020
6495 Clear 15 1010 54 10000 2.1 330 22:24 13.03.2020
6496 Clear 15 1010 58 10000 2.6 310 21:42 13.03.2020
6497 Clear 15 1010 55 10000 2.6 320 21:21 13.03.2020
6498 Clear 15 1010 55 10000 2.6 320 20:56 13.03.2020
6499 Clear 16 1010 51 10000 2.6 350 20:37 13.03.2020
6500 Clear 16 1010 55 10000 1.5 350 20:18 13.03.2020
6501 Clear 16 1011 58 10000 1 270 19:42 13.03.2020
6502 Clear 16 1009 48 10000 5.1 330 19:23 13.03.2020
6503 Clear 17 1009 42 10000 5.1 330 18:44 13.03.2020
6504 Clear 17 1009 42 10000 5.1 330 18:25 13.03.2020
6505 Clear 19 1008 35 10000 5.1 330 17:43 13.03.2020
6506 Clear 20 1008 33 10000 6.2 330 17:22 13.03.2020
6507 Clear 21 1008 33 10000 6.2 330 16:59 13.03.2020
6508 Clear 21 1008 31 10000 6.2 350 16:39 13.03.2020
6509 Clear 21 1008 31 10000 7.2 360 16:21 13.03.2020
6510 Clear 21 1008 31 10000 7.2 360 15:54 13.03.2020
6511 Clear 21 1008 29 10000 7.2 350 15:36 13.03.2020
6512 Clear 21 1010 40 10000 7.2 50 15:18 13.03.2020
6513 Clear 21 1009 29 10000 8.2 340 14:40 13.03.2020
6514 Clear 22 1009 29 10000 8.2 340 14:22 13.03.2020
6515 Clear 22 1011 37 10000 6.7 50 13:55 13.03.2020
6516 Clear 22 1009 29 10000 7.2 340 13:37 13.03.2020
6517 Clear 21 1010 31 10000 7.2 340 13:18 13.03.2020
6518 Clear 21 1010 31 10000 7.7 340 12:39 13.03.2020
6519 Clear 21 1010 31 10000 7.2 340 12:21 13.03.2020
6520 Clear 21 1010 31 10000 7.2 340 11:57 13.03.2020
6521 Clear 21 1011 33 10000 7.2 350 11:37 13.03.2020
6522 Clear 20 1011 35 10000 6.2 350 11:19 13.03.2020
6523 Clear 20 1011 37 10000 7.2 340 10:47 13.03.2020
6524 Clear 20 1011 37 10000 7.2 340 10:26 13.03.2020
6525 Clear 19 1012 37 10000 6.2 330 09:56 13.03.2020
6526 Clear 18 1012 37 10000 5.1 330 09:38 13.03.2020
6527 Clear 19 1012 40 10000 4.1 330 09:19 13.03.2020
6528 Clear 18 1012 40 10000 2.6 310 08:42 13.03.2020
6529 Clear 16 1012 42 10000 2.1 320 08:22 13.03.2020
6530 Clear 15 1012 45 10000 4.1 330 07:47 13.03.2020
6531 Clear 15 1012 45 10000 4.1 330 07:27 13.03.2020
6532 Clear 15 1011 45 10000 3.1 320 06:47 13.03.2020
6533 Clear 14 1011 45 10000 3.1 320 06:26 13.03.2020
6534 Clear 13 1011 51 10000 3.1 330 05:49 13.03.2020
6535 Clear 13 1012 51 10000 4.6 340 05:20 13.03.2020
6536 Clear 14 1011 54 10000 4.6 340 04:37 13.03.2020
6537 Clear 13 1013 54 10000 5.1 360 02:58 13.03.2020
6538 Clear 13 1014 58 10000 1.5 0 01:43 13.03.2020
6539 Clear 13 1014 58 10000 1.5 0 01:18 13.03.2020
6540 Clear 13 1014 58 10000 1.5 0 00:47 13.03.2020
6541 Clear 13 1014 58 10000 1.5 0 00:23 13.03.2020
6542 Clear 14 1014 51 10000 1.5 0 23:48 12.03.2020
6543 Clear 14 1014 51 10000 1.5 0 23:26 12.03.2020
6544 Clear 14 1015 51 10000 2.1 50 22:56 12.03.2020
6545 Clear 14 1015 51 10000 1.5 0 22:38 12.03.2020
6546 Clear 14 1015 48 10000 5.1 350 22:19 12.03.2020
6547 Clear 14 1015 45 10000 6.2 340 21:43 12.03.2020
6548 Clear 15 1015 45 10000 6.2 340 21:24 12.03.2020
6549 Clear 15 1015 42 10000 3.6 330 20:56 12.03.2020
6550 Clear 15 1015 44 10000 4.6 320 20:37 12.03.2020
6551 Clear 15 1015 44 10000 6.2 320 20:18 12.03.2020
6552 Clear 14 1015 44 10000 6.2 330 19:39 12.03.2020
6553 Clear 15 1015 44 10000 5.1 330 19:20 12.03.2020
6554 Clear 15 1015 42 10000 5.1 310 18:43 12.03.2020
6555 Clear 15 1015 42 10000 5.1 310 18:43 12.03.2020
6556 Clear 15 1015 42 10000 4.6 320 18:24 12.03.2020
6557 Clear 15 1015 45 10000 5.1 330 17:57 12.03.2020
6558 Clear 16 1015 45 10000 5.1 330 17:38 12.03.2020
6559 Clear 16 1015 42 10000 4.6 330 17:19 12.03.2020
6560 Clear 17 1015 42 10000 4.6 330 16:54 12.03.2020
6561 Clouds 17 1015 42 10000 5.7 340 16:36 12.03.2020
6562 Clouds 17 1016 39 10000 4.6 340 16:18 12.03.2020
6563 Clouds 18 1016 42 10000 4.1 340 15:43 12.03.2020
6564 Clouds 18 1016 42 10000 4.1 340 15:24 12.03.2020
6565 Clouds 18 1016 37 10000 5.1 340 14:39 12.03.2020
6566 Clouds 18 1017 40 10000 4.1 350 14:19 12.03.2020
6567 Clouds 18 1017 40 10000 5.1 360 13:41 12.03.2020
6568 Clouds 18 1017 40 10000 5.1 360 13:22 12.03.2020
6569 Clouds 18 1017 39 10000 5.7 340 12:56 12.03.2020
6570 Clouds 18 1017 42 10000 5.7 350 12:38 12.03.2020
6571 Clouds 18 1018 42 10000 4.6 350 12:20 12.03.2020
6572 Clouds 17 1018 42 10000 4.6 350 11:56 12.03.2020
6573 Clouds 17 1018 42 10000 5.1 340 11:37 12.03.2020
6574 Clouds 17 1019 48 10000 4.6 350 11:19 12.03.2020
6575 Clouds 17 1019 48 10000 4.6 350 10:58 12.03.2020
6576 Clouds 16 1019 45 10000 3.6 340 10:40 12.03.2020
6577 Clouds 16 1018 48 10000 3.6 330 10:22 12.03.2020
6578 Clear 16 1019 48 10000 3.6 330 09:45 12.03.2020
6579 Clear 15 1019 48 10000 3.6 330 09:25 12.03.2020
6580 Clear 15 1019 51 10000 4.1 340 08:43 12.03.2020
6581 Clear 13 1019 51 10000 4.1 340 08:20 12.03.2020
6582 Clear 12 1019 54 10000 3.1 360 07:53 12.03.2020
6583 Clear 11 1018 62 10000 3.1 350 07:24 12.03.2020
6584 Clear 11 1018 62 10000 3.1 350 06:59 12.03.2020
6585 Clear 9 1017 62 10000 1.5 0 05:48 12.03.2020
6586 Clear 9 1017 66 10000 1.5 0 05:25 12.03.2020
6587 Clear 9 1018 87 10000 1.5 0 02:41 12.03.2020
6588 Clear 9 1018 87 10000 2.92 352 01:31 12.03.2020
6589 Clear 9 1018 81 10000 1.5 0 00:47 12.03.2020
6590 Clear 9 1018 81 10000 1.5 0 00:27 12.03.2020
6591 Clear 9 1018 87 10000 1.5 0 23:47 11.03.2020
6592 Clear 10 1018 87 10000 1.5 0 23:25 11.03.2020
6593 Rain 10 1018 81 10000 1.5 0 22:48 11.03.2020
6594 Rain 10 1018 81 10000 1.5 0 22:30 11.03.2020
6595 Clear 10 1018 87 10000 1.5 0 21:59 11.03.2020
6596 Clear 10 1018 87 10000 1.5 0 21:41 11.03.2020
6597 Clear 10 1018 87 10000 1.5 0 21:22 11.03.2020
6598 Clear 10 1018 87 10000 1.5 0 20:58 11.03.2020
6599 Clouds 11 1018 81 10000 1.5 0 20:39 11.03.2020
6600 Clouds 11 1018 81 10000 1.5 0 20:20 11.03.2020
6601 Clouds 11 1018 81 10000 1.5 0 19:57 11.03.2020
6602 Clouds 11 1018 81 10000 1.5 0 19:38 11.03.2020
6603 Clouds 12 1017 82 10000 1.97 339 19:20 11.03.2020
6604 Clouds 12 1017 76 10000 1.97 339 18:43 11.03.2020
6605 Clouds 12 1017 76 10000 1.97 339 18:24 11.03.2020
6606 Clouds 13 1017 76 10000 1.97 339 17:59 11.03.2020
6607 Clouds 13 1017 67 10000 1.97 339 17:39 11.03.2020
6608 Clouds 14 1017 71 10000 1.66 193 17:21 11.03.2020
6609 Clouds 14 1016 71 10000 2.1 70 16:47 11.03.2020
6610 Clouds 14 1016 71 10000 2.1 70 16:24 11.03.2020
6611 Clouds 14 1016 71 10000 3.1 60 15:59 11.03.2020
6612 Clouds 14 1016 71 10000 3.1 60 15:59 11.03.2020
6613 Rain 14 1016 71 10000 3.1 70 15:41 11.03.2020
6614 Rain 14 1016 71 10000 3.1 70 15:22 11.03.2020
6615 Drizzle 14 1016 67 10000 3.6 80 14:44 11.03.2020
6616 Rain 14 1016 59 10000 3.6 170 14:23 11.03.2020
6617 Rain 14 1016 59 10000 3.6 170 14:23 11.03.2020
6618 Rain 14 1016 59 10000 3.6 170 13:57 11.03.2020
6619 Rain 14 1016 48 10000 2.6 180 13:38 11.03.2020
6620 Rain 15 1016 51 10000 2.6 200 13:20 11.03.2020
6621 Rain 15 1016 45 10000 2.6 180 12:40 11.03.2020
6622 Clouds 15 1018 55 10000 4.6 40 12:20 11.03.2020
6623 Clouds 15 1018 55 10000 4.6 40 11:56 11.03.2020
6624 Clouds 15 1016 48 10000 2.1 190 11:37 11.03.2020
6625 Clouds 15 1018 54 10000 4.6 40 11:19 11.03.2020
6626 Clouds 15 1017 48 10000 0.56 126 10:43 11.03.2020
6627 Clouds 15 1017 45 10000 0.56 126 10:19 11.03.2020
6628 Clouds 15 1017 51 10000 0.56 126 09:43 11.03.2020
6629 Clouds 14 1017 51 10000 0.56 126 09:25 11.03.2020
6630 Clouds 14 1017 51 10000 0.56 126 08:58 11.03.2020
6631 Clouds 14 1017 58 10000 0.56 126 08:40 11.03.2020
6632 Clouds 13 1017 58 10000 2.64 3 08:19 11.03.2020
6633 Clouds 12 1016 66 10000 2.64 3 07:44 11.03.2020
6634 Clouds 11 1016 66 10000 2.64 3 07:19 11.03.2020
6635 Clouds 10 1015 71 10000 2.64 3 06:46 11.03.2020
6636 Clouds 9 1015 71 10000 2.6 330 05:42 11.03.2020
6637 Clouds 9 1014 71 10000 2.46 348 04:52 11.03.2020
6638 Clouds 10 1015 71 10000 1 360 02:30 11.03.2020
6639 Clouds 10 1014 81 10000 3.2 325 01:43 11.03.2020
6640 Clouds 10 1014 81 10000 3.02 325 00:53 11.03.2020
6641 Clouds 11 1014 87 10000 3.02 325 00:21 11.03.2020
6642 Clouds 11 1014 81 10000 3.02 325 23:45 10.03.2020
6643 Clouds 11 1014 81 10000 1.35 282 23:22 10.03.2020
6644 Clouds 11 1014 81 10000 1.35 282 22:55 10.03.2020
6645 Clouds 11 1014 81 10000 1.35 282 22:36 10.03.2020
6646 Clouds 11 1014 81 10000 1.35 282 22:18 10.03.2020
6647 Clouds 11 1014 81 10000 1.35 282 21:55 10.03.2020
6648 Clouds 11 1014 81 10000 1.35 282 21:37 10.03.2020
6649 Clouds 11 1015 71 10000 1 230 21:18 10.03.2020
6650 Clouds 11 1013 87 10000 1.35 282 20:41 10.03.2020
6651 Clouds 11 1013 87 10000 1.7 195 20:19 10.03.2020
6652 Clouds 12 1013 81 10000 1.77 207 19:58 10.03.2020
6653 Clouds 12 1013 76 10000 1.77 207 19:40 10.03.2020
6654 Clouds 12 1012 71 10000 1.77 207 19:21 10.03.2020
6655 Clouds 12 1012 71 10000 1.77 207 18:54 10.03.2020
6656 Clouds 12 1012 66 10000 1.77 207 18:36 10.03.2020
6657 Clouds 13 1012 62 10000 1.77 207 18:18 10.03.2020
6658 Clouds 13 1012 62 10000 1.5 160 17:41 10.03.2020
6659 Clouds 14 1011 58 10000 4.1 170 17:22 10.03.2020
6660 Clouds 14 1011 54 10000 4.6 170 16:40 10.03.2020
6661 Clouds 14 1011 54 10000 4.6 170 16:20 10.03.2020
6662 Clouds